GFSSE_sfc_wetblb_000.txt.gz
Wetbulb
75.06 77.26 79.89 79.82 79.99 80.00 80.11 79.92 79.87 79.48 78.74 78.59 78.13 78.15 77.77 77.94 78.03 78.56 78.79 78.71 78.49 77.87 77.59 77.08 76.75 76.30 76.30 76.58 76.44 77.03 77.11 77.65 77.46 77.05 77.09 77.06 76.67 76.63 76.82 76.40 76.86 73.96 75.42
76.72 77.84 79.93 80.09 79.77 79.84 79.88 80.02 80.14 79.82 79.15 78.82 78.69 78.14 77.90 78.28 77.62 77.86 78.51 78.25 77.56 77.48 77.38 77.10 76.89 76.89 76.39 76.82 76.92 76.86 77.49 77.98 78.11 77.60 77.30 76.95 76.48 75.95 75.44 75.30 77.24 74.74 75.39
76.89 77.96 78.78 79.72 79.88 80.15 80.11 79.96 79.86 79.74 79.06 78.73 78.68 78.19 77.82 78.15 77.73 77.51 78.19 77.83 77.19 76.91 76.58 76.55 76.38 76.50 76.50 76.54 77.09 76.41 77.49 78.28 78.33 77.62 77.60 74.78 74.78 75.91 76.27 76.42 76.23 75.75 75.63
78.07 78.24 78.41 79.76 80.19 80.43 80.45 80.62 80.33 79.74 78.75 78.15 78.37 78.24 78.23 77.69 77.35 77.68 77.34 77.04 77.01 76.72 76.72 76.17 76.19 76.28 76.19 76.71 77.46 77.22 76.99 77.74 77.84 77.04 75.89 74.12 73.91 76.41 76.56 76.57 76.25 75.88 75.66
78.40 78.42 78.65 80.28 80.50 80.20 80.34 80.40 80.17 79.81 78.95 78.34 78.00 78.39 78.09 77.61 77.31 77.62 77.40 76.44 76.44 76.66 76.54 76.52 76.52 76.19 76.38 76.70 77.49 77.11 76.84 77.53 77.35 76.05 75.09 74.65 73.42 76.46 76.67 76.38 75.95 75.84 76.04
76.72 78.60 79.34 80.16 80.33 79.71 79.95 79.96 79.75 79.47 79.01 78.54 78.47 78.46 77.77 77.93 77.55 77.07 76.74 76.86 76.11 76.61 76.23 76.22 75.84 76.44 76.43 76.83 77.27 77.72 76.99 77.25 77.00 75.89 74.47 75.27 74.42 77.43 76.58 76.21 75.74 75.54 75.75
77.21 78.30 77.98 79.98 80.47 80.09 79.78 79.97 79.73 79.02 78.92 79.01 78.54 78.15 78.02 77.74 77.68 77.45 77.07 76.90 76.59 76.35 76.33 76.69 75.69 76.78 76.30 77.12 77.32 77.82 77.51 77.02 75.61 74.64 74.52 75.51 75.39 77.51 76.29 76.18 76.08 75.72 75.20
77.81 78.15 77.70 80.21 80.63 80.15 79.17 79.74 79.93 79.77 79.48 79.40 78.74 78.78 78.10 77.98 78.15 78.33 76.89 76.74 76.69 76.35 76.51 76.66 76.68 76.63 76.51 77.04 77.19 77.11 77.61 76.90 75.60 74.79 74.82 75.46 76.22 77.30 76.59 76.57 76.03 75.76 74.51
78.48 78.43 78.20 78.31 78.86 79.70 79.35 79.48 79.96 80.03 79.74 79.45 79.39 79.14 78.54 77.99 77.87 77.57 77.46 77.01 76.74 76.60 76.43 76.52 76.65 76.84 76.77 76.81 77.24 77.38 77.16 76.74 74.91 74.89 75.16 75.00 76.83 77.54 76.60 76.30 76.44 76.01 75.58
77.77 78.85 78.44 78.48 78.68 78.29 78.46 79.47 79.40 79.83 79.58 79.02 78.49 77.71 77.56 77.64 77.66 77.28 78.26 78.02 76.96 76.66 76.55 76.17 76.90 76.70 77.44 77.14 76.77 76.74 76.66 75.99 73.98 74.33 74.71 74.49 77.30 77.62 75.99 76.44 76.14 76.21 75.84
77.26 77.95 78.58 78.23 78.60 78.92 78.46 78.19 79.04 78.61 77.92 77.37 77.13 77.57 78.11 76.61 76.44 76.78 77.33 77.98 76.68 76.76 76.51 76.51 76.83 76.82 76.91 76.25 76.80 76.99 76.00 73.00 72.70 74.44 74.17 76.47 77.04 77.34 76.51 77.01 76.52 76.45 76.09
74.91 77.13 76.93 77.68 77.71 78.06 77.92 77.18 76.65 76.63 76.19 76.37 76.78 77.46 76.91 76.38 77.66 77.11 76.83 76.84 76.13 76.33 76.34 76.88 76.88 76.66 76.51 75.05 75.06 75.66 74.44 73.33 73.69 75.05 74.59 76.39 76.51 77.30 77.35 76.95 76.65 76.33 76.26
75.65 75.68 77.53 77.43 77.38 77.11 76.24 75.87 76.79 75.55 75.23 75.05 75.24 76.02 76.74 76.43 76.71 75.79 76.88 75.88 75.97 76.47 75.14 76.19 76.01 75.44 74.66 74.81 74.82 73.85 73.66 75.17 74.97 74.55 74.91 76.87 77.01 77.25 77.09 77.08 76.69 76.30 76.07
74.85 75.38 76.91 77.96 77.55 76.80 76.78 72.54 75.13 75.45 75.15 74.78 74.40 75.87 74.24 73.67 74.42 76.41 76.30 76.93 76.70 76.19 76.25 76.22 75.84 75.79 75.41 74.80 73.89 74.74 74.63 75.20 74.70 74.85 75.09 76.66 76.84 77.03 77.41 76.84 76.46 76.38 76.20
73.90 75.44 76.60 77.80 78.18 76.86 72.60 72.75 73.21 75.21 74.48 75.37 75.26 74.35 73.30 72.69 73.60 75.10 74.62 75.29 76.15 76.77 77.38 75.08 75.35 74.71 75.00 74.44 75.52 73.87 74.63 74.36 74.13 75.27 74.60 76.10 76.98 77.09 77.11 76.97 76.27 75.95 76.22
73.98 75.14 77.01 77.71 78.82 78.00 77.57 75.28 75.17 75.63 74.98 73.79 75.17 75.14 74.11 74.08 75.44 75.20 74.12 74.36 74.75 76.51 75.31 75.77 74.64 74.25 74.05 74.99 74.57 74.20 74.16 74.57 74.48 74.76 74.19 75.22 75.89 77.15 77.37 77.27 76.71 76.07 75.97
74.77 75.51 76.08 77.08 77.93 78.20 78.27 77.66 77.01 76.36 75.92 73.85 74.52 76.17 74.40 74.49 74.82 74.07 73.52 73.23 75.10 76.57 75.56 75.59 75.14 75.00 74.32 74.79 74.74 74.52 74.35 74.11 75.19 73.28 74.97 75.92 74.85 76.72 77.43 77.29 76.91 76.49 75.83
75.58 75.76 76.66 76.01 77.18 77.99 78.23 77.90 77.07 75.89 76.00 75.17 74.27 74.36 74.86 75.14 74.67 75.34 73.57 72.98 74.50 76.11 75.44 74.29 73.34 73.01 73.64 73.96 73.84 73.96 74.10 74.07 74.65 74.52 74.35 73.97 73.86 74.17 76.35 77.28 76.78 76.22 76.34
77.27 76.88 76.80 77.39 76.99 77.32 78.17 77.07 76.80 76.93 76.14 75.47 74.39 73.53 75.08 74.57 74.75 74.16 73.56 73.26 74.39 74.52 75.03 74.86 72.13 72.76 72.17 72.65 73.27 74.04 73.82 73.79 74.69 74.27 74.86 73.58 73.65 74.47 74.49 75.85 76.02 75.62 76.06
76.18 77.20 77.22 77.08 78.17 78.00 77.18 77.31 76.97 74.59 74.11 74.69 74.02 74.10 73.47 73.92 73.75 73.87 73.67 73.67 73.77 72.53 74.03 74.60 72.40 72.25 71.99 71.33 72.75 72.78 72.25 73.98 75.10 74.80 73.60 73.76 74.00 74.62 74.35 73.57 73.44 73.96 75.70
75.67 76.50 76.92 76.59 77.69 77.05 76.90 75.02 73.45 71.80 72.95 73.27 74.38 75.01 74.37 73.62 73.26 73.15 72.75 73.13 74.04 73.16 72.81 73.65 73.53 71.79 71.95 72.38 70.94 70.65 70.30 72.67 73.28 74.07 73.68 73.13 73.10 73.92 74.25 73.66 73.19 72.99 72.72
75.21 76.00 76.23 76.57 77.16 76.60 76.77 75.41 74.82 75.38 73.83 72.90 74.52 73.65 72.57 72.38 72.63 72.48 72.35 72.95 73.09 71.83 72.60 73.18 72.31 71.37 72.20 71.87 69.16 69.04 65.78 69.51 71.68 72.87 73.36 73.40 72.02 73.12 73.32 73.40 72.14 71.93 72.43
74.12 75.40 75.86 76.12 76.28 76.33 75.22 75.92 75.15 74.36 71.91 68.78 69.01 71.88 72.33 72.11 72.06 72.16 72.33 72.60 72.67 73.68 71.71 72.56 72.08 70.39 70.16 71.54 71.36 67.49 64.67 65.38 68.76 72.06 72.29 72.16 71.92 71.94 72.50 72.76 72.76 72.72 72.12
74.14 74.39 75.78 76.67 76.70 76.07 74.70 73.36 72.79 70.37 66.81 68.47 69.16 71.78 70.64 71.26 72.31 72.03 72.06 72.35 73.19 73.29 71.07 72.80 71.76 69.11 69.42 69.30 69.60 70.80 69.58 70.77 66.03 65.52 70.34 71.96 72.39 71.60 71.28 72.03 72.19 72.99 72.81
75.32 74.62 75.47 76.43 76.43 75.45 74.43 73.48 73.04 68.85 69.62 70.93 69.73 70.30 71.74 71.86 72.56 71.73 71.54 72.03 72.97 73.04 72.94 72.02 72.32 70.42 70.11 68.69 67.81 68.53 69.03 69.59 70.26 66.69 65.29 68.04 70.51 71.53 71.75 71.43 72.27 72.50 73.12
72.67 74.30 74.96 75.80 75.62 74.65 73.60 72.16 71.83 70.60 69.67 70.05 70.25 69.69 70.71 71.83 72.15 71.77 71.32 72.01 72.66 72.67 72.06 71.45 72.01 71.44 70.59 69.43 68.82 68.04 67.62 66.85 68.05 67.28 65.80 66.85 67.20 69.26 71.05 71.54 71.59 71.42 72.11

GFSSE_sfc_wetblb_006.txt.gz
Wetbulb
75.82 78.27 80.26 80.35 80.08 79.62 79.54 79.38 79.15 79.03 79.03 78.91 79.52 79.57 79.34 78.74 78.87 78.87 78.89 78.22 77.64 77.30 76.75 77.14 77.21 77.10 77.13 76.84 77.60 77.24 76.88 76.97 77.15 76.75 76.67 76.74 76.31 76.08 76.15 75.54 75.42 73.13 74.88
76.67 78.36 80.06 80.26 80.38 80.11 80.07 79.82 79.34 79.37 78.95 79.01 79.13 79.18 79.23 79.20 78.90 78.82 78.54 78.23 77.72 77.37 77.10 77.14 77.27 77.22 77.28 77.12 77.35 77.18 77.32 77.63 77.81 77.07 76.94 76.82 76.72 76.32 75.87 75.52 75.19 74.10 74.93
76.37 78.13 79.39 79.96 80.30 80.32 80.28 79.93 79.62 79.44 78.78 78.61 79.05 78.86 78.75 79.04 78.86 78.01 78.04 78.00 77.89 77.54 77.32 77.33 77.02 77.37 77.35 76.74 77.31 77.18 77.44 77.36 78.04 77.88 76.95 74.14 73.78 75.82 75.99 75.74 75.49 75.34 74.83
77.05 77.55 78.31 79.68 79.99 80.45 80.34 80.01 79.65 79.27 78.97 78.84 78.70 78.44 78.57 78.46 78.28 78.07 77.62 77.39 77.12 77.07 76.94 76.94 76.88 77.02 77.32 76.76 76.90 77.44 77.26 77.28 76.97 76.95 73.99 73.87 74.35 76.29 75.95 75.71 75.51 75.23 75.08
76.78 77.65 78.39 80.31 80.03 80.33 80.41 80.16 79.90 79.32 79.27 79.20 78.75 78.21 77.87 78.23 78.25 77.80 77.72 77.54 77.34 76.74 76.61 76.48 76.53 76.82 76.86 76.97 76.37 77.48 77.39 77.25 76.78 75.27 72.92 72.60 73.13 75.80 76.08 75.83 75.49 75.33 74.92
77.13 78.00 79.83 80.29 80.45 80.77 80.63 80.19 79.75 79.22 79.06 79.25 78.76 78.01 77.51 77.62 78.08 77.95 77.82 77.24 77.46 76.74 76.67 76.80 76.39 76.44 76.64 77.03 76.89 77.62 77.45 76.66 75.97 74.08 73.09 73.90 73.63 76.40 76.27 76.00 75.91 74.38 74.77
76.87 78.04 78.92 80.28 80.48 80.74 80.69 80.21 79.87 79.01 78.62 79.01 78.92 77.88 77.59 77.53 78.13 77.73 76.99 77.11 76.97 76.98 76.91 76.96 76.45 76.64 76.74 76.74 76.93 77.13 76.98 75.54 73.72 73.22 73.01 73.14 73.98 76.72 76.11 75.98 75.79 74.99 74.76
76.35 77.36 78.11 79.95 80.18 80.18 80.40 80.25 79.79 79.14 78.78 78.89 78.94 78.28 77.96 77.92 77.99 77.32 77.53 77.07 77.07 76.89 77.06 76.77 76.52 76.69 76.62 77.01 76.77 77.04 76.27 75.75 74.57 73.32 73.44 73.13 75.74 76.95 76.27 75.91 75.82 75.06 74.81
77.13 76.90 77.29 77.89 78.25 79.59 80.16 79.96 79.71 79.52 79.19 78.94 79.11 79.09 78.59 78.20 77.79 77.47 77.71 77.44 77.03 76.66 76.97 76.61 76.64 77.03 76.61 76.50 77.05 77.02 76.57 75.78 73.60 73.46 73.97 73.23 76.10 77.04 76.27 76.13 75.72 75.19 73.81
75.92 76.86 77.14 77.43 76.76 77.54 77.47 79.92 79.66 79.42 79.22 78.25 78.42 78.54 78.42 78.28 77.54 77.60 77.77 77.87 76.94 76.83 76.56 76.41 76.87 76.97 77.55 76.61 76.28 76.77 76.43 75.65 72.51 73.08 73.60 73.35 76.22 77.44 76.48 76.11 75.41 75.52 75.04
74.60 75.40 76.49 76.45 76.31 76.21 76.86 78.34 79.58 79.17 78.50 78.43 78.30 78.65 77.97 74.43 74.60 75.77 77.43 77.08 76.84 76.59 76.56 76.38 76.23 77.03 76.77 76.60 76.30 76.56 76.31 73.36 72.42 71.77 73.06 75.19 76.50 77.70 76.57 76.63 76.33 75.48 75.22
72.68 73.79 75.31 75.39 75.14 75.37 77.35 75.69 76.18 76.29 75.44 75.15 74.46 73.96 74.97 74.32 74.15 75.44 75.94 76.82 76.95 76.71 76.73 76.73 77.01 76.57 76.10 74.25 73.73 75.68 73.74 73.22 71.72 73.08 73.00 75.61 76.57 77.57 77.21 77.04 76.19 75.19 74.42
73.14 73.83 74.31 74.95 75.01 75.20 75.32 74.27 73.82 72.87 72.78 72.77 72.38 73.13 73.16 74.17 73.73 74.37 72.97 74.26 73.12 75.45 73.53 75.37 75.74 75.08 74.73 73.88 73.18 72.48 72.67 72.40 71.88 73.25 73.94 75.64 76.44 77.12 76.53 76.71 76.06 75.75 74.97
72.63 73.67 74.36 74.65 74.08 73.39 73.48 73.12 72.89 72.55 71.73 71.44 71.52 71.50 72.28 72.42 71.82 71.73 72.25 72.41 72.33 72.54 72.39 72.71 73.63 73.64 73.41 73.93 73.12 72.71 72.28 72.12 72.04 71.85 73.66 75.40 76.19 76.66 76.42 76.14 76.05 75.62 75.57
71.57 72.88 73.11 73.39 72.36 72.11 71.18 70.54 69.88 71.40 71.98 71.64 70.98 70.71 71.44 70.90 70.94 71.65 71.57 71.52 71.78 72.22 72.07 71.53 71.84 71.73 72.78 73.23 73.46 72.85 72.48 72.47 72.37 72.09 71.89 74.79 76.14 76.77 77.06 76.34 75.68 75.61 75.61
71.73 72.53 72.76 72.46 72.49 70.41 68.66 66.53 65.19 66.53 70.74 71.55 71.64 70.95 71.06 69.90 69.16 69.56 70.38 70.13 70.58 70.91 71.18 71.64 70.94 71.09 71.39 71.23 72.18 72.56 72.48 72.10 72.55 72.16 72.22 72.77 75.44 76.60 76.65 76.98 76.24 75.55 75.37
71.67 72.93 72.82 72.14 72.64 69.43 67.96 64.85 62.57 63.76 69.96 70.88 69.33 71.16 70.05 69.15 68.77 69.29 69.86 69.68 69.79 70.37 70.56 70.89 70.86 70.84 70.64 71.79 71.68 71.74 72.18 72.50 72.01 72.35 72.41 71.88 72.44 76.07 76.88 77.15 76.79 76.49 76.35
72.24 72.78 72.89 73.98 72.66 70.08 69.15 69.15 65.61 68.86 70.88 70.22 69.47 67.31 70.52 69.78 70.13 70.08 69.41 69.59 69.63 69.86 70.31 69.77 69.61 69.77 69.70 70.64 70.57 70.75 71.45 70.90 71.97 72.47 71.83 72.10 72.29 72.89 76.20 76.57 77.00 76.65 76.65
72.08 72.22 72.78 73.41 72.65 71.68 72.12 71.25 70.96 71.11 70.15 69.75 70.17 69.88 70.04 70.59 70.44 69.59 69.79 69.29 69.31 69.72 69.39 69.77 68.80 68.86 68.21 69.00 69.63 70.26 70.51 70.92 71.93 73.03 72.18 72.22 72.16 71.87 72.06 75.89 76.50 76.30 76.57
71.83 72.71 72.79 72.75 72.71 72.65 72.67 71.01 70.58 69.61 69.74 70.47 70.15 70.51 70.47 70.82 71.00 69.43 68.66 68.80 69.02 68.48 68.73 69.21 67.81 68.57 67.85 68.17 70.28 70.02 70.50 69.86 70.75 70.77 71.86 72.40 72.05 72.60 72.80 72.76 74.76 75.50 76.47
72.16 72.16 72.17 71.83 72.28 70.67 69.82 68.53 67.72 67.27 67.65 67.92 68.53 69.17 69.88 69.65 71.23 69.97 68.87 68.60 68.17 68.48 68.14 69.07 67.47 66.12 66.61 68.12 66.25 66.53 68.12 69.70 70.09 69.95 70.28 71.47 71.61 71.69 72.33 72.37 72.33 73.10 74.21
71.57 72.06 71.34 71.12 70.96 70.51 70.26 68.96 67.83 67.13 66.89 66.95 66.48 68.43 70.10 69.77 69.27 68.77 67.92 67.69 67.74 67.99 67.36 68.08 67.76 66.63 66.48 67.83 64.54 63.80 62.20 64.20 67.61 69.41 70.24 70.18 70.45 71.79 72.00 71.49 71.72 71.99 72.31
63.80 69.96 71.39 70.57 70.23 70.57 69.61 68.73 67.58 66.80 65.92 64.95 65.45 66.19 67.31 68.73 68.48 68.29 68.19 67.29 67.24 68.12 68.10 68.19 68.08 66.64 65.39 67.06 66.64 63.79 60.60 59.78 63.52 67.36 68.93 69.59 70.01 69.36 70.67 71.22 71.90 71.63 71.56
64.79 70.06 71.69 70.12 70.49 70.08 69.43 67.02 66.00 64.89 63.85 64.29 64.46 65.60 66.12 67.37 68.01 68.28 67.78 67.69 67.58 67.67 67.20 67.94 68.69 67.40 66.09 64.99 66.22 68.28 65.70 64.55 61.44 59.96 65.30 67.90 69.29 68.93 69.16 70.31 70.90 71.14 71.38
66.44 69.11 69.32 70.71 70.31 69.39 68.67 66.93 65.54 63.69 64.45 64.94 64.80 64.55 65.02 65.51 66.62 67.95 67.90 67.45 67.92 67.89 67.51 67.81 67.42 66.27 66.25 65.33 64.23 64.39 64.83 65.24 64.57 62.45 61.03 63.71 67.72 69.00 69.32 70.08 70.32 70.56 71.20
70.72 68.07 69.02 70.06 69.19 67.76 67.06 65.93 65.10 63.95 62.95 63.32 63.21 63.79 64.64 64.91 65.53 66.98 68.08 67.33 68.14 67.87 67.90 68.26 67.83 66.11 66.48 65.15 64.70 64.66 64.48 63.58 63.27 63.32 62.14 63.20 63.44 65.31 68.30 69.09 69.07 69.81 70.55

GFSSE_sfc_wetblb_009.txt.gz
Wetbulb
75.33 77.87 79.42 79.42 79.05 79.34 79.15 79.27 79.09 79.15 79.02 79.21 79.18 78.92 78.84 78.83 78.57 78.57 78.18 77.69 77.32 77.00 76.96 76.88 76.84 76.72 76.58 76.40 76.91 76.62 76.66 76.63 76.47 76.26 76.00 75.87 75.98 75.47 75.78 75.23 74.57 72.41 74.03
76.27 78.06 79.83 79.72 79.75 79.13 79.42 79.54 79.29 79.11 79.18 79.08 78.70 78.76 78.53 78.81 78.58 77.80 78.32 77.53 76.98 76.69 76.99 76.85 76.93 76.68 76.50 76.81 76.79 76.60 76.68 77.21 77.07 76.08 75.81 76.05 76.06 75.60 75.15 75.05 74.35 73.43 74.45
76.64 78.03 78.71 79.45 79.87 79.68 79.38 79.36 79.39 79.13 78.66 78.97 79.29 79.07 78.96 78.96 78.29 78.00 77.90 77.46 77.25 76.93 77.05 76.85 76.60 77.06 76.74 76.93 76.81 76.81 76.99 76.87 77.35 76.69 76.24 73.22 73.54 75.63 75.41 75.10 74.66 74.37 74.19
76.59 77.62 77.98 79.50 79.80 79.77 79.57 79.34 79.36 79.12 78.82 78.79 78.73 78.55 78.91 78.90 78.55 78.13 78.17 77.86 77.50 77.09 77.09 76.90 76.68 77.06 76.58 76.69 77.12 76.87 76.99 76.58 76.37 76.58 73.55 73.54 73.80 75.81 75.39 75.23 75.18 74.85 74.33
76.42 77.34 77.68 79.98 79.97 79.96 79.85 79.34 79.31 79.20 79.17 78.89 78.39 77.93 78.02 78.23 77.90 77.77 77.36 77.23 77.00 77.04 76.63 76.79 76.48 76.59 76.52 76.39 77.28 76.87 76.85 76.65 76.61 74.81 72.59 72.33 73.04 75.00 75.51 75.53 74.75 74.86 74.61
76.46 77.04 78.50 80.05 80.34 80.32 80.03 79.54 79.23 79.15 79.18 78.99 78.67 77.63 77.58 78.06 77.73 77.78 77.59 77.33 77.17 76.68 76.65 76.52 76.22 76.37 76.45 76.28 77.21 77.01 77.11 76.75 75.89 72.83 72.32 74.28 72.87 76.05 75.61 75.60 75.35 74.88 74.47
76.29 76.77 78.23 79.66 79.87 79.96 80.23 79.72 79.31 78.86 79.12 78.86 78.13 77.36 77.29 77.72 77.84 77.72 77.03 77.26 77.00 76.79 76.89 76.39 76.43 76.33 76.21 76.20 76.75 77.09 76.80 76.12 73.26 72.58 72.58 73.16 73.16 76.34 75.74 75.73 74.51 74.36 74.51
76.01 77.64 77.78 79.62 79.96 80.15 80.35 79.97 79.51 78.90 78.66 78.18 77.98 77.45 77.31 77.73 77.85 77.05 76.88 76.81 77.01 76.74 76.72 76.61 76.60 76.54 76.56 76.40 76.32 76.94 76.50 75.55 74.45 72.94 73.03 73.07 75.12 76.50 75.78 75.71 74.79 74.26 74.90
76.62 76.19 76.08 77.37 78.87 80.10 80.30 80.15 79.63 78.94 78.67 78.81 78.50 78.31 77.84 77.74 77.37 76.79 77.52 77.12 76.73 76.79 76.77 76.24 76.17 76.72 76.44 76.78 76.44 76.31 76.58 75.42 72.71 72.73 73.23 73.18 76.24 76.62 75.90 75.98 75.19 74.35 74.90
75.11 75.97 76.11 76.24 75.77 76.32 78.23 80.05 79.74 79.08 78.78 77.94 77.77 77.94 77.72 77.78 77.29 77.39 77.81 77.53 76.71 76.51 76.66 76.30 76.21 76.22 76.57 76.34 76.78 76.24 75.96 75.45 72.18 72.72 72.74 72.80 76.19 76.50 76.37 76.00 75.58 74.00 74.21
74.16 75.82 75.87 75.42 75.21 75.50 75.81 77.83 79.06 78.91 78.11 77.72 77.70 78.17 77.72 74.96 74.48 75.75 76.64 76.92 76.78 76.46 76.57 76.39 76.24 76.36 76.13 76.15 76.17 76.54 75.92 72.81 71.97 71.19 72.32 74.79 76.19 76.69 76.28 76.09 76.13 75.02 73.98
72.36 74.14 75.40 75.29 74.98 74.91 77.10 75.82 76.11 75.65 75.65 75.36 75.48 75.52 75.20 73.59 73.46 75.23 76.49 76.82 76.82 76.66 76.74 76.40 76.37 76.28 75.81 73.47 73.34 75.60 73.30 73.04 70.99 70.94 72.39 75.46 76.29 76.45 76.92 76.78 75.93 75.41 75.05
72.48 73.49 74.23 73.99 72.94 74.14 74.83 74.67 74.18 73.41 73.52 73.58 73.26 73.02 73.34 73.46 73.97 74.61 73.30 73.88 73.10 76.01 73.67 75.49 75.32 74.86 73.48 72.91 72.75 71.92 72.73 72.14 71.09 73.05 74.06 75.71 76.18 76.71 76.69 76.65 75.85 75.03 74.62
72.26 72.96 73.43 73.99 73.22 73.71 73.67 71.80 71.91 71.41 71.55 71.39 71.84 72.25 72.38 72.32 71.93 72.40 72.36 72.06 71.94 72.24 72.38 72.54 73.30 73.49 73.30 73.39 72.91 72.18 72.32 71.56 70.81 72.22 73.17 75.50 76.13 77.04 77.13 76.51 76.15 75.62 75.18
71.95 72.70 73.34 73.88 73.37 73.15 72.68 71.73 71.73 71.66 71.28 71.02 70.91 71.04 71.59 71.30 70.69 71.14 71.16 71.25 71.25 71.81 71.70 71.43 71.74 71.74 71.89 72.18 72.97 71.89 71.64 71.52 71.64 71.45 72.35 75.24 76.33 76.13 76.70 76.52 76.01 75.76 75.68
71.79 72.35 72.99 72.99 72.90 71.79 70.85 70.17 70.48 70.89 70.91 70.55 70.39 70.04 70.43 70.44 69.56 69.42 69.47 70.05 70.32 70.68 70.71 71.09 70.73 70.75 70.62 71.36 71.71 72.07 70.86 71.82 71.97 71.21 71.22 71.36 75.88 75.70 76.53 76.78 76.28 75.82 75.49
71.19 72.15 72.28 72.20 72.15 70.50 69.10 68.34 66.92 66.99 69.08 69.83 70.48 70.54 70.13 69.55 68.86 68.88 68.77 69.15 69.62 69.76 69.80 70.25 70.23 70.12 69.92 70.23 70.59 71.70 71.33 71.66 71.81 71.76 71.53 71.31 72.55 75.59 76.43 76.56 76.79 76.28 76.35
70.70 71.83 72.28 73.32 72.04 69.68 68.23 66.41 64.70 63.77 66.10 69.11 69.63 69.06 70.51 69.39 68.45 67.93 68.02 68.95 69.35 69.29 69.08 68.72 68.93 68.93 68.74 68.88 69.65 70.37 71.19 71.08 71.65 71.74 71.90 71.75 71.82 71.74 74.06 75.93 76.22 76.39 76.34
70.82 71.83 71.83 71.83 71.13 69.66 69.10 68.25 67.30 65.45 68.11 69.76 69.47 68.29 67.17 69.68 69.53 69.13 68.95 68.77 69.08 68.47 68.34 68.43 67.86 68.14 67.82 68.14 68.45 69.35 69.81 69.51 70.52 72.16 71.64 71.45 71.43 71.66 71.70 74.36 75.43 75.89 76.03
71.12 72.20 72.45 71.59 71.33 71.10 70.41 69.58 69.22 69.08 69.31 68.83 69.45 69.51 69.39 69.53 70.20 69.22 69.22 69.11 68.59 67.64 67.66 67.98 67.28 67.91 67.12 67.48 69.35 69.64 69.49 69.65 70.42 70.96 71.08 71.76 71.62 71.66 71.59 71.55 72.58 74.00 75.76
70.47 70.37 69.93 71.04 71.57 71.11 68.81 67.41 67.18 66.80 66.92 67.19 68.27 69.04 68.79 69.24 69.87 69.06 68.45 68.13 67.66 67.59 67.89 67.55 66.51 65.90 66.46 67.23 65.08 65.30 66.35 68.18 69.15 69.99 70.73 71.43 71.35 71.85 71.40 71.61 71.99 73.47 74.09
67.21 70.50 67.30 64.69 65.59 70.10 68.86 67.96 67.53 66.51 66.63 66.36 66.45 67.21 68.29 69.07 69.55 69.40 68.09 67.82 67.93 67.30 66.28 67.10 66.67 65.22 65.14 66.78 63.94 62.67 61.32 63.73 66.34 68.36 69.58 70.14 70.52 71.06 71.17 71.86 71.67 71.76 71.61
66.90 64.96 63.27 63.90 64.81 69.78 69.26 67.82 66.87 66.29 65.55 64.17 64.82 65.30 66.50 67.91 68.07 68.25 68.20 67.23 67.05 67.44 66.67 66.74 66.99 65.37 64.61 65.74 65.49 62.71 59.41 58.64 61.82 66.11 67.89 69.35 69.24 69.60 70.73 71.22 71.17 71.30 71.55
65.12 63.68 63.55 65.03 64.29 69.55 68.52 66.66 65.03 64.12 63.39 63.87 63.45 64.56 65.34 66.21 67.06 67.57 67.01 66.99 66.40 67.01 66.98 67.30 67.78 66.24 64.71 63.96 65.40 66.21 64.22 62.84 59.49 59.32 63.48 67.41 68.93 68.86 68.79 69.51 70.68 71.17 70.86
66.36 65.26 64.19 65.14 65.45 68.95 68.35 66.68 64.93 63.50 63.76 64.30 64.18 63.47 63.99 64.81 65.56 66.90 66.90 66.58 66.33 66.39 66.76 66.98 66.78 65.81 65.83 64.69 64.97 64.15 64.03 64.28 63.02 60.82 58.09 61.32 65.77 68.13 68.90 69.15 69.74 70.17 70.57
66.36 65.63 66.98 68.27 68.05 67.80 66.88 65.50 63.70 62.50 61.80 62.63 62.74 62.87 63.88 64.09 64.32 65.39 66.88 66.45 66.49 66.85 66.46 66.49 66.92 66.56 65.99 64.89 64.84 63.88 63.95 63.23 62.36 61.51 60.27 60.68 61.45 64.46 68.17 68.77 69.24 69.51 69.88

GFSSE_sfc_wetblb_012.txt.gz
Wetbulb
74.57 76.01 79.22 79.36 78.80 78.54 78.39 78.93 79.05 79.27 79.42 79.35 79.09 79.16 79.13 79.10 78.53 78.22 78.15 77.65 77.30 77.32 77.47 76.83 75.94 76.24 76.57 76.78 76.47 76.04 76.58 76.51 76.19 76.59 76.35 75.91 75.80 75.46 75.55 74.78 73.56 72.47 74.74
76.00 76.86 79.10 79.52 79.36 78.80 78.49 78.74 79.09 79.22 78.94 79.01 78.99 78.90 78.92 78.69 77.84 77.73 77.81 77.44 77.31 76.93 76.86 76.81 76.53 75.97 76.64 76.77 76.68 76.54 76.98 76.80 76.84 76.04 75.49 76.25 76.02 75.38 75.02 74.32 73.66 73.42 73.21
76.12 77.44 78.01 79.30 79.44 79.19 79.03 78.86 78.83 78.85 78.40 78.30 78.65 78.79 78.64 78.53 77.77 77.62 77.49 77.18 76.94 77.00 76.97 76.86 76.70 76.43 76.57 76.79 76.74 76.32 76.59 77.11 77.21 76.70 75.91 74.79 74.53 75.53 74.88 74.90 74.65 74.76 73.95
76.73 77.41 77.46 79.08 79.45 79.49 79.30 79.25 79.01 78.69 78.18 78.24 78.10 78.19 78.06 78.55 78.55 77.86 77.57 77.21 77.16 77.23 77.14 76.75 77.05 76.81 76.47 76.78 77.07 76.78 76.59 76.69 76.23 76.30 74.45 74.35 73.93 75.55 75.14 74.90 74.63 74.25 74.35
76.32 77.30 77.59 79.61 79.75 79.02 79.22 79.17 79.12 78.87 78.71 78.32 78.36 78.02 78.46 78.31 78.19 77.74 77.61 77.63 77.46 77.46 77.25 76.67 76.49 76.73 76.39 76.64 76.92 76.69 77.04 76.92 76.50 74.95 73.93 74.06 75.03 74.88 75.56 75.09 74.70 74.10 73.57
76.48 76.78 77.99 79.88 79.66 79.04 79.08 79.20 79.12 79.19 78.99 78.59 78.21 78.07 78.23 78.03 77.78 77.57 77.41 77.27 76.69 77.08 76.74 76.63 76.49 76.49 76.20 76.57 76.83 77.03 77.32 76.49 76.10 74.08 73.83 74.99 75.05 75.73 75.60 75.18 75.19 74.56 74.18
75.87 76.14 77.47 79.27 80.05 79.77 79.44 78.67 78.70 79.01 78.86 78.51 77.92 77.65 77.81 77.94 77.73 77.74 77.35 77.03 76.99 76.73 76.50 76.34 76.41 76.11 76.20 76.61 76.70 76.88 77.00 76.07 73.85 73.88 74.23 74.68 74.93 75.86 75.69 75.55 74.89 74.75 73.41
75.49 76.27 77.10 79.55 80.11 80.22 79.10 78.49 78.14 78.41 78.18 78.14 77.72 77.60 77.70 78.19 77.84 77.56 76.95 77.01 76.86 76.92 76.58 76.36 76.69 76.36 76.38 76.12 76.70 76.72 77.10 75.95 74.49 73.63 74.03 74.32 75.13 75.80 75.86 75.42 74.29 74.86 74.44
75.82 76.54 76.91 77.36 78.54 79.66 79.53 79.33 78.70 78.80 78.47 78.46 78.19 78.31 77.89 77.62 77.54 76.67 77.47 76.88 77.20 76.79 76.62 76.26 76.28 76.82 76.41 76.29 76.22 76.58 76.05 75.82 74.18 73.93 73.88 74.59 76.05 76.41 75.81 75.50 74.38 74.92 74.89
75.18 75.22 75.86 76.62 76.74 77.56 78.40 79.34 78.85 78.81 78.05 77.82 77.76 77.66 77.66 77.70 77.19 76.66 77.85 77.85 76.96 76.63 76.84 76.61 76.42 76.59 76.65 76.86 76.32 76.21 75.39 75.51 73.64 73.93 74.06 74.77 76.56 75.95 76.22 76.02 75.07 74.84 74.81
73.93 74.49 74.34 75.15 75.00 75.79 76.02 77.79 78.59 78.62 77.95 77.73 77.52 77.77 77.21 75.80 75.68 76.47 76.93 76.93 76.68 76.64 76.42 76.42 76.42 76.66 76.92 76.57 76.61 76.20 75.73 74.06 73.48 73.97 73.83 74.65 76.43 76.32 76.20 76.10 75.84 74.59 74.88
72.27 74.18 74.98 74.68 74.74 75.16 76.68 76.58 76.19 75.86 75.84 75.70 75.96 75.98 76.06 75.37 74.62 75.83 76.73 76.66 76.62 76.51 76.73 76.39 76.37 76.29 76.11 74.97 75.44 76.24 74.69 74.03 72.71 72.82 74.39 75.20 76.38 76.71 76.36 76.74 76.29 74.80 74.14
72.44 73.44 74.11 74.57 74.57 74.77 75.57 75.27 75.50 74.80 75.09 75.00 75.25 75.16 75.30 74.53 74.71 75.92 75.37 75.53 75.31 76.15 74.95 76.55 76.53 75.49 74.52 74.09 73.98 73.79 74.11 73.94 72.91 73.13 74.03 75.35 76.27 76.90 76.41 76.54 76.27 75.83 74.73
71.92 73.05 73.82 73.74 73.11 74.03 74.15 73.49 73.82 72.56 72.65 72.88 72.27 72.71 73.38 73.01 73.16 74.25 73.89 73.87 73.70 74.42 73.78 74.55 74.89 74.79 74.24 74.25 73.70 73.45 73.58 73.18 72.87 73.90 74.75 75.78 75.84 76.68 77.18 76.52 76.13 75.52 75.41
71.55 72.51 73.21 73.51 73.10 73.28 72.94 72.70 72.49 72.00 72.18 71.45 71.63 71.81 72.51 72.33 72.44 72.73 73.02 72.99 72.81 73.19 73.32 73.21 73.37 73.76 73.67 73.40 73.89 73.23 73.11 72.95 72.64 73.27 73.98 76.21 76.17 76.09 77.09 76.34 76.30 75.77 75.22
71.95 72.24 73.04 73.55 72.62 72.33 72.22 71.92 71.97 71.70 71.78 71.47 71.22 71.56 72.19 71.63 71.90 71.83 71.43 71.38 71.82 72.73 72.85 72.78 72.78 72.47 72.61 72.95 72.92 73.31 72.99 73.13 72.72 72.69 73.11 73.74 75.45 75.97 75.96 76.80 76.40 76.11 75.71
72.05 72.70 72.83 72.99 72.77 72.26 71.70 71.33 70.88 71.03 71.55 71.20 70.98 71.17 70.94 71.07 70.50 70.00 70.86 70.83 71.42 71.87 72.03 72.12 72.04 71.84 71.75 71.66 71.89 72.51 72.72 72.69 72.96 72.82 72.86 73.06 74.07 75.52 76.29 76.55 76.47 76.48 76.46
71.26 71.59 72.79 73.77 72.65 71.69 70.59 69.98 69.27 68.43 68.42 69.71 70.72 71.05 71.51 70.65 70.14 70.02 70.05 70.12 71.11 71.26 71.15 70.72 71.26 70.61 70.64 70.85 70.79 71.70 72.89 72.56 72.57 72.37 72.80 72.61 73.06 73.27 74.92 75.51 75.87 75.75 76.28
70.91 71.29 71.52 72.14 71.42 70.67 70.00 68.88 68.02 67.25 66.38 67.48 69.35 70.25 69.90 70.77 70.31 69.34 69.23 69.66 70.44 70.28 70.23 70.31 69.63 70.19 69.68 70.15 70.24 70.64 71.57 71.88 72.04 72.68 72.50 72.71 72.71 72.86 73.01 74.25 74.92 74.72 75.79
69.35 68.76 68.24 68.33 68.22 70.43 69.73 69.08 69.03 68.97 68.47 68.54 69.28 70.21 70.15 69.14 69.95 69.93 70.02 69.59 70.25 70.04 69.42 69.33 69.25 69.23 69.81 69.55 69.83 70.63 70.58 71.50 70.88 72.08 72.31 72.36 72.68 72.79 72.75 73.14 74.15 74.25 75.27
68.13 67.88 68.19 67.91 66.04 65.86 69.60 68.58 69.03 68.69 68.92 68.83 69.60 69.96 69.95 69.97 69.79 69.75 69.06 69.19 69.64 69.62 69.32 69.01 69.10 68.92 68.60 69.05 68.33 66.59 68.24 69.77 71.09 71.54 72.59 72.16 72.38 72.41 72.65 73.19 73.26 74.06 73.76
66.53 66.44 66.40 68.17 66.54 65.97 68.29 69.37 69.01 68.24 67.84 67.66 67.63 67.70 68.42 69.26 69.84 70.13 69.10 68.51 68.22 68.88 68.33 68.65 68.47 67.45 67.59 68.69 66.31 65.50 65.09 67.33 69.25 70.54 71.42 71.72 72.25 72.99 72.26 72.55 73.01 73.51 74.16
64.63 63.96 65.36 66.56 65.87 66.31 68.22 69.24 67.88 67.77 67.14 65.65 65.90 66.55 67.25 68.08 68.54 68.72 69.17 68.58 67.97 68.74 67.86 68.20 68.62 68.04 66.76 67.50 67.46 65.50 62.53 62.51 64.79 68.35 69.55 70.74 71.43 71.68 71.96 72.89 73.06 73.28 73.55
65.60 65.37 66.62 65.74 65.31 65.91 68.87 68.31 67.01 66.15 64.84 65.45 65.40 65.85 66.38 67.30 67.38 68.64 68.42 68.49 68.04 67.81 68.24 68.08 68.85 68.58 67.79 66.67 67.25 67.43 66.63 65.67 63.88 64.40 67.12 69.40 71.06 70.75 71.33 72.34 72.76 72.89 73.10
65.61 65.11 63.68 64.50 65.27 66.20 69.27 67.75 66.36 65.27 64.91 65.02 64.93 64.91 65.18 66.15 66.58 67.05 68.24 67.86 67.59 67.70 68.56 68.54 68.31 68.20 68.18 67.28 67.03 66.75 66.87 66.83 65.92 64.17 62.90 65.38 68.55 70.42 71.13 71.16 71.86 72.70 73.01
66.11 66.25 66.39 65.74 66.96 68.63 68.44 66.90 65.47 64.74 63.31 63.90 64.38 64.51 65.17 65.49 66.21 66.47 67.36 67.68 68.04 67.84 67.91 68.31 69.03 68.42 68.04 67.86 67.39 67.59 66.87 66.38 65.95 65.37 64.01 64.05 64.63 66.75 68.41 71.00 70.93 71.24 72.35

GFSSE_sfc_wetblb_018.txt.gz
Wetbulb
76.46 78.64 79.59 79.54 79.62 79.64 79.46 80.00 80.13 79.80 79.47 79.39 79.05 78.63 77.70 78.06 77.98 77.71 77.61 77.78 77.73 77.49 77.04 76.33 76.38 76.24 76.41 76.46 76.10 76.75 76.74 76.14 76.82 76.50 76.35 76.10 75.64 75.37 75.59 74.37 75.41 74.13 74.71
77.60 78.35 79.18 79.41 79.79 79.62 79.35 79.61 80.02 80.13 79.84 79.59 79.13 78.91 78.20 77.98 77.74 78.01 77.56 77.28 77.43 77.65 77.03 76.49 76.35 76.49 76.60 76.88 76.49 76.83 76.94 76.53 76.56 76.64 76.24 76.23 75.85 75.18 73.97 73.79 76.38 74.43 74.75
77.28 78.24 78.07 79.39 79.32 79.09 79.29 79.33 79.51 79.77 79.62 79.61 79.53 78.84 78.34 78.26 77.61 77.66 77.49 77.01 77.08 77.17 77.04 76.93 76.80 76.58 76.79 76.43 76.60 76.87 76.70 76.69 77.04 76.40 76.41 76.03 75.61 74.83 74.16 75.04 74.79 74.79 74.77
77.48 78.16 78.16 78.90 79.23 78.98 78.97 79.26 79.28 79.28 78.84 78.83 78.84 78.55 78.21 78.01 77.89 77.68 77.38 77.03 76.74 76.85 77.18 76.82 76.77 76.57 76.59 76.26 76.71 76.86 76.48 76.18 76.79 76.32 76.38 75.37 74.59 74.85 74.25 75.06 73.83 74.67 74.09
77.14 77.47 78.84 79.44 79.31 78.69 78.73 79.11 79.18 78.83 78.47 78.34 78.13 78.04 77.83 77.75 77.65 77.45 77.34 76.98 76.76 76.73 76.52 76.68 77.05 76.96 76.62 76.68 76.70 76.86 76.82 76.53 76.50 76.06 75.35 75.36 75.44 75.49 75.48 74.75 75.20 74.40 74.87
77.03 77.31 78.77 79.59 79.07 78.74 78.52 78.94 78.92 78.34 78.35 78.21 77.96 77.98 78.14 78.22 77.89 77.59 77.10 77.09 77.04 76.95 76.57 76.02 76.91 76.93 76.58 76.87 76.86 76.89 77.28 76.83 76.36 76.25 75.71 75.23 75.95 75.47 75.43 74.83 74.05 74.40 74.45
77.07 78.01 78.72 79.62 79.56 79.38 78.68 78.71 78.81 78.55 78.27 77.94 77.97 78.33 78.26 77.87 77.65 77.19 76.76 76.84 76.70 76.81 76.54 75.99 76.58 76.46 76.28 76.81 76.59 76.69 77.35 76.80 76.52 75.43 75.71 75.45 76.28 76.49 75.56 75.39 74.13 74.25 74.58
77.26 78.03 78.46 79.34 79.62 79.18 78.59 78.54 78.49 78.30 78.21 78.12 77.99 78.08 77.99 77.66 77.96 77.55 77.25 76.62 76.40 76.41 76.34 76.07 76.24 76.63 76.31 76.91 76.74 76.61 76.67 76.59 75.47 75.08 75.06 75.06 75.50 76.46 75.61 75.61 74.79 74.96 74.89
77.82 78.05 78.63 78.70 78.94 78.70 78.96 78.78 78.37 78.30 77.77 77.61 77.46 77.51 77.48 77.55 76.75 77.20 76.34 76.37 76.09 75.85 76.07 75.98 76.30 76.43 76.37 76.53 76.99 76.55 76.49 76.02 75.57 75.39 74.68 75.05 75.70 75.96 75.88 75.52 75.23 74.16 74.82
77.81 77.91 78.27 78.18 78.41 78.68 78.41 79.12 78.68 78.63 78.21 78.18 77.97 77.73 77.21 77.15 77.28 76.62 76.35 76.67 76.28 76.11 75.88 75.96 76.04 76.30 76.59 76.82 76.44 76.81 76.44 76.08 75.22 75.83 75.76 75.78 75.94 75.71 76.20 75.46 75.66 74.50 75.06
77.01 77.58 78.54 78.39 79.47 79.62 79.77 78.44 78.51 78.17 78.11 78.28 77.89 77.60 77.61 77.34 77.82 77.56 77.74 76.51 76.43 76.25 75.90 76.07 76.04 76.69 76.28 76.25 76.35 76.13 76.23 75.61 76.18 75.37 75.76 75.89 76.30 75.69 76.01 75.58 75.55 75.69 75.07
75.18 76.46 76.86 77.98 78.71 78.87 78.65 79.55 78.78 78.34 78.08 78.39 77.74 78.29 77.38 77.18 77.55 77.09 77.00 76.33 76.70 76.59 76.48 75.90 75.79 75.61 75.11 74.66 74.90 76.12 74.70 75.05 75.47 75.67 75.75 76.07 76.43 75.65 76.25 75.76 75.95 75.57 75.37
75.97 76.39 76.81 77.11 78.18 78.33 78.44 80.68 78.37 80.42 80.41 80.18 78.75 78.87 78.84 78.83 78.95 76.66 76.24 76.74 76.64 76.88 76.65 76.31 75.76 75.48 74.75 75.79 75.68 75.02 75.02 74.88 75.68 76.17 76.32 76.04 76.33 75.88 76.38 75.91 75.68 75.35 75.66
76.14 76.32 77.32 77.99 78.24 78.23 79.82 80.79 79.45 77.39 78.37 79.56 76.63 76.38 78.78 76.41 76.41 75.38 75.64 77.60 78.85 76.87 77.49 76.76 76.68 76.51 76.49 76.00 75.20 74.93 75.57 75.10 74.50 75.21 76.55 75.99 76.13 76.34 76.93 76.23 75.78 75.45 75.40
75.76 76.56 77.04 77.93 78.30 78.36 78.32 78.95 79.84 77.32 77.11 77.53 76.92 77.31 76.51 73.39 72.80 71.57 70.06 74.38 78.23 77.69 76.60 77.50 76.45 76.08 76.21 76.03 76.02 75.70 75.49 74.60 74.22 74.53 74.65 76.95 76.11 76.15 76.50 76.78 75.53 75.34 75.23
76.35 76.59 77.74 77.99 78.02 78.15 78.18 78.46 79.82 79.01 77.07 76.39 75.78 75.97 76.62 74.38 70.80 69.27 68.76 73.21 76.23 77.36 76.24 76.28 76.86 75.88 75.63 75.40 75.25 75.65 75.74 75.57 74.66 74.89 74.99 75.41 76.25 75.45 75.92 76.74 75.91 75.18 75.48
76.62 76.52 76.12 76.13 77.39 77.71 77.58 77.41 76.56 76.21 75.72 75.43 75.66 76.78 76.45 75.98 75.35 74.13 73.17 70.34 73.80 79.48 77.09 76.20 76.02 76.02 75.26 75.32 75.08 75.08 75.33 75.56 75.41 76.08 75.27 74.99 75.69 75.75 75.94 75.55 75.55 72.72 73.61
76.41 75.73 75.23 75.46 75.06 76.37 77.55 77.69 76.71 76.51 75.92 75.88 76.86 76.65 76.30 75.78 76.00 75.61 74.07 75.43 73.71 78.76 77.63 74.75 74.18 74.57 75.29 74.30 74.09 74.33 75.00 74.85 75.57 76.05 76.18 75.45 74.61 75.00 75.75 75.61 75.50 74.11 73.53
77.41 75.37 74.15 73.80 75.15 76.62 76.71 77.61 77.28 77.89 77.99 76.49 76.53 76.66 77.03 76.95 76.79 76.05 75.49 74.88 76.19 75.41 76.63 76.01 73.96 73.72 73.08 73.50 73.58 73.85 74.60 75.34 74.24 74.79 75.38 76.05 75.53 74.85 75.11 75.17 74.67 73.97 74.25
76.92 74.66 73.76 73.00 73.87 75.68 77.21 77.30 77.05 78.13 79.48 76.64 75.86 75.70 76.40 76.49 76.71 75.94 75.59 75.90 77.77 74.66 74.11 73.87 74.07 73.78 72.92 73.16 72.82 72.54 73.43 74.89 75.04 73.78 75.10 76.43 75.60 75.64 75.57 76.15 75.00 74.16 74.18
74.23 74.00 74.19 73.42 70.36 74.46 78.65 74.16 75.47 76.58 79.27 76.08 76.27 77.12 76.94 76.36 76.05 75.84 75.41 75.47 75.94 73.18 73.68 74.51 75.93 73.65 73.38 73.36 72.16 71.91 72.16 73.75 74.84 73.42 74.56 76.69 74.80 75.59 75.92 78.33 74.71 74.46 74.80
73.11 73.27 73.67 71.26 69.00 71.08 73.66 75.82 76.37 76.19 76.58 77.04 76.81 76.40 76.31 75.61 75.85 74.83 75.60 75.84 76.16 73.58 74.01 73.63 73.17 73.60 73.85 73.47 70.26 69.33 66.43 69.60 72.22 73.56 73.90 74.31 74.94 76.66 75.09 76.09 76.12 76.68 77.22
72.63 73.30 73.37 72.55 70.56 69.44 70.51 74.28 75.13 75.24 75.52 74.44 74.37 72.84 73.66 73.78 73.93 74.27 74.32 74.13 75.58 75.31 73.62 73.79 73.28 72.21 70.78 72.22 72.76 69.28 65.76 64.89 70.89 73.38 73.67 73.84 75.12 77.78 77.70 76.91 75.36 76.18 76.93
71.91 72.19 73.14 72.76 71.96 71.91 72.30 73.67 74.62 74.31 72.25 71.88 72.07 72.53 72.65 73.07 73.19 73.16 73.17 73.57 72.95 75.85 75.46 73.05 72.43 71.29 71.94 70.44 73.16 71.69 72.22 71.17 68.63 68.24 72.00 72.72 74.75 75.79 76.39 78.47 76.17 76.52 77.16
71.36 71.83 71.58 72.85 73.09 73.45 73.70 74.64 75.12 73.23 72.35 72.28 71.66 72.71 73.11 73.39 73.02 72.77 72.79 72.95 73.26 72.04 74.13 73.61 72.24 70.57 70.46 71.83 72.85 70.67 72.14 70.76 71.50 69.20 67.59 69.91 72.13 74.11 74.63 75.44 75.60 75.91 76.67
72.13 71.42 70.59 71.59 72.18 74.33 75.48 75.19 73.40 71.22 70.96 70.64 71.28 70.60 70.76 71.36 71.54 72.90 72.80 72.59 73.21 73.76 73.58 74.39 72.93 70.06 69.94 72.00 73.66 72.79 70.34 69.24 68.84 69.95 68.31 69.24 68.80 71.54 73.38 74.41 75.06 75.39 75.21

GFSSE_sfc_wetblb_021.txt.gz
Wetbulb
76.54 77.53 79.92 79.92 79.81 79.97 80.25 80.24 80.07 79.85 78.66 78.57 78.16 78.00 78.04 77.88 77.68 77.62 77.19 77.57 77.36 77.15 76.71 76.49 76.15 76.01 76.07 76.30 76.29 76.75 75.77 76.40 76.55 76.39 76.36 76.07 75.62 75.47 74.91 75.12 75.79 74.55 74.63
78.03 78.21 79.46 79.87 79.53 79.74 79.99 80.06 79.99 79.86 79.24 78.70 78.46 78.15 78.01 77.85 77.77 77.60 77.39 77.61 77.25 77.08 76.74 76.41 76.30 76.57 76.93 76.24 76.68 77.00 76.43 76.94 76.58 76.56 76.54 76.09 75.76 74.82 74.02 73.37 76.31 74.96 73.99
77.17 77.98 78.19 79.72 79.99 79.49 79.47 80.02 80.20 80.07 79.41 78.87 78.77 78.08 78.08 77.92 77.91 77.59 77.10 77.47 77.30 77.17 76.82 76.96 76.44 76.74 76.68 76.77 76.37 76.77 76.51 76.66 76.72 76.49 76.68 75.10 74.75 74.04 75.06 75.39 75.29 75.16 74.29
77.42 77.44 78.13 79.36 79.97 79.29 79.27 79.62 79.75 79.80 78.98 79.02 78.73 78.31 78.23 78.21 77.81 77.58 77.50 77.28 76.95 76.98 76.65 76.74 76.60 76.74 76.71 76.60 77.13 76.78 76.94 76.27 76.27 76.57 75.88 75.04 73.66 74.25 75.39 73.75 74.49 74.47 74.82
77.35 77.77 78.67 79.65 79.58 79.13 79.12 79.44 79.64 79.42 78.97 78.76 78.57 78.25 78.08 77.93 77.55 77.42 77.25 76.87 76.89 76.84 76.66 76.88 76.69 76.66 76.16 76.54 76.83 76.67 76.26 76.10 75.99 76.15 76.14 75.53 74.80 74.44 75.36 74.05 74.54 74.24 74.63
77.01 78.42 78.85 79.65 78.69 78.58 78.65 78.88 78.81 78.54 78.61 78.32 78.17 77.70 77.49 77.53 77.28 77.10 77.21 76.81 76.64 76.73 76.66 76.35 77.05 76.77 76.45 76.55 76.66 76.49 76.50 76.31 76.56 75.90 75.79 75.70 76.12 75.92 75.54 75.02 74.02 75.02 74.65
76.35 79.23 78.20 79.72 79.37 78.98 78.54 78.58 78.28 78.07 78.05 77.88 77.79 77.66 77.99 78.04 77.47 77.17 76.46 76.42 76.20 75.80 75.90 76.13 76.60 76.57 76.53 76.85 76.75 76.72 76.80 76.74 75.92 75.44 75.28 75.49 75.92 76.29 75.31 74.63 74.63 74.73 74.48
76.25 78.27 77.64 79.44 79.30 78.69 78.36 78.42 78.35 77.99 77.89 77.79 78.12 78.24 78.10 77.70 77.66 77.56 77.00 76.41 75.99 76.01 75.89 75.24 75.76 76.38 76.42 76.96 76.66 76.45 76.71 76.53 76.19 74.70 74.61 75.85 75.87 76.82 75.48 74.96 74.18 74.65 74.22
77.00 77.91 77.92 77.97 78.68 78.44 78.16 78.12 78.20 78.13 78.01 78.06 78.10 78.26 77.91 77.76 77.43 77.07 76.71 76.56 76.04 75.71 75.68 75.65 75.90 76.56 76.44 76.81 76.72 76.76 76.28 76.48 75.20 74.72 74.58 75.54 76.54 76.73 75.50 75.83 74.57 75.10 74.84
76.97 77.59 77.86 78.52 78.35 78.32 78.45 78.52 78.08 78.10 77.71 77.49 77.39 77.26 77.26 76.96 76.60 77.28 76.36 77.13 76.29 75.82 75.93 76.07 75.97 76.90 76.44 76.61 77.14 76.53 76.45 76.66 74.81 74.86 75.45 75.49 76.62 76.49 76.16 75.66 75.45 74.25 74.64
76.47 76.63 77.56 77.92 79.03 79.17 78.89 78.27 78.38 77.77 78.21 77.96 77.99 77.70 77.24 76.91 77.31 77.96 77.57 76.57 76.21 75.80 75.88 75.93 76.34 76.20 76.78 76.42 76.41 76.58 76.26 74.78 74.25 73.88 74.02 76.00 76.84 76.25 76.05 75.91 75.93 74.68 74.97
74.27 75.34 77.40 77.82 78.52 78.58 79.32 79.62 78.12 77.54 77.81 78.11 78.16 78.29 77.62 77.73 76.55 75.59 77.75 77.06 76.29 76.35 76.35 76.27 76.12 76.13 75.34 74.87 74.99 76.14 74.46 74.32 74.70 74.80 74.88 75.88 76.60 76.11 76.20 76.18 76.07 76.13 75.01
75.78 75.49 76.87 77.48 78.68 78.45 78.35 78.92 77.72 79.21 78.94 76.73 78.42 78.34 78.01 77.58 78.23 76.79 77.21 76.89 76.25 76.35 75.61 76.03 75.74 75.34 75.12 73.67 75.31 75.04 74.56 74.69 75.31 75.63 75.33 76.31 76.46 76.02 76.28 76.31 76.26 75.59 75.64
74.92 75.43 76.00 78.25 77.96 78.36 76.91 77.25 79.20 77.54 77.65 77.30 78.61 78.41 77.87 76.77 77.12 76.33 76.38 76.79 76.78 78.72 76.23 75.13 74.70 76.08 75.51 75.68 76.15 75.22 74.41 74.94 74.65 74.62 74.95 76.54 76.24 76.75 76.17 76.54 75.88 75.50 75.24
74.50 75.74 76.94 77.74 78.56 78.90 79.47 78.49 78.17 78.73 76.18 77.89 76.99 76.71 75.19 75.16 76.07 73.86 72.41 72.24 74.62 75.75 75.18 74.92 74.61 76.14 76.11 76.28 75.76 75.84 75.04 74.88 74.98 74.64 75.21 77.08 76.55 76.14 76.55 76.33 76.21 75.53 75.06
74.78 75.54 76.97 77.64 78.55 78.37 79.01 78.76 80.12 77.81 77.46 77.48 76.42 75.66 77.06 75.73 75.00 73.21 72.13 71.58 72.71 74.56 75.36 73.08 75.65 75.52 75.26 75.50 75.60 75.23 75.60 76.13 75.39 75.36 74.72 75.56 76.87 76.10 76.29 76.44 76.51 75.82 74.69
75.41 76.33 77.05 77.81 77.97 78.36 77.89 77.58 77.33 76.30 75.96 76.76 75.22 78.19 77.34 77.37 76.37 74.84 73.56 73.16 72.30 72.48 71.61 70.47 73.09 76.68 74.47 75.46 75.27 75.54 75.23 75.68 75.49 75.82 75.32 75.73 75.24 76.36 76.37 76.24 76.75 76.42 75.90
76.29 76.34 77.03 76.31 77.38 77.94 78.40 77.23 76.42 76.73 76.07 76.56 76.67 77.49 77.61 77.52 77.27 76.88 75.14 74.34 74.10 70.86 68.90 68.61 73.59 73.61 75.35 74.11 74.35 73.96 75.21 75.28 75.66 76.29 77.17 76.04 74.87 74.34 76.00 76.02 75.87 76.01 73.48
76.85 77.28 76.86 76.43 75.88 77.75 77.77 76.91 76.95 77.12 76.42 76.01 75.39 75.85 77.75 77.01 76.58 76.54 74.94 75.54 75.80 73.39 73.02 74.73 73.83 73.39 73.02 73.32 73.63 73.84 73.96 75.04 74.93 74.96 75.24 75.75 75.94 75.83 75.20 75.77 75.11 74.94 73.74
77.48 77.54 76.66 75.36 76.28 77.32 77.35 77.34 75.99 75.28 77.20 76.21 75.16 76.54 77.39 77.06 76.98 77.72 76.91 75.48 78.17 75.26 73.33 73.72 73.56 74.08 73.04 72.43 71.52 72.31 73.97 74.11 74.77 74.60 74.98 76.27 76.69 75.50 75.79 77.58 75.89 73.56 74.26
77.09 77.22 76.40 75.68 74.53 73.35 73.47 74.13 75.48 73.60 75.42 75.87 75.89 77.63 76.77 76.86 76.60 77.40 77.19 77.04 76.83 75.76 75.30 76.10 74.19 75.38 72.44 73.42 73.18 71.43 71.38 73.18 74.23 74.59 74.84 74.29 75.21 75.41 75.03 77.59 75.52 75.51 73.93
75.40 75.59 75.51 74.56 72.44 72.07 74.25 73.89 76.88 75.17 76.01 76.55 77.62 76.89 76.97 75.92 75.99 76.04 76.39 75.55 76.25 75.51 75.79 75.66 75.78 74.73 73.70 75.50 70.29 69.29 66.55 67.83 71.37 73.75 74.00 75.77 75.00 76.89 75.39 76.57 76.47 76.21 74.27
74.55 74.33 74.85 73.23 72.82 71.14 72.84 74.60 77.99 77.31 76.45 76.37 75.38 73.92 74.57 74.84 74.58 74.69 74.67 75.88 75.59 76.43 75.28 74.28 74.58 72.92 71.54 73.97 73.40 69.39 65.55 63.73 66.93 73.28 74.38 73.64 75.42 76.99 75.80 76.67 74.41 76.44 76.13
74.24 75.10 75.09 74.53 73.46 72.41 72.42 71.66 75.11 74.77 72.62 73.01 72.65 73.62 73.92 74.53 73.36 73.80 74.10 73.69 75.06 76.23 74.41 74.64 75.06 73.19 73.08 71.35 73.86 72.16 73.64 71.58 67.49 66.50 73.81 74.24 76.36 75.68 75.91 73.51 72.95 73.90 76.66
72.74 73.02 74.02 74.08 73.47 74.41 74.91 76.02 75.91 75.05 72.72 73.36 72.35 73.45 75.65 75.84 74.23 73.36 73.69 73.23 73.69 74.79 75.18 74.14 74.44 74.43 74.03 73.14 71.71 73.05 72.53 69.92 71.00 68.17 67.19 69.38 72.87 73.36 75.09 73.76 73.36 74.30 75.94
73.13 72.45 72.83 73.61 73.84 74.55 74.71 75.41 74.70 72.32 71.92 71.51 72.21 71.43 71.14 71.71 72.73 73.61 73.59 73.75 74.36 74.09 73.69 75.14 74.71 73.77 73.89 71.44 72.13 72.50 71.75 69.93 68.30 68.31 69.43 69.38 67.55 70.00 72.31 72.33 73.43 74.06 75.20

GFSSE_sfc_wetblb_024.txt.gz
Wetbulb
74.82 76.75 79.65 80.14 80.26 80.44 80.54 80.45 79.99 79.57 79.13 78.86 78.68 78.49 78.43 77.90 77.60 77.58 78.00 78.31 77.86 77.38 77.06 76.90 76.14 75.98 76.23 76.45 76.82 75.59 76.43 76.75 76.59 76.39 76.22 75.89 75.81 75.57 75.68 74.85 76.20 73.14 74.67
75.88 76.87 79.82 80.12 80.33 80.48 80.49 80.38 80.03 79.72 79.23 78.94 78.93 78.64 78.63 78.31 77.84 77.54 77.57 77.06 77.51 77.22 76.45 76.31 76.62 76.39 76.94 76.61 76.93 76.33 77.02 76.69 76.94 76.52 76.41 76.11 75.28 74.87 75.09 74.66 76.33 73.10 73.76
76.05 76.67 77.06 80.05 80.27 80.53 80.51 80.33 80.05 79.54 79.15 79.10 79.02 78.74 78.57 77.98 77.70 77.27 77.33 77.22 77.73 77.36 76.87 76.37 76.42 76.90 76.54 76.75 76.66 76.53 76.52 77.39 77.55 76.57 76.59 74.03 72.86 75.47 75.95 75.50 75.85 74.20 74.91
76.37 75.95 76.77 79.75 80.21 80.16 80.22 80.32 80.19 79.56 79.24 79.22 79.07 78.65 78.58 78.17 77.80 77.42 77.15 77.25 77.35 77.19 77.03 76.87 76.67 76.86 76.54 76.89 76.52 77.58 76.80 76.89 76.53 75.99 75.73 73.02 72.12 75.67 75.13 75.63 75.51 74.46 74.37
75.74 76.68 78.12 80.22 80.11 79.58 79.86 80.24 80.21 79.77 79.48 79.27 78.87 78.38 78.34 78.10 77.65 77.55 77.10 77.02 77.13 77.13 76.97 76.81 76.81 76.84 76.50 76.91 76.57 77.73 76.87 76.22 76.53 74.88 73.91 73.71 71.22 74.92 73.93 74.75 74.36 75.02 75.04
76.03 77.57 79.07 79.85 79.61 79.56 79.46 79.78 79.85 79.64 79.41 79.24 78.73 78.21 78.00 77.76 77.88 77.66 77.25 76.78 76.91 76.75 76.42 77.02 77.03 76.75 76.58 77.01 76.63 77.68 77.21 76.32 76.01 75.26 74.65 75.58 72.90 75.97 74.89 75.01 74.87 74.99 75.07
77.30 77.18 77.30 79.51 79.61 79.38 79.31 79.46 79.15 79.08 78.94 78.47 77.93 77.61 77.70 77.74 77.66 77.55 77.25 76.83 76.25 76.47 76.78 76.75 77.28 76.86 76.62 76.93 76.76 77.49 77.27 76.45 74.85 75.45 74.33 74.44 74.58 76.52 75.33 75.88 75.29 74.93 74.63
77.13 76.57 76.77 79.14 79.22 78.79 78.77 78.35 78.25 78.21 77.94 77.91 77.70 77.81 78.17 77.92 77.51 77.19 77.06 76.84 76.47 76.14 75.16 75.92 76.95 76.80 76.91 77.04 76.96 77.03 77.36 76.57 74.80 74.26 73.45 75.33 75.73 76.51 75.90 74.86 74.88 74.51 74.81
76.20 76.82 77.10 77.10 78.25 78.39 78.25 78.38 78.25 77.93 77.84 78.16 78.47 78.36 77.67 77.62 77.49 77.69 77.22 76.86 76.37 76.42 76.08 75.78 76.28 76.65 76.99 76.99 76.98 76.86 76.87 76.42 74.53 74.49 74.78 74.16 76.29 76.91 76.10 74.73 74.69 74.83 74.46
77.03 76.95 76.80 77.49 77.79 77.84 77.42 78.79 78.79 78.70 77.89 77.93 77.93 78.01 77.66 77.75 77.75 77.67 77.73 77.58 76.62 76.28 76.14 75.84 75.86 77.49 77.19 77.08 76.91 77.07 76.32 76.28 74.35 73.47 73.76 74.44 76.23 77.12 75.95 75.63 74.84 75.25 75.05
76.51 77.37 77.24 77.67 78.15 78.21 77.92 77.85 78.72 77.94 77.79 77.52 77.27 77.33 77.36 76.25 76.01 76.61 77.15 77.66 76.48 75.98 76.15 76.28 76.43 76.54 76.73 76.55 76.75 76.75 76.33 73.92 72.83 73.77 74.04 75.19 75.77 77.16 76.53 76.56 76.23 75.38 75.08
74.03 74.96 75.97 77.63 77.95 78.24 78.42 77.45 77.40 77.34 77.31 77.39 77.74 78.29 77.13 76.98 76.70 76.30 76.70 78.03 77.12 76.76 76.59 77.10 77.34 76.49 76.44 74.65 75.09 76.05 74.68 73.38 73.39 73.67 72.40 72.54 75.87 77.11 76.82 76.89 76.68 75.91 75.41
75.65 74.92 75.74 77.28 78.64 78.13 77.44 77.75 78.12 77.65 78.29 75.52 76.26 76.79 78.22 77.53 77.00 76.77 76.66 75.95 75.86 76.68 75.10 75.97 75.79 75.00 74.40 73.85 74.10 74.44 73.78 73.57 73.74 74.39 74.52 75.12 76.24 76.99 76.64 77.03 76.45 76.46 75.61
74.84 75.21 76.60 78.09 78.02 78.31 76.58 76.87 76.83 75.75 76.09 75.56 74.45 76.47 76.26 77.28 77.67 77.27 76.51 75.57 75.81 75.76 75.31 75.00 72.90 74.29 74.49 73.75 75.02 74.82 74.77 74.39 73.70 74.84 74.72 75.22 75.49 76.50 76.59 76.58 76.45 75.94 76.57
74.97 76.26 76.72 78.64 78.26 78.83 77.72 74.33 75.36 74.06 70.08 68.65 70.53 76.19 77.37 76.42 76.82 77.77 75.64 73.69 73.82 75.84 71.66 69.89 68.90 68.70 71.66 74.04 74.96 74.60 73.98 73.89 74.43 74.53 74.77 76.50 75.89 76.05 76.93 76.88 76.67 75.83 75.62
75.54 75.99 77.76 78.30 79.61 80.03 79.11 79.87 78.78 72.67 68.36 69.49 67.84 75.69 77.24 75.85 77.44 76.58 74.77 74.18 73.41 74.32 73.93 71.99 70.77 69.27 69.13 69.49 74.31 74.49 75.18 75.18 75.14 74.63 74.04 74.96 76.08 76.31 76.85 77.30 77.27 76.25 75.02
75.37 76.36 76.70 78.16 78.82 78.72 79.18 79.35 78.94 76.92 72.44 68.42 68.77 75.34 76.50 77.24 77.20 76.28 74.36 72.64 73.53 74.28 71.78 68.59 70.14 67.76 67.46 67.22 72.72 74.22 74.85 74.92 74.99 75.53 75.07 75.04 75.36 76.31 75.97 76.65 77.34 76.97 76.75
76.36 77.34 78.18 76.57 78.07 77.82 77.63 78.49 77.29 76.95 78.57 77.10 77.98 74.61 76.97 76.88 77.69 76.93 75.13 75.34 75.30 73.74 71.16 68.55 66.99 67.44 67.35 67.65 71.25 72.45 73.25 74.20 74.39 75.12 75.86 75.11 75.24 74.42 75.44 76.15 76.18 76.21 76.79
78.00 78.38 77.75 77.99 77.66 78.17 77.63 78.31 77.93 80.21 78.66 77.32 78.60 77.51 77.74 77.43 77.23 76.11 75.01 75.38 76.37 74.20 71.05 70.09 68.58 69.19 69.94 71.07 72.14 71.39 72.53 72.92 73.94 74.62 74.55 74.92 74.79 74.69 74.89 75.42 75.81 75.31 76.37
76.78 78.48 77.90 77.20 78.43 77.59 72.80 72.86 75.03 76.99 78.29 76.20 75.55 74.94 71.82 76.27 77.04 76.30 75.84 75.37 74.56 75.29 74.00 73.25 72.54 72.16 71.30 70.27 71.37 70.70 72.85 73.19 73.80 74.21 74.03 75.15 75.16 75.39 74.42 74.18 73.50 73.50 75.42
77.62 77.28 77.77 76.54 77.30 75.21 70.45 69.38 71.31 74.59 76.46 75.79 71.21 70.25 67.72 67.10 75.49 76.30 75.64 74.78 74.92 73.83 73.79 73.80 72.47 69.51 68.64 70.31 70.09 71.26 72.86 73.88 72.39 72.47 74.39 73.73 73.83 74.27 74.64 73.73 74.32 72.87 73.46
76.67 77.43 77.02 76.27 74.86 75.05 70.18 71.24 71.93 74.49 76.69 76.99 76.66 74.46 72.90 73.87 75.87 76.50 75.29 73.91 73.56 72.61 72.04 72.72 71.97 70.02 70.26 72.10 69.80 70.02 66.24 67.79 69.89 72.56 73.22 73.47 73.28 74.21 74.35 74.79 74.34 72.86 72.76
75.06 75.67 75.96 74.89 74.17 73.87 72.94 72.50 72.71 74.28 73.72 74.82 74.33 74.91 75.42 76.02 75.98 76.03 74.80 74.84 73.62 73.69 72.14 71.91 71.86 70.56 68.79 69.58 72.03 68.64 65.52 62.90 67.00 71.10 71.78 72.71 72.85 74.04 74.34 74.79 74.16 73.40 73.21
74.17 75.75 76.46 74.34 73.89 73.68 73.81 73.42 74.54 72.14 71.41 73.93 75.07 75.24 75.95 76.03 75.78 74.91 74.59 74.46 73.66 73.69 72.77 72.32 72.51 71.81 71.22 68.94 71.04 70.24 69.87 69.82 65.75 64.35 69.83 71.36 72.65 73.72 73.64 73.88 73.76 73.41 73.81
74.73 74.43 75.59 74.84 74.51 74.67 75.01 75.41 75.38 73.82 73.74 75.39 74.73 74.96 75.82 75.16 75.12 73.34 74.11 73.92 73.72 73.74 73.21 72.49 71.87 71.30 71.22 69.77 69.69 68.69 68.50 69.32 70.13 67.22 65.15 67.94 72.10 72.68 73.00 72.92 72.86 72.44 72.58
72.96 73.11 73.54 73.88 74.73 75.61 76.28 76.33 76.61 75.41 74.58 73.08 73.18 72.69 71.91 72.82 73.97 73.55 73.96 73.52 73.80 73.20 73.00 72.44 72.71 72.30 70.27 70.09 70.86 69.70 68.16 66.84 67.21 67.01 66.30 67.14 66.80 69.28 71.13 72.20 71.96 71.70 72.35

GFSSE_sfc_wetblb_027.txt.gz
Wetbulb
74.24 77.55 79.83 80.28 80.64 80.77 80.47 80.32 79.45 78.94 78.21 78.12 78.33 78.40 78.60 78.46 78.48 78.26 78.51 78.43 77.79 77.45 77.30 76.56 76.42 76.86 76.58 76.84 76.00 76.28 76.65 76.48 76.61 76.56 76.31 75.93 75.68 75.62 75.52 75.84 75.18 73.70 75.26
75.25 77.57 79.84 80.00 80.62 80.72 80.37 80.12 79.67 79.33 78.35 78.32 78.48 78.13 78.19 78.30 77.74 77.68 78.42 78.43 77.37 77.22 77.03 76.84 76.59 76.81 76.74 76.86 76.33 76.91 76.61 76.63 76.80 76.68 76.09 75.92 75.53 75.33 75.19 75.56 74.28 72.88 74.68
75.03 77.36 78.58 80.02 80.57 80.65 80.30 80.05 79.74 79.35 78.40 78.34 78.65 78.30 77.98 78.04 77.84 77.22 77.22 77.11 77.48 77.02 76.86 76.83 76.78 77.17 76.88 76.73 76.67 77.08 76.80 76.62 77.03 76.75 75.91 72.46 73.94 76.08 76.23 74.95 74.88 74.21 74.66
75.11 76.49 78.42 79.88 80.23 80.35 80.15 79.79 79.64 79.26 78.34 78.64 78.59 78.25 78.19 77.94 77.86 77.24 77.51 77.67 77.37 77.21 77.11 77.06 77.08 77.08 77.07 77.00 76.74 76.56 76.71 76.67 76.03 75.43 73.63 72.14 74.09 76.24 76.13 75.49 74.38 74.48 74.41
74.64 76.98 78.68 80.26 80.31 80.23 80.28 79.95 79.69 79.41 79.19 78.72 78.47 78.00 77.98 77.86 77.61 77.37 77.20 77.26 77.07 76.94 77.05 77.17 77.22 77.11 76.88 77.08 76.87 77.14 76.53 76.99 75.60 73.94 73.34 70.90 71.74 74.45 75.09 75.51 74.78 74.79 74.75
76.07 77.94 79.57 80.23 79.72 79.83 80.41 80.18 79.92 79.67 79.54 79.17 78.81 78.37 78.05 77.60 77.70 77.53 77.10 77.01 76.92 76.88 76.96 77.14 77.00 76.81 76.79 76.85 77.08 77.10 76.78 76.12 76.19 73.92 73.12 73.62 72.01 75.10 74.90 74.65 75.48 75.32 74.27
75.59 77.22 78.42 80.08 80.00 79.90 79.93 79.88 79.67 79.54 79.51 79.09 78.38 78.00 77.68 77.98 77.12 77.42 77.18 76.75 76.66 76.66 76.45 76.80 76.88 76.61 76.69 76.74 76.76 77.43 76.31 76.24 74.06 73.67 73.05 72.01 73.44 75.88 75.47 75.97 75.58 75.15 74.21
75.10 76.16 77.00 79.18 79.62 79.31 79.03 78.91 78.91 78.69 78.42 78.08 77.77 77.72 77.66 77.58 77.86 78.05 77.14 76.82 76.50 76.19 75.71 76.66 76.46 76.50 76.54 76.77 76.71 77.42 76.01 75.60 74.59 73.55 73.87 73.07 74.91 76.48 75.78 75.56 75.36 75.02 74.49
75.35 75.11 76.47 77.12 77.57 78.51 78.66 78.39 78.39 78.08 77.96 78.01 78.25 78.78 78.62 77.98 77.70 77.82 78.14 77.57 76.85 76.41 75.55 75.72 76.40 76.46 76.70 77.31 76.75 76.87 76.31 75.62 73.81 73.67 74.25 73.47 75.54 76.69 75.50 75.13 75.14 74.68 75.26
74.39 74.89 74.78 75.41 75.68 75.72 76.70 79.09 78.82 78.68 77.76 77.98 78.45 78.01 77.78 77.59 77.53 77.65 77.91 77.70 77.03 76.63 75.97 75.67 76.33 77.04 77.27 76.79 76.91 76.64 76.23 75.78 73.72 73.42 73.19 73.74 75.81 76.84 75.63 74.83 75.00 74.90 74.34
73.61 73.90 74.59 74.81 74.76 74.80 75.45 77.11 78.78 78.13 77.83 77.81 77.40 77.86 77.64 74.72 75.37 76.06 77.06 77.39 76.94 76.77 76.58 76.58 75.98 77.35 77.08 76.69 76.70 76.89 76.58 73.74 72.73 72.82 73.02 75.41 76.59 77.34 76.08 75.44 75.99 75.33 74.88
72.46 73.25 74.60 74.56 74.68 75.47 76.41 75.73 76.01 75.99 75.46 75.03 75.01 74.41 74.69 74.34 74.16 75.65 75.75 77.54 77.14 76.42 76.61 77.08 77.63 76.75 76.17 73.84 74.06 75.71 73.62 73.07 71.42 72.59 72.08 76.03 76.61 77.43 77.46 76.60 76.21 75.72 75.07
73.03 73.48 74.65 75.00 75.24 75.34 75.59 75.44 75.34 75.23 74.91 75.52 75.46 75.64 75.11 75.21 73.67 74.23 73.83 75.06 74.34 76.34 73.76 75.85 75.31 74.40 73.09 71.94 72.33 73.35 73.49 72.43 71.05 72.60 71.91 74.53 76.22 77.73 77.08 76.86 76.97 75.54 75.53
72.59 73.93 74.18 75.80 75.14 74.59 75.01 74.63 74.36 73.89 74.53 73.69 73.71 74.37 73.04 73.04 72.38 73.00 73.21 73.35 73.24 73.81 72.86 71.83 70.31 69.88 68.22 70.10 71.09 72.40 72.24 71.93 71.79 73.49 72.89 73.80 75.98 77.15 77.27 77.03 77.04 76.44 76.15
71.88 73.33 73.76 75.33 74.73 74.98 74.24 73.01 70.70 69.84 72.16 71.40 69.79 72.77 72.91 72.31 71.96 72.57 69.42 69.83 69.00 72.42 70.75 68.57 68.39 68.01 67.81 68.61 69.09 69.36 72.10 71.90 72.04 72.62 72.74 76.46 75.64 75.80 77.53 77.28 76.75 75.95 76.48
72.52 73.18 74.67 74.90 74.72 74.50 73.19 72.32 70.55 70.88 71.52 70.17 67.91 66.63 71.57 72.62 72.00 71.83 69.01 69.05 68.74 70.36 68.78 67.40 66.97 67.67 67.26 67.77 68.40 67.80 68.94 71.89 72.00 71.95 72.70 73.64 76.32 75.80 76.75 77.27 76.78 76.64 75.92
72.83 74.01 74.33 74.67 75.26 74.14 73.37 72.69 71.86 71.12 69.80 68.84 67.47 67.30 67.81 72.83 73.05 72.47 71.16 69.67 69.49 70.62 70.39 69.40 68.21 67.65 65.97 67.51 67.01 68.56 70.30 72.21 72.76 72.91 72.13 72.98 74.44 75.87 76.09 76.62 76.90 77.15 76.69
73.24 73.44 74.08 75.59 75.39 74.14 73.55 73.51 72.85 72.79 71.03 69.31 67.65 70.86 71.56 73.89 73.33 72.77 71.98 70.93 69.97 69.41 68.12 66.72 67.22 65.00 64.73 65.14 66.95 67.78 68.93 71.39 72.78 73.09 72.94 72.76 73.37 73.44 75.55 76.19 76.13 76.55 76.97
73.31 74.00 72.77 73.24 73.67 72.45 72.70 72.46 72.69 72.72 72.38 73.37 73.74 71.38 71.94 72.51 73.49 72.54 72.21 71.98 71.23 70.94 67.78 65.86 65.72 64.88 65.93 66.76 67.51 67.67 69.85 70.65 71.84 73.47 72.75 73.09 72.52 73.50 73.12 74.66 75.46 75.48 76.46
74.52 74.13 73.46 72.65 71.29 71.39 71.41 71.32 71.47 70.93 72.13 70.21 71.25 68.77 70.07 68.70 70.18 70.71 72.11 72.19 70.55 69.86 69.11 67.28 65.74 65.66 66.12 68.65 70.53 70.45 69.31 67.94 70.38 71.45 72.42 73.24 72.66 72.94 73.44 73.02 73.40 74.04 76.03
74.67 73.67 71.94 71.61 70.14 69.45 67.96 67.49 67.02 68.10 70.25 70.62 69.82 68.40 67.23 67.63 67.98 67.85 71.60 70.83 70.42 69.87 69.76 69.47 69.63 68.62 67.69 68.39 67.67 65.35 68.81 69.66 70.21 70.84 71.64 72.16 72.69 72.75 72.74 72.97 72.35 72.41 73.27
73.35 73.63 73.21 71.14 70.24 68.34 67.36 67.94 68.91 70.83 71.12 72.31 72.19 70.73 70.22 69.75 68.08 71.48 70.50 70.14 70.15 69.09 68.54 69.40 69.02 67.42 67.06 68.37 64.94 63.08 61.88 63.95 68.01 70.35 70.30 71.19 71.14 72.05 72.43 73.16 72.64 72.11 71.65
72.14 73.12 71.89 71.20 70.48 69.86 69.53 71.18 69.72 70.35 70.90 69.56 69.66 70.42 71.51 71.87 71.88 70.54 69.86 69.37 69.39 69.20 68.71 68.55 68.07 67.02 66.21 68.10 68.50 65.62 61.97 59.75 63.06 67.15 68.79 69.78 69.66 71.15 71.88 73.27 72.37 71.94 71.74
72.51 73.45 71.83 71.27 70.48 70.77 70.67 69.16 69.97 68.45 67.40 68.93 69.62 70.23 69.99 70.90 71.04 70.51 69.99 70.24 69.63 69.49 68.75 69.07 69.54 67.85 66.95 65.22 66.88 68.69 67.96 67.04 61.62 60.20 65.65 68.03 69.20 70.66 71.27 70.66 70.84 71.50 71.70
72.88 72.66 71.14 70.95 70.73 70.02 68.86 69.61 69.81 68.62 69.49 69.96 68.86 69.11 69.27 69.44 70.03 70.60 70.41 70.28 69.66 69.63 69.36 69.22 68.55 67.96 67.47 66.68 66.23 65.99 65.50 66.50 67.04 62.84 60.50 63.36 68.05 69.61 70.66 71.31 71.65 70.65 71.35
71.36 72.97 71.27 70.52 69.35 70.47 71.21 71.13 70.87 69.28 68.68 68.04 67.89 67.89 67.47 68.63 69.06 69.96 70.88 70.16 69.78 69.19 68.68 69.29 68.82 68.34 67.40 67.62 67.94 67.49 65.67 64.82 64.36 64.84 62.04 62.05 62.42 64.91 67.71 69.72 69.65 69.02 70.38

GFSSE_sfc_wetblb_030.txt.gz
Wetbulb
74.75 77.44 79.81 80.18 80.12 79.63 79.30 78.67 78.36 78.12 78.04 78.42 78.55 78.33 78.16 78.23 78.31 78.69 78.65 78.30 77.93 77.94 77.09 76.38 76.63 76.61 76.74 76.22 76.20 76.47 76.65 76.49 76.33 76.16 76.24 76.03 75.78 75.39 75.82 75.13 74.77 73.54 74.99
75.94 77.87 79.81 80.42 80.54 80.38 79.58 79.03 78.51 78.47 78.15 78.13 78.38 78.11 77.69 77.61 77.68 77.86 78.17 77.82 77.33 77.33 76.87 76.71 76.70 76.78 76.79 76.20 76.42 76.39 76.49 76.52 76.30 76.33 76.42 75.93 75.72 75.25 75.02 74.93 74.95 73.60 74.69
76.06 77.84 79.07 79.99 80.39 80.13 79.83 79.37 78.82 78.43 78.24 78.04 78.04 77.90 77.57 77.81 77.46 77.43 77.17 77.40 77.19 77.03 76.52 76.90 76.98 77.06 76.74 76.44 76.75 76.57 76.69 76.34 76.55 76.27 75.73 72.81 73.36 75.39 74.62 74.13 74.01 75.00 74.08
76.69 77.39 78.47 79.87 80.21 80.14 79.94 79.50 79.12 78.65 78.16 78.24 78.01 77.77 77.49 77.48 77.25 77.13 77.31 77.62 77.27 76.91 76.95 76.76 76.94 77.08 76.72 76.89 76.61 76.72 76.68 76.46 76.03 75.53 72.52 73.22 73.72 75.76 74.73 75.18 73.73 75.28 74.99
76.51 77.67 78.24 80.22 80.34 79.64 79.65 79.61 79.22 79.10 78.32 77.95 77.89 77.86 77.57 77.27 77.09 77.10 77.27 77.04 77.07 76.86 76.88 76.73 76.92 76.87 77.16 76.84 76.63 76.87 76.38 75.89 76.10 74.61 72.26 71.36 72.40 75.09 75.01 74.34 74.08 74.21 74.33
76.61 77.71 79.51 80.24 79.90 79.51 79.52 79.56 79.14 78.98 78.70 78.50 77.97 77.98 77.64 77.57 77.44 77.04 77.01 76.87 76.99 76.80 76.92 76.87 76.87 76.80 76.65 76.66 76.99 76.26 76.29 75.71 75.43 72.86 72.29 73.03 71.08 74.73 75.21 74.77 74.98 74.75 75.01
76.26 77.61 78.45 79.91 80.17 80.12 79.86 79.45 79.01 78.78 78.69 78.24 78.14 77.82 77.53 77.78 77.49 77.01 76.57 76.68 76.54 76.42 76.74 76.74 76.31 76.31 75.74 76.45 77.16 76.53 76.24 75.74 73.63 73.45 72.78 72.02 71.20 75.66 74.73 75.39 75.12 74.20 74.35
75.60 77.36 77.92 79.63 79.84 79.84 79.34 78.90 78.80 78.56 78.34 78.02 77.80 77.45 77.42 77.25 77.01 77.04 77.01 76.39 76.22 76.36 76.46 76.92 76.51 76.53 75.95 75.96 76.42 76.36 76.00 75.38 74.64 72.88 72.24 72.29 74.00 76.39 75.56 75.63 75.41 74.37 74.39
75.92 76.18 76.95 77.36 77.87 78.90 78.70 78.73 78.65 78.26 77.99 77.70 77.54 77.99 77.61 77.57 77.20 77.08 77.23 77.09 76.40 76.30 74.74 76.34 76.34 76.67 76.78 76.62 76.37 76.08 75.47 75.27 72.86 72.78 72.71 72.92 75.23 76.17 76.00 75.79 75.37 74.60 74.25
74.65 75.49 75.58 75.17 75.51 75.95 76.50 78.58 78.45 78.34 77.77 77.42 77.53 77.85 77.66 77.51 77.53 77.39 77.96 77.89 76.79 76.49 75.92 75.70 76.53 76.64 76.67 77.01 76.84 76.55 75.79 74.89 73.05 72.58 73.10 72.73 75.70 76.33 75.87 75.34 75.11 75.02 74.72
73.65 74.08 74.71 74.72 74.79 75.31 75.83 76.68 78.31 77.86 77.58 78.10 77.98 77.64 77.62 74.54 75.20 75.99 76.78 76.70 76.44 76.09 76.06 76.11 76.27 76.86 76.76 76.59 76.96 76.76 76.25 73.53 72.70 71.83 72.24 75.15 76.05 76.83 75.56 75.33 75.40 74.54 74.44
71.36 72.62 73.91 74.04 74.24 74.62 76.28 75.27 75.73 75.27 74.83 74.50 74.78 74.32 74.01 73.94 74.01 75.55 76.13 76.17 76.54 76.56 76.47 76.59 76.56 76.36 76.13 73.56 73.15 75.66 73.57 72.84 71.18 72.14 72.04 74.93 75.67 77.46 76.49 76.12 76.40 75.15 74.75
71.45 72.42 73.25 73.58 73.84 74.17 74.80 74.56 74.48 74.48 74.33 74.37 74.27 73.98 74.10 74.81 73.71 73.87 73.61 73.91 73.92 75.52 73.43 75.40 74.95 74.61 73.36 72.65 72.45 72.83 72.57 72.56 70.81 72.01 72.10 75.10 75.72 76.79 76.72 76.36 76.19 75.66 75.19
71.67 72.36 73.46 73.81 74.08 74.29 74.89 74.91 74.80 74.76 74.61 74.52 73.74 73.62 73.74 72.28 70.01 71.63 73.04 72.75 72.56 72.68 72.58 72.70 72.59 70.51 69.44 71.05 70.67 71.61 72.14 71.70 70.94 72.52 72.40 74.91 75.52 76.39 77.37 76.68 76.26 75.45 75.70
71.56 72.80 73.35 74.15 73.85 73.87 74.15 72.97 72.60 71.26 72.71 73.46 72.46 73.43 72.50 70.10 70.49 71.40 71.61 71.69 72.00 72.58 71.49 69.03 69.66 69.88 68.55 68.61 69.84 69.52 70.31 71.61 71.64 72.24 72.40 74.63 75.27 75.52 76.96 77.07 76.47 75.82 75.29
72.09 72.34 73.41 73.75 73.74 73.91 73.05 71.25 69.41 67.23 69.96 70.97 69.48 69.88 72.02 71.52 70.87 70.90 68.40 68.40 68.03 70.50 69.48 68.45 67.84 67.66 67.48 67.61 68.72 68.30 68.28 69.56 71.88 72.02 72.34 72.51 75.46 75.67 76.15 77.23 77.32 76.68 76.00
71.75 72.69 73.88 73.43 73.65 72.83 71.57 71.50 71.15 69.37 70.22 69.39 68.85 68.62 67.16 69.54 71.47 70.93 69.26 68.58 68.28 67.96 69.52 67.86 67.23 66.87 66.15 66.25 67.01 67.32 68.36 69.57 72.12 72.58 71.91 72.21 73.01 75.90 75.70 76.07 77.10 76.70 76.22
72.16 72.61 73.18 75.04 72.71 72.42 71.93 72.29 72.67 72.57 70.65 69.82 68.87 68.22 69.06 69.11 72.37 71.76 70.86 69.91 69.86 69.21 68.94 67.84 67.38 65.99 64.69 64.46 64.67 66.47 68.58 69.31 70.77 71.85 72.51 72.52 72.82 73.06 74.71 75.94 75.96 76.09 76.88
72.63 72.47 72.43 73.68 72.24 71.74 71.20 71.39 71.31 71.98 71.42 71.94 69.98 68.90 70.61 72.01 73.36 72.47 72.30 71.51 70.41 69.67 68.20 67.05 66.95 64.60 64.08 64.29 64.70 66.51 67.73 69.52 71.00 72.34 72.59 72.21 72.10 73.12 72.66 74.72 75.50 75.50 76.19
72.56 72.18 71.82 71.38 71.40 70.38 69.95 70.35 70.75 69.69 70.67 71.54 70.15 70.10 70.39 68.29 70.00 69.41 70.57 70.29 69.42 69.33 67.56 66.68 65.18 64.57 64.83 65.79 69.62 70.26 69.50 69.64 69.66 69.43 71.17 71.83 72.20 72.12 72.65 72.49 72.59 73.54 75.48
72.43 71.97 71.02 69.28 68.20 69.12 66.20 66.27 67.07 67.50 69.03 70.55 70.13 68.93 67.48 66.88 68.19 65.71 67.83 70.06 69.72 68.63 68.33 67.81 66.14 64.54 65.18 66.91 66.30 65.01 65.89 68.42 68.30 67.73 69.33 70.84 71.36 71.24 71.64 72.29 71.54 71.63 72.43
71.62 71.02 69.50 68.27 67.10 67.01 66.33 66.18 66.47 68.39 69.78 71.14 70.84 69.75 69.77 69.57 68.23 67.09 69.55 69.59 69.22 68.11 67.32 67.36 67.86 66.23 66.93 68.26 64.52 62.30 59.77 62.88 66.57 68.86 69.25 70.30 70.91 70.78 71.75 71.99 72.06 71.43 71.35
72.19 70.60 69.10 68.47 67.43 67.03 66.41 69.33 69.39 69.44 69.47 67.95 68.21 69.19 70.15 71.12 70.91 70.19 69.00 68.33 68.11 67.86 67.34 66.98 66.98 66.12 64.58 66.23 66.78 63.36 60.65 59.86 62.58 65.22 67.54 69.30 69.94 69.15 70.07 70.71 71.39 72.24 71.52
71.75 70.91 70.03 69.36 68.26 67.52 68.20 67.69 68.85 67.14 67.19 67.54 68.50 68.55 68.61 69.32 69.07 69.63 69.39 68.97 68.49 68.20 67.54 67.45 68.29 66.89 65.76 64.17 66.64 68.20 67.21 65.55 61.94 60.79 64.27 66.73 68.76 68.88 69.38 69.57 70.34 71.11 71.38
72.52 71.19 69.99 68.96 68.75 69.46 67.96 66.67 66.68 67.89 68.44 68.26 67.52 66.85 67.27 68.29 69.35 70.07 69.76 69.07 67.95 68.20 68.22 67.70 67.43 66.96 66.23 65.11 64.30 64.97 66.08 65.67 65.47 63.60 61.40 63.20 65.93 67.99 68.98 68.74 69.86 70.39 70.05
71.86 70.34 69.80 68.60 68.15 68.59 67.86 68.03 69.16 67.66 66.96 66.83 65.91 66.33 66.46 67.32 67.57 68.35 69.33 68.78 68.42 68.11 67.43 67.66 67.70 67.12 66.51 66.03 65.94 65.88 65.73 63.86 63.25 64.03 62.71 62.80 61.68 63.84 66.66 67.38 68.22 68.54 68.96

GFSSE_sfc_wetblb_033.txt.gz
Wetbulb
74.44 77.00 79.48 79.09 78.83 78.57 78.28 77.89 77.56 77.56 77.68 78.29 78.65 78.54 78.24 77.84 77.77 78.00 77.92 77.30 76.95 76.94 76.46 76.62 76.42 76.42 76.10 76.02 76.52 76.35 75.75 75.50 75.88 75.37 74.97 75.65 75.07 74.72 74.80 75.40 75.27 73.17 74.96
75.81 77.82 79.72 79.53 79.43 78.74 78.42 78.05 77.85 77.61 77.42 77.72 77.95 78.11 77.71 78.05 77.40 77.42 77.39 77.02 76.65 76.84 76.54 76.56 76.59 76.47 76.27 75.92 75.82 75.95 75.52 76.15 76.11 75.82 75.57 75.62 75.86 75.41 74.89 74.88 75.25 73.48 75.04
76.11 77.57 78.90 79.64 79.86 79.06 78.56 78.00 77.95 77.86 77.43 77.34 77.57 77.56 77.46 77.53 77.33 77.14 77.14 76.91 76.63 76.44 76.79 76.71 76.75 76.53 76.44 76.12 76.09 75.93 75.94 75.87 76.04 76.23 75.78 72.91 72.96 74.84 74.46 74.62 74.87 74.41 74.18
76.46 77.33 77.80 79.41 79.81 79.26 78.50 78.24 78.06 77.92 77.77 77.52 77.36 77.16 77.16 77.26 77.03 77.04 77.26 77.23 76.96 76.69 76.23 76.79 76.33 76.59 76.21 76.35 76.29 76.37 75.88 75.87 76.04 75.81 73.13 72.86 73.24 74.68 73.89 73.44 74.63 73.89 73.64
76.18 77.40 77.85 80.08 79.81 78.89 78.65 78.66 78.19 78.05 77.86 77.63 77.47 77.11 76.88 77.03 77.20 77.17 77.29 76.96 76.88 76.90 76.84 76.64 76.44 76.37 76.45 76.48 76.44 76.46 76.30 75.89 75.50 73.96 71.56 71.80 72.20 73.95 75.05 73.68 74.72 74.74 74.83
76.37 77.24 79.39 80.09 79.38 78.66 78.52 78.51 78.29 78.03 77.82 77.60 77.61 77.50 76.99 77.00 76.87 76.96 76.85 76.45 76.49 76.52 76.69 76.84 76.56 76.09 76.25 76.78 76.21 75.84 75.73 75.56 75.43 72.34 71.28 73.44 72.25 74.71 74.50 74.04 73.90 74.03 74.02
75.93 77.39 78.35 79.71 79.81 79.19 78.78 78.34 78.39 78.13 77.87 77.71 77.61 77.42 77.18 77.27 77.11 76.75 76.65 76.56 76.56 75.94 76.35 76.44 76.40 76.01 76.23 76.86 76.52 76.07 75.45 75.44 72.69 72.47 71.99 72.16 71.18 75.59 74.55 74.49 74.36 75.00 74.30
76.13 76.87 77.70 79.43 79.46 78.84 78.52 78.41 78.08 77.93 77.84 77.97 77.68 77.36 77.38 77.51 77.01 76.90 76.62 76.16 76.21 75.91 76.14 75.90 76.08 75.99 76.17 76.86 76.66 76.18 75.74 75.52 74.45 72.83 72.12 71.47 72.57 75.49 74.94 75.53 74.76 74.00 73.92
76.56 76.68 77.01 77.26 77.67 78.78 78.55 78.35 78.25 78.34 78.05 77.73 77.42 77.35 77.23 77.15 76.86 76.81 76.60 76.39 75.99 75.98 75.32 76.28 76.15 75.58 76.34 76.25 76.47 75.75 75.21 75.15 72.51 72.29 72.01 71.85 74.96 75.64 75.18 75.30 75.27 74.23 74.35
75.35 76.14 76.06 76.21 76.19 76.20 76.76 78.77 78.48 78.24 77.68 77.42 77.43 77.71 77.56 77.36 76.83 76.67 77.24 77.13 76.26 75.72 74.91 75.17 75.87 76.17 75.69 76.73 76.52 75.82 75.18 74.47 71.65 72.29 71.62 71.99 75.46 75.78 75.83 75.85 75.53 74.14 74.08
73.91 74.36 74.50 74.16 74.70 74.81 75.37 76.74 78.21 77.91 77.48 77.04 77.13 77.51 76.92 74.68 75.12 76.08 76.65 76.51 76.29 76.10 75.97 75.70 75.60 75.94 75.98 76.00 76.56 76.25 75.39 73.22 72.28 71.65 72.09 74.23 75.36 75.78 75.86 75.49 75.54 74.93 74.53
71.71 72.67 73.69 73.66 73.94 74.41 75.95 74.60 74.99 74.81 74.30 74.64 75.20 74.36 74.17 73.59 74.08 75.42 76.43 76.91 76.37 76.30 75.97 76.04 75.86 76.07 76.04 73.04 73.36 75.87 73.27 72.75 71.86 71.15 71.28 74.68 75.29 75.64 76.61 76.07 75.66 74.75 75.04
71.35 72.30 72.97 73.36 73.44 73.84 74.53 73.90 74.17 73.96 74.28 74.22 74.14 73.45 73.46 73.51 72.95 73.99 74.24 73.83 73.34 76.41 73.11 74.61 74.50 74.40 73.30 72.71 72.21 72.39 72.18 72.27 70.94 71.29 72.56 74.48 75.27 75.74 76.04 76.05 75.55 74.97 74.50
70.55 71.31 72.41 72.75 73.10 73.21 74.07 74.30 74.02 73.72 74.17 73.02 74.13 73.81 73.17 73.31 71.74 70.56 71.97 72.21 71.86 72.44 72.20 72.17 72.63 72.73 71.50 71.85 71.34 70.99 71.82 71.60 70.99 71.00 71.51 74.36 75.65 75.81 76.15 76.09 75.73 75.66 75.32
70.13 71.10 72.21 72.82 72.76 73.34 73.48 74.19 73.96 73.99 73.20 73.18 72.34 73.00 72.29 70.64 68.97 69.49 71.38 71.60 71.85 71.94 71.63 70.68 70.64 70.69 69.24 69.51 70.28 70.18 70.55 70.96 71.21 71.39 71.85 74.65 76.15 75.84 75.54 76.15 76.33 75.64 75.34
71.13 71.35 72.64 72.86 73.20 73.29 72.52 72.58 72.70 71.61 71.27 71.26 71.65 71.74 71.99 70.08 68.94 69.94 69.42 68.88 69.08 69.66 70.46 69.76 68.70 68.65 68.54 67.28 67.56 69.06 68.94 68.89 70.04 71.50 71.45 72.03 75.67 75.72 75.70 76.03 76.33 76.53 75.63
71.64 72.09 72.61 73.22 73.67 73.17 72.10 70.91 70.14 69.17 69.11 69.26 69.89 69.61 69.01 68.84 69.91 70.45 69.31 67.75 67.89 67.95 69.39 68.41 67.80 67.37 66.60 66.11 65.96 67.82 67.62 67.89 68.85 70.86 71.24 71.84 72.67 75.78 75.68 76.03 76.38 76.73 77.00
71.26 71.91 72.80 74.53 73.43 71.92 71.69 71.16 70.93 70.90 70.27 69.26 69.49 69.06 68.68 68.04 67.34 70.41 70.66 69.33 69.55 68.27 68.23 67.93 66.83 65.76 65.18 64.50 64.30 64.94 66.27 67.56 68.12 69.59 71.50 71.67 71.94 72.32 74.58 75.89 75.31 75.32 76.73
71.21 71.66 72.69 72.19 72.04 72.38 71.29 70.57 70.04 71.36 70.64 71.05 70.41 68.97 68.56 70.04 70.93 69.92 70.57 70.51 70.01 69.56 68.16 67.57 66.87 66.05 63.94 63.19 63.53 63.84 65.14 66.30 68.05 70.11 70.76 71.33 71.60 72.13 71.71 73.89 75.38 75.00 75.82
71.60 71.79 72.23 70.77 71.02 70.54 69.71 69.17 69.41 69.91 70.46 70.98 70.64 69.77 70.15 70.23 71.17 70.29 69.89 69.89 69.67 68.81 67.82 66.57 65.97 65.76 64.95 64.28 66.07 67.53 66.92 67.21 68.09 68.97 69.77 71.41 71.22 71.55 72.11 71.95 71.74 72.99 74.94
71.35 70.71 71.17 69.01 68.38 68.04 67.03 66.43 67.10 67.33 68.31 69.60 69.73 68.85 68.29 66.88 67.18 66.85 65.90 68.76 68.61 67.89 67.89 66.98 65.47 64.36 63.62 64.89 64.26 63.75 64.15 66.56 68.41 68.34 68.63 69.34 70.36 71.68 71.51 71.49 71.68 71.65 72.15
70.44 69.55 68.25 67.59 67.14 66.18 66.00 66.47 66.52 67.59 69.25 70.47 70.84 70.44 69.15 69.12 67.42 65.98 66.30 68.68 67.95 67.61 67.03 66.64 67.16 66.23 64.27 65.47 63.62 62.63 61.06 62.08 65.19 67.53 67.64 68.43 68.83 70.61 70.62 71.27 71.33 71.26 71.36
69.98 68.85 67.62 66.90 66.41 65.54 65.80 69.23 68.67 68.42 68.76 67.73 67.66 68.16 68.82 70.09 69.94 69.06 68.37 67.73 67.33 66.94 66.67 66.22 66.03 66.08 63.83 66.77 65.07 62.86 59.46 59.09 62.19 64.79 66.41 67.71 68.31 68.83 69.80 70.54 70.81 71.13 71.04
70.57 69.70 67.44 67.24 66.05 65.58 68.12 67.58 67.57 66.41 65.66 66.70 67.19 67.17 67.59 68.64 68.89 69.33 68.76 68.47 67.53 67.03 66.51 66.42 67.34 66.19 64.72 63.29 65.64 66.46 64.82 64.73 61.18 59.89 63.63 64.86 67.10 67.71 68.36 68.56 69.24 70.07 70.48
71.00 70.06 68.81 67.55 66.32 67.37 67.34 66.10 66.76 66.77 67.59 66.74 66.02 65.91 66.65 67.08 67.75 68.71 68.70 68.18 67.55 66.96 66.89 66.92 66.42 66.41 65.62 64.04 63.62 63.55 63.60 65.13 65.69 62.65 60.60 62.80 64.52 66.35 68.04 68.09 68.70 69.13 70.51
70.25 69.52 68.54 67.28 66.81 67.44 66.51 67.70 67.88 66.79 66.50 65.35 65.55 65.54 65.79 66.06 66.22 66.56 67.95 67.75 67.44 67.26 66.78 66.58 66.69 66.53 65.87 65.17 64.56 64.26 63.55 63.36 63.81 62.50 61.14 62.58 62.53 64.67 66.47 67.32 67.41 69.47 68.83

GFSSE_sfc_wetblb_036.txt.gz
Wetbulb
73.89 76.46 79.08 78.95 78.24 77.86 77.87 77.70 78.15 78.34 78.50 78.58 78.62 78.33 77.92 77.76 77.38 77.25 77.27 77.22 77.05 76.82 76.58 76.50 76.08 76.51 76.26 76.26 76.24 76.11 75.97 75.71 75.27 74.70 74.95 75.41 75.32 74.25 74.20 74.96 74.06 72.57 74.69
75.01 77.03 79.17 79.11 78.58 78.08 78.04 77.87 77.69 78.05 78.01 78.38 78.43 78.30 78.19 77.84 77.70 77.48 77.23 76.80 76.85 76.63 76.55 76.38 76.24 76.60 76.17 76.41 76.07 75.69 75.55 75.59 75.09 75.06 75.32 75.37 74.48 74.93 75.18 75.01 74.65 73.88 74.60
75.92 77.33 78.05 79.32 79.12 78.19 78.00 77.78 77.64 77.69 77.38 77.63 78.11 78.13 78.12 78.25 77.67 76.92 76.99 76.76 76.85 76.47 76.61 76.85 76.66 76.59 76.05 75.81 75.84 75.68 75.98 75.68 76.47 75.47 75.47 74.21 74.24 74.75 74.29 75.11 74.93 74.80 74.50
76.44 77.17 77.61 79.10 79.16 78.47 78.02 77.94 77.78 77.39 77.35 77.34 77.45 77.67 77.67 77.41 76.95 76.86 76.90 76.31 76.07 76.29 76.57 76.32 76.47 76.66 76.11 76.37 76.05 76.11 75.91 76.10 76.06 75.75 74.11 73.62 73.22 74.35 74.40 74.76 74.43 74.00 73.76
76.54 77.01 77.28 79.58 79.42 78.47 78.12 78.24 78.18 77.80 77.38 77.27 77.21 77.18 77.30 77.15 77.04 77.10 77.19 76.86 76.38 76.49 76.23 76.49 75.92 76.46 76.31 76.48 76.56 75.84 75.66 75.89 75.73 74.33 73.21 73.77 74.24 73.44 73.57 74.83 74.02 73.85 73.47
76.63 77.01 79.04 79.75 78.71 78.39 78.20 78.00 77.89 77.93 77.83 77.46 77.21 76.95 76.93 77.15 77.27 77.19 76.69 76.44 76.44 76.84 76.62 76.50 76.27 75.92 76.32 76.32 76.36 76.03 76.07 75.87 75.40 72.76 73.13 74.52 73.56 74.75 73.57 75.22 75.29 75.01 73.87
75.89 77.33 78.11 79.52 79.18 78.74 78.12 78.05 77.97 77.78 77.52 77.41 77.38 77.17 76.98 76.95 76.82 76.77 76.47 76.63 76.33 76.35 76.47 76.62 76.36 75.65 76.26 76.79 75.79 75.49 75.44 75.67 72.97 72.96 72.93 74.17 73.75 75.43 74.06 73.92 73.93 74.29 73.57
75.95 77.01 77.63 79.11 79.14 78.25 78.17 78.01 77.86 77.63 77.48 77.42 77.33 77.19 77.19 77.05 76.85 76.84 76.41 76.19 76.26 75.74 76.09 75.82 76.16 75.76 76.16 76.40 75.35 75.44 75.19 75.07 74.25 73.20 73.10 73.30 73.40 75.43 74.52 74.30 74.94 74.91 73.68
76.31 76.54 76.74 76.97 77.54 78.40 78.03 77.75 77.79 77.71 77.47 77.67 77.35 77.05 77.38 77.38 76.90 76.96 76.71 76.18 75.98 75.64 75.36 75.49 75.84 76.13 75.64 76.60 76.14 75.78 75.44 74.87 74.00 73.48 72.91 72.93 74.17 75.14 74.90 75.23 74.30 74.05 73.96
75.73 76.13 75.83 76.24 75.92 76.22 76.38 78.42 78.10 78.03 77.92 77.52 76.93 76.86 76.98 77.05 76.76 76.68 77.13 76.92 76.26 75.62 74.21 75.02 75.18 75.95 76.55 76.19 76.44 75.50 75.05 75.24 73.55 73.15 73.14 72.96 74.52 74.98 74.99 75.32 75.09 74.13 73.93
74.61 75.21 75.49 74.88 75.10 75.34 75.85 77.13 78.42 78.05 77.56 77.08 76.74 77.64 76.77 75.78 75.87 76.32 76.46 76.19 76.29 76.00 75.51 75.33 75.34 75.45 75.83 76.78 76.40 75.77 75.08 74.33 73.22 72.99 73.37 73.53 75.04 75.39 75.55 75.97 75.01 74.25 74.12
72.08 73.54 74.31 74.05 74.43 74.71 76.02 75.46 75.66 75.38 75.04 74.86 75.83 75.48 75.22 75.01 75.11 76.17 76.80 76.38 76.22 76.17 75.98 75.92 75.62 75.66 75.70 74.57 75.22 76.23 74.98 73.75 73.34 72.61 73.41 74.27 75.34 74.96 75.82 75.50 75.74 75.04 74.67
72.04 73.10 73.77 73.73 73.98 74.24 75.02 74.06 74.36 74.00 74.06 74.73 75.22 74.99 74.80 74.49 74.27 74.18 73.63 74.58 74.99 76.04 74.71 75.71 75.65 75.32 74.30 73.99 73.94 73.90 74.11 73.61 72.76 72.34 73.35 74.60 75.34 75.44 75.24 76.09 75.82 74.98 75.04
70.88 72.15 73.00 73.36 73.15 72.96 73.84 73.84 74.52 73.80 73.95 74.03 73.86 73.89 72.87 72.58 73.14 73.06 72.71 73.78 73.08 74.25 73.51 73.95 74.19 74.45 74.20 73.76 73.40 72.97 73.25 73.01 73.00 72.43 73.01 74.47 75.19 75.68 75.93 75.75 75.79 75.00 74.72
70.06 71.17 71.82 72.96 72.79 72.78 72.92 73.08 73.17 72.45 72.85 73.29 73.77 73.45 72.89 72.06 71.85 70.33 71.38 72.71 73.06 72.97 73.14 73.14 73.39 73.38 72.76 72.37 72.64 72.00 71.82 72.85 72.91 72.64 72.80 74.16 75.18 75.52 76.29 75.78 74.67 75.19 75.33
70.42 70.68 71.52 72.35 72.67 73.06 71.90 71.85 71.88 72.64 72.64 72.70 72.27 73.09 73.14 71.06 70.52 70.37 70.91 71.01 71.25 72.04 72.70 72.58 71.66 71.89 71.84 70.76 69.97 71.01 70.97 71.21 71.78 72.53 72.71 73.86 75.22 75.20 75.66 75.96 75.36 75.78 75.65
70.69 71.00 71.69 72.21 73.22 71.58 72.38 72.42 72.04 70.73 70.88 70.16 71.19 71.50 71.35 71.82 71.39 71.13 71.10 70.27 70.16 69.82 71.16 71.07 70.35 69.99 69.79 69.35 68.99 68.98 69.88 69.99 69.91 70.65 72.25 72.93 73.42 74.74 75.62 75.43 75.43 76.10 76.19
71.28 71.07 72.33 73.41 72.35 72.63 72.15 71.43 71.04 70.63 70.18 69.19 69.12 70.24 70.52 69.74 68.73 68.99 70.51 70.90 70.24 69.91 69.12 69.37 68.83 68.35 68.13 67.86 67.79 68.06 68.40 68.64 69.18 69.55 71.38 72.95 73.21 72.74 74.68 75.68 75.23 75.20 75.56
71.29 71.52 72.35 71.71 72.28 71.85 71.84 71.44 70.93 71.36 71.10 71.15 70.68 69.87 69.87 70.19 70.79 70.05 70.49 71.08 71.89 70.75 70.09 69.17 68.60 68.31 67.25 66.69 65.94 66.36 66.60 67.00 67.63 68.68 70.17 71.62 72.65 73.69 73.17 74.05 75.06 74.99 75.61
70.94 72.00 72.26 71.04 71.25 70.63 70.16 69.62 69.28 70.17 70.30 70.79 70.21 69.91 71.02 71.08 71.90 71.60 71.44 71.59 71.15 70.54 69.98 69.08 68.53 68.13 67.77 67.02 66.55 66.86 67.20 66.70 67.98 68.79 69.08 71.11 72.51 73.10 73.82 73.77 74.33 74.00 75.22
71.26 71.41 71.21 69.99 68.60 68.33 67.43 66.89 67.16 67.25 68.29 69.91 69.80 70.00 69.58 69.12 68.71 68.71 69.01 69.36 70.48 69.88 69.94 69.14 68.31 67.45 66.57 66.49 66.17 66.02 66.74 68.20 68.64 69.44 70.35 70.39 71.59 72.97 73.27 73.98 74.09 74.14 74.04
70.23 70.71 69.59 68.04 67.38 67.21 66.67 66.78 67.07 68.04 68.74 69.95 69.84 71.25 71.03 70.72 69.78 68.38 68.03 69.78 69.81 69.43 69.34 69.00 68.02 66.98 66.39 66.26 64.98 64.62 64.10 65.53 66.06 68.35 69.63 70.02 70.17 71.49 72.48 72.94 73.39 73.24 73.56
69.57 69.63 68.29 67.99 66.76 66.00 66.44 68.53 68.48 67.85 68.84 68.60 68.06 69.07 69.54 70.39 70.31 70.25 69.81 69.37 69.07 68.85 68.56 68.47 67.95 67.25 65.09 67.09 66.81 65.93 61.84 61.92 64.14 65.58 67.85 69.05 70.25 70.68 71.59 72.29 72.80 73.26 73.24
68.76 68.75 68.17 67.07 65.96 65.93 68.21 67.96 68.10 66.98 66.64 67.52 67.88 68.13 68.62 69.48 69.65 70.17 70.00 69.66 69.47 69.12 68.56 68.53 68.85 67.72 66.89 65.39 67.58 67.45 67.25 65.94 61.87 60.30 66.58 66.00 69.38 69.23 70.05 71.11 71.86 72.40 72.82
64.92 68.06 67.52 66.76 65.87 66.29 67.58 68.55 68.37 67.61 67.61 67.39 67.19 67.79 67.97 68.04 68.30 68.67 69.38 69.18 68.87 69.05 69.03 68.71 68.60 68.67 67.56 66.66 66.39 66.23 66.64 67.27 67.46 65.08 62.53 64.01 66.96 67.93 68.13 68.58 71.04 71.82 72.26
65.46 68.29 68.26 66.40 65.75 67.30 67.20 68.83 68.44 67.50 66.54 66.45 66.56 66.62 66.76 66.73 66.94 67.61 68.59 68.78 68.89 69.05 69.01 68.87 68.78 68.42 68.24 67.68 67.25 66.94 66.17 65.86 65.45 64.22 62.82 62.85 63.26 66.18 67.90 69.19 69.41 69.77 69.53

GFSSE_sfc_wetblb_039.txt.gz
Wetbulb
74.34 76.98 79.02 78.52 78.06 78.19 78.15 78.31 78.88 79.02 79.00 78.96 78.50 77.98 77.98 77.82 77.82 77.84 77.98 77.89 75.60 76.72 76.66 76.25 76.24 76.24 76.54 76.55 76.44 76.02 76.07 75.68 75.33 74.95 75.56 75.47 74.55 74.80 75.13 74.01 74.49 73.95 74.68
74.87 76.96 79.13 79.04 78.39 77.96 78.13 78.19 78.35 78.78 78.77 78.40 78.72 78.59 78.30 78.17 77.67 77.41 77.00 77.30 76.93 76.62 76.59 76.35 76.60 76.72 76.42 76.31 76.35 76.11 75.74 75.52 75.03 75.00 75.93 75.50 74.65 74.66 75.02 74.50 73.45 74.87 74.78
74.84 76.69 78.02 79.03 78.66 78.11 77.98 78.05 77.91 78.35 77.92 78.27 78.59 78.31 78.00 77.93 77.63 76.66 76.68 76.63 76.55 76.18 75.94 76.49 76.68 76.32 76.13 76.70 75.75 75.80 75.74 75.83 75.94 75.50 75.26 74.07 74.37 75.43 75.08 74.93 74.92 74.96 75.04
75.50 76.49 77.12 78.91 78.88 78.45 78.03 78.13 77.98 77.89 77.45 77.94 78.03 78.34 78.13 77.93 77.22 76.68 76.52 76.44 75.94 76.01 75.64 75.05 76.54 76.33 75.94 75.69 75.92 75.97 75.66 75.81 75.73 75.72 74.99 74.11 73.18 74.59 75.18 75.13 75.18 75.03 73.94
76.35 77.02 77.70 79.49 78.99 78.19 78.08 78.22 78.19 78.22 77.56 77.49 77.44 77.42 77.32 77.24 76.95 76.89 76.79 76.29 75.71 76.30 76.52 75.29 75.54 76.37 76.26 76.16 76.38 75.83 75.97 75.96 75.65 75.31 75.34 75.77 74.41 73.78 74.31 74.60 74.13 73.71 73.21
76.52 77.19 78.87 79.53 78.67 78.06 78.06 77.88 77.85 77.83 77.73 77.43 77.41 77.29 77.27 76.84 77.14 76.88 77.03 76.72 76.55 76.50 76.47 76.76 74.96 76.21 76.21 76.37 76.22 75.77 76.05 76.00 75.50 75.13 75.03 75.38 74.68 73.82 74.41 74.44 73.29 74.29 72.79
76.52 77.12 78.42 79.35 79.21 78.67 78.06 77.98 78.11 77.90 77.53 77.28 77.17 77.23 77.13 77.26 76.95 76.80 76.51 76.39 75.82 76.06 76.22 76.73 76.52 75.67 75.67 76.27 76.19 75.88 76.02 75.47 74.90 74.99 75.09 74.74 74.38 75.04 73.62 75.14 75.00 74.90 73.50
76.24 77.15 77.94 78.68 79.22 78.44 78.03 77.86 77.91 77.62 77.56 77.49 77.22 77.04 77.09 76.87 76.84 76.55 76.47 76.36 76.26 75.84 75.54 75.90 76.00 75.99 76.37 76.54 75.96 75.96 75.32 75.27 73.96 74.42 74.79 75.15 74.83 74.83 73.79 73.62 74.08 74.23 73.62
77.07 77.29 77.96 78.22 78.45 78.34 78.21 77.65 77.69 77.42 77.06 77.30 77.29 77.28 77.13 77.05 76.87 76.43 76.19 75.95 76.12 75.81 75.62 75.95 76.02 75.67 76.42 76.60 75.78 75.15 74.73 75.12 75.10 75.25 75.01 75.06 74.96 74.90 74.50 74.18 74.65 74.66 73.48
76.85 76.99 77.43 78.24 78.15 78.01 78.19 78.10 78.00 77.88 77.46 77.66 77.28 77.06 77.32 77.03 76.73 77.00 76.38 76.33 75.85 75.49 74.15 75.41 75.72 76.23 76.33 76.92 75.93 75.58 75.54 75.22 75.47 75.37 75.91 75.00 74.45 75.07 75.14 74.36 74.57 74.08 73.84
75.91 76.67 77.37 77.62 78.25 78.44 78.45 77.82 78.14 78.03 77.73 77.27 77.02 76.92 77.19 77.01 76.73 76.65 76.23 75.83 76.08 75.82 75.33 74.98 75.46 75.92 76.49 76.43 76.16 75.67 75.24 75.43 75.37 75.43 76.09 75.29 74.10 74.94 75.40 75.39 74.97 74.53 74.16
73.84 75.14 75.71 77.20 77.57 77.78 76.98 78.50 78.26 77.68 77.15 76.95 76.95 78.26 77.10 77.67 77.48 76.92 76.48 76.34 76.33 76.07 75.85 75.60 75.42 75.65 75.77 75.85 76.14 75.67 74.41 74.75 75.08 75.46 76.13 74.39 74.60 74.94 75.66 75.36 75.35 74.91 74.23
74.01 74.86 74.61 76.86 77.53 77.66 76.84 77.23 77.45 76.85 76.61 77.07 77.82 78.22 77.90 77.31 77.73 77.46 78.23 78.31 77.00 76.76 76.45 75.81 76.09 75.72 75.86 75.40 75.40 75.83 75.53 74.75 74.06 74.64 75.62 74.84 75.00 74.87 75.15 76.48 76.31 75.70 75.12
73.79 74.48 75.66 76.49 76.88 77.25 77.04 77.00 76.95 76.50 77.08 76.63 77.59 77.63 76.56 77.03 76.52 76.72 77.85 77.40 77.27 77.88 77.29 75.97 75.35 75.83 76.00 75.89 75.05 75.36 75.55 75.02 74.22 74.03 74.58 74.73 75.34 75.28 75.35 76.16 75.97 75.49 75.05
73.37 74.47 75.43 76.46 76.60 76.85 76.79 77.30 73.32 73.13 74.61 76.69 76.35 77.46 74.87 74.23 73.64 72.91 72.05 74.46 75.05 76.43 76.47 77.72 76.91 76.06 75.70 75.70 75.95 74.98 74.48 74.79 74.96 74.31 73.93 74.37 75.15 75.60 75.90 75.63 75.63 75.67 75.44
73.87 74.26 75.47 75.95 76.30 76.35 75.90 75.40 74.04 71.54 71.79 72.23 75.42 74.24 74.81 74.55 72.66 74.75 74.18 73.60 75.12 75.75 75.96 75.81 76.66 76.54 76.53 75.79 74.86 75.19 74.95 74.60 75.24 75.27 74.75 74.33 74.82 75.63 75.86 75.93 76.45 75.30 75.44
74.39 74.64 74.05 73.66 74.46 75.46 73.50 74.77 74.67 72.92 72.59 71.37 72.04 74.20 75.76 73.76 75.39 74.55 73.93 73.87 74.77 75.37 75.43 75.38 75.45 75.14 75.07 75.43 74.89 74.44 74.15 74.38 73.92 74.15 74.54 75.19 75.13 75.19 75.58 75.80 75.89 75.49 75.31
74.67 74.04 72.26 69.71 69.24 73.75 74.37 75.57 74.34 74.42 71.93 70.69 70.44 72.80 74.52 74.77 75.04 74.81 74.61 74.34 74.66 74.58 73.95 73.03 73.50 73.47 73.55 73.45 73.24 73.02 73.35 73.46 73.40 73.76 73.84 74.08 74.83 75.03 75.47 75.40 75.59 75.44 75.51
75.20 74.90 72.33 69.32 68.79 71.05 74.23 76.01 75.41 72.69 73.24 74.15 72.80 72.08 74.46 74.28 74.23 73.31 73.11 73.54 75.14 73.57 72.63 72.86 72.68 71.90 70.48 72.05 71.80 72.16 72.13 71.68 72.00 72.51 73.01 73.40 73.64 74.30 75.06 75.48 75.21 74.81 75.95
74.77 73.74 74.13 72.17 69.76 72.21 74.84 74.21 73.34 71.24 72.31 72.60 72.78 72.65 74.58 74.77 74.51 74.10 73.32 74.26 75.06 74.77 74.23 73.95 73.33 73.07 72.63 72.30 71.21 70.64 71.13 71.40 70.97 70.57 70.93 71.68 72.81 73.90 75.16 75.85 75.70 75.36 75.30
72.40 73.29 72.93 74.41 75.46 74.13 72.09 71.23 71.77 72.11 68.95 70.69 71.58 71.13 72.11 72.79 72.35 73.52 72.85 73.84 74.48 73.99 74.07 74.26 73.30 72.43 71.05 71.07 70.09 70.54 70.80 71.62 71.43 71.60 72.09 72.39 71.93 74.03 75.46 75.77 77.68 78.00 75.59
65.26 68.24 73.44 74.54 73.90 73.77 71.83 71.56 71.02 69.10 71.03 71.41 70.69 72.85 74.11 74.27 73.92 73.70 73.92 74.18 74.67 73.30 73.53 73.32 72.58 70.10 69.35 71.02 69.00 68.88 66.22 68.69 69.98 70.90 70.92 72.03 72.81 73.34 74.28 75.15 76.03 76.58 77.19
64.32 67.01 70.19 73.03 73.25 71.95 71.82 71.45 71.00 71.00 71.44 70.69 70.59 72.13 73.36 73.65 73.62 73.61 73.75 74.07 73.80 72.98 71.85 72.77 72.38 70.16 67.96 68.77 70.63 69.58 66.39 64.71 67.79 68.05 69.38 70.37 71.42 72.24 73.18 73.79 74.70 75.03 75.95
65.84 66.96 69.65 70.90 71.90 71.39 72.83 72.02 71.81 69.82 70.01 71.28 71.02 72.33 72.21 72.34 72.26 72.62 72.87 73.26 73.64 73.15 72.55 72.49 72.68 71.14 70.08 68.74 68.45 69.00 70.43 69.23 67.40 64.75 69.06 68.67 69.90 70.49 72.40 73.67 74.03 74.92 75.63
67.26 67.26 70.33 71.50 71.34 71.22 72.10 72.74 72.64 71.78 71.28 70.84 71.45 72.08 72.00 71.85 71.87 71.95 72.57 72.60 73.49 73.66 73.25 72.66 72.33 71.89 69.91 69.09 68.00 69.44 67.82 69.65 70.70 69.24 65.39 65.90 68.26 69.13 69.35 70.59 73.04 73.87 73.26
66.83 67.78 70.29 71.46 71.22 71.18 71.01 71.49 72.92 71.62 70.47 70.10 70.63 70.63 69.65 70.29 70.98 72.28 72.40 71.48 71.77 72.37 72.57 72.77 72.50 71.65 71.64 70.08 69.98 70.84 70.47 68.53 68.95 68.50 68.11 65.76 66.50 67.76 69.19 70.22 70.71 70.99 71.87

GFSSE_sfc_wetblb_042.txt.gz
Wetbulb
75.53 77.67 79.01 78.72 78.26 78.53 78.58 79.08 79.24 79.17 78.73 78.29 78.25 77.75 77.78 77.58 77.36 77.44 77.63 75.77 76.20 76.91 76.52 76.27 76.02 76.05 76.28 76.22 76.24 76.27 76.07 75.88 75.44 75.30 75.55 75.02 75.04 75.21 74.61 74.64 74.24 73.64 73.75
76.51 77.50 78.84 78.94 78.63 78.48 78.53 78.94 79.18 78.97 78.78 78.61 78.15 77.87 77.26 77.30 77.23 77.21 77.44 76.18 75.89 75.93 76.13 76.22 76.52 76.52 76.55 76.49 76.24 76.16 75.83 75.16 75.03 75.99 75.99 74.36 74.95 74.94 74.17 73.61 74.74 74.56 73.75
76.45 77.87 78.30 78.90 78.65 78.15 78.47 78.56 78.51 78.37 78.11 78.96 78.68 77.56 77.02 77.24 76.91 76.47 76.72 76.35 74.50 72.88 75.49 76.39 76.68 76.43 76.66 76.40 75.94 76.16 75.39 75.25 75.06 75.66 74.97 75.64 74.92 75.55 75.05 74.25 74.83 75.13 74.67
76.75 77.58 78.12 78.80 78.96 78.21 78.28 78.20 78.40 78.05 77.64 78.17 78.27 77.77 77.16 77.26 76.50 76.22 76.45 76.19 75.43 75.50 74.04 75.79 76.74 76.44 76.14 76.19 75.92 76.16 75.39 75.80 75.62 75.42 75.73 73.15 74.18 75.10 74.86 75.02 74.89 75.06 73.66
76.80 77.72 79.25 78.89 78.60 78.16 77.95 78.13 78.25 78.04 77.56 77.60 77.54 77.25 76.96 76.77 76.72 76.58 76.50 76.22 75.72 76.02 74.35 74.15 76.32 76.33 76.11 75.72 76.28 75.73 75.86 75.86 75.54 75.61 75.44 74.46 73.73 74.95 74.96 75.21 75.16 74.17 72.71
77.07 77.73 78.38 79.24 78.25 78.06 77.84 77.71 77.78 77.70 77.71 77.59 77.30 77.23 77.09 77.13 76.96 76.54 76.74 76.44 76.00 76.05 76.55 75.55 75.37 75.92 76.60 76.12 76.00 76.18 75.95 76.15 75.68 74.25 75.33 74.29 75.27 74.17 74.22 74.01 73.21 73.02 74.40
77.25 77.94 78.62 79.30 78.90 78.21 77.90 77.83 77.67 77.67 77.43 77.36 77.41 77.39 77.28 76.97 76.95 76.13 76.60 76.40 76.37 76.08 76.44 76.79 75.58 74.97 76.80 76.56 75.94 76.02 76.05 75.82 75.02 74.07 74.12 74.01 75.48 74.11 73.99 74.23 73.76 73.04 74.13
77.04 77.78 77.85 78.68 78.78 78.20 78.00 77.96 77.83 77.56 77.44 77.19 77.03 77.11 77.28 77.10 76.18 76.62 76.52 76.29 76.07 75.91 76.17 76.77 76.91 75.86 76.14 76.52 76.37 76.03 76.02 75.41 74.62 74.51 74.79 74.63 75.24 74.66 73.70 74.77 74.64 74.48 73.67
77.76 77.96 78.62 78.51 78.95 78.29 77.77 77.96 77.95 77.69 77.44 77.43 77.26 77.05 77.05 76.97 76.97 76.75 76.42 76.10 76.07 75.55 75.47 75.94 76.17 76.40 76.48 76.84 76.34 76.05 75.95 75.69 75.57 75.78 75.22 75.38 74.80 74.54 74.33 73.70 74.32 74.29 73.49
77.70 77.93 77.55 78.20 78.55 78.74 78.61 77.89 77.93 77.10 77.12 77.44 77.43 77.02 77.25 77.19 76.84 76.81 76.47 76.40 76.15 75.72 75.14 75.53 76.17 76.05 77.02 77.41 76.14 75.47 75.26 75.16 75.69 74.95 75.91 75.76 75.75 75.32 75.10 74.59 74.90 74.93 74.29
77.07 77.57 77.63 77.38 78.13 78.48 78.46 78.36 77.82 77.38 77.48 77.37 77.56 76.88 77.05 77.49 77.31 77.47 77.29 76.23 76.33 75.75 74.95 75.36 75.72 76.24 76.39 76.43 76.05 75.67 75.73 75.63 75.42 74.98 76.47 75.54 75.66 74.85 75.33 75.30 75.11 74.64 74.05
75.54 76.72 77.68 77.79 77.80 77.70 77.21 78.51 77.98 77.69 77.39 77.47 77.02 77.69 77.17 76.91 77.18 76.48 76.27 75.70 75.84 76.38 76.29 75.88 75.80 75.93 76.27 75.76 75.97 75.72 75.65 75.54 75.47 76.05 76.80 75.91 75.08 74.78 75.46 76.57 75.75 75.32 74.59
75.73 76.46 77.39 77.56 77.83 77.62 76.91 77.01 78.51 76.98 77.16 76.83 77.69 78.54 79.32 78.46 77.27 76.12 77.62 77.22 77.99 76.92 76.76 76.27 76.29 75.95 75.15 75.91 75.03 75.15 74.67 75.34 75.30 75.88 77.27 75.35 75.20 75.21 75.26 76.47 76.24 75.56 75.14
75.33 76.23 77.13 77.60 77.58 77.54 77.17 76.54 76.82 75.81 76.33 77.86 77.40 77.92 79.35 79.79 78.16 76.51 76.54 75.93 77.45 79.34 77.45 76.65 75.52 76.02 76.48 76.21 75.89 75.66 75.52 74.97 74.28 74.42 76.71 75.58 75.45 75.77 75.56 75.55 76.12 76.22 75.96
75.37 76.45 77.34 77.81 77.91 77.81 77.72 78.79 77.75 76.87 75.13 75.40 76.46 73.86 74.62 75.54 74.34 75.15 75.45 74.48 75.75 78.85 77.04 76.83 77.43 76.17 76.54 76.10 76.11 75.81 75.31 75.56 75.50 74.89 74.67 75.48 75.48 76.12 75.86 75.97 76.09 76.13 76.38
75.72 76.10 77.18 76.97 77.99 78.00 77.38 77.03 75.24 74.07 73.71 73.51 73.57 73.07 72.71 73.45 73.89 74.30 73.31 73.33 75.05 77.42 79.01 79.10 77.45 75.60 75.30 75.54 75.68 76.10 76.06 75.82 75.71 75.73 75.37 75.81 76.08 76.20 76.17 75.91 77.02 76.38 75.89
76.49 76.66 75.76 73.54 76.07 77.84 77.19 75.94 76.01 73.50 72.65 73.18 72.00 72.80 73.51 73.49 74.29 75.76 77.41 76.50 75.27 76.44 77.78 78.26 77.12 77.03 75.86 75.43 75.27 75.81 75.44 75.75 75.50 75.65 76.08 75.76 76.09 75.64 76.17 76.64 76.61 76.41 75.96
77.15 76.71 73.11 72.24 72.27 74.61 76.77 76.53 77.09 76.08 73.85 73.86 72.37 72.00 72.32 75.75 76.61 76.58 74.91 75.58 76.26 78.60 80.08 78.61 75.87 77.64 76.86 75.45 75.95 75.41 74.88 75.09 75.34 75.44 75.71 75.74 75.54 75.50 75.91 76.33 76.15 76.04 75.77
77.01 76.47 71.74 72.14 73.67 74.45 75.17 76.92 75.30 75.25 73.04 73.74 72.05 73.00 71.93 75.94 76.63 77.45 77.02 76.37 77.36 75.39 75.88 74.97 74.62 75.21 74.75 74.35 73.68 74.36 74.55 74.54 74.45 73.94 74.34 75.59 75.90 75.65 75.91 76.43 75.89 75.77 76.00
74.68 72.45 67.81 71.11 72.36 73.09 75.64 76.89 76.67 73.04 71.88 69.98 74.55 74.04 73.23 76.95 76.97 76.69 77.03 74.91 75.63 76.88 77.63 76.57 75.28 75.27 74.06 73.48 72.82 72.18 73.51 74.18 74.12 73.18 73.35 74.44 75.33 75.50 75.31 75.98 76.59 75.88 75.81
71.56 66.17 65.27 64.47 73.98 74.45 73.67 74.93 73.59 69.43 70.24 72.52 71.04 72.89 75.02 75.78 75.29 76.80 77.34 75.95 75.89 74.91 74.76 75.49 74.59 74.12 74.22 73.95 72.76 71.46 72.12 73.95 73.80 73.38 73.41 72.59 73.05 73.53 74.59 75.64 79.33 76.30 75.86
69.66 70.48 70.80 71.25 76.30 76.34 75.66 75.29 73.69 70.14 71.49 71.12 72.04 72.80 75.36 72.42 75.78 75.87 75.80 75.32 75.58 75.50 75.18 74.87 74.76 73.98 73.38 74.02 70.69 69.96 67.99 70.53 72.10 73.31 73.50 73.22 73.61 73.22 74.20 76.36 77.18 76.62 75.73
70.64 72.32 72.18 74.20 75.63 76.08 74.81 73.71 72.94 73.12 72.00 70.77 72.05 74.05 75.83 75.10 75.80 75.86 75.12 75.36 75.28 74.68 72.74 74.67 74.16 73.43 70.58 71.78 72.80 70.25 68.16 65.70 71.12 72.64 72.90 73.20 74.28 72.69 73.21 74.81 75.77 76.42 76.95
72.63 73.56 72.88 73.80 75.42 74.70 75.21 73.95 73.40 71.55 70.31 72.93 72.95 75.09 73.54 74.68 74.44 74.45 74.55 74.48 74.48 73.96 74.53 73.94 74.16 73.91 72.81 70.67 71.11 71.75 72.15 72.22 69.26 68.56 71.97 72.04 72.89 71.78 72.81 74.08 75.16 76.10 76.37
71.68 74.10 74.92 75.50 74.63 74.64 75.33 75.09 74.24 73.09 74.18 72.36 72.59 74.04 74.35 74.31 73.31 72.93 73.48 73.76 74.08 75.96 75.32 74.64 74.12 73.96 73.33 72.33 71.83 70.25 70.62 71.09 72.54 70.45 68.25 68.20 70.67 70.21 70.52 71.38 72.57 74.73 74.63
71.74 74.13 74.84 74.84 74.09 74.80 74.69 75.53 74.88 74.00 73.51 72.43 72.44 71.29 71.99 72.21 71.71 73.07 73.10 72.30 72.77 74.41 74.71 74.72 74.59 73.73 72.44 72.46 71.23 70.27 70.95 69.79 69.36 70.96 69.92 69.47 69.00 67.77 68.53 69.70 70.90 72.33 72.24

GFSSE_sfc_wetblb_045.txt.gz
Wetbulb
75.75 77.29 79.28 78.31 77.90 78.12 78.58 79.30 78.70 78.36 77.69 77.48 77.46 77.42 77.62 77.56 77.24 75.40 76.49 76.33 76.57 76.51 76.49 76.19 76.08 75.94 75.83 76.10 76.18 76.26 75.93 75.79 75.11 75.69 75.27 75.27 75.40 75.15 74.72 74.22 75.05 71.45 74.54
76.63 77.19 79.08 79.22 78.24 78.22 78.32 78.80 78.94 78.70 77.58 77.51 77.76 77.49 77.31 77.00 76.83 76.61 74.72 76.04 75.96 76.07 75.94 76.02 76.00 76.72 76.79 76.54 76.63 76.18 75.68 75.13 76.01 75.90 74.91 75.83 75.44 73.94 74.31 74.35 75.48 74.84 74.68
76.45 77.16 77.85 79.28 78.90 78.17 78.34 78.26 78.21 78.45 77.72 77.60 76.97 76.98 77.20 77.01 76.72 76.63 76.21 73.79 72.12 72.76 75.24 75.93 76.51 76.66 76.35 76.46 76.32 75.77 75.30 74.97 75.81 76.21 75.15 74.36 75.05 74.56 74.44 75.11 75.47 74.74 73.45
76.93 77.25 77.20 78.74 79.03 78.44 78.20 78.29 78.05 77.80 78.14 78.14 77.16 77.01 76.71 76.86 76.44 76.25 76.19 75.27 73.13 73.49 74.17 75.88 76.47 76.55 76.80 75.99 75.85 75.41 75.33 75.36 75.50 75.13 75.29 74.79 74.52 74.96 74.91 75.04 75.38 74.50 74.54
76.75 77.48 78.38 78.67 78.54 78.32 78.09 77.92 78.22 77.79 77.94 77.82 77.64 77.07 76.39 76.19 76.19 76.25 76.13 75.42 75.42 75.84 73.53 74.91 75.87 76.22 76.13 75.61 76.20 75.80 75.79 75.79 75.07 75.07 75.10 74.87 73.91 75.12 75.65 75.26 75.18 73.67 72.59
77.15 78.24 78.59 78.84 78.32 77.97 77.91 77.73 77.69 77.56 77.51 77.62 77.40 77.20 76.77 76.47 76.55 76.33 76.16 75.72 75.47 76.05 75.77 74.33 75.13 76.27 76.08 76.27 76.24 76.06 76.13 76.13 75.96 74.65 74.98 74.36 74.89 75.72 75.04 74.14 73.63 73.59 74.55
77.80 77.94 78.57 79.36 78.61 77.97 77.77 77.68 77.60 77.61 77.37 77.27 77.12 76.93 76.82 76.66 76.49 76.02 76.35 76.00 75.77 75.83 75.95 76.38 75.47 75.94 76.81 76.57 76.00 76.43 75.99 76.50 75.79 72.92 74.63 73.83 74.54 75.49 74.85 73.33 74.28 72.46 74.48
76.94 77.71 78.19 79.10 78.73 78.11 77.87 77.83 77.73 77.57 77.34 77.27 77.23 77.34 77.01 76.44 76.18 76.18 76.10 75.77 76.00 75.91 75.91 76.42 76.13 75.19 76.58 76.73 75.89 76.18 76.13 75.90 75.40 73.36 73.39 74.16 75.18 74.33 75.15 74.92 74.59 73.18 74.34
77.40 77.61 78.27 78.27 79.01 78.16 77.98 78.24 77.91 77.81 77.52 77.06 77.01 77.17 76.90 76.41 76.64 76.60 76.13 76.24 75.86 75.52 75.50 76.16 76.44 76.22 76.02 76.72 76.55 76.31 76.16 75.69 75.02 74.68 73.88 75.54 75.95 75.06 74.36 74.97 74.84 74.37 73.89
76.96 77.37 77.63 78.38 78.86 78.88 77.80 78.18 78.13 77.77 77.52 77.75 77.07 77.24 77.26 76.74 76.52 76.40 76.36 76.07 76.13 75.39 75.16 75.52 76.02 76.22 76.30 76.94 76.59 76.45 76.02 75.95 75.17 74.99 74.22 74.46 75.98 74.90 74.94 74.30 75.09 75.01 73.36
76.18 76.99 78.03 77.96 78.50 78.57 78.49 78.11 77.65 77.05 77.18 77.33 77.25 76.94 77.11 76.53 77.08 77.20 77.42 75.98 76.23 75.83 74.77 75.44 75.72 76.13 76.63 76.90 76.33 75.86 75.67 74.85 74.00 75.03 75.38 75.62 76.18 75.08 75.47 75.14 75.06 75.23 74.45
75.10 76.10 76.56 77.59 78.09 77.90 77.19 78.39 77.54 77.43 77.11 77.18 77.46 77.48 76.49 77.04 75.69 75.20 76.97 76.13 76.13 76.27 76.36 75.75 75.83 76.07 76.13 75.31 75.10 75.86 75.48 74.98 74.90 74.36 75.86 76.70 76.38 75.11 75.52 76.48 75.52 75.36 74.84
75.47 75.86 76.82 77.10 78.04 77.22 76.33 76.88 76.70 76.70 76.51 76.75 77.94 78.18 77.88 76.93 77.72 76.10 77.87 76.12 76.25 76.61 76.16 76.19 75.95 75.58 75.26 75.29 75.20 74.44 74.52 74.19 74.64 75.14 75.38 76.55 76.44 75.20 75.44 76.27 76.17 75.75 75.62
74.98 75.81 76.50 77.48 77.81 78.69 79.37 75.92 76.24 75.45 76.12 77.13 76.65 77.78 77.52 77.71 77.82 76.59 77.34 77.26 76.31 75.78 77.49 73.36 73.49 75.31 76.13 74.72 74.60 75.51 75.60 74.68 74.77 74.91 75.98 76.66 76.42 75.71 75.53 75.91 76.97 76.37 75.80
74.95 76.14 77.12 77.80 78.24 78.48 78.12 78.16 78.24 76.86 76.08 75.97 75.69 75.78 75.44 75.77 75.71 74.49 74.08 74.52 74.64 78.36 74.35 77.74 77.56 76.20 76.35 76.12 75.83 75.64 74.73 75.24 75.19 73.98 75.07 76.86 76.26 76.50 76.24 75.98 76.43 76.30 76.52
75.80 76.63 77.69 77.65 78.70 78.43 79.09 77.28 76.35 76.13 74.35 74.30 74.13 74.66 75.18 74.10 73.57 73.00 72.96 72.94 72.98 74.48 75.86 76.10 78.20 76.14 76.04 75.96 75.13 75.71 76.38 76.05 75.15 76.06 75.09 75.69 77.05 76.68 76.50 76.33 77.04 77.17 76.22
76.37 76.20 76.87 78.08 78.13 78.51 77.87 76.99 75.75 75.26 73.50 73.06 74.35 74.94 74.51 73.72 73.52 73.81 73.26 73.34 73.55 75.05 77.26 77.06 77.85 77.73 76.60 75.72 74.97 75.70 75.38 75.65 74.96 75.24 75.32 75.89 74.74 76.20 76.88 76.77 76.77 77.12 76.92
75.88 68.91 74.08 76.90 73.83 75.63 77.05 78.53 78.25 75.32 75.07 74.91 73.88 73.31 73.31 73.27 73.11 75.10 75.23 74.63 75.79 77.27 77.71 78.30 78.27 75.35 76.59 75.82 77.00 74.89 74.93 75.16 75.88 75.10 75.42 75.24 76.30 74.09 75.69 76.38 76.32 76.78 76.95
73.21 68.80 72.53 74.77 72.09 73.29 75.67 77.75 77.25 75.41 75.36 73.56 73.76 72.71 72.27 72.51 75.41 75.80 74.79 75.53 77.61 75.46 79.41 76.64 74.99 76.77 75.27 74.51 75.13 75.97 75.16 74.54 74.88 73.51 73.92 75.38 75.74 75.43 74.43 75.23 76.04 76.23 76.56
72.32 75.64 74.10 71.99 71.77 70.83 73.99 77.43 73.87 70.71 71.41 72.16 73.16 72.59 73.80 73.38 74.78 77.38 76.34 77.77 77.25 78.21 78.81 75.33 75.43 76.97 74.49 74.19 72.81 72.41 74.26 74.05 73.18 72.98 73.69 73.77 73.54 74.41 75.15 76.32 76.52 75.14 76.47
70.03 71.40 68.71 67.45 68.96 72.61 74.25 75.50 72.92 70.22 69.44 70.36 71.79 73.06 73.51 73.90 76.48 77.68 77.94 77.73 78.13 77.83 76.25 76.11 74.91 75.07 73.01 74.14 72.68 71.95 72.24 72.95 73.59 73.20 73.89 72.90 73.74 74.03 75.38 75.40 76.16 76.08 74.96
70.89 71.68 72.45 70.93 72.09 74.60 76.80 75.87 75.11 71.50 70.93 71.62 71.89 72.96 73.45 74.45 76.00 76.25 76.36 76.83 76.04 75.73 75.90 75.27 75.33 74.10 73.78 74.78 71.45 73.23 68.40 70.43 70.08 72.53 72.07 73.17 72.88 73.40 73.37 75.52 76.06 77.83 78.08
72.44 72.05 75.32 73.73 75.81 76.84 76.31 74.78 73.62 73.22 72.51 70.18 71.35 72.64 72.98 74.64 75.38 75.44 75.25 75.08 75.48 75.31 72.58 76.27 74.79 74.14 73.12 74.65 74.03 70.89 67.80 68.24 69.54 71.90 72.58 72.39 73.28 74.83 73.69 74.99 74.36 71.34 77.09
72.74 75.15 76.01 76.85 76.95 76.04 75.85 75.03 74.32 72.00 70.95 74.41 74.12 75.47 76.68 74.84 74.76 74.27 74.47 74.89 75.05 74.09 75.20 74.50 76.42 74.98 74.56 71.90 74.28 74.43 72.52 72.82 69.64 68.68 73.71 75.17 74.05 73.34 73.99 74.97 74.68 75.40 74.26
74.10 73.98 73.85 77.11 76.75 75.96 76.44 76.21 74.27 74.09 75.24 74.04 73.75 73.74 75.23 74.98 73.60 73.36 74.35 75.06 74.78 75.10 75.46 75.11 75.04 74.55 74.81 72.91 72.63 72.65 72.36 71.59 71.23 70.66 66.49 69.22 70.27 70.43 71.63 72.47 73.61 73.89 73.20
73.68 74.68 75.59 76.27 75.90 76.07 75.64 75.69 74.61 73.73 74.05 73.58 73.93 73.43 72.34 72.60 72.17 73.58 73.14 73.72 73.70 74.10 75.07 75.30 75.21 74.39 74.43 74.23 74.31 72.09 70.45 71.38 71.50 69.96 70.16 67.52 67.81 67.75 68.78 68.78 69.14 69.26 70.04

GFSSE_sfc_wetblb_048.txt.gz
Wetbulb
73.92 76.43 79.07 79.28 79.16 79.22 79.04 78.95 78.48 78.10 77.54 77.61 77.58 77.99 77.68 77.49 75.81 76.70 76.59 76.76 76.76 76.75 76.65 76.19 75.83 75.75 76.21 76.32 76.37 76.12 75.87 75.21 75.73 75.57 75.69 75.54 75.79 75.78 75.35 74.61 75.60 73.19 73.80
74.69 76.45 79.01 79.26 79.28 79.20 79.03 79.04 78.87 78.27 77.93 77.76 77.76 77.53 77.65 77.09 76.39 75.43 76.14 76.92 76.64 76.54 76.30 76.02 76.27 76.57 76.75 76.80 76.50 76.04 75.32 75.56 76.12 75.30 76.62 75.41 74.77 74.80 75.16 75.35 76.13 74.00 74.22
74.86 76.49 77.21 79.05 79.24 78.82 79.15 79.19 78.79 78.14 77.91 77.71 77.60 77.27 77.23 76.67 76.23 75.63 75.68 73.37 74.13 74.79 76.16 76.04 76.13 76.19 76.61 76.75 76.04 75.30 74.66 75.75 75.98 75.72 76.33 72.90 72.54 74.86 75.23 75.26 74.44 74.02 73.99
75.13 75.91 76.68 79.11 79.00 78.79 78.93 78.80 78.79 78.55 77.90 77.83 77.83 76.99 77.16 77.28 76.41 76.35 76.03 73.64 73.17 73.78 75.61 76.07 75.99 76.32 76.34 75.90 76.04 75.82 75.27 75.13 75.63 75.82 74.29 73.84 72.82 75.49 75.45 75.61 74.80 74.71 74.70
75.59 75.69 77.25 79.41 79.02 78.38 78.39 78.78 78.76 78.67 78.37 78.02 77.67 77.41 77.12 76.69 75.86 75.49 75.80 75.79 74.75 75.17 73.73 75.43 75.55 75.88 76.15 75.85 76.31 75.68 75.62 75.75 75.58 75.35 74.43 73.48 72.57 74.99 75.51 75.63 74.26 73.07 73.97
76.35 75.83 78.37 79.18 78.47 78.39 78.23 78.58 78.35 77.78 78.48 78.11 77.59 77.01 76.66 76.36 75.97 75.55 75.27 75.15 75.08 75.30 74.69 74.47 74.94 75.86 75.61 76.37 76.04 75.88 76.09 75.83 75.72 74.68 73.55 75.13 73.43 75.97 75.76 74.83 74.44 74.85 74.01
76.35 76.01 77.49 79.03 78.47 77.95 77.82 77.99 77.91 77.86 77.79 77.61 77.40 77.14 76.73 76.68 76.52 76.11 75.88 75.52 75.44 75.47 75.74 75.89 75.25 75.85 76.24 76.54 76.32 76.33 76.41 76.02 74.90 75.03 73.66 72.98 74.57 76.13 74.44 74.31 73.58 74.86 74.66
76.72 76.45 76.76 78.72 78.38 77.80 77.65 77.57 77.57 77.55 77.54 77.46 77.17 77.09 76.86 76.73 76.40 76.08 76.13 75.63 75.66 75.75 75.72 76.16 75.74 75.74 76.65 76.57 76.02 76.64 76.61 76.53 75.33 74.04 73.52 73.42 74.90 76.23 75.10 74.00 74.32 74.04 74.47
77.26 77.12 77.40 77.07 78.06 78.01 77.68 77.60 77.57 77.42 77.15 77.35 77.55 77.63 77.26 76.92 76.13 76.08 76.08 76.05 75.61 75.36 75.77 75.87 76.34 75.91 76.08 76.64 76.29 76.25 76.56 76.20 74.11 74.48 73.77 73.34 75.46 76.29 75.81 75.36 75.22 74.08 74.73
77.48 77.28 76.80 77.83 77.42 77.35 76.58 78.25 77.81 77.85 77.40 77.28 77.15 77.31 77.09 76.55 76.33 76.82 77.27 77.15 76.18 75.33 75.25 75.52 75.91 76.50 76.84 77.24 76.92 76.79 76.51 76.41 73.75 74.04 74.08 73.70 75.93 75.56 75.25 74.97 74.94 74.80 74.17
76.49 77.16 77.50 77.54 79.02 78.64 77.86 77.47 78.68 77.84 77.33 77.79 77.05 77.16 77.23 76.33 75.71 76.08 76.69 77.34 76.52 75.88 75.33 75.61 75.91 76.90 76.39 76.42 76.84 76.46 75.93 73.53 72.93 73.68 73.95 75.59 75.87 76.15 75.04 75.35 75.76 75.81 74.29
74.24 75.95 77.18 77.06 77.17 77.80 76.42 77.83 77.12 76.91 76.17 76.80 76.94 76.84 75.93 72.98 73.77 73.20 75.90 76.66 76.11 76.36 75.94 75.88 76.04 76.75 76.12 74.85 75.68 76.09 74.30 73.74 73.81 73.56 74.57 75.98 76.38 76.83 76.46 76.42 76.12 75.84 74.87
75.28 75.88 77.18 77.75 77.00 77.04 77.30 77.03 76.43 76.48 75.07 75.54 75.78 76.53 75.22 74.02 71.28 73.41 74.05 75.16 75.80 76.39 75.17 75.42 75.21 74.77 74.60 74.02 74.60 74.27 73.86 74.03 73.75 74.26 75.09 76.54 76.53 76.68 76.28 76.78 76.66 75.97 75.32
74.88 74.51 75.41 77.83 77.91 78.66 75.71 74.42 77.82 74.62 72.46 70.41 74.93 77.72 75.36 74.05 74.75 74.25 75.05 76.07 76.05 77.11 75.45 73.07 70.68 72.31 73.73 74.61 74.98 73.67 74.48 73.95 73.25 73.23 75.30 76.96 76.56 76.61 76.75 76.81 77.06 76.58 75.94
74.84 75.42 77.08 78.15 79.71 80.13 79.70 77.50 77.84 75.22 72.43 72.82 74.21 78.06 76.96 75.88 75.92 75.94 73.98 74.25 73.89 76.02 75.37 72.45 68.79 66.30 72.97 74.99 75.18 74.08 73.86 73.60 74.62 74.75 75.47 76.81 76.04 76.51 76.50 76.71 76.96 76.53 76.57
67.54 68.13 69.29 77.75 77.89 77.95 77.51 77.93 76.35 76.67 76.01 75.13 74.41 75.38 77.24 76.22 75.27 74.84 71.21 71.36 71.82 74.97 73.57 73.70 73.18 72.57 73.14 75.66 75.21 74.27 73.62 74.14 74.48 74.77 74.66 74.97 76.25 76.08 76.64 77.08 77.29 77.12 76.76
63.94 64.43 68.55 71.16 76.47 76.18 76.89 75.80 77.84 77.67 75.83 73.45 72.74 73.73 75.91 75.22 74.75 74.02 71.31 71.66 72.20 70.77 68.90 70.57 73.34 74.72 74.21 75.33 75.20 73.30 75.19 75.25 74.94 74.72 73.83 74.42 74.97 76.76 76.93 76.94 77.14 76.92 76.57
64.78 64.35 64.37 70.68 76.12 76.23 77.36 78.23 78.46 77.48 75.11 73.54 73.77 74.01 74.49 74.82 74.70 73.33 71.91 74.02 71.84 71.58 68.81 67.15 72.69 73.36 74.01 73.79 73.74 74.42 72.80 74.13 75.02 74.10 74.81 74.69 74.50 74.23 75.85 76.43 76.24 76.45 76.57
68.58 67.06 66.01 72.81 74.62 74.81 76.37 76.30 76.57 73.17 72.87 73.30 74.49 73.03 71.98 72.63 73.62 72.87 74.32 74.59 76.04 73.94 71.47 70.42 75.07 74.24 73.91 74.02 73.57 72.54 72.34 74.37 75.21 74.14 73.91 73.44 74.31 74.29 74.45 75.31 75.42 74.99 75.98
67.58 68.16 69.98 74.62 73.39 73.00 75.91 75.92 72.72 71.81 70.96 71.84 73.22 72.82 72.36 73.51 73.53 74.25 74.72 75.31 76.47 75.74 74.41 73.66 74.07 73.77 73.12 73.02 73.46 72.82 73.34 73.78 74.07 73.30 72.92 73.61 72.84 73.97 74.80 73.94 73.59 73.54 75.13
70.48 73.87 72.73 71.35 71.26 73.62 75.41 74.45 70.55 69.94 70.09 69.26 71.64 71.54 72.74 72.64 74.01 74.09 73.26 74.69 74.74 74.97 74.43 74.19 73.58 72.98 73.28 73.66 72.13 71.43 72.23 73.19 73.15 73.11 73.05 72.54 71.62 73.45 72.71 72.62 73.84 74.18 74.42
71.72 72.48 73.39 71.64 75.17 76.41 76.81 77.06 73.87 71.05 70.22 70.48 69.91 71.11 71.69 72.70 73.51 74.91 74.17 73.10 73.24 74.03 74.07 74.02 73.64 73.15 73.07 74.08 70.65 70.45 67.37 69.59 71.69 71.83 71.38 72.00 70.77 72.35 72.43 73.28 72.86 72.71 71.35
71.56 72.33 73.26 73.45 75.47 77.48 77.31 74.75 74.08 73.74 70.07 69.48 69.63 71.00 72.06 73.29 73.35 72.97 74.48 74.77 75.26 74.99 73.48 74.34 74.85 73.59 71.39 73.48 73.33 70.04 66.81 65.78 68.52 71.18 70.09 70.17 71.30 71.20 72.54 72.81 72.34 71.08 70.89
72.65 73.62 75.70 76.13 76.42 77.77 77.81 74.70 75.05 73.59 71.82 72.23 73.99 73.31 73.00 74.85 74.29 74.65 75.01 74.44 73.62 74.82 74.51 74.34 74.88 74.14 73.27 70.72 72.83 72.04 71.19 70.27 66.86 65.16 68.90 70.13 70.60 71.02 71.55 72.39 72.39 71.08 68.88
72.79 73.82 74.42 76.15 77.02 77.10 77.77 77.29 75.59 75.29 75.37 74.16 74.30 75.27 75.39 72.79 73.92 73.59 73.76 74.39 74.47 74.80 75.20 74.79 75.05 74.47 73.93 71.78 71.75 71.41 70.64 69.91 70.16 68.02 65.20 67.30 68.38 69.02 69.89 70.45 70.30 71.93 70.05
73.79 73.81 73.56 75.90 76.90 77.24 77.34 76.75 77.12 75.76 75.53 73.42 73.47 72.81 73.10 73.42 72.55 74.30 73.45 73.85 74.55 74.32 74.53 74.66 73.72 73.45 73.69 73.21 72.38 72.17 70.57 69.34 68.63 68.30 66.81 66.29 64.92 65.92 67.03 68.43 68.59 69.06 69.72

GFSSE_sfc_wetblb_051.txt.gz
Wetbulb
73.52 76.69 79.20 79.72 79.72 79.44 78.97 78.51 77.71 77.24 77.03 77.16 77.66 77.36 77.54 76.98 76.98 77.26 77.20 76.96 77.00 77.26 76.54 76.40 76.27 76.39 76.48 76.63 76.50 76.25 75.60 75.67 76.12 75.95 76.18 75.89 75.67 75.48 75.40 75.89 74.16 71.67 74.59
74.84 76.88 79.19 79.48 79.77 79.59 79.43 79.23 78.48 77.92 77.24 77.28 77.81 77.51 77.44 76.70 76.54 76.38 77.00 76.98 77.00 76.84 76.56 76.65 76.75 76.64 76.74 76.84 76.27 75.95 75.64 76.10 75.73 76.15 75.60 75.66 75.76 75.68 77.26 75.44 74.81 74.26 74.85
74.84 76.57 77.61 79.27 79.70 79.47 79.49 79.24 78.77 78.38 77.42 77.40 77.85 77.71 77.29 77.40 75.49 76.68 75.43 75.44 76.12 76.44 76.83 76.64 76.81 76.42 76.76 76.36 75.76 75.32 76.10 76.37 76.05 76.23 74.72 71.95 73.35 75.64 75.07 74.72 73.67 73.82 74.70
74.96 75.10 77.07 78.80 79.34 79.54 79.39 79.26 78.90 78.42 77.76 77.75 77.73 77.83 77.64 77.19 76.39 76.25 74.14 74.11 74.76 75.83 76.36 76.44 76.61 76.69 76.17 76.13 75.92 75.35 75.52 75.54 76.04 75.41 74.17 72.38 73.26 75.94 75.77 74.68 74.73 74.83 74.15
74.49 75.25 76.81 79.38 79.42 79.01 79.28 79.15 78.92 78.67 78.49 77.83 77.56 77.06 77.14 77.58 77.08 76.29 76.06 74.81 75.13 74.50 75.91 75.90 76.45 76.94 75.68 76.27 75.61 75.63 75.72 75.64 75.67 75.01 73.37 71.61 71.56 75.01 75.71 74.67 73.52 75.05 73.89
74.30 76.46 78.93 79.34 78.74 78.71 79.28 79.06 78.90 78.92 78.55 78.21 77.67 77.19 77.03 77.28 77.14 76.66 76.16 75.69 76.11 76.08 74.72 75.68 75.99 75.69 75.71 76.23 75.99 75.74 75.86 75.36 75.29 73.50 72.45 73.51 72.74 75.96 76.03 74.38 74.35 73.72 74.38
74.10 76.48 77.69 79.32 79.01 78.80 79.03 79.06 79.03 79.01 78.74 78.54 77.47 77.03 77.16 77.11 77.22 76.70 76.21 75.85 75.82 75.77 75.97 74.99 75.49 76.10 75.74 76.37 75.84 75.88 75.95 75.50 74.34 73.68 72.05 72.86 73.83 76.57 75.34 74.89 75.05 74.91 74.94
74.38 75.98 76.73 78.66 78.60 78.15 78.13 78.01 78.04 77.89 77.68 77.76 77.44 77.13 76.72 77.05 76.88 77.07 76.81 76.26 75.99 75.99 75.98 76.18 75.49 75.74 76.33 76.39 76.06 76.44 75.75 75.97 74.87 73.69 72.70 72.49 75.36 75.98 75.09 74.68 74.03 74.90 73.90
75.10 74.93 75.99 76.41 76.88 77.85 77.80 77.80 77.75 77.45 77.53 77.41 77.58 77.56 77.11 76.46 76.09 76.37 76.54 76.85 76.09 75.81 76.20 76.06 75.86 75.59 76.11 76.53 76.03 76.20 75.95 75.89 73.63 72.62 72.78 72.30 76.04 76.15 74.77 75.38 73.62 74.95 74.36
74.63 74.96 74.99 75.33 75.35 75.12 75.68 78.10 78.16 77.87 77.47 77.30 77.42 77.64 76.99 76.58 76.13 75.99 77.07 76.89 76.17 75.38 75.24 75.57 76.17 76.36 76.22 76.90 76.75 76.13 76.05 76.18 73.38 73.28 71.92 71.53 75.71 76.49 76.14 75.56 75.35 74.26 74.99
74.74 74.36 75.01 74.98 74.99 74.70 74.90 76.85 78.40 77.76 77.37 77.27 76.54 76.76 77.08 73.99 73.53 73.81 74.97 76.64 76.09 75.88 75.27 75.43 76.33 77.13 76.58 76.20 76.85 76.56 76.38 73.09 72.17 71.62 72.32 75.40 76.05 76.48 76.02 75.45 75.79 74.98 74.14
72.76 73.42 74.55 75.10 75.34 75.26 75.74 75.19 75.07 75.50 74.61 74.74 74.79 74.15 73.76 72.64 69.57 70.11 71.05 75.68 75.66 75.76 75.49 75.85 75.29 76.12 75.95 73.91 74.92 76.23 73.46 72.77 71.91 72.47 72.67 75.80 76.27 76.61 75.97 75.97 76.11 75.63 74.59
72.35 73.34 73.96 74.60 74.68 74.71 74.69 74.64 74.55 73.26 72.51 69.29 73.04 73.71 72.94 68.64 67.79 67.80 67.82 71.83 72.93 74.93 73.58 74.81 74.01 73.88 73.29 72.84 72.94 73.22 73.28 72.42 71.75 72.86 74.64 75.58 76.10 76.70 76.53 76.67 76.32 75.81 75.42
67.03 66.97 67.33 73.81 74.65 74.46 73.71 70.17 69.47 70.96 69.25 69.30 68.44 73.15 71.32 70.74 68.20 68.52 70.12 72.05 72.03 71.86 71.82 70.31 68.58 68.74 66.95 71.29 73.19 72.66 72.69 71.91 71.24 72.87 72.93 75.92 76.29 75.89 76.25 76.82 76.55 75.99 75.81
65.21 66.12 68.93 68.61 70.64 73.45 72.16 70.26 69.94 71.14 69.83 69.68 68.53 72.52 73.54 70.63 72.15 71.76 71.70 72.01 71.68 71.95 71.25 71.36 69.34 67.60 67.49 69.63 72.57 72.53 72.68 72.52 72.27 73.10 72.92 77.06 76.64 75.77 76.50 76.42 76.55 76.44 76.06
66.36 66.83 67.69 68.38 68.58 72.87 72.54 72.84 71.79 71.41 69.52 70.39 69.62 73.16 73.70 72.41 71.24 70.90 69.67 69.37 70.36 72.39 71.00 70.72 71.33 70.54 70.09 70.27 70.96 72.50 72.95 72.45 72.09 73.40 73.71 73.99 76.79 75.93 76.64 76.85 77.24 77.08 76.42
66.55 66.55 65.45 67.82 71.15 72.28 73.18 72.63 72.34 72.41 71.87 70.58 70.29 71.40 72.49 72.09 71.58 70.86 69.38 69.83 70.79 70.19 69.04 68.61 68.72 71.34 70.74 71.33 71.30 72.12 72.92 72.78 73.47 73.28 73.19 72.84 74.33 76.48 76.50 76.38 76.92 77.16 77.13
65.83 64.90 64.93 67.18 70.66 72.58 72.81 72.81 72.40 72.00 71.32 70.98 71.06 71.53 72.37 72.46 71.61 71.01 69.53 71.22 71.22 70.24 68.25 67.69 67.08 67.51 69.73 70.74 70.29 71.01 71.76 71.30 71.53 71.72 73.06 73.37 72.91 73.17 75.37 76.09 75.57 75.88 77.11
65.78 65.79 65.32 66.44 71.55 71.00 72.84 72.98 71.10 70.17 70.06 71.46 71.83 70.42 70.34 71.27 71.34 70.57 69.41 72.13 72.69 70.40 69.65 69.88 68.52 67.49 68.21 70.04 70.88 70.70 70.98 71.37 71.98 73.09 72.03 72.73 73.46 73.68 73.15 75.11 75.81 75.65 76.51
65.91 66.49 66.29 67.22 69.88 68.91 72.00 70.44 69.99 69.45 68.68 69.40 70.66 69.58 71.15 70.89 71.57 70.40 71.65 72.02 71.92 71.47 70.60 70.04 68.91 69.29 70.23 70.11 71.37 70.82 69.96 70.66 71.19 71.28 71.04 72.25 72.23 73.37 73.24 73.24 73.19 73.30 75.12
66.89 66.40 68.59 70.31 67.23 67.23 71.71 68.64 67.40 66.92 67.53 67.80 69.49 69.50 70.49 70.26 71.74 71.12 71.47 71.76 71.83 70.61 71.24 70.78 69.96 68.79 68.79 69.98 67.78 67.51 68.72 70.05 70.65 70.58 70.59 70.67 70.71 71.11 72.51 72.35 71.39 71.89 71.88
67.15 69.90 66.67 66.68 67.35 68.60 72.34 71.20 68.66 66.43 68.79 67.83 67.53 69.42 70.20 71.01 71.50 71.96 70.96 71.42 71.23 70.42 70.04 69.79 69.57 68.79 69.13 69.39 66.68 65.51 62.79 65.01 67.91 70.09 70.05 70.71 70.04 70.75 71.16 71.93 71.04 71.51 70.17
69.08 69.37 69.29 69.55 72.03 72.65 71.88 70.01 69.49 67.78 66.93 67.16 67.55 69.53 70.44 71.96 72.38 71.24 71.03 71.24 70.93 70.52 69.46 69.49 69.56 69.16 67.40 68.36 68.78 65.36 62.23 60.89 63.45 67.13 67.49 68.39 69.58 69.74 70.91 71.58 71.22 70.20 69.90
70.19 70.03 72.25 68.39 71.82 74.03 70.70 69.15 68.30 67.78 65.01 65.95 69.31 70.07 70.28 71.72 71.78 71.11 71.13 71.16 70.92 70.70 70.29 70.42 71.14 69.19 68.52 66.70 67.89 69.36 67.85 66.19 62.19 60.83 66.36 68.18 69.09 68.68 70.26 71.19 70.01 69.29 67.62
70.68 71.94 72.76 72.83 72.67 72.23 72.09 70.20 70.34 69.09 69.94 70.62 70.28 70.12 69.04 69.21 70.50 71.22 70.51 70.23 70.15 70.39 70.43 69.98 69.59 68.67 69.35 68.30 67.33 66.97 66.12 66.30 65.76 63.50 60.01 65.19 66.94 67.87 68.70 68.82 69.92 69.15 69.58
71.28 71.43 72.30 72.33 72.39 71.30 72.16 71.49 70.10 69.67 69.62 68.64 68.11 67.56 67.58 69.21 69.00 70.34 70.71 69.77 69.84 69.86 69.75 70.23 69.89 69.63 69.31 69.06 68.07 67.80 66.76 64.74 64.09 64.17 62.20 63.93 63.82 65.35 66.17 67.73 68.61 68.98 69.13

GFSSE_sfc_wetblb_054.txt.gz
Wetbulb
73.89 76.55 79.30 79.41 78.66 78.28 77.97 77.54 76.97 76.99 77.30 77.53 77.89 77.95 78.10 77.81 77.68 77.10 77.62 77.50 77.03 76.36 76.28 75.95 76.22 76.41 76.62 76.26 76.32 75.75 75.40 75.49 75.80 75.36 75.74 75.54 75.56 75.59 75.81 73.66 74.30 72.88 73.24
75.02 76.86 79.29 79.37 79.40 78.34 78.03 77.47 76.95 76.91 77.34 77.40 77.69 76.80 77.34 77.24 76.88 77.22 78.13 76.97 76.74 76.30 76.65 76.42 76.22 76.62 76.75 76.26 75.53 75.53 75.58 76.01 76.18 75.89 76.12 75.71 75.76 75.34 75.48 74.02 75.03 73.77 74.06
75.39 76.64 77.91 79.13 79.54 78.61 78.20 77.92 77.06 76.93 77.31 77.50 77.61 77.26 76.44 76.28 77.02 76.69 76.67 76.86 76.80 76.82 76.80 76.99 76.37 76.57 76.51 75.91 75.31 76.26 75.88 76.40 76.56 75.32 75.73 72.68 72.82 76.12 75.35 73.99 75.09 75.43 73.78
75.74 76.01 77.27 79.14 79.17 79.10 78.78 78.32 77.82 77.55 77.44 77.44 77.38 77.14 76.63 75.91 76.26 74.13 74.93 75.79 76.50 76.68 76.64 76.50 76.47 76.60 75.99 75.41 74.87 76.18 76.16 75.98 76.43 74.85 72.18 72.98 73.36 75.06 73.91 74.23 74.06 73.65 74.40
74.74 75.89 76.87 79.41 79.35 78.54 78.70 78.82 78.53 78.26 77.69 77.48 77.23 76.94 76.86 76.56 76.60 75.31 74.52 74.92 74.99 75.85 76.33 76.74 76.36 75.97 76.04 75.68 75.46 75.48 75.80 75.89 75.84 74.81 72.35 70.68 71.68 74.92 74.58 74.93 75.11 73.53 72.58
74.61 76.01 78.50 79.09 78.33 78.33 78.69 78.84 78.58 78.03 77.88 77.81 77.47 76.84 76.65 76.44 76.50 76.48 76.33 75.96 75.93 75.12 75.61 76.14 75.87 75.86 75.56 76.16 75.36 75.53 75.43 75.35 75.24 72.83 72.16 72.44 72.08 75.32 74.05 74.61 74.73 73.89 74.83
74.69 76.49 77.42 79.10 78.89 78.57 78.57 78.65 78.76 78.11 77.92 77.46 76.83 76.68 76.74 76.44 76.30 76.33 76.20 75.98 76.02 76.09 75.17 75.59 75.95 75.46 75.75 75.96 75.74 75.40 74.93 75.13 73.52 72.75 71.53 72.25 72.57 76.58 74.81 74.71 74.03 74.30 73.71
75.41 76.47 77.15 78.82 78.72 78.34 77.88 77.80 78.08 77.59 77.36 77.10 77.08 76.76 76.84 76.67 76.27 76.44 76.51 76.35 76.08 76.15 76.18 75.68 75.78 76.22 76.02 75.83 75.44 75.48 74.64 74.34 74.36 73.36 72.20 72.49 74.13 76.46 75.45 75.01 74.95 75.13 74.48
75.79 75.84 76.24 76.42 77.02 78.16 77.91 77.65 77.77 77.69 77.66 77.60 77.34 76.98 76.87 76.82 76.72 76.77 76.68 76.79 76.44 76.42 76.39 76.50 75.80 75.69 76.26 76.11 75.49 75.29 75.20 74.83 72.78 72.01 72.16 72.10 75.04 75.59 75.18 74.40 74.74 74.17 73.35
74.73 75.38 75.12 74.94 75.03 74.88 75.57 77.65 77.47 77.51 77.36 77.28 77.18 77.01 76.68 76.60 76.36 76.46 76.83 77.41 76.23 75.93 75.93 76.05 76.31 75.97 75.67 76.39 76.24 75.53 75.42 75.02 73.17 72.55 70.99 71.81 75.23 75.43 74.91 74.28 74.18 75.04 74.17
73.74 74.08 74.73 74.40 74.24 74.33 74.82 76.16 77.69 77.52 77.37 77.13 76.91 77.87 76.55 73.73 73.64 74.96 76.00 76.37 76.24 75.89 76.00 76.16 76.56 76.47 75.98 75.86 76.58 76.40 76.07 72.78 72.55 71.07 72.12 74.03 75.68 76.08 75.70 75.60 74.33 74.38 75.16
66.47 68.74 69.10 69.17 72.48 74.19 75.91 75.23 75.39 75.29 74.52 74.49 74.39 73.73 73.85 72.46 71.54 71.29 74.11 76.61 76.20 76.06 75.59 75.55 75.81 76.23 75.74 73.63 73.46 76.03 73.22 72.81 72.10 71.05 71.79 75.20 75.59 76.01 76.18 76.11 75.64 74.66 74.44
67.77 68.08 67.81 67.65 69.86 72.62 74.50 74.86 75.05 73.89 73.16 73.59 73.77 72.98 71.57 71.10 69.19 66.35 67.74 71.75 72.47 75.10 73.02 74.56 74.17 73.29 73.15 72.61 72.73 73.12 72.97 72.45 71.36 72.32 73.84 75.52 75.22 75.49 75.54 75.42 75.62 75.57 74.25
67.23 66.02 67.15 67.71 69.65 67.82 71.47 72.81 71.11 71.75 70.57 69.98 70.07 72.30 70.93 67.98 66.56 65.61 66.39 70.58 71.46 72.17 71.47 70.40 68.71 68.94 67.58 69.09 71.17 71.95 72.67 72.12 71.07 72.67 72.92 74.36 75.58 75.32 75.57 75.45 75.46 75.67 75.51
65.96 64.95 66.44 67.97 67.21 67.80 69.06 69.85 68.61 69.67 70.12 70.02 67.82 71.53 70.68 68.99 68.90 68.16 69.28 71.22 70.54 71.06 70.41 69.28 68.51 67.07 66.86 67.60 71.06 71.82 72.25 72.53 71.31 71.86 71.40 74.96 75.42 75.51 76.32 76.70 76.08 75.83 75.84
67.11 64.70 66.82 66.21 67.77 69.58 71.63 69.31 68.76 69.13 69.39 69.92 67.93 68.01 72.70 69.28 70.39 69.60 69.10 68.86 69.11 70.61 69.78 69.66 69.51 69.35 68.92 69.31 70.12 70.38 71.05 72.11 71.33 71.79 72.10 72.41 76.14 76.25 76.36 76.48 76.49 76.34 76.23
66.22 66.63 66.61 67.13 70.39 69.95 71.18 71.27 70.53 70.26 69.10 68.81 68.49 70.64 73.02 71.66 70.34 69.06 67.80 67.61 68.11 70.03 68.60 67.57 66.97 68.51 69.80 70.30 70.36 70.68 71.82 72.26 72.13 72.22 72.67 72.52 74.19 76.60 76.23 75.97 75.71 76.01 76.44
66.28 64.72 64.55 66.75 68.70 71.31 71.54 71.66 70.96 71.39 69.85 69.65 69.73 70.50 71.69 71.27 70.63 69.39 68.61 68.87 70.06 68.90 67.80 65.98 65.85 65.98 67.37 69.01 69.73 69.89 70.71 71.25 71.24 70.61 71.97 72.44 72.84 73.60 75.40 75.92 75.47 75.85 76.65
64.67 63.88 63.44 64.13 70.31 71.49 71.56 70.39 69.53 69.22 69.15 70.39 70.93 70.20 70.13 71.42 71.72 69.66 68.70 68.31 71.05 70.03 68.63 67.23 68.20 67.00 66.13 67.97 69.16 69.63 69.89 70.10 70.85 71.92 71.68 71.88 72.19 72.48 72.75 74.80 75.49 75.49 75.61
65.14 65.16 64.29 65.00 69.29 69.47 69.92 69.06 68.45 67.93 68.24 69.15 70.01 69.91 69.42 69.47 70.19 69.58 69.10 69.76 70.88 70.59 69.65 68.81 68.25 67.93 68.16 68.65 70.88 71.26 69.70 69.98 69.92 69.70 70.59 71.56 70.39 72.45 72.03 72.70 72.84 73.67 75.29
65.64 65.69 65.00 68.07 67.26 68.22 69.90 65.61 65.47 64.94 66.21 67.43 68.34 69.42 69.39 70.55 70.52 69.28 69.22 69.89 70.02 69.89 70.04 70.53 69.42 68.61 68.16 68.79 67.23 66.52 67.62 68.83 69.06 69.88 70.36 70.27 70.04 71.06 71.03 70.78 70.96 71.64 71.51
66.57 68.06 67.44 68.27 65.85 66.34 70.66 69.22 66.65 65.36 66.49 66.52 68.45 68.33 69.17 69.64 70.61 71.05 69.55 70.01 70.42 70.20 69.83 69.53 69.34 67.89 68.13 68.45 65.75 64.21 62.08 63.63 65.85 68.47 68.65 69.37 68.94 70.53 70.95 70.97 70.84 70.79 69.33
67.06 68.13 65.09 66.05 66.96 69.18 69.88 67.55 66.73 65.91 65.52 65.17 65.84 68.83 70.02 70.71 70.88 70.45 70.25 69.77 70.14 69.77 68.92 68.86 68.73 68.02 66.29 66.94 67.80 64.79 61.05 60.17 62.28 65.83 67.71 68.00 68.90 69.15 70.19 70.91 70.05 69.56 68.81
68.20 68.96 67.70 69.70 71.39 70.87 68.57 67.28 65.58 64.08 62.48 63.85 67.14 68.38 70.04 70.89 70.46 70.61 70.35 70.08 69.82 69.84 69.66 69.41 70.13 67.95 67.32 66.13 67.05 68.36 66.72 64.87 60.79 59.38 66.37 67.34 68.45 68.02 68.16 67.55 69.15 68.31 67.91
69.85 69.29 70.36 66.86 71.61 72.24 68.14 67.76 67.89 66.36 67.59 68.74 68.63 67.59 67.38 68.93 70.59 70.65 69.77 69.98 69.86 69.49 69.35 69.30 68.67 68.07 68.27 67.03 66.33 65.97 65.41 65.13 64.85 61.95 60.06 64.01 66.23 67.68 68.43 69.53 69.33 68.97 69.17
70.08 71.85 71.80 70.98 71.08 70.77 69.79 69.38 68.92 68.69 68.04 67.21 66.38 64.99 67.14 67.26 68.47 69.28 69.73 68.63 68.54 68.94 68.74 68.85 68.61 68.31 67.80 67.32 66.96 66.93 65.92 63.60 62.87 62.83 62.46 63.20 63.36 64.47 65.71 67.16 68.40 68.09 68.29

GFSSE_sfc_wetblb_057.txt.gz
Wetbulb
73.52 76.66 79.03 78.45 78.16 78.01 77.26 76.86 77.05 77.56 77.80 77.97 78.36 78.25 77.80 77.43 77.18 77.34 77.21 76.69 76.26 76.32 76.06 76.14 76.00 76.20 76.01 76.29 75.85 75.56 75.06 74.95 75.68 75.42 75.78 75.74 75.17 74.79 73.89 74.80 74.68 72.16 73.20
74.62 77.13 79.01 78.92 78.21 78.03 77.39 76.85 77.06 77.52 77.48 77.52 78.23 77.85 77.43 77.60 77.22 77.34 77.62 76.51 76.41 76.32 75.94 76.00 76.36 76.43 75.96 75.79 75.47 75.18 75.28 75.69 75.25 75.40 74.87 75.42 75.55 74.01 73.11 74.10 74.56 71.33 74.15
75.11 76.82 77.97 78.94 78.51 78.05 77.39 77.03 76.78 77.22 76.86 76.70 77.27 77.21 77.05 77.47 77.30 77.34 76.61 76.56 76.43 76.73 76.59 76.41 76.18 76.14 75.88 75.25 75.45 75.31 75.80 76.03 76.26 75.61 75.59 72.36 72.91 74.89 74.55 74.38 75.13 73.27 73.80
75.44 75.88 77.07 78.99 79.00 78.17 77.48 77.10 76.81 77.15 77.11 77.13 76.78 76.09 76.91 76.18 75.84 76.20 76.68 76.97 76.92 76.69 76.83 76.43 76.21 76.19 75.36 75.49 76.10 75.51 76.27 75.01 75.47 75.60 72.58 72.66 73.44 74.72 73.77 74.66 74.61 74.09 73.14
74.88 75.44 76.59 78.80 78.63 78.14 77.80 77.62 77.31 77.65 77.21 77.14 76.74 76.42 76.17 75.99 74.76 75.20 75.80 76.09 76.71 76.72 76.59 76.47 76.49 75.74 75.41 74.89 75.70 75.73 75.70 75.68 74.89 73.80 71.41 71.33 71.35 72.89 74.20 74.35 73.07 73.79 74.50
74.92 75.46 78.08 78.68 77.93 77.91 77.59 77.49 77.59 77.51 77.26 76.74 76.84 76.60 76.42 76.56 76.04 75.23 75.63 75.55 76.17 76.32 76.28 76.49 76.69 75.31 75.95 75.61 75.39 75.28 75.08 75.02 74.95 72.26 70.52 72.43 71.81 74.38 74.67 75.49 73.85 72.26 73.41
74.29 75.66 76.97 78.87 78.80 78.29 77.82 77.48 77.53 77.59 77.17 76.78 76.52 76.53 76.29 76.49 76.43 76.41 76.05 76.25 75.74 75.79 76.07 76.24 75.78 75.64 76.10 75.66 75.39 75.03 74.83 74.89 72.90 72.25 71.39 72.16 72.05 75.06 74.14 74.80 73.65 74.74 73.36
74.55 75.82 76.14 78.13 78.09 77.80 77.63 77.58 77.36 76.81 76.63 76.74 76.67 76.51 76.45 76.20 76.34 76.15 76.16 76.12 76.11 76.24 75.53 76.17 76.32 75.63 76.29 75.96 75.54 74.80 75.05 74.79 73.59 71.56 71.62 71.64 73.78 76.17 74.42 74.15 74.05 73.87 72.90
75.73 76.10 75.77 75.83 76.53 77.67 77.56 77.72 77.73 77.32 76.95 77.03 76.90 76.65 76.59 76.43 76.13 76.43 76.35 76.41 76.06 76.13 76.36 75.97 76.20 76.59 76.40 76.36 75.66 75.35 74.79 74.29 72.10 71.53 71.84 71.90 75.44 75.72 75.24 74.61 74.98 75.15 73.23
75.37 74.83 73.99 74.31 74.66 74.67 75.00 77.63 77.60 77.42 77.50 77.42 77.36 77.08 76.75 76.34 76.45 76.40 76.88 77.31 76.21 76.43 76.33 76.29 75.92 75.92 76.49 76.35 76.15 75.23 74.94 74.21 72.49 71.02 70.82 71.65 75.32 75.40 75.11 74.67 74.54 74.03 73.25
71.22 71.51 70.41 69.21 70.37 71.76 73.36 75.89 77.62 77.66 77.40 77.28 76.59 76.69 76.04 73.48 73.62 74.56 75.49 76.18 75.98 75.74 76.01 76.09 76.25 76.17 75.53 76.24 76.27 75.95 75.26 72.59 72.10 70.46 70.83 73.84 75.33 75.13 75.14 73.90 74.59 74.60 74.08
69.14 69.02 68.60 68.42 69.18 69.73 73.60 74.12 74.55 74.59 74.23 73.94 74.41 74.24 73.70 72.62 72.18 73.62 75.39 75.87 76.13 75.78 75.78 75.92 76.48 76.47 75.78 73.04 73.21 75.63 73.02 72.36 71.75 70.42 71.75 74.12 75.43 75.32 75.50 75.75 74.25 74.56 74.90
69.10 69.01 67.76 69.28 69.01 67.87 68.57 70.35 73.61 74.22 73.15 73.21 73.50 72.59 72.69 71.52 71.79 69.59 69.96 72.58 72.46 74.87 72.69 73.95 73.97 73.34 73.43 72.30 72.34 72.45 72.68 72.06 71.35 71.74 73.14 74.89 75.65 75.65 76.22 76.08 75.57 74.78 74.09
67.30 67.41 67.53 68.86 68.77 68.43 68.43 69.31 71.60 71.85 72.07 71.71 72.48 72.34 70.56 68.63 67.11 65.43 67.26 69.94 71.15 71.83 71.48 70.97 69.80 70.29 69.74 70.38 70.17 70.78 71.55 71.80 71.33 71.31 72.50 75.59 75.68 75.76 76.16 75.73 75.71 75.49 75.16
65.57 65.85 66.23 68.23 67.80 68.64 68.27 70.17 70.13 70.22 71.19 71.14 70.95 71.49 70.35 68.09 66.77 65.96 65.30 69.61 70.33 70.33 70.44 69.11 67.87 66.34 65.24 66.41 68.89 71.05 71.60 71.75 71.54 71.32 71.52 75.46 75.93 75.85 76.26 76.43 75.60 75.28 75.71
66.76 65.10 66.74 66.52 68.27 68.05 67.87 70.22 69.94 69.18 69.47 70.24 68.75 69.47 69.85 68.50 68.16 67.71 67.62 69.81 69.42 69.83 69.54 69.18 68.48 68.32 68.32 68.02 68.57 69.85 69.93 71.00 71.68 71.70 71.18 71.21 75.16 75.65 75.51 75.81 76.57 76.14 75.83
66.38 64.88 65.32 65.92 67.79 67.04 68.70 70.75 70.49 69.70 68.59 68.50 69.29 67.82 70.97 69.40 69.38 68.91 68.48 67.80 68.14 69.49 68.48 67.46 66.97 67.64 68.30 69.20 69.02 69.84 70.45 71.10 71.64 71.29 70.84 71.16 72.22 75.89 75.41 76.47 76.17 76.15 76.60
65.05 64.55 64.99 67.50 68.60 68.41 69.94 71.07 70.53 70.01 68.63 67.96 68.82 69.65 70.60 70.93 70.64 68.50 67.40 66.99 67.87 68.39 67.53 66.29 65.78 64.57 65.20 66.54 67.71 69.24 69.85 70.63 71.07 70.98 71.42 72.23 71.57 72.55 75.21 76.32 75.31 75.42 75.72
65.19 63.73 63.84 63.76 68.67 70.79 71.39 70.33 69.56 69.45 68.91 69.18 69.15 69.67 70.75 71.01 71.16 69.82 68.20 67.78 68.90 68.52 67.62 66.52 65.71 66.11 65.59 65.84 67.47 68.27 69.03 69.33 70.07 71.44 70.45 71.22 71.56 72.19 72.62 74.33 75.21 75.35 75.28
64.11 63.38 62.72 64.33 68.74 69.27 69.15 68.07 67.37 67.19 68.18 69.06 69.92 69.54 68.99 69.72 70.34 69.53 68.52 67.80 68.18 69.49 68.97 67.91 67.42 67.44 67.03 66.23 69.52 70.29 69.26 69.47 69.47 69.26 69.85 71.70 71.17 71.67 71.67 70.97 71.31 72.72 74.86
64.74 63.55 62.68 66.63 66.77 68.59 66.78 65.14 64.28 64.92 66.12 66.97 68.75 69.66 69.55 69.06 69.67 68.57 67.89 68.05 68.84 68.73 68.97 69.56 68.55 68.03 67.17 67.96 66.86 66.45 66.70 67.97 68.07 68.41 69.40 69.40 70.10 70.41 70.80 71.20 70.91 71.34 71.10
64.64 66.39 65.23 67.37 65.58 67.49 69.04 66.45 64.94 64.80 65.50 66.02 68.12 67.73 68.56 68.65 68.85 69.38 68.27 68.18 68.95 68.73 68.95 69.17 69.31 67.06 67.60 67.89 65.32 63.52 61.15 62.79 65.48 67.71 67.39 68.73 68.48 69.85 70.41 70.68 70.23 69.94 69.97
66.55 66.17 66.23 66.48 65.01 66.28 69.18 65.35 64.87 64.83 64.59 64.59 65.45 67.67 68.34 69.52 70.08 69.74 69.92 69.09 69.02 68.72 68.23 68.69 68.61 67.94 66.09 66.61 67.04 64.23 60.48 59.59 61.26 66.94 67.71 68.05 68.45 68.45 69.36 69.13 69.18 68.88 68.91
66.55 67.62 65.72 66.41 67.24 70.03 67.69 65.39 63.43 62.59 61.85 63.56 66.16 67.64 69.08 70.90 70.42 70.44 69.85 69.70 69.37 69.98 69.27 68.84 69.15 67.69 66.63 65.44 66.00 67.62 65.25 63.89 59.81 59.08 66.29 66.62 67.80 67.46 65.93 68.70 67.82 68.03 67.53
68.62 68.14 67.45 68.61 70.28 68.84 66.82 66.24 65.50 64.85 65.73 66.56 66.90 66.46 66.10 68.03 69.71 70.20 69.16 68.78 68.32 68.52 68.25 68.41 68.61 67.85 67.46 66.49 65.75 65.18 64.48 64.59 63.72 62.33 61.68 63.53 66.08 66.80 67.84 68.52 69.00 68.48 68.88
68.96 68.95 69.91 66.59 70.12 69.69 66.93 67.08 68.68 67.60 68.30 66.24 65.55 64.74 65.95 66.54 67.28 68.45 69.47 68.12 68.61 67.76 67.98 67.82 67.69 67.94 67.80 67.03 66.29 65.99 64.78 63.22 62.34 61.63 62.87 63.13 63.05 64.49 65.20 67.19 66.98 67.03 67.93

GFSSE_sfc_wetblb_060.txt.gz
Wetbulb
72.71 75.70 77.88 78.28 77.82 76.97 76.80 76.35 76.84 77.15 77.32 77.96 77.79 77.78 77.50 77.04 76.56 76.61 76.26 76.35 76.39 76.18 75.80 76.02 75.90 76.03 75.85 75.68 75.47 75.36 75.08 75.35 75.96 74.94 75.36 75.81 74.98 74.94 74.96 75.10 74.70 71.31 72.33
74.60 76.69 77.25 78.73 78.08 77.19 76.97 77.09 76.89 77.55 77.34 77.49 77.67 77.40 77.17 77.18 76.94 77.00 76.68 76.50 76.50 76.21 76.12 76.18 75.88 75.97 75.41 75.81 75.17 74.97 74.64 75.85 75.71 75.87 75.38 75.42 74.36 73.72 74.43 73.73 73.45 72.46 72.35
75.69 76.63 77.72 78.60 78.58 77.45 76.97 77.36 77.32 77.21 77.07 77.17 77.48 77.01 77.18 77.42 77.11 76.89 76.36 76.34 76.45 76.18 76.18 76.35 76.18 76.25 75.65 75.24 74.86 75.44 75.05 75.43 75.87 75.33 75.24 74.37 72.57 73.84 74.54 75.10 73.10 74.44 73.47
75.55 76.27 77.04 78.66 78.64 77.73 77.15 77.41 77.59 76.99 76.64 77.09 77.01 77.17 77.29 76.95 76.87 76.70 76.59 76.48 76.71 76.94 76.52 76.61 76.25 75.69 75.16 75.49 75.13 75.60 75.96 75.85 75.80 75.13 73.81 73.77 72.89 74.92 74.49 74.76 73.09 73.71 74.68
75.24 75.75 76.90 78.42 78.60 77.78 77.09 77.37 77.67 77.63 77.17 76.61 76.32 77.10 76.40 76.13 76.22 76.59 76.40 76.60 76.61 76.73 76.48 76.68 76.48 75.36 75.35 76.14 75.69 76.06 74.90 75.23 75.50 74.08 72.90 73.26 73.37 72.90 74.51 74.47 74.63 73.62 74.59
74.78 75.74 77.75 78.50 78.31 77.95 77.33 77.00 77.22 77.55 77.15 76.59 76.43 76.27 76.39 75.30 75.61 75.47 75.60 76.38 76.32 76.61 76.60 76.56 75.85 76.01 75.27 75.76 75.29 75.06 75.05 75.29 74.61 72.63 72.38 73.91 73.06 73.89 74.31 73.77 73.44 74.84 74.34
74.29 75.16 76.95 78.90 78.67 78.29 77.62 77.25 77.59 77.62 77.07 76.68 76.68 76.57 76.68 76.55 75.87 75.90 75.68 75.71 76.20 75.63 76.45 76.42 75.41 76.07 75.70 75.71 75.33 74.70 74.91 74.53 73.50 73.14 71.93 73.47 73.56 74.91 74.62 74.80 72.44 73.36 74.60
74.23 75.57 76.60 78.01 78.40 77.98 77.55 77.42 77.40 77.13 76.76 76.64 76.76 76.54 76.44 76.60 76.63 76.47 76.11 75.98 75.71 75.39 75.56 76.23 75.58 76.09 75.95 75.52 75.07 74.84 75.19 74.74 73.68 72.85 72.39 73.29 74.09 74.92 74.70 74.27 73.96 74.62 73.27
75.64 75.57 75.69 75.97 76.79 77.75 77.62 77.28 77.28 76.85 76.73 76.92 76.76 76.73 76.54 76.16 76.08 76.19 76.26 76.24 76.16 76.20 75.54 76.02 76.55 75.95 76.07 75.67 75.13 75.12 74.92 74.91 73.59 72.61 72.43 72.99 75.17 75.30 74.59 74.32 74.36 73.45 73.15
75.45 75.45 74.99 74.66 74.10 74.52 74.97 76.93 77.13 77.08 77.03 77.03 77.06 76.90 76.46 76.52 76.17 76.36 76.74 77.13 76.04 76.04 76.37 75.83 76.01 76.53 76.52 75.90 75.51 75.27 74.79 74.74 73.74 72.60 72.81 72.73 75.24 75.67 75.25 74.55 74.84 74.95 72.94
72.98 72.79 72.19 72.23 72.06 73.00 73.74 75.02 76.81 76.99 77.19 76.76 76.68 77.03 76.27 74.88 74.86 75.78 75.80 76.19 75.96 75.96 76.25 75.73 75.71 75.80 76.29 76.42 76.04 75.24 75.04 73.72 72.85 72.27 72.70 73.64 75.29 75.30 75.00 74.79 74.53 74.41 73.29
69.74 69.38 69.05 70.12 69.85 70.91 74.22 74.09 74.27 74.14 74.79 74.84 75.07 74.70 74.57 73.99 73.55 74.58 75.58 75.81 75.98 75.74 75.71 76.13 76.14 75.78 75.53 74.64 75.22 76.09 74.28 73.33 72.91 72.04 73.72 74.31 75.74 75.16 75.75 75.35 75.32 74.67 73.95
69.20 69.38 69.04 69.64 69.21 70.00 70.15 70.09 72.90 73.86 74.05 73.90 74.36 74.48 74.26 73.47 73.48 74.21 73.42 73.99 74.75 75.38 73.95 74.65 74.70 74.64 73.75 73.85 73.87 74.36 74.18 73.32 72.77 73.15 73.42 74.79 75.71 75.39 76.15 76.49 75.36 74.76 74.84
68.42 68.30 67.90 68.70 68.91 68.87 69.48 70.61 71.47 72.81 73.03 72.64 73.27 73.33 71.87 71.36 71.25 69.87 70.27 71.82 73.13 73.55 73.48 73.39 72.88 72.74 72.39 72.84 72.64 72.82 72.89 73.24 73.00 72.90 73.40 74.98 75.84 75.89 76.38 76.22 76.56 75.23 74.89
66.85 66.88 66.91 67.58 68.71 68.87 69.43 70.40 70.67 70.41 72.01 72.35 72.37 72.46 71.69 70.56 69.32 68.28 68.03 70.73 71.93 72.56 72.71 71.90 70.72 70.07 68.93 68.70 70.01 71.11 72.28 72.72 73.10 73.00 73.98 75.16 76.00 75.83 75.86 76.34 75.82 75.72 75.40
65.29 65.42 65.99 67.07 68.31 68.62 69.52 69.61 69.50 70.04 69.59 70.61 70.83 69.95 70.90 69.57 68.46 67.58 66.85 68.30 71.12 71.31 72.08 71.16 70.48 69.86 69.44 70.31 69.55 70.13 71.17 72.53 73.66 73.23 72.95 73.81 75.83 75.91 75.79 75.77 75.75 75.55 75.51
66.53 65.39 65.73 66.22 68.62 67.34 68.12 69.25 70.24 70.02 69.55 69.10 69.64 68.91 69.54 70.25 68.80 69.00 68.39 68.98 70.94 71.59 71.10 70.41 70.22 69.98 69.89 70.41 70.48 70.69 71.54 71.65 72.33 73.18 73.00 73.38 73.09 75.09 75.96 76.09 75.89 76.39 75.72
65.46 64.51 65.02 67.54 68.14 67.67 68.82 70.81 71.13 70.50 69.46 68.89 69.10 69.84 69.61 71.16 70.02 69.70 69.18 69.73 70.03 70.29 70.35 69.05 68.46 67.85 67.31 67.74 69.17 70.33 71.86 72.18 72.76 73.04 73.31 73.50 73.05 73.01 74.28 76.06 75.50 75.36 75.45
65.24 64.27 64.50 65.51 66.35 67.58 68.48 70.31 71.04 70.47 70.05 69.46 69.16 69.50 70.04 71.04 71.30 69.88 69.66 69.43 69.58 69.77 69.19 68.78 68.06 67.45 67.90 68.05 67.82 69.32 70.19 71.04 71.46 72.31 72.39 72.69 73.64 73.66 74.05 75.00 75.47 75.43 75.74
64.80 64.18 63.83 63.74 67.74 70.13 69.48 68.60 68.22 68.55 69.64 70.05 70.16 69.91 70.42 71.04 71.22 70.40 69.93 68.52 69.45 69.91 69.77 69.27 68.60 68.80 68.71 68.78 68.47 70.52 71.75 71.38 71.57 71.62 71.72 72.49 73.32 73.27 74.34 74.22 74.02 74.76 75.41
64.80 63.54 62.86 63.87 68.40 68.33 66.68 65.49 65.06 65.89 67.94 68.46 69.50 69.42 70.13 69.98 70.29 69.61 69.79 69.52 69.41 68.96 69.87 69.92 70.13 68.69 68.67 68.53 68.91 69.11 68.75 68.93 69.27 69.45 70.55 71.29 71.82 72.69 73.26 73.83 73.89 74.06 73.87
64.14 63.83 63.01 65.97 67.43 68.71 68.24 66.19 65.61 65.85 66.39 66.98 68.96 68.69 69.54 69.65 70.15 69.87 69.34 69.00 69.29 69.21 69.45 69.99 70.45 67.87 67.92 69.55 68.33 67.09 65.12 65.50 67.23 69.08 69.76 70.47 70.43 71.88 72.14 72.24 72.66 72.50 72.60
64.84 66.49 65.09 67.16 66.71 67.52 69.73 65.68 65.61 65.48 65.41 65.53 66.47 67.63 68.65 69.80 70.16 70.54 70.54 70.04 70.04 69.93 69.70 70.19 70.14 69.65 68.06 69.21 69.13 67.16 62.98 61.69 64.79 67.94 67.92 68.85 69.09 69.43 70.05 70.66 70.89 71.02 71.26
66.35 67.71 66.04 67.36 66.13 66.89 68.62 65.60 65.11 63.67 63.24 64.72 66.66 68.96 69.34 71.27 71.09 71.04 70.29 70.46 70.31 69.80 69.25 69.37 69.52 69.50 68.60 67.20 67.92 68.87 67.67 66.11 63.02 62.53 66.95 67.54 68.06 68.41 69.11 69.40 69.69 69.57 68.97
67.36 67.92 66.44 66.62 67.25 70.35 67.83 65.86 66.08 65.62 66.69 67.43 68.13 67.65 68.86 69.31 70.01 70.33 70.18 70.42 70.09 69.68 70.04 69.52 70.69 69.63 69.32 68.60 68.31 67.72 67.79 67.13 66.35 64.83 62.64 64.46 66.61 66.09 68.40 68.97 69.27 69.48 69.99
68.70 68.44 68.13 68.51 69.68 69.70 67.59 66.78 68.71 67.50 67.72 67.67 67.36 66.73 67.23 68.08 68.70 69.75 69.70 69.47 69.52 69.50 69.56 70.19 70.10 69.87 69.68 69.50 68.76 68.08 67.24 66.68 65.68 65.06 64.28 64.26 63.85 64.23 65.27 66.54 66.88 67.60 68.98

GFSSE_sfc_wetblb_063.txt.gz
Wetbulb
74.26 76.03 78.35 78.04 77.00 76.71 76.83 77.19 77.39 78.03 78.32 78.19 77.94 77.25 77.00 76.65 76.54 76.29 76.19 76.08 75.97 76.44 76.20 75.83 76.54 76.12 76.11 75.93 75.58 75.39 75.22 75.30 74.86 75.02 75.07 75.69 74.63 74.84 74.38 74.63 73.97 72.05 72.85
75.42 75.93 77.97 78.30 77.48 76.69 76.76 77.06 77.13 77.76 78.04 78.13 77.84 77.66 77.02 76.63 76.55 76.27 76.32 76.29 76.26 76.13 76.27 76.14 76.34 76.27 76.19 75.53 75.33 75.08 75.71 75.84 75.36 75.65 75.50 74.17 75.20 75.19 75.39 74.44 71.51 71.92 74.98
75.59 76.38 76.91 77.99 77.84 77.26 76.93 77.17 77.02 77.22 76.98 77.26 77.43 76.97 76.55 76.87 76.76 76.70 76.37 76.20 76.13 76.05 76.21 76.28 76.29 76.17 76.04 75.14 75.00 75.00 75.90 75.60 75.80 75.37 75.30 72.85 73.05 74.28 73.81 72.74 74.84 73.07 73.96
76.13 76.72 76.96 78.08 77.89 77.87 77.76 77.54 77.34 77.35 76.85 77.24 76.86 77.00 77.23 77.30 77.02 76.54 76.21 76.32 76.21 75.94 76.47 76.37 76.41 75.60 75.33 75.14 75.64 75.30 75.46 75.49 75.52 75.28 74.79 72.52 73.15 74.55 75.23 73.32 74.68 74.24 74.65
76.40 77.01 77.48 78.27 78.26 77.10 77.39 77.91 77.69 77.43 77.50 77.13 77.38 77.40 77.30 76.87 76.53 76.60 76.46 76.43 75.72 76.13 76.14 76.29 75.66 75.28 75.41 75.38 75.91 76.00 75.99 75.91 75.37 74.98 74.91 74.55 73.19 74.82 74.89 73.10 73.98 75.11 74.81
76.05 76.66 78.19 78.05 78.20 77.39 76.94 77.35 77.68 77.68 77.62 77.09 77.39 77.06 76.38 76.41 76.28 76.26 75.95 76.10 76.33 76.45 75.97 75.92 75.69 75.25 75.82 75.79 76.11 74.84 75.54 75.37 74.89 74.89 75.22 74.80 73.00 74.36 73.83 74.67 73.95 74.55 74.07
75.88 76.60 77.69 78.27 78.33 78.07 77.79 77.10 77.42 77.48 77.67 77.29 76.66 76.66 75.66 75.91 75.74 75.63 75.63 75.49 75.64 75.83 75.76 76.07 76.16 75.25 75.57 75.42 75.29 74.99 75.47 75.09 73.95 74.05 74.58 74.12 74.07 74.73 74.99 72.88 74.44 74.43 74.10
75.38 76.38 77.53 77.64 77.64 78.01 77.33 77.33 77.30 76.53 76.94 76.71 76.58 76.60 76.72 76.20 76.20 76.32 75.89 75.57 75.32 75.63 76.12 75.91 75.61 75.64 75.65 75.64 75.15 75.30 74.88 74.65 75.03 74.61 74.16 74.73 74.82 74.59 74.96 73.71 72.60 73.87 75.07
76.10 76.79 77.58 77.48 77.63 77.46 77.45 77.43 77.23 76.97 76.60 76.60 76.98 76.69 76.43 76.68 76.55 76.25 76.25 75.96 75.85 75.70 75.27 75.91 75.47 76.20 75.54 75.48 75.04 75.23 75.39 75.21 75.09 75.24 74.30 74.21 75.01 74.23 74.79 74.20 74.48 74.03 73.51
75.82 76.44 76.91 76.71 77.53 77.83 77.35 77.13 77.01 76.70 76.62 76.43 76.74 76.60 75.86 76.39 76.09 76.17 76.64 76.30 75.94 76.02 75.99 75.71 75.73 75.89 75.94 75.51 74.99 75.17 75.07 75.25 75.59 75.51 75.31 74.91 75.31 75.14 74.58 74.53 74.62 73.76 73.25
75.28 76.15 76.84 75.71 76.15 77.68 77.75 77.53 77.22 76.89 77.07 76.63 76.77 77.02 76.70 76.65 76.18 76.37 76.56 75.97 76.38 76.29 75.82 75.82 75.86 76.03 76.22 76.08 75.44 75.07 74.83 75.34 74.90 75.40 75.62 74.99 75.08 75.63 75.33 75.05 74.73 75.02 73.79
73.69 74.78 75.47 75.88 75.55 75.73 76.32 77.50 77.35 76.98 77.19 77.19 77.22 77.30 77.62 76.97 76.94 76.29 75.80 75.70 75.81 75.49 75.46 75.35 75.57 75.82 76.06 75.47 75.30 75.31 74.66 74.85 74.66 75.40 76.19 74.72 75.15 75.59 75.75 76.25 75.44 74.97 74.24
73.78 73.91 73.66 73.53 72.31 73.63 74.47 77.52 76.58 76.21 76.96 76.64 77.15 77.42 77.28 76.66 76.41 76.32 76.15 75.73 76.40 76.02 75.61 76.18 75.88 75.53 74.86 75.73 75.09 75.05 74.98 74.33 74.31 74.68 75.81 74.73 75.50 75.59 75.70 76.87 75.90 75.08 74.64
72.90 73.02 73.16 72.44 69.49 70.09 70.73 75.61 77.11 77.11 76.32 76.59 76.55 77.37 77.13 76.10 76.21 75.85 75.40 75.57 76.48 76.83 76.16 75.90 75.57 75.96 75.52 75.44 75.35 75.22 75.03 74.52 74.14 74.29 75.25 74.57 75.90 75.56 75.66 75.83 75.81 75.21 75.11
72.11 72.56 72.83 71.75 71.43 70.52 71.59 74.76 75.71 75.88 75.78 76.50 76.59 77.21 76.77 76.08 76.16 75.55 74.97 75.39 75.35 76.15 75.91 75.63 75.43 75.19 75.07 74.89 75.10 74.68 74.41 74.14 74.61 74.19 74.11 74.87 75.45 75.65 75.96 75.56 75.55 75.85 75.22
72.19 72.49 72.40 70.36 70.99 70.81 71.38 72.42 72.87 72.12 71.97 73.20 75.50 75.02 76.13 76.35 75.56 74.75 74.78 74.05 74.91 75.46 75.63 75.22 75.31 74.88 73.95 73.46 73.17 74.16 74.48 74.81 75.66 75.81 75.12 74.85 75.59 76.04 75.74 76.24 76.46 75.97 75.67
71.53 71.05 69.69 69.82 70.65 70.47 70.82 72.74 72.54 72.00 72.65 73.26 73.93 72.70 72.79 72.16 70.48 70.92 72.77 72.32 74.92 75.13 75.65 75.83 74.90 74.18 73.50 73.54 73.52 73.68 73.00 74.24 74.31 75.78 76.29 76.00 75.66 75.24 76.24 75.99 76.10 75.95 76.14
72.14 69.91 69.47 69.28 70.39 71.70 71.24 71.93 73.24 73.31 72.90 72.44 72.20 70.77 70.19 71.27 71.23 70.09 71.14 72.33 73.38 74.20 74.52 74.03 73.73 72.38 72.13 72.07 72.25 72.66 73.10 73.84 74.64 75.55 75.88 76.02 76.04 75.85 76.08 75.80 75.75 75.93 76.16
70.42 70.69 69.50 69.71 70.35 69.46 70.54 72.07 72.94 73.76 73.66 73.32 72.76 72.29 71.45 70.45 73.27 72.81 70.23 71.03 74.00 73.74 73.87 73.70 72.98 72.34 71.67 71.89 71.85 71.69 72.39 72.78 73.91 74.08 75.01 75.78 76.26 76.02 76.09 76.13 75.47 75.70 76.31
69.51 69.67 69.69 69.38 69.91 71.90 72.83 72.06 72.19 72.00 71.52 71.70 71.94 72.35 72.77 71.11 71.27 73.54 72.24 71.46 72.16 71.39 71.03 72.42 72.53 72.60 71.96 71.97 71.73 71.69 73.01 73.47 74.57 74.25 74.54 74.98 75.55 75.90 76.31 76.60 78.24 75.85 75.85
68.49 69.00 69.15 69.08 71.43 72.74 72.57 71.36 69.61 69.86 70.60 70.68 71.82 73.49 73.41 73.63 72.46 71.64 70.70 71.74 72.11 71.35 72.40 72.92 72.50 71.97 71.84 72.47 68.75 71.64 72.17 73.01 73.49 73.42 71.58 72.57 74.76 75.09 75.83 76.14 76.47 76.34 75.69
68.60 68.66 68.54 68.87 73.16 72.97 72.56 71.26 70.85 70.81 70.29 72.10 71.77 71.10 70.57 71.50 71.81 71.01 70.35 70.42 73.76 72.09 72.41 72.53 72.37 71.33 72.03 69.04 67.30 68.04 67.41 68.24 71.43 71.42 72.05 72.11 73.46 74.69 75.07 75.30 75.83 75.97 76.08
68.30 68.50 68.55 69.15 73.24 73.36 73.43 70.33 70.55 70.60 70.50 70.01 70.43 70.28 69.89 70.08 70.20 71.56 73.05 72.98 72.90 72.53 70.85 72.08 72.46 71.98 70.20 69.35 70.20 70.84 68.14 65.56 67.82 70.60 69.95 70.29 70.74 71.12 71.41 72.64 73.63 74.07 74.58
69.12 70.04 71.54 69.83 72.96 73.07 73.88 70.40 70.08 68.89 68.31 69.97 70.65 71.57 71.48 71.01 71.03 72.43 73.18 72.73 73.87 73.24 73.01 72.64 74.43 73.53 73.43 68.40 70.97 72.05 71.80 70.60 67.13 64.91 69.02 68.91 69.62 69.61 71.37 70.64 70.81 72.06 73.27
69.78 70.74 70.83 71.84 72.67 71.93 73.81 72.54 69.61 69.96 70.38 69.76 71.51 72.50 72.96 72.02 71.58 71.19 70.66 71.03 72.02 71.52 70.77 70.14 71.09 70.03 71.11 73.12 71.44 70.53 70.25 69.03 69.24 67.93 64.23 66.14 67.50 67.53 69.66 70.74 70.79 71.88 72.44
70.39 71.01 71.20 70.51 71.28 71.90 73.92 72.75 70.67 72.41 71.79 71.30 69.83 70.50 71.49 71.95 72.60 72.42 70.83 70.99 71.55 71.09 71.53 71.60 71.86 73.79 73.16 72.40 72.01 71.56 70.08 68.72 68.01 68.63 67.20 66.36 65.03 64.74 65.85 67.05 68.27 70.69 71.48

GFSSE_sfc_wetblb_066.txt.gz
Wetbulb
75.38 77.37 78.35 77.38 77.19 77.55 77.79 78.00 78.56 79.02 78.06 77.66 77.39 76.85 76.79 76.85 76.66 76.42 76.52 76.16 76.11 76.08 75.43 76.20 75.87 75.51 76.36 76.01 75.92 75.32 74.90 74.57 74.57 75.77 75.83 75.56 75.48 75.13 75.49 74.54 73.71 73.42 74.05
76.72 77.32 78.32 78.02 77.08 77.41 77.51 77.82 78.14 78.85 78.43 77.99 77.33 77.01 76.70 76.64 76.59 76.24 76.00 75.95 76.15 76.34 76.06 76.25 76.39 76.50 76.04 75.45 75.57 75.35 75.75 75.10 75.61 75.95 75.59 75.32 75.15 74.73 74.35 71.72 74.23 73.09 73.03
76.40 77.34 77.92 78.22 77.51 77.14 77.34 77.62 77.67 78.16 77.86 77.45 77.27 77.35 76.76 76.62 76.71 76.73 76.82 76.17 75.95 75.70 75.81 76.06 76.14 76.05 75.60 75.10 75.12 75.92 75.65 75.64 75.33 75.43 74.35 73.94 75.80 75.04 74.04 73.40 73.17 75.26 74.79
76.86 77.32 77.82 77.89 78.12 77.35 77.17 77.29 77.57 77.56 77.24 77.22 76.97 76.82 76.69 77.33 76.99 76.50 76.62 76.29 75.90 76.09 76.03 76.03 76.42 76.09 75.24 74.96 75.10 75.73 75.29 75.59 75.40 75.54 73.50 72.55 73.20 74.83 72.85 74.87 73.30 74.17 74.41
76.91 77.47 78.57 78.29 78.12 77.30 77.35 77.63 77.57 77.62 77.30 76.97 76.82 76.91 77.49 77.38 77.02 76.65 76.18 76.43 76.09 75.98 76.00 76.20 76.04 75.23 75.15 75.82 75.70 75.31 75.66 75.61 74.97 75.25 74.15 74.02 73.82 75.21 73.25 74.33 75.05 74.81 74.71
76.90 77.39 78.06 78.42 77.38 77.40 77.27 77.42 77.30 77.42 77.37 77.64 77.49 77.46 77.33 76.87 76.98 76.81 76.34 76.50 76.27 75.90 76.10 75.95 75.54 75.26 76.04 76.08 76.02 75.84 75.87 75.40 75.14 74.25 74.00 73.14 74.75 75.53 73.63 73.21 74.62 74.95 74.10
76.58 77.58 77.96 78.73 78.48 78.16 77.46 77.30 77.75 77.19 77.06 77.13 77.41 76.45 76.57 76.55 76.63 76.25 76.31 76.25 76.30 76.48 76.05 75.87 75.49 75.54 76.11 76.24 75.54 75.44 75.28 74.93 75.12 74.23 74.45 73.75 74.74 74.34 73.60 73.95 74.15 73.76 73.05
76.22 77.31 77.13 77.69 78.11 77.99 77.17 77.25 77.42 77.09 77.05 76.97 77.04 76.79 75.81 76.22 75.73 75.95 75.98 75.79 75.43 75.89 76.07 75.60 76.03 75.54 75.73 75.36 75.35 75.22 75.49 75.00 74.82 73.95 74.23 74.37 74.59 74.08 75.21 72.89 73.77 74.36 74.27
76.74 76.50 77.08 78.04 78.10 77.58 77.18 77.27 77.34 76.77 77.09 76.87 76.87 76.89 76.69 76.28 76.27 76.67 76.15 75.94 75.89 75.80 76.27 76.20 76.12 75.84 75.78 75.64 75.17 75.43 75.28 74.87 75.97 75.55 73.92 74.44 74.64 74.03 74.76 73.82 72.75 73.29 74.08
76.43 76.69 77.76 77.67 78.27 78.21 78.04 78.00 77.19 77.00 76.64 76.53 76.55 76.15 76.26 76.80 76.58 76.11 76.54 75.81 76.03 75.79 75.76 76.04 75.85 76.41 75.83 75.66 75.12 74.78 74.97 75.29 75.97 74.90 75.51 76.02 75.71 74.55 74.70 74.63 74.02 74.25 73.52
75.50 76.73 77.31 77.76 77.47 77.85 77.92 77.88 77.21 76.79 76.66 76.22 76.54 76.10 76.48 76.74 76.55 76.82 76.96 76.46 76.27 76.00 76.10 75.86 76.08 76.21 75.95 75.56 75.26 74.93 74.97 74.71 74.78 75.30 75.53 75.37 75.96 75.32 75.11 74.85 74.80 74.49 73.67
74.84 76.03 76.75 76.75 76.17 76.49 77.09 77.52 77.99 77.65 77.39 76.73 77.14 77.64 77.56 77.38 77.84 75.95 76.31 75.93 75.87 76.01 75.78 75.65 75.89 76.06 76.10 75.44 75.32 75.22 75.04 74.61 75.11 75.25 75.98 75.80 75.35 75.46 75.70 76.57 75.34 74.98 75.50
75.67 75.75 76.43 76.18 72.10 73.94 76.22 75.66 77.78 77.00 77.54 78.04 77.80 78.57 78.30 78.24 76.97 76.04 76.49 75.67 76.28 76.42 75.66 75.54 75.73 75.55 75.46 75.18 75.12 74.50 74.42 75.23 74.97 75.06 77.25 75.53 75.23 75.35 75.76 76.78 76.54 75.18 75.22
75.23 75.76 75.74 75.91 70.47 71.56 74.87 75.12 75.37 76.87 78.25 77.32 77.00 77.93 78.24 77.18 76.04 76.01 75.69 75.45 76.71 78.13 76.87 76.46 77.08 76.33 75.97 76.21 75.46 75.11 74.79 74.85 74.92 74.95 76.32 75.59 75.61 75.89 76.04 75.85 76.25 75.86 75.35
75.54 75.72 75.78 75.49 75.57 73.90 74.55 75.30 74.69 74.97 75.34 76.06 76.87 77.48 77.10 76.69 77.14 76.62 75.76 75.67 75.91 76.59 76.58 76.19 76.58 77.12 76.02 75.73 76.10 75.58 74.90 74.49 74.96 75.34 75.39 76.19 75.83 75.98 76.04 75.97 76.07 75.92 75.65
75.82 75.72 75.97 75.21 74.01 73.04 73.10 74.58 74.77 76.15 77.48 77.11 75.81 76.23 77.10 76.13 76.38 75.75 75.57 75.25 76.88 76.57 76.15 75.83 75.76 75.98 75.95 75.45 75.23 75.81 75.49 75.04 74.68 75.05 74.65 75.47 76.41 75.96 76.49 76.34 75.99 76.31 75.64
76.02 76.20 75.36 73.92 72.67 73.08 73.28 74.05 75.27 73.92 72.85 73.04 74.36 76.32 76.89 76.85 76.65 76.38 74.92 74.96 75.41 77.03 76.75 76.04 76.70 76.85 75.71 74.62 75.04 75.52 75.35 75.71 75.16 75.75 76.06 75.91 76.17 75.89 76.53 76.59 76.32 76.17 76.70
76.04 74.91 74.38 72.22 73.79 74.18 74.17 74.43 73.63 74.30 73.69 74.03 74.75 75.60 73.97 73.55 73.92 74.57 71.93 73.36 75.15 76.07 76.37 76.65 77.44 74.49 74.11 73.93 74.04 74.17 74.45 75.10 75.40 76.33 76.47 76.85 76.33 75.36 76.02 76.43 76.21 76.00 76.51
75.19 75.22 73.96 73.38 73.28 72.94 73.68 74.61 75.04 75.11 75.72 76.45 75.89 74.25 72.28 71.83 72.21 71.74 71.89 72.11 75.93 76.30 74.78 75.36 75.37 75.31 73.61 73.59 73.54 73.83 74.36 74.17 74.54 74.90 75.72 76.30 76.97 76.46 75.89 76.58 76.26 76.04 76.04
72.71 73.86 74.48 73.42 73.33 73.52 74.43 74.88 75.99 75.07 73.46 73.60 74.62 75.79 75.12 73.30 72.86 73.38 73.52 71.42 71.89 75.00 74.55 76.67 75.34 74.32 73.50 72.93 72.34 72.91 74.05 74.48 74.31 74.57 75.14 76.64 77.08 75.48 77.07 77.02 79.50 75.89 75.95
72.02 73.00 73.38 72.89 73.23 74.32 74.18 73.40 72.97 71.20 73.44 73.09 73.34 74.52 74.61 75.10 74.66 71.81 73.26 71.98 71.52 71.11 71.78 71.07 72.40 73.47 71.92 73.39 72.75 71.02 71.88 74.90 75.10 76.59 76.84 75.59 73.01 74.92 76.24 76.78 79.95 76.93 75.79
71.73 72.67 73.02 73.00 75.28 75.26 74.79 74.45 73.88 74.53 72.86 74.54 73.07 74.32 74.48 74.12 74.13 72.50 72.02 71.86 71.94 72.44 73.75 74.03 73.84 71.95 71.90 75.27 70.42 68.44 66.44 70.91 72.80 74.48 73.91 73.83 74.60 76.18 75.88 76.35 76.89 77.01 76.89
71.53 71.95 72.34 73.08 75.81 75.98 75.37 73.70 73.96 73.98 73.22 72.43 73.24 72.46 72.97 71.63 72.53 74.24 71.88 70.91 71.85 70.90 73.95 74.63 74.76 73.33 71.40 73.77 70.32 68.53 64.95 65.79 69.96 71.65 71.89 72.64 72.48 72.76 74.07 75.07 75.37 75.96 76.45
72.06 72.25 72.96 73.00 75.26 75.96 75.95 72.97 72.65 71.85 71.53 72.68 73.17 72.66 72.41 73.09 72.85 70.84 71.75 73.59 75.56 77.10 75.29 74.25 75.36 75.15 75.75 72.96 71.29 71.86 70.89 71.54 68.68 67.29 70.54 71.12 71.38 71.09 73.58 73.48 73.38 74.57 74.93
72.75 72.51 73.53 73.18 74.76 75.76 75.64 74.76 72.24 72.75 74.19 72.92 73.31 73.34 74.40 74.26 72.18 71.10 71.75 72.94 73.42 75.64 75.37 75.05 73.97 72.84 72.00 69.68 69.55 72.34 72.69 72.27 71.60 69.39 67.13 67.44 68.13 69.08 70.97 71.23 73.78 73.12 74.44
73.11 73.34 73.14 73.79 74.57 75.36 74.86 75.48 74.62 72.95 72.88 72.34 72.09 72.34 72.87 74.60 74.03 73.70 72.21 71.98 71.17 72.47 73.37 73.43 71.62 71.49 71.68 71.54 72.87 72.91 71.44 70.03 69.19 69.45 69.06 68.30 68.26 65.31 66.26 68.04 69.73 72.46 73.56

GFSSE_sfc_wetblb_069.txt.gz
Wetbulb
75.37 76.47 78.32 77.76 77.96 78.20 78.04 78.21 78.27 77.94 77.53 76.79 76.33 76.41 76.73 76.52 76.50 76.54 76.45 76.15 75.78 75.18 75.65 75.82 75.71 75.87 76.26 76.03 75.71 75.02 74.57 75.23 76.06 76.23 75.83 75.56 75.58 75.37 74.77 74.17 75.14 73.47 73.36
76.90 76.45 78.05 78.11 77.88 77.99 78.20 78.07 78.46 78.50 77.34 76.83 76.67 76.65 76.79 76.81 76.57 76.70 76.36 76.33 76.06 75.98 76.08 76.43 75.90 76.05 75.79 75.54 75.38 75.74 74.96 75.43 75.64 75.96 74.82 75.38 74.77 74.54 73.43 73.51 75.29 72.86 73.80
76.32 77.23 76.33 78.19 77.59 77.76 78.01 78.28 77.65 77.94 77.04 76.57 76.92 76.73 76.65 76.57 76.39 76.20 76.44 76.37 76.37 75.96 75.95 76.26 76.27 76.09 75.18 75.54 75.38 76.03 75.51 75.71 75.54 74.20 75.67 75.62 75.38 74.49 72.77 73.65 75.71 73.96 74.80
76.52 77.39 76.18 77.86 78.11 77.57 77.70 77.83 77.79 77.34 76.86 76.98 76.88 76.67 76.58 76.66 76.84 76.95 76.98 76.34 76.40 75.82 76.03 76.09 76.15 75.96 75.01 74.99 75.84 75.46 75.64 75.09 75.18 75.34 74.95 72.25 73.60 72.94 74.87 73.47 74.41 75.17 75.44
76.32 76.79 77.76 78.04 77.53 77.46 77.54 77.67 77.63 77.63 77.12 77.07 76.69 76.64 76.59 76.35 76.70 76.35 76.35 76.35 76.26 76.28 76.25 76.17 75.82 75.46 75.27 75.46 75.73 75.62 75.35 75.20 75.70 75.74 73.15 74.52 74.02 73.79 74.29 74.62 74.11 74.64 74.15
75.41 77.48 77.74 78.24 77.23 77.25 77.23 77.14 77.23 77.49 77.30 77.04 76.80 76.56 76.75 76.73 76.60 76.43 76.71 76.20 76.34 75.85 76.28 76.07 75.35 75.43 75.81 76.00 75.81 75.47 75.48 75.67 75.37 74.44 74.00 73.98 75.07 74.35 72.74 73.58 75.18 74.75 73.90
77.03 78.55 77.89 78.53 78.12 77.65 77.26 77.30 77.49 77.38 77.12 77.13 76.97 76.78 76.65 76.31 76.36 76.31 75.89 76.45 76.37 76.25 76.25 75.90 75.17 75.86 75.98 76.13 75.52 75.85 75.42 74.82 75.51 73.00 73.40 73.15 75.33 74.72 74.48 73.77 74.73 74.37 73.74
75.48 77.58 78.12 78.17 77.90 77.47 77.34 77.26 77.31 77.59 77.24 77.31 76.18 75.91 76.47 76.56 76.07 76.15 75.99 75.85 76.04 76.63 76.24 75.93 75.49 76.22 76.27 76.02 74.90 75.06 74.96 75.04 74.71 73.05 73.14 74.75 74.88 74.77 73.91 72.56 74.39 73.84 72.81
76.43 77.32 77.38 77.41 77.80 77.39 77.24 77.47 77.27 77.04 76.96 76.98 76.61 76.24 75.93 75.95 75.85 75.64 75.38 75.73 75.68 76.02 76.49 75.63 75.82 76.04 75.67 75.56 75.34 75.07 75.02 75.83 75.57 74.59 72.87 74.84 75.30 74.60 75.31 73.36 72.43 73.34 74.46
76.32 76.72 77.33 78.22 77.18 77.80 76.90 77.17 77.42 77.02 76.89 76.97 76.47 76.34 76.67 76.28 76.67 76.64 76.00 75.90 75.87 75.73 76.37 75.98 76.35 76.07 76.11 75.99 75.34 75.14 75.34 75.98 75.26 74.16 73.41 74.32 75.49 74.56 75.25 74.28 73.55 74.43 72.93
75.99 76.99 76.15 76.34 75.04 75.01 77.62 77.43 76.98 76.58 76.15 76.35 76.23 75.90 75.90 76.59 76.62 76.85 76.87 76.16 76.37 75.79 75.85 76.26 76.10 76.41 75.88 75.80 75.51 75.15 75.01 74.09 74.03 74.24 73.96 75.63 76.05 74.74 74.59 74.84 74.45 74.30 73.50
75.20 76.20 75.07 76.44 74.11 73.79 74.95 77.61 77.62 76.68 76.24 76.14 76.46 76.81 76.15 76.76 77.58 76.38 76.20 76.31 76.28 76.26 75.96 76.04 76.25 76.24 76.33 74.64 75.07 75.29 74.44 74.05 74.86 73.55 76.07 76.61 76.45 75.19 75.49 75.89 74.96 74.84 74.64
76.04 76.48 76.81 76.71 73.90 74.19 75.21 77.21 77.75 78.36 76.96 79.37 77.11 77.32 78.56 78.33 76.53 76.04 77.74 75.61 75.10 76.40 76.04 75.74 75.76 75.37 74.79 74.63 74.25 74.64 73.38 74.59 74.12 74.88 75.31 76.86 76.48 75.56 75.57 76.25 76.14 75.38 75.00
75.99 76.38 75.79 77.31 75.46 74.33 74.19 73.72 76.96 77.52 77.35 78.28 77.52 78.27 79.19 78.22 77.42 77.60 74.12 77.54 77.87 76.16 76.59 76.75 75.65 75.10 75.71 75.98 76.21 74.29 74.23 74.72 74.84 74.51 76.10 76.74 76.62 75.90 75.89 76.00 76.92 76.43 75.68
75.62 76.53 76.47 76.55 75.88 75.37 75.27 75.30 75.00 75.13 75.51 76.20 76.69 78.16 77.61 76.24 76.34 75.96 76.34 76.00 75.34 77.68 76.53 75.81 76.85 76.40 76.96 75.94 75.52 76.03 74.52 74.49 74.29 75.08 74.79 77.43 76.93 76.82 76.37 76.31 76.33 76.38 75.97
76.36 76.29 76.53 75.85 76.48 75.76 74.65 75.73 75.20 75.69 78.05 75.19 76.91 76.64 77.60 77.13 76.84 75.59 75.77 74.57 75.94 76.15 75.97 75.85 76.27 77.39 75.57 75.70 75.16 76.07 75.32 75.03 74.68 74.64 74.48 76.39 76.78 76.31 76.85 76.81 77.22 76.55 76.34
76.77 76.74 76.65 76.40 75.32 74.54 75.22 74.65 74.81 74.31 76.00 75.77 76.54 77.61 77.19 77.16 78.30 78.18 75.08 74.90 75.64 76.93 77.24 76.81 77.58 76.62 75.40 75.48 74.81 75.49 74.85 75.59 75.19 75.54 75.04 75.11 75.58 76.50 76.64 77.22 77.10 76.97 77.06
76.87 76.58 76.48 74.94 75.42 75.18 74.88 75.03 75.09 75.07 74.89 74.54 74.58 74.66 76.15 76.48 76.98 76.86 75.06 74.49 75.38 76.34 75.58 75.25 75.73 76.91 74.88 73.81 74.15 74.08 74.15 75.95 75.21 75.70 75.59 76.37 76.03 74.63 75.79 76.79 76.81 76.56 76.77
76.81 76.13 75.39 74.78 75.05 75.48 75.53 74.96 75.99 76.32 75.24 74.45 74.90 76.22 76.26 76.02 74.89 75.76 74.07 73.81 74.97 75.22 74.74 75.85 75.29 75.46 74.68 73.90 74.20 73.82 74.69 74.21 75.47 74.33 75.33 76.29 76.82 76.36 75.67 75.83 76.31 75.92 76.60
75.46 75.98 75.73 75.00 75.23 74.27 74.51 75.54 75.35 75.56 75.73 75.78 75.64 76.22 76.04 75.59 74.54 72.82 73.11 73.55 73.20 73.05 73.78 75.55 75.16 75.13 73.05 72.49 72.01 72.04 75.01 73.88 73.76 73.58 74.71 74.71 75.59 76.46 73.51 73.52 74.97 75.83 76.15
74.31 74.76 75.71 74.61 75.32 74.96 74.46 73.38 72.82 71.69 73.94 73.82 74.41 75.61 75.41 76.00 74.21 73.85 73.56 76.37 74.62 72.89 74.36 75.40 75.64 74.34 72.25 73.22 73.45 71.68 72.45 73.48 73.13 74.02 75.17 75.66 76.01 76.24 75.75 75.72 79.95 75.48 76.58
73.89 74.32 74.86 74.69 75.07 76.34 75.47 74.84 73.35 73.52 74.25 74.39 75.43 75.30 75.37 75.08 75.32 75.12 74.22 72.40 73.57 72.74 73.57 72.86 72.18 72.02 72.30 74.16 72.06 72.88 66.77 69.81 71.76 73.90 76.54 75.32 75.26 76.48 74.55 76.23 77.10 76.88 77.26
73.93 73.78 74.43 74.81 76.12 76.63 76.62 74.53 74.27 74.23 73.68 72.70 73.67 73.91 73.93 74.71 74.75 74.84 72.96 72.63 72.83 72.02 70.82 71.98 73.50 74.05 73.28 75.80 74.96 71.20 66.27 66.09 67.12 74.11 73.86 73.29 72.87 73.03 75.24 75.05 75.23 75.93 76.87
74.04 74.48 74.66 74.72 76.24 76.62 76.59 74.76 74.25 73.00 72.24 74.22 73.32 73.66 73.67 73.74 73.62 74.17 74.61 73.38 71.63 71.50 72.93 70.84 74.82 75.51 75.15 72.83 74.00 72.42 71.82 70.50 65.01 64.47 70.85 72.43 73.35 72.48 73.97 74.08 73.58 74.65 75.60
74.60 74.35 73.97 74.58 75.24 76.81 76.36 75.73 73.48 73.59 73.93 73.03 72.73 74.09 74.11 73.99 73.25 72.15 70.84 72.61 71.58 73.68 75.25 74.79 75.10 75.19 75.61 73.77 73.60 70.64 70.33 69.34 68.73 67.52 65.12 69.48 70.13 69.88 69.99 71.46 74.19 74.86 74.96
74.87 74.67 74.53 74.60 75.10 76.65 76.26 75.59 75.07 73.83 73.08 72.36 72.98 72.37 73.68 73.43 73.76 72.77 71.03 71.72 71.55 72.16 73.45 72.85 74.30 74.03 74.15 73.75 71.51 69.48 69.28 71.18 70.36 69.64 69.31 69.58 68.10 65.74 66.69 68.19 70.01 73.32 74.15

GFSSE_sfc_wetblb_072.txt.gz
Wetbulb
73.55 75.66 78.90 79.17 79.22 79.34 79.02 78.96 78.42 77.86 77.00 76.84 76.63 76.60 76.45 76.24 76.17 76.66 76.38 76.16 75.75 75.87 76.15 76.31 76.12 76.47 76.52 76.05 75.15 74.62 75.93 76.21 76.22 75.74 76.15 75.76 75.00 75.82 75.71 74.48 75.50 71.85 74.45
74.44 75.45 78.63 79.04 79.24 79.20 78.74 79.07 78.54 77.51 77.25 77.07 77.20 76.67 76.64 76.39 76.39 76.17 76.25 76.01 75.94 76.14 76.58 76.09 76.05 76.21 75.92 75.75 75.51 74.79 74.90 76.12 76.10 76.24 75.70 75.29 75.28 73.73 75.20 75.81 74.92 71.95 72.97
73.92 74.92 76.62 78.65 78.97 78.71 78.63 79.19 78.76 78.14 76.96 77.09 77.32 76.80 76.83 76.42 75.97 75.92 75.94 76.33 76.28 76.17 76.47 76.59 76.14 75.90 75.90 75.64 76.08 75.28 75.77 75.95 76.30 75.51 76.20 73.06 72.74 73.28 74.81 74.73 74.01 75.45 74.87
74.95 73.48 75.14 78.33 78.78 78.71 78.68 79.05 78.61 78.11 77.11 77.16 77.52 76.91 76.72 76.54 76.12 76.10 76.33 76.26 75.51 76.05 76.28 76.35 76.30 75.67 75.26 75.66 75.97 75.88 75.08 75.33 75.56 74.95 74.47 72.96 70.44 74.65 73.77 75.83 75.58 75.06 73.52
75.92 74.63 75.67 78.34 78.52 78.05 78.36 78.82 78.55 78.15 77.89 77.53 77.11 76.73 76.33 76.22 76.89 76.78 76.37 75.87 76.44 75.94 76.41 76.57 76.28 75.31 75.26 75.88 75.83 75.77 75.42 75.31 75.37 75.31 74.40 74.30 70.17 74.73 74.29 74.47 74.63 74.86 74.82
73.61 76.26 77.19 78.24 77.64 77.68 77.81 78.10 78.40 78.21 77.97 77.26 76.65 76.41 76.68 76.43 76.59 76.56 75.91 76.34 76.33 76.36 76.52 76.06 75.67 75.67 76.04 75.80 75.90 75.49 75.37 75.17 75.17 74.98 73.77 74.71 71.41 74.59 75.47 75.13 75.69 74.75 73.48
72.46 76.50 75.84 78.19 78.10 77.42 77.28 77.74 77.78 77.80 77.57 77.26 76.71 76.36 76.21 76.71 76.55 75.98 76.24 76.39 76.00 76.11 76.36 75.87 75.62 76.01 76.24 76.33 75.83 75.64 75.70 75.37 74.16 73.35 72.47 74.01 73.05 75.24 74.43 75.31 75.50 74.67 74.76
75.92 76.16 75.64 77.94 78.37 77.85 77.20 76.89 77.02 77.10 76.98 77.21 76.99 76.17 76.14 76.26 76.49 76.39 76.39 76.28 76.14 76.18 76.18 75.89 75.98 76.32 76.37 75.60 75.44 75.19 75.35 74.93 74.97 73.59 73.44 72.97 74.46 75.33 74.22 75.16 74.48 73.46 73.13
76.94 76.94 76.37 76.23 77.09 77.32 77.15 77.18 77.15 77.01 77.00 76.98 76.69 76.32 76.29 76.33 75.95 76.36 76.19 75.95 75.99 75.82 76.48 76.39 75.65 76.62 76.17 75.74 75.08 74.94 75.71 75.86 74.18 74.64 73.66 72.78 75.91 76.40 74.28 72.91 74.84 74.99 74.21
76.62 76.86 75.60 76.66 77.97 76.71 75.87 77.58 77.26 76.98 76.98 76.98 76.59 76.43 76.58 76.06 76.03 75.94 76.67 76.97 75.94 76.14 76.20 75.84 75.78 76.10 75.98 75.67 75.68 75.43 75.68 75.61 73.58 73.71 73.82 72.41 76.09 76.07 76.14 73.76 73.02 73.72 74.49
75.61 72.23 68.79 71.81 74.84 76.56 76.87 77.16 76.79 76.39 76.69 76.69 76.44 76.34 76.45 75.67 75.92 76.67 76.55 76.98 76.22 75.97 76.36 76.09 76.39 76.56 76.30 76.13 75.82 75.60 75.34 73.21 73.43 73.75 72.93 74.98 75.93 76.39 76.02 74.94 74.27 75.04 73.67
74.35 71.40 66.62 71.53 73.03 74.69 74.41 76.99 76.82 76.01 75.37 75.51 75.84 76.13 75.39 75.56 75.78 76.23 76.59 76.44 76.49 76.14 76.11 76.30 77.01 76.61 75.81 74.31 74.56 75.35 73.79 72.86 73.23 74.30 73.90 75.99 75.95 76.12 75.57 76.06 75.47 75.01 74.29
74.40 74.84 73.95 74.36 73.74 72.65 72.91 73.42 75.74 77.37 76.25 77.17 77.32 77.18 76.42 76.72 76.07 75.51 75.43 75.19 75.87 76.40 74.84 75.59 75.66 75.06 74.70 73.97 72.41 73.32 72.77 72.53 73.31 73.34 75.22 76.40 76.59 76.80 76.00 76.56 76.35 75.52 74.94
75.48 75.43 75.43 75.32 74.93 74.72 74.92 73.98 75.97 74.46 75.66 76.47 76.87 77.35 77.11 76.46 76.64 75.99 74.68 75.91 75.19 75.43 75.46 74.58 74.27 74.23 74.22 74.77 73.27 72.75 73.28 72.93 71.67 72.76 75.14 76.97 76.93 76.83 76.63 76.56 77.12 76.49 75.79
75.96 76.11 76.43 76.78 75.91 75.02 75.26 76.55 76.33 75.16 76.22 75.64 75.62 77.23 76.91 76.73 75.75 75.23 75.02 75.47 75.78 76.51 74.96 74.96 76.11 73.96 74.56 76.03 75.48 74.26 74.38 74.60 74.19 73.38 74.76 77.40 77.08 76.77 77.26 76.85 77.03 76.73 76.59
76.05 76.61 76.76 76.34 75.93 76.45 75.39 75.46 75.65 75.79 75.28 76.01 76.36 76.54 77.38 76.32 76.77 76.11 76.18 73.87 75.63 75.08 75.06 75.56 74.76 75.18 74.21 75.53 75.54 75.59 74.04 74.29 74.73 74.76 74.72 75.76 76.68 76.61 77.23 77.50 77.64 77.42 77.08
76.23 77.21 76.23 75.68 75.89 75.65 75.69 75.75 75.52 76.58 76.59 77.00 75.00 75.20 76.31 76.16 77.11 76.90 76.74 75.42 74.66 75.52 77.21 74.24 75.11 76.14 74.81 75.25 74.67 74.13 74.54 74.07 74.01 73.70 74.16 74.86 75.45 76.88 76.51 76.66 77.05 77.18 77.23
76.88 77.13 76.72 75.84 75.72 75.43 75.22 75.52 75.32 74.20 74.55 75.45 75.68 75.59 76.88 77.03 77.03 76.92 74.19 73.64 75.63 74.72 76.46 76.03 74.18 74.93 75.21 74.39 73.34 74.33 74.21 74.24 74.24 74.26 74.87 74.06 74.83 74.43 75.76 76.75 76.38 75.67 76.00
77.69 77.45 76.81 75.79 75.60 75.53 75.84 75.92 76.87 77.39 76.13 76.22 75.40 76.41 76.05 76.05 76.71 76.75 75.02 75.79 75.45 75.55 76.06 75.51 75.60 75.23 73.58 72.99 73.02 71.89 72.61 74.48 73.41 73.68 73.68 74.01 74.09 75.20 74.41 76.05 75.58 74.19 74.87
77.40 76.86 76.18 75.31 76.32 76.42 75.54 76.13 75.50 76.14 76.21 77.20 76.60 76.51 74.86 75.76 76.26 75.01 74.77 75.04 74.68 72.82 74.51 73.03 73.79 74.36 74.24 74.14 72.80 71.85 73.67 72.00 74.06 73.08 73.73 73.54 75.28 75.09 74.98 74.91 71.41 72.17 74.09
75.70 76.51 75.82 75.54 75.72 74.56 74.30 73.92 73.98 73.10 73.58 74.74 75.74 75.51 74.81 73.46 74.51 74.31 73.61 74.94 74.14 72.11 70.89 73.83 74.06 71.59 72.89 74.11 69.70 70.68 71.73 71.95 73.35 72.80 72.91 74.27 72.99 74.17 72.56 75.05 73.78 73.58 72.84
74.57 75.45 75.99 75.52 75.74 75.54 75.65 75.61 76.46 76.15 75.39 76.38 77.28 75.84 75.88 74.24 72.89 73.38 73.43 72.78 74.47 73.73 73.82 73.07 72.78 72.04 72.69 71.91 70.84 70.36 67.56 69.63 71.58 72.39 73.69 73.18 73.15 73.73 73.81 74.74 74.44 74.33 74.20
74.13 74.98 75.34 75.46 75.45 76.22 76.68 75.47 75.89 75.71 75.43 74.20 74.72 75.20 75.31 74.74 73.95 72.51 72.55 73.71 73.49 73.05 71.37 72.18 72.25 72.09 69.78 70.45 73.03 69.59 66.18 64.23 68.91 71.91 70.56 71.51 72.18 72.62 73.96 73.63 74.22 74.70 74.71
74.44 74.97 75.75 75.69 75.69 77.18 77.75 74.94 74.43 73.81 72.36 74.10 74.64 74.60 74.81 74.45 74.36 73.30 72.70 72.93 73.12 72.57 71.06 70.40 70.15 69.78 70.10 68.62 71.56 71.38 71.54 70.60 65.66 63.56 68.13 67.59 71.21 71.56 71.93 72.49 72.66 73.25 73.35
74.99 74.57 74.82 75.58 76.47 77.76 77.70 77.28 75.21 74.91 73.94 73.97 74.04 74.54 75.95 75.01 74.21 73.42 72.63 73.06 72.60 72.61 71.86 71.55 71.26 71.66 70.98 70.76 70.17 70.50 70.39 70.28 69.04 65.98 63.03 65.60 68.47 68.45 68.64 69.21 70.79 72.61 73.08
75.08 74.82 74.41 75.12 75.59 77.50 77.08 76.41 76.61 75.46 75.53 74.41 73.48 72.98 73.23 74.08 73.29 73.19 72.37 72.10 71.25 70.60 69.16 70.57 71.21 70.54 70.95 71.60 71.65 68.99 67.45 67.00 66.48 65.96 65.54 66.78 66.76 65.61 66.13 66.92 68.11 71.13 71.62

GFSSE_sfc_wetblb_075.txt.gz
Wetbulb
73.34 76.88 79.32 79.82 79.63 79.29 78.78 78.36 77.66 77.06 76.73 76.50 76.67 76.43 76.31 76.53 76.89 76.53 76.31 75.99 76.13 76.25 76.36 76.55 76.58 76.56 76.29 75.18 75.01 76.31 76.42 75.75 76.07 75.64 75.50 76.10 75.73 75.27 75.35 74.95 74.37 73.57 74.19
74.76 77.15 79.15 79.47 79.37 79.24 79.38 79.21 78.33 77.28 76.75 76.51 76.65 76.69 76.34 76.72 76.67 76.31 76.27 76.19 76.29 76.63 76.36 76.11 76.31 76.02 75.64 75.15 74.48 75.33 76.21 76.33 76.62 76.43 75.59 75.29 74.59 74.76 76.59 74.84 73.24 73.78 75.51
74.60 76.76 77.73 78.91 79.25 79.19 79.46 79.27 78.34 77.53 76.67 76.62 76.71 76.91 76.54 76.51 76.52 76.09 76.44 76.34 76.57 76.39 76.50 76.36 76.40 76.00 75.83 75.64 75.50 75.64 76.06 75.84 76.74 75.62 75.04 71.34 71.45 75.31 74.01 74.43 74.95 73.76 75.17
74.48 75.33 76.87 78.75 79.09 79.09 79.37 79.23 78.81 77.69 76.58 76.95 76.94 76.84 76.63 76.42 76.23 76.31 76.33 76.52 76.33 76.27 76.67 76.41 76.00 75.84 75.64 75.97 75.79 76.00 75.89 75.64 75.61 75.92 72.87 70.75 71.17 75.07 75.82 75.42 74.98 74.14 74.32
72.72 74.62 76.70 79.10 78.91 78.31 78.73 79.12 78.58 78.09 77.53 77.19 76.96 76.93 76.43 76.44 76.45 76.51 76.31 76.46 76.02 76.24 76.49 76.40 75.78 75.07 76.34 75.83 75.82 75.62 75.54 75.51 74.83 74.87 74.05 68.00 71.33 72.85 75.52 75.80 74.96 74.36 74.73
72.38 74.87 78.05 78.93 78.31 78.09 78.15 78.19 78.36 77.99 78.33 77.80 77.04 76.67 76.45 76.74 76.68 76.69 76.17 76.30 76.13 76.40 76.51 76.03 75.01 75.57 76.10 75.82 75.48 75.32 74.80 74.92 74.57 73.64 69.79 71.72 71.83 75.10 75.01 75.41 75.57 74.37 74.70
73.29 74.97 77.05 78.68 78.78 78.59 78.37 77.85 78.12 78.10 78.02 77.24 77.02 76.51 76.39 76.31 76.93 76.62 76.52 76.52 76.02 76.49 76.52 75.40 75.15 76.21 75.61 75.54 75.49 75.07 75.11 75.04 73.60 72.41 71.13 70.40 72.44 76.17 76.11 75.82 75.18 73.75 74.34
73.78 74.71 75.57 78.07 78.50 77.98 77.65 77.76 77.57 77.56 77.21 77.01 76.65 76.38 76.16 76.02 76.17 76.32 76.73 76.73 76.13 76.42 76.29 76.06 76.39 76.25 76.36 75.95 75.82 75.30 74.61 74.32 74.37 72.42 72.19 70.65 74.17 75.79 75.70 75.58 74.41 74.24 74.99
73.82 74.39 74.91 75.77 76.17 77.34 77.33 77.31 77.11 76.88 76.86 77.27 76.65 76.90 76.80 76.58 76.67 76.46 76.60 76.55 76.19 75.92 76.38 75.70 76.17 76.81 76.47 75.30 75.21 75.23 74.97 75.09 72.85 72.24 72.04 71.64 75.61 76.13 75.70 75.45 74.17 73.50 73.43
70.55 68.67 73.55 74.64 74.10 74.27 74.76 77.95 77.74 77.11 77.08 76.84 76.16 76.19 76.65 76.39 76.36 76.52 76.67 76.82 76.06 76.32 76.46 76.46 75.67 76.40 76.12 75.58 75.31 75.21 75.19 75.50 72.86 72.20 71.60 71.87 75.68 75.30 74.07 75.09 74.95 75.35 74.47
65.71 65.42 68.22 73.59 74.17 74.58 74.51 76.04 77.92 77.05 76.96 76.90 75.89 76.63 76.00 73.22 73.79 75.09 75.75 76.43 76.16 76.37 76.40 76.22 76.05 76.37 76.26 75.88 75.80 75.94 75.57 72.05 71.43 71.57 71.29 75.42 76.01 76.63 75.08 73.99 74.12 73.86 74.77
62.36 64.90 67.49 68.53 73.15 73.44 75.03 74.40 74.21 74.29 73.86 73.64 74.09 73.54 73.23 73.44 73.63 75.14 75.81 77.17 76.55 76.44 76.54 76.57 77.21 76.74 75.81 73.42 73.49 75.41 72.80 71.77 70.79 72.36 71.06 75.80 76.29 77.10 75.55 75.33 75.01 75.10 73.98
65.00 65.43 65.53 69.89 71.47 71.65 72.17 73.31 73.71 73.76 72.97 72.93 73.28 73.56 72.88 73.46 73.20 73.04 73.16 73.67 73.45 76.07 73.77 75.42 75.34 74.58 73.81 72.36 71.98 72.47 72.37 71.04 70.27 72.36 73.71 75.98 76.63 77.15 76.17 76.11 75.66 74.91 74.86
66.83 65.38 65.78 72.24 71.29 70.85 70.98 71.20 73.13 72.91 72.98 72.72 73.49 73.59 72.63 72.88 72.17 72.13 72.59 72.88 73.23 73.03 72.59 72.93 72.68 73.08 72.23 72.62 72.03 71.51 71.06 70.78 72.46 72.42 73.68 76.27 76.40 76.96 76.62 76.65 76.29 75.55 75.29
71.35 70.50 71.67 72.25 71.91 71.90 72.09 71.52 72.88 71.98 72.91 73.23 72.35 73.37 73.41 72.44 71.82 72.10 72.21 72.79 72.37 72.82 72.84 72.37 72.47 72.08 72.30 72.80 73.19 73.28 72.38 72.20 72.86 72.43 72.89 77.15 76.60 76.40 76.60 76.43 76.86 76.43 76.13
73.43 73.12 72.83 72.75 72.40 72.29 71.36 71.36 71.54 72.04 72.42 72.84 72.62 73.23 73.69 72.91 72.83 72.62 71.81 71.90 72.15 73.94 72.61 72.65 71.62 71.66 72.36 72.39 72.30 72.50 72.07 72.30 72.33 72.30 73.45 74.82 76.96 76.35 76.41 77.31 77.24 77.26 76.83
73.75 74.21 73.83 73.11 73.26 72.82 72.30 71.49 71.08 72.01 72.61 72.07 71.50 71.96 73.24 72.84 72.38 72.35 71.94 71.49 73.09 72.50 72.38 72.01 72.32 72.57 71.54 72.09 71.35 71.73 72.62 72.43 72.41 72.23 73.29 72.99 75.26 76.87 76.73 76.54 76.65 77.09 77.05
73.78 73.27 73.09 74.22 72.78 71.22 71.20 71.80 72.35 71.99 72.36 72.52 72.38 72.03 71.55 72.89 72.80 71.61 71.42 70.54 71.84 72.61 72.67 71.22 71.51 70.95 70.33 70.90 70.28 71.10 71.60 72.23 72.96 72.23 72.89 73.03 73.52 73.46 76.21 76.62 76.56 76.68 76.97
74.03 73.28 72.37 72.33 71.95 71.53 71.87 72.39 72.46 71.93 71.31 71.33 71.63 71.77 72.28 72.59 73.31 72.15 71.06 71.68 73.20 71.62 71.56 71.13 70.68 70.99 69.83 69.25 69.90 70.45 71.48 72.12 71.51 73.03 72.17 72.56 72.48 73.08 72.57 74.95 76.05 76.07 75.41
73.94 72.97 72.05 72.15 71.91 72.18 71.83 71.94 71.83 72.42 72.27 72.90 72.44 72.07 72.48 72.38 72.89 72.95 71.08 70.85 70.86 69.26 69.00 70.20 69.36 70.44 70.40 69.87 71.67 70.68 70.26 70.03 70.25 71.64 70.42 71.59 73.08 73.11 72.97 72.53 72.05 72.93 74.68
73.23 72.17 70.64 71.51 71.74 71.91 71.24 70.54 70.65 70.22 71.10 71.91 71.91 72.72 72.28 71.76 72.56 72.05 70.56 70.18 70.09 68.80 67.94 68.84 69.88 69.27 68.64 68.98 66.76 66.92 68.46 70.59 68.40 70.13 69.77 70.38 70.68 72.90 73.07 71.66 70.99 71.02 73.38
72.35 72.18 71.01 72.07 70.93 70.06 70.84 71.41 71.20 70.81 70.88 71.02 72.35 72.27 72.51 72.39 71.90 72.23 71.52 70.40 71.62 70.33 69.24 69.15 69.14 67.99 68.87 69.12 65.46 65.10 63.40 64.19 67.81 69.58 70.05 70.17 69.98 72.19 71.98 71.34 72.70 72.94 71.85
71.63 72.50 71.68 72.18 71.43 71.12 72.67 72.19 70.56 70.19 70.16 70.09 69.99 71.27 72.22 72.43 71.92 71.92 72.08 71.01 71.16 71.27 69.69 69.29 68.46 67.90 65.86 67.30 68.28 65.22 61.42 59.69 63.29 67.52 66.78 66.06 69.24 70.88 71.38 70.92 71.71 71.88 72.05
71.33 73.02 72.21 72.41 71.80 71.85 73.15 69.85 69.10 67.99 67.05 69.27 69.72 71.19 71.08 72.06 71.40 71.13 71.56 71.49 70.68 70.18 68.87 68.89 69.78 68.49 67.66 65.88 66.98 69.16 67.50 66.23 61.14 59.99 64.96 64.73 69.14 69.26 68.51 68.40 70.02 71.14 71.02
72.12 72.33 72.60 72.18 71.46 72.75 72.84 70.86 69.72 68.69 68.62 69.19 69.90 70.17 70.65 70.31 70.70 71.33 70.08 70.72 70.97 70.91 69.89 70.08 69.34 68.47 67.79 66.53 66.37 67.43 67.86 67.52 66.20 62.37 60.04 62.56 67.34 66.73 66.67 67.16 67.59 69.67 70.79
72.04 72.37 72.38 71.82 71.62 73.44 73.01 71.23 70.70 68.78 68.28 68.53 68.33 68.49 69.73 70.13 70.01 70.17 69.31 68.91 70.13 70.56 69.73 69.16 69.43 69.18 68.98 68.87 68.78 68.02 66.39 64.90 64.20 64.29 63.45 63.83 64.30 64.82 65.44 66.04 65.91 69.39 69.87

GFSSE_sfc_wetblb_078.txt.gz
Wetbulb
74.34 77.01 79.31 79.21 78.49 78.19 77.92 77.30 76.93 76.60 76.61 76.72 76.47 76.41 76.93 76.84 76.70 76.46 76.55 76.48 76.24 76.54 76.24 76.38 76.63 76.24 75.53 75.61 76.46 75.75 75.86 75.63 76.18 75.99 76.20 75.55 75.47 75.79 74.96 74.64 74.56 73.36 75.63
75.82 77.20 79.09 79.02 78.81 78.32 78.11 77.38 76.84 76.61 76.45 76.61 76.51 76.39 77.05 77.04 76.53 76.54 76.39 76.95 76.41 76.88 76.26 76.46 76.36 75.58 74.73 75.26 76.39 76.31 75.77 76.18 76.16 76.00 75.67 75.84 74.98 75.30 74.04 74.23 75.39 72.66 75.02
75.88 77.05 77.64 78.68 78.75 78.39 78.33 77.75 76.97 76.71 76.31 76.65 76.73 76.33 76.81 76.56 76.42 76.34 76.34 76.78 76.51 76.32 76.18 76.44 75.53 75.34 74.82 74.57 76.20 76.24 76.22 76.09 76.12 75.31 74.56 71.27 72.11 75.48 73.46 73.60 75.49 75.40 74.93
76.07 76.25 76.86 78.71 79.02 79.06 78.66 77.89 77.34 76.64 76.43 76.74 76.78 76.41 76.21 75.97 75.78 76.48 76.69 76.45 76.69 76.51 76.30 76.54 75.73 75.69 75.75 75.46 76.11 75.92 75.63 75.95 75.78 74.62 70.76 71.06 72.49 74.43 75.32 75.30 74.25 75.48 75.48
75.10 75.89 76.70 79.40 79.33 78.41 78.20 78.11 77.89 77.53 76.68 76.77 76.77 76.40 76.62 76.43 76.50 76.21 76.27 76.21 76.01 76.53 76.45 76.16 75.26 75.06 76.05 76.01 75.93 75.88 75.37 75.60 75.56 73.24 70.36 69.19 70.50 74.94 75.36 74.33 73.38 75.28 75.10
74.57 75.95 78.61 79.18 78.58 78.56 78.18 77.79 77.70 77.54 77.19 77.05 76.86 76.34 76.65 76.65 76.61 76.27 76.37 76.23 76.20 76.43 76.31 75.45 74.70 75.69 75.77 75.30 75.91 75.47 75.44 74.77 75.23 73.20 68.83 72.59 69.12 75.11 75.20 74.98 75.52 75.23 75.43
73.65 75.95 77.11 79.03 78.90 78.90 78.59 78.23 77.67 77.62 77.41 77.05 76.82 76.28 76.69 76.94 76.89 76.23 76.16 76.34 76.31 76.44 75.58 75.18 75.40 75.48 75.63 75.43 75.44 75.18 74.90 74.38 72.98 68.45 69.68 71.58 72.26 76.21 75.88 75.66 74.29 74.13 73.96
74.32 75.74 76.52 78.41 78.23 78.25 77.88 77.67 77.30 77.26 77.18 76.89 76.50 76.13 76.05 76.63 76.77 76.49 76.58 75.96 76.32 76.66 75.45 75.15 75.86 75.47 75.39 75.19 74.96 74.93 74.43 74.71 73.46 70.65 69.84 70.30 75.45 77.08 76.38 75.23 74.38 73.76 75.06
74.37 74.67 75.37 76.12 76.57 77.92 77.75 77.62 77.80 77.62 77.33 76.95 76.56 76.32 76.05 76.31 76.36 76.46 76.68 76.68 76.09 76.48 75.69 75.61 76.39 76.17 76.20 75.65 75.08 74.71 74.23 74.39 71.60 71.53 70.76 70.29 75.77 76.44 76.26 75.24 73.92 74.84 75.08
72.84 74.58 74.83 74.45 74.41 74.26 74.75 77.45 77.29 77.30 77.07 76.86 76.41 76.34 76.29 76.62 76.79 76.65 76.70 77.13 76.28 75.94 76.34 75.42 76.43 76.64 76.49 75.42 74.64 74.25 74.55 74.77 71.64 71.36 70.47 71.32 75.24 75.90 75.49 74.44 74.13 73.39 74.71
68.32 68.73 72.31 73.72 73.46 73.58 74.24 75.72 77.68 77.20 77.35 76.90 76.13 76.22 75.95 72.75 73.68 74.84 75.61 76.23 76.26 76.46 76.40 76.50 75.55 76.38 75.95 75.61 75.33 75.41 75.43 71.97 71.41 70.77 70.08 74.29 75.27 75.52 74.92 75.39 75.34 75.38 73.96
64.82 63.60 66.15 72.34 73.21 73.65 74.62 74.33 74.45 74.15 73.66 73.57 73.56 73.54 72.90 72.39 72.40 74.65 75.22 76.17 76.30 76.43 76.51 76.18 76.16 76.01 75.47 73.06 72.92 74.92 72.47 71.96 70.76 70.72 70.24 75.01 76.11 76.26 74.54 74.80 74.51 74.60 75.69
64.64 63.05 66.03 68.60 72.37 72.46 73.71 73.31 72.88 72.87 72.53 72.58 73.13 72.79 72.16 72.98 72.64 73.72 72.80 74.03 73.12 75.65 73.75 75.56 74.85 74.52 73.24 72.39 71.80 71.76 72.18 71.61 69.97 70.95 72.93 75.49 76.15 76.87 75.27 74.46 75.21 74.57 74.05
62.32 64.37 65.04 67.95 70.33 70.12 70.93 72.29 73.28 72.78 72.13 71.56 72.07 72.72 71.76 71.33 71.55 71.43 71.80 72.45 72.50 72.46 72.20 72.67 72.75 73.22 72.85 72.59 71.62 70.65 71.32 70.37 69.80 71.03 72.07 75.59 75.97 76.87 76.17 75.40 74.91 75.03 74.72
63.96 64.92 64.38 69.91 69.65 69.32 69.67 70.22 72.28 72.06 72.30 72.18 71.75 72.85 72.34 71.35 71.19 71.53 71.48 71.68 72.17 72.07 71.92 71.55 71.67 72.18 72.07 71.72 71.77 71.96 71.29 70.55 71.45 71.82 71.77 76.24 75.90 76.11 76.30 76.31 75.72 75.31 75.09
67.05 65.42 66.72 71.14 70.35 70.62 70.68 70.15 70.93 71.31 71.70 71.91 71.69 71.99 72.74 71.78 71.64 71.17 71.22 70.86 71.69 71.74 71.85 70.75 70.66 71.08 71.72 71.76 71.77 72.22 72.37 72.54 73.04 72.46 72.33 73.95 76.23 76.18 76.42 77.48 77.43 76.77 76.21
70.41 69.94 71.11 71.09 71.17 70.49 70.22 70.18 70.09 70.86 71.39 71.89 72.12 72.16 72.77 72.37 71.46 71.68 70.79 70.90 71.26 71.57 72.00 71.43 71.21 71.04 70.57 71.01 71.12 70.98 71.60 71.64 71.37 72.10 72.34 72.59 74.22 76.86 76.30 76.79 77.20 76.48 77.32
72.38 72.05 71.92 73.30 71.83 71.18 70.71 70.41 70.25 70.90 71.07 71.42 71.75 71.19 72.46 72.59 71.53 71.27 70.94 70.32 70.82 71.37 71.26 70.00 70.07 70.92 69.95 69.63 69.76 70.10 70.74 71.35 71.32 71.88 71.56 72.14 72.41 74.05 75.40 76.38 75.93 75.99 76.68
73.07 72.51 72.15 72.27 71.02 70.07 70.16 70.56 70.74 70.80 70.82 71.08 71.35 70.67 70.61 71.26 72.35 71.38 69.69 70.25 70.86 70.09 70.41 70.38 68.99 68.69 68.47 68.67 69.63 69.52 69.66 70.75 71.43 71.63 71.94 71.23 72.63 72.36 71.74 74.60 75.78 75.35 76.31
72.87 72.40 71.49 71.65 70.48 70.05 70.24 70.54 70.29 70.57 69.95 70.23 70.73 70.81 70.73 71.11 71.93 71.41 70.32 70.56 69.59 69.63 69.19 69.44 68.58 69.57 68.51 68.26 70.17 69.44 68.08 68.98 69.79 70.06 70.66 71.27 72.09 73.31 72.54 71.78 72.17 73.17 75.37
72.67 71.61 71.06 70.48 70.01 70.29 69.03 68.78 68.42 69.01 69.82 70.27 71.08 71.80 71.30 71.54 71.45 71.83 70.28 70.05 69.39 67.86 68.06 68.51 68.20 68.12 67.97 68.15 65.86 65.84 66.67 68.38 68.50 68.19 69.01 69.42 70.15 71.86 71.08 71.82 71.53 71.22 71.49
71.46 70.95 70.46 70.67 70.22 70.59 69.89 69.66 70.13 69.66 69.82 70.49 70.89 71.44 71.58 71.33 71.29 70.74 70.87 70.18 69.69 68.60 67.03 66.76 68.50 66.96 66.87 67.41 64.64 64.19 62.20 63.39 66.22 68.53 67.99 69.73 69.29 70.23 71.14 71.46 70.66 71.63 71.53
70.30 69.78 70.25 70.73 70.32 70.25 70.06 70.16 69.25 68.87 68.94 69.25 69.52 70.11 71.11 72.22 71.70 71.06 70.90 70.61 70.11 69.70 68.31 67.84 67.72 66.92 66.13 66.35 67.83 64.59 61.14 59.45 61.48 65.76 64.10 66.98 68.81 68.72 69.39 70.34 71.62 71.87 71.97
71.13 70.81 70.54 70.93 69.98 69.63 70.21 69.95 67.85 65.84 64.59 67.43 68.15 69.32 70.76 71.63 71.26 70.76 71.03 70.50 70.28 70.25 68.65 68.58 69.04 68.13 66.58 64.40 66.06 67.59 65.60 63.68 60.57 59.72 64.75 62.93 67.86 67.75 67.84 68.40 69.10 70.50 70.94
72.16 71.54 71.13 71.30 70.38 70.10 70.73 70.66 68.04 66.31 67.43 67.93 68.47 68.75 69.34 69.20 70.12 70.57 69.98 70.18 70.32 70.37 69.33 69.01 68.60 67.27 67.00 66.17 65.56 65.29 65.52 65.92 64.80 63.15 61.13 61.43 65.34 64.53 65.35 66.35 66.82 69.30 70.34
71.86 72.04 71.43 71.09 70.34 70.30 71.54 69.51 68.17 67.74 66.47 66.83 67.30 67.39 68.24 68.60 68.74 69.72 69.14 69.21 70.13 70.30 69.62 69.17 68.71 68.31 68.04 68.08 67.40 66.91 66.41 65.05 64.44 63.85 62.52 62.91 63.54 64.53 64.71 65.44 66.14 69.28 69.48

GFSSE_sfc_wetblb_081.txt.gz
Wetbulb
73.40 76.60 79.03 78.04 77.73 77.66 77.17 76.51 76.64 76.78 76.37 76.39 77.11 76.99 76.95 76.55 76.42 76.36 76.40 76.41 76.08 76.00 76.20 76.04 75.95 75.73 75.85 76.16 76.03 75.99 75.46 75.79 75.45 75.39 75.85 75.18 75.26 75.17 75.11 75.17 75.52 73.93 75.17
74.56 77.07 78.86 78.76 77.87 77.57 77.22 76.60 76.63 76.49 76.41 76.25 76.70 76.78 76.56 76.52 76.40 76.53 76.81 76.30 76.41 76.09 76.01 76.61 75.68 75.16 75.65 76.03 75.43 75.30 75.73 75.83 76.22 75.19 75.05 75.79 75.58 74.43 74.36 74.23 74.72 74.11 75.43
75.37 76.80 77.51 78.60 78.77 77.69 77.28 76.59 76.51 76.30 76.55 76.20 76.33 76.97 76.55 76.48 76.42 76.43 76.65 76.44 76.63 76.23 76.37 75.74 75.26 74.42 75.21 75.91 75.63 75.63 75.26 76.01 76.21 75.57 75.00 71.64 72.16 74.03 74.43 75.32 73.93 74.84 75.08
75.72 76.34 76.43 78.43 78.77 78.67 77.42 76.88 76.49 76.18 76.50 76.56 76.04 76.70 76.23 76.27 76.25 76.43 76.63 76.63 76.17 76.18 76.24 75.51 75.13 74.61 74.61 75.74 75.37 75.98 75.76 75.31 74.93 74.78 71.25 71.55 73.09 73.34 73.73 75.13 75.25 74.64 74.07
75.56 75.74 75.98 78.93 79.07 78.20 77.71 77.25 76.43 76.24 76.50 76.79 76.22 76.02 75.81 75.95 76.07 76.17 76.31 76.33 76.38 76.37 76.38 75.49 75.55 75.68 75.40 75.53 75.47 75.66 75.70 75.45 74.44 72.49 68.72 70.32 70.53 74.32 74.83 74.45 75.08 75.22 74.97
75.08 75.83 77.63 78.92 78.01 78.15 77.84 77.43 76.68 76.10 76.71 76.68 76.46 76.32 76.27 76.29 76.29 76.06 75.87 75.91 76.11 75.89 76.13 75.08 74.89 75.86 75.52 75.37 75.29 75.48 75.24 75.00 74.03 70.83 68.68 71.99 71.68 75.03 74.32 73.59 75.33 75.06 73.82
74.52 76.32 77.28 78.79 78.71 78.40 77.73 77.52 76.71 76.45 76.92 76.80 76.52 76.47 76.43 76.75 76.59 76.05 76.00 75.72 76.28 76.13 75.70 74.61 74.97 75.92 75.30 75.47 75.51 75.48 75.06 74.97 71.79 69.77 69.43 70.20 70.22 75.99 74.40 74.55 75.08 75.27 74.66
74.83 76.30 76.75 78.47 78.70 77.97 77.78 77.34 76.92 76.63 77.15 76.87 76.45 76.42 76.50 76.65 76.47 76.13 76.53 76.01 76.12 75.88 75.16 74.89 75.47 75.57 75.53 75.45 75.15 74.92 74.67 74.56 70.47 69.12 70.08 70.81 73.65 76.11 75.81 75.21 74.09 74.16 73.45
75.36 75.74 75.66 75.88 76.77 78.04 77.71 77.44 77.01 76.80 76.99 76.81 76.25 76.20 76.10 76.36 76.72 76.39 76.44 75.84 76.23 76.00 74.69 75.00 75.58 75.07 75.55 75.55 74.99 74.69 74.35 74.84 69.87 69.33 70.04 70.38 75.13 76.67 75.65 74.76 73.55 74.74 74.76
74.38 74.79 74.22 74.25 74.79 74.80 75.32 77.54 77.04 77.05 76.96 76.80 76.45 76.13 75.89 76.19 76.13 76.57 76.31 77.07 76.19 76.07 75.02 75.40 76.19 75.67 75.97 75.06 74.47 74.33 74.10 75.10 70.83 70.39 69.17 70.11 75.09 76.27 75.60 74.96 74.16 74.67 74.85
71.18 73.16 73.39 73.44 72.88 73.30 74.12 75.92 77.73 77.28 76.81 76.68 76.19 76.31 75.79 73.20 73.34 74.58 75.76 75.93 76.28 75.99 76.23 75.29 75.99 76.71 75.90 74.78 74.24 74.59 74.19 71.29 70.56 70.51 69.80 72.99 75.59 75.84 75.54 74.36 73.82 73.89 75.50
65.13 69.33 71.11 72.53 72.82 72.57 74.37 73.73 74.30 73.91 74.14 73.07 73.74 72.99 73.25 71.82 72.16 73.93 74.95 75.76 76.08 76.21 76.43 76.25 75.31 75.83 75.37 72.47 72.42 73.89 72.38 71.54 71.56 69.90 69.72 74.43 75.84 75.84 75.38 75.74 74.95 74.78 73.68
65.06 66.99 66.96 70.86 72.55 72.68 73.14 72.76 73.29 72.65 72.53 72.48 72.62 72.39 72.22 72.17 72.06 73.23 72.78 73.16 72.95 75.18 73.86 74.66 74.62 73.10 72.35 72.20 71.87 71.46 71.45 71.25 70.38 69.97 71.52 74.80 75.65 75.89 74.83 75.33 74.93 75.15 75.60
62.91 62.63 64.75 68.28 71.27 72.14 72.89 72.52 72.99 71.93 71.54 71.43 71.90 71.81 71.11 71.05 71.04 70.93 71.66 71.69 72.17 72.28 71.99 72.53 72.32 73.03 72.50 72.26 71.56 70.51 70.78 70.79 69.64 69.36 70.62 75.85 75.47 75.95 75.83 74.56 74.31 74.36 74.10
62.60 62.67 64.51 66.68 70.38 70.38 70.61 71.25 72.15 72.42 71.95 71.36 71.31 71.73 71.40 70.50 70.30 70.54 70.81 71.36 71.81 71.69 71.47 71.11 71.36 72.05 71.91 71.74 71.42 71.57 71.14 70.62 70.44 71.41 70.61 76.24 75.62 75.73 77.10 75.66 74.80 75.13 75.10
63.18 63.01 64.14 66.10 69.14 68.85 68.65 69.78 70.95 71.75 71.96 71.85 71.02 71.37 71.95 71.31 70.61 70.52 70.25 70.68 71.09 71.47 71.24 71.02 70.66 70.86 71.22 71.55 71.20 71.47 71.46 71.51 70.78 71.47 71.20 72.68 75.87 75.72 75.98 76.86 75.94 75.85 75.13
63.54 64.85 63.88 67.11 69.22 68.56 68.92 68.98 69.57 70.61 71.33 71.09 71.33 71.18 72.04 71.44 70.70 70.51 70.30 70.03 70.66 70.93 71.10 70.86 70.27 70.45 70.07 70.79 70.22 70.71 70.66 71.12 71.59 71.89 71.64 71.64 72.85 76.25 75.99 76.39 76.27 76.01 76.18
66.14 65.64 65.76 69.85 70.04 69.12 69.03 69.30 69.61 69.89 70.27 70.81 71.67 71.73 71.53 72.21 71.46 70.74 70.34 70.00 70.41 70.39 70.55 70.16 69.78 68.87 69.15 69.19 69.34 69.98 69.94 70.31 70.90 70.88 71.09 71.27 71.27 73.27 75.38 76.22 75.53 75.61 75.93
69.01 68.32 69.29 70.66 70.06 69.52 69.44 69.19 69.23 69.41 69.96 70.36 71.01 71.25 71.39 71.64 72.04 70.73 70.45 70.45 70.00 70.43 70.41 70.09 68.92 68.94 67.72 68.11 68.90 69.03 69.36 69.47 70.24 71.60 70.58 71.05 71.18 71.96 72.00 73.90 75.52 75.24 76.06
71.23 71.17 70.90 71.27 70.31 69.71 69.44 69.03 69.35 69.12 69.08 69.80 70.39 70.32 70.52 70.04 71.15 71.08 69.69 69.57 69.51 68.31 68.81 68.51 68.11 68.33 68.13 68.15 69.56 69.32 67.82 68.13 68.72 68.89 69.82 71.61 71.52 71.57 71.85 71.52 72.07 73.23 75.60
72.01 71.39 70.83 70.47 69.41 68.85 67.77 67.90 67.16 67.83 68.17 68.29 69.57 70.23 70.44 70.08 70.26 70.83 70.05 70.02 69.30 67.86 68.38 68.58 67.86 67.75 67.52 67.52 65.85 65.14 65.62 67.37 67.79 67.79 68.29 69.00 69.51 70.97 71.30 71.29 70.93 70.97 71.25
71.45 70.99 70.49 70.42 69.41 69.07 68.78 68.06 68.38 68.29 68.81 69.17 69.84 70.38 70.75 70.44 70.46 70.27 70.09 69.67 69.28 67.86 67.01 67.39 67.72 66.51 65.87 66.39 63.99 62.78 61.04 62.95 65.57 67.41 67.61 68.78 68.42 69.87 71.04 71.00 70.40 70.69 70.67
71.11 70.71 70.22 70.11 69.50 69.32 68.65 68.92 68.20 68.42 68.04 67.99 68.54 69.19 70.25 70.82 70.59 70.24 70.02 69.62 69.71 68.81 67.41 66.31 66.56 66.83 65.10 65.80 65.62 63.49 59.58 59.56 60.67 64.70 63.59 66.66 68.06 68.26 68.74 69.78 70.86 71.40 71.80
70.99 71.12 70.44 70.07 69.61 69.61 69.08 68.69 67.12 66.08 65.63 66.73 67.91 68.20 69.44 70.42 70.98 70.74 70.23 70.16 69.46 69.73 68.94 67.79 68.00 66.62 65.23 64.08 65.36 66.87 64.64 63.01 60.01 60.10 63.31 62.88 67.27 66.71 66.42 67.11 67.88 69.23 70.65
71.10 70.12 70.20 70.03 69.46 69.18 69.32 69.32 68.02 65.19 64.85 65.93 67.25 67.57 67.07 68.96 70.11 69.88 69.33 69.46 69.05 69.01 68.90 68.85 68.20 67.05 66.82 65.41 64.71 64.63 64.50 64.54 62.99 60.35 58.67 61.20 65.84 65.50 64.29 64.63 65.47 68.97 70.38
70.95 69.68 70.11 69.68 69.12 68.94 69.18 69.30 68.15 66.74 65.80 65.52 65.93 66.67 66.87 67.34 67.81 68.96 68.90 68.65 69.03 69.01 69.17 69.01 68.74 67.55 66.89 66.19 65.72 65.33 64.79 64.51 64.30 62.46 60.99 61.59 62.22 64.37 63.29 63.91 64.85 68.56 69.03

GFSSE_sfc_wetblb_084.txt.gz
Wetbulb
72.34 75.95 78.32 77.57 76.63 76.78 76.70 76.48 76.45 76.36 77.09 77.46 77.92 77.29 76.99 76.86 76.75 76.59 76.49 76.53 76.32 76.13 76.08 75.97 75.89 76.08 76.22 76.33 75.86 75.78 76.24 75.90 75.54 75.49 75.97 75.96 75.86 75.31 74.94 75.30 74.24 72.07 73.66
73.78 76.30 78.40 78.03 76.80 76.81 76.53 77.09 76.68 76.91 76.71 76.96 77.39 77.36 77.06 76.73 76.31 76.47 76.66 76.16 76.08 76.14 76.19 76.16 75.70 76.05 75.75 75.85 75.80 75.31 75.85 75.33 75.57 75.64 74.93 74.90 74.78 74.79 74.80 75.61 75.14 74.37 74.57
74.73 76.43 76.98 78.12 78.11 76.94 76.52 76.62 76.48 76.22 76.36 76.63 76.92 76.59 76.78 76.81 76.66 76.33 76.45 76.57 76.41 76.22 76.64 75.50 74.84 75.53 75.72 75.23 75.07 75.70 75.66 75.84 76.07 75.40 75.47 73.33 72.97 74.10 73.71 74.63 75.45 75.42 74.76
75.75 76.08 76.45 78.18 78.13 77.72 76.85 76.65 76.51 76.52 76.20 76.62 76.88 76.56 76.44 76.48 76.58 76.59 76.63 76.72 76.21 76.40 75.67 75.09 74.43 75.42 75.92 76.20 75.94 74.98 76.05 75.65 75.53 75.13 73.04 73.07 72.13 73.77 75.29 73.95 74.89 74.88 73.41
75.57 75.95 76.23 78.89 78.52 77.37 76.81 77.13 76.63 76.65 76.51 76.09 76.89 76.34 76.40 76.36 76.63 76.39 76.38 76.47 76.22 76.35 75.86 75.12 74.70 75.07 75.80 75.47 76.01 75.81 75.33 74.83 74.77 72.79 72.02 72.76 72.81 72.61 75.20 75.33 74.86 74.16 74.21
75.29 75.30 77.35 78.80 78.37 77.53 76.98 76.71 76.59 76.54 76.69 76.22 75.93 75.71 75.92 76.11 76.69 76.24 76.37 76.41 76.43 76.00 75.67 75.18 75.76 75.36 75.42 75.37 75.85 75.53 75.88 74.46 73.95 70.76 72.06 73.20 72.95 75.25 74.54 75.46 75.46 75.16 75.20
74.89 75.28 76.63 78.50 78.82 77.51 77.94 76.88 76.75 76.67 76.69 76.58 76.26 76.43 76.48 76.54 76.03 76.08 75.96 76.21 76.01 75.90 75.31 74.79 75.73 75.89 75.20 74.98 75.05 75.17 75.23 75.55 71.06 71.29 71.44 73.28 73.50 75.19 73.99 74.80 75.23 74.51 73.55
74.73 75.73 76.38 78.23 78.73 78.36 77.51 77.28 76.47 76.84 76.91 76.64 76.19 76.68 76.43 76.67 76.21 76.02 75.73 76.16 75.86 75.79 74.90 74.84 75.93 75.48 75.49 75.15 74.85 74.82 74.97 75.20 73.83 71.23 71.72 71.67 72.71 75.65 73.71 74.50 75.14 75.39 74.32
75.36 76.22 76.26 76.27 76.88 77.85 77.66 77.37 76.60 76.77 76.97 76.81 76.28 76.48 76.72 76.89 76.27 76.14 76.11 76.21 76.27 74.97 74.86 75.41 75.47 75.49 75.78 75.12 74.82 74.68 74.20 74.34 69.91 71.07 71.91 71.33 74.70 75.66 75.19 75.06 74.39 74.12 73.50
74.78 74.69 74.43 74.21 75.45 75.60 75.75 77.65 76.92 77.01 76.99 76.87 76.42 76.30 76.28 76.54 76.62 76.47 76.81 76.65 75.98 75.43 74.68 75.25 75.52 75.33 75.39 75.11 74.98 74.28 73.85 74.55 70.53 70.43 71.42 71.73 74.93 76.27 75.49 74.73 73.83 74.54 74.69
72.78 73.73 72.95 73.87 72.93 74.25 74.79 76.03 77.32 76.95 76.97 76.97 76.41 76.29 75.86 74.50 75.35 76.03 75.62 76.22 76.21 76.08 74.98 75.62 76.14 75.86 75.90 75.07 74.52 74.28 74.40 72.35 72.17 71.43 70.88 72.42 75.03 76.43 75.52 75.03 74.25 74.38 74.54
70.01 71.89 72.17 72.45 72.65 72.40 74.65 74.65 74.98 74.79 74.65 74.19 74.54 74.39 73.97 73.51 73.86 74.45 75.71 75.93 76.20 75.87 76.06 75.57 75.72 76.68 75.86 73.73 73.78 74.25 73.89 72.74 72.49 71.81 72.16 73.12 74.79 75.84 75.92 75.93 74.56 73.83 74.65
68.79 70.86 70.73 71.90 72.27 72.51 73.37 73.14 73.47 73.14 73.47 73.27 73.78 73.34 73.50 72.68 74.18 74.40 74.03 74.75 74.58 75.81 75.20 75.25 75.44 74.05 73.85 73.34 73.02 72.88 72.76 72.73 72.54 71.87 72.26 73.64 75.27 75.16 76.14 76.21 74.80 74.52 74.32
64.70 69.14 69.30 71.23 71.90 72.13 72.99 73.20 73.17 72.36 72.40 72.31 72.68 72.83 72.42 71.95 71.76 72.39 72.82 73.35 73.72 73.66 73.79 74.48 73.80 74.20 73.30 73.18 72.74 71.98 72.27 72.26 72.07 71.35 71.49 74.46 75.65 75.93 76.11 76.29 76.00 75.13 75.11
63.79 65.06 67.62 69.40 71.72 71.93 72.36 72.25 73.00 72.56 72.29 72.10 72.20 72.45 72.17 71.70 71.32 72.01 71.92 72.50 73.15 73.43 73.37 73.01 73.39 73.18 73.57 73.37 73.36 72.65 72.14 72.19 72.34 72.98 72.49 74.30 75.99 75.73 76.04 76.06 75.31 74.53 74.46
64.30 62.75 65.85 67.86 70.57 71.05 71.68 71.79 72.49 72.74 72.54 72.06 71.97 72.21 72.43 71.77 71.38 71.49 71.49 71.83 72.46 72.86 72.89 72.82 72.84 72.74 72.80 73.00 72.63 72.48 72.72 73.18 73.11 72.65 73.20 73.05 76.65 75.55 76.00 76.57 76.31 75.33 75.14
64.37 63.35 63.69 65.99 69.03 69.85 70.52 70.84 71.52 72.42 72.31 71.95 71.90 71.86 72.26 72.35 71.69 71.65 71.54 71.20 72.01 72.70 72.81 72.33 72.32 72.25 71.88 72.14 71.77 72.12 73.06 72.71 72.98 73.38 74.12 73.51 74.03 76.43 75.87 76.07 75.47 75.77 75.81
63.94 63.28 63.94 66.05 68.55 69.04 69.19 69.30 70.07 71.15 71.82 71.99 71.90 71.85 72.07 72.59 72.17 71.50 71.36 71.40 72.14 71.96 72.33 72.15 71.58 70.89 71.27 70.83 71.23 71.65 72.59 71.80 72.44 72.89 73.12 73.27 73.63 73.33 75.56 75.90 75.22 75.35 75.77
64.34 64.45 63.96 66.15 68.26 68.36 68.50 68.88 69.10 69.82 70.27 71.07 71.63 71.95 72.09 72.16 72.67 71.61 71.40 71.56 72.14 71.57 71.59 71.67 71.20 71.31 70.63 70.67 70.85 71.58 71.18 71.60 72.18 72.76 72.57 72.71 73.26 73.09 73.49 74.77 75.19 75.10 76.25
66.47 66.09 65.92 67.75 69.39 68.61 68.72 68.93 69.15 69.08 69.51 70.54 70.74 71.13 72.01 72.04 72.09 71.93 71.54 71.42 71.05 70.46 70.58 71.20 70.77 70.70 70.47 70.05 70.43 71.39 71.20 71.26 71.21 71.60 71.89 72.75 73.68 73.53 74.37 73.92 74.60 74.77 75.52
68.86 68.17 68.14 69.30 69.40 69.13 68.36 68.29 67.73 68.18 68.66 69.26 70.16 71.34 71.27 71.07 70.63 71.69 71.00 70.61 70.93 69.63 70.07 70.07 69.58 68.79 69.35 69.62 68.59 68.49 69.09 69.55 69.86 70.89 71.21 71.27 71.92 72.78 73.62 74.09 73.94 73.69 73.51
70.00 69.83 69.74 70.02 69.38 69.13 69.31 68.38 68.59 68.75 69.42 69.59 70.22 70.59 71.31 71.28 71.13 70.89 70.99 70.37 70.64 69.18 67.87 68.81 68.81 68.23 69.08 68.54 67.08 65.91 65.25 66.22 67.85 69.48 69.99 70.66 71.09 72.06 72.49 73.14 72.94 72.73 73.05
70.44 70.52 70.44 70.60 69.67 69.26 68.95 69.13 68.61 69.20 69.04 69.06 69.67 70.12 71.01 71.62 71.49 71.07 70.50 70.68 70.17 69.67 68.48 67.53 67.89 68.27 67.12 67.64 67.60 66.52 62.64 62.86 64.33 67.46 67.04 69.00 70.51 70.81 71.94 72.17 72.23 72.75 72.91
70.76 71.34 70.87 70.54 69.69 69.26 68.97 69.17 67.93 67.37 66.96 68.32 69.31 70.19 70.88 71.58 71.12 71.37 70.95 70.95 70.37 69.79 69.11 68.34 67.87 67.82 68.18 66.85 67.50 68.29 67.35 66.58 64.24 63.51 66.97 66.57 69.28 69.52 69.87 70.12 70.04 70.76 71.89
71.46 71.14 70.90 70.19 69.57 69.84 69.01 69.37 68.31 66.94 67.62 67.73 68.65 69.14 69.53 69.82 70.78 71.12 70.52 70.77 70.53 69.97 69.87 68.84 68.59 67.41 68.34 67.17 67.22 67.15 67.10 66.99 65.63 64.22 63.26 65.14 66.19 68.95 68.34 67.76 68.42 68.94 71.72
71.35 71.11 70.48 69.68 69.33 69.42 69.35 68.90 68.54 67.60 66.68 66.46 67.46 67.96 68.36 69.15 69.55 70.24 70.16 69.71 70.26 69.81 69.44 68.88 68.79 68.11 67.43 67.23 67.69 67.93 67.64 66.06 65.20 65.07 63.45 64.17 64.63 66.38 67.73 66.87 66.61 68.94 71.09

GFSSE_sfc_wetblb_087.txt.gz
Wetbulb
73.76 75.92 77.84 78.37 77.41 77.08 76.80 76.82 77.52 77.93 77.44 77.98 77.93 77.82 77.15 77.00 76.71 76.74 76.96 76.67 76.81 76.29 76.20 76.39 76.34 76.32 76.56 76.36 76.63 76.56 76.60 76.17 75.94 76.02 76.07 75.87 76.05 75.63 75.33 74.31 74.25 73.46 74.27
75.17 76.36 78.04 77.91 77.72 77.04 76.85 76.78 77.23 77.72 77.84 77.79 77.81 77.55 76.85 76.78 77.09 76.91 77.04 76.48 76.41 76.41 76.41 76.17 76.25 76.16 76.27 76.25 76.25 76.39 76.13 75.79 75.94 76.33 76.50 76.40 76.15 75.35 75.81 75.39 74.20 73.81 73.90
75.17 76.55 76.88 77.32 77.48 77.85 77.82 77.08 76.85 77.47 76.95 77.53 77.89 77.61 77.13 77.39 76.94 76.56 76.63 76.60 76.41 76.67 76.25 75.84 76.03 76.07 76.03 75.86 75.59 75.86 75.61 75.54 76.21 75.34 74.76 74.07 74.42 74.56 75.45 75.43 75.81 75.60 75.19
76.01 76.16 76.08 77.33 77.78 77.96 78.00 77.62 77.37 77.29 76.88 77.29 77.21 77.37 77.13 77.15 76.81 76.77 76.59 76.16 76.32 76.43 75.75 74.93 75.72 76.03 75.37 75.20 76.27 75.88 75.90 75.36 75.75 75.67 74.06 72.43 72.47 73.90 74.45 75.64 75.91 74.76 74.65
76.09 75.99 76.61 78.34 78.15 77.25 77.46 77.71 77.64 77.41 77.18 76.98 76.85 76.79 76.73 76.85 76.73 76.62 76.78 76.63 76.51 75.89 75.23 74.73 75.50 76.07 75.73 75.95 75.39 76.35 75.93 75.40 75.34 74.61 74.60 73.60 72.06 75.41 74.29 75.21 74.78 73.91 72.25
75.83 76.19 77.93 78.57 77.96 77.72 77.20 77.58 77.76 77.02 77.03 77.10 76.68 76.58 76.56 76.86 76.55 76.65 76.48 76.63 76.43 76.12 75.15 74.95 75.40 76.07 75.61 75.96 75.84 75.52 74.86 74.75 74.36 74.63 75.05 74.46 72.99 74.74 75.48 75.57 74.21 74.47 74.58
75.83 76.24 77.37 78.83 78.28 77.99 77.59 77.25 77.67 77.53 76.75 76.10 76.27 75.96 76.37 76.92 76.73 76.60 76.67 76.75 76.48 76.24 75.34 75.90 75.56 75.84 75.50 75.72 75.52 75.60 75.30 74.10 72.50 72.76 73.99 74.19 75.18 75.44 75.29 75.54 75.29 75.21 75.30
75.15 75.86 77.17 78.47 78.59 77.37 77.25 77.07 77.00 77.04 76.91 76.44 76.59 76.77 76.66 76.39 76.70 76.46 76.56 76.62 76.38 76.12 75.23 75.89 76.30 75.60 75.31 74.97 74.84 75.02 75.15 75.64 73.56 73.80 72.86 74.72 74.56 74.92 73.90 75.14 75.01 74.37 73.30
76.15 76.05 77.13 77.79 77.86 78.04 76.97 77.25 77.05 76.94 76.92 76.56 76.99 76.89 76.68 76.69 76.35 76.49 76.49 76.47 76.34 75.60 74.98 75.90 76.13 75.55 75.06 74.81 74.97 75.02 74.41 74.72 75.23 75.05 74.08 73.22 74.54 74.74 74.04 74.75 75.29 75.40 74.26
76.14 76.64 77.25 77.76 78.17 77.03 76.75 76.99 77.65 77.84 77.43 76.94 76.81 77.13 77.24 76.99 76.38 76.86 76.87 77.03 76.48 75.11 75.15 75.94 75.83 75.87 75.58 75.00 74.56 74.26 73.79 74.51 74.11 74.69 74.05 72.47 74.86 75.51 75.64 75.03 74.09 74.19 73.58
74.92 76.03 76.79 77.28 77.91 77.81 77.80 77.15 77.68 77.38 77.21 76.91 76.75 76.68 76.67 76.42 76.87 77.10 76.12 76.54 76.50 75.03 75.28 75.80 75.75 75.78 75.54 75.07 74.78 74.26 74.23 75.86 74.16 74.27 74.28 73.68 74.45 75.66 76.45 75.22 74.59 74.13 75.15
73.05 74.98 76.26 76.49 76.87 77.24 77.02 77.56 77.39 76.95 76.97 76.76 76.81 77.03 76.48 76.71 77.31 76.51 76.08 76.25 76.39 76.27 75.06 76.11 76.45 76.17 75.87 74.07 74.33 74.29 75.08 74.99 75.43 75.38 75.20 73.60 74.57 75.57 76.41 76.12 75.68 74.52 74.64
73.11 73.98 75.07 75.47 76.88 76.67 76.39 76.59 76.70 76.65 76.67 76.86 77.55 77.55 77.07 76.56 76.79 76.17 75.94 75.62 76.70 76.09 75.73 75.67 75.77 75.83 74.68 74.03 73.64 73.95 74.15 74.55 74.93 75.49 75.89 74.77 74.69 74.66 75.76 76.74 76.00 74.58 74.36
71.93 73.22 74.84 75.15 76.02 76.20 76.44 75.79 76.31 75.98 76.56 75.98 76.68 77.49 76.49 75.67 76.31 76.15 75.07 76.03 76.91 76.27 76.33 75.36 74.88 75.54 75.54 74.98 73.56 73.35 73.99 73.84 74.37 74.81 75.17 74.05 75.00 75.43 75.23 76.80 76.72 75.18 74.82
70.79 72.08 73.98 75.07 75.43 75.94 76.37 76.05 76.54 76.25 75.84 76.26 76.27 76.79 76.28 75.42 75.07 75.45 75.31 74.92 75.66 76.07 76.56 76.04 75.70 75.34 74.90 74.30 74.02 73.93 73.49 73.94 74.47 75.21 74.87 74.31 75.88 76.21 76.27 76.74 76.36 75.98 75.49
70.94 70.75 73.43 74.03 75.12 75.74 75.73 76.62 75.88 75.67 75.40 75.76 75.80 75.96 76.69 75.72 75.33 74.46 75.16 75.43 75.35 75.92 76.30 75.78 75.95 75.26 74.67 74.97 74.69 74.77 74.32 74.24 75.35 75.82 75.45 75.86 75.32 76.49 76.06 76.33 76.47 76.13 76.01
71.05 70.21 72.18 73.30 74.48 74.75 74.94 75.12 75.05 75.79 75.84 75.45 75.16 76.27 75.95 76.06 75.83 75.49 74.43 76.38 77.00 76.73 76.40 76.28 75.91 75.54 74.79 74.93 74.35 74.26 74.21 74.48 75.48 75.95 76.39 76.20 76.25 76.28 76.28 76.06 76.25 76.34 76.27
70.96 69.48 70.87 72.58 73.40 74.37 74.59 74.69 74.56 74.82 75.34 75.11 75.31 74.76 75.51 75.77 75.93 75.51 74.62 74.90 77.14 76.97 76.89 75.20 74.65 73.82 74.01 74.31 74.49 74.50 74.14 75.73 75.75 75.71 75.95 76.25 76.18 76.10 76.67 76.28 75.94 75.69 75.74
71.54 69.72 69.19 71.72 72.50 73.51 74.48 74.60 75.02 75.61 75.36 75.50 76.15 74.87 74.54 74.37 75.22 75.11 75.25 75.66 76.82 76.79 75.50 76.38 75.45 74.55 73.57 74.76 74.40 74.84 75.28 74.64 75.20 75.01 75.55 76.02 76.48 76.27 76.03 76.14 76.00 75.70 76.06
71.71 70.31 69.62 69.64 71.83 73.34 73.70 74.16 74.31 74.13 74.45 74.98 75.13 75.08 75.92 75.19 73.05 73.58 74.59 74.52 76.39 74.74 75.73 74.59 74.74 75.40 75.10 75.36 74.22 73.64 75.44 74.49 75.05 74.89 75.19 75.48 76.14 76.49 76.69 76.87 76.57 76.21 75.88
71.38 70.40 69.76 69.52 71.51 71.77 71.68 71.65 71.46 70.60 71.82 72.90 74.04 75.31 75.21 75.40 75.33 74.99 73.39 75.40 74.14 74.27 74.54 73.62 73.94 73.53 74.13 74.60 73.74 73.37 74.03 74.17 74.13 74.05 74.86 74.78 75.28 76.00 76.59 76.67 76.92 76.69 76.39
71.53 71.27 70.54 70.74 72.28 71.70 71.23 71.77 71.81 71.93 72.50 72.83 73.68 74.60 75.31 74.98 75.33 74.34 74.03 74.55 74.18 72.16 71.38 69.80 70.74 70.32 73.32 75.51 72.58 71.83 67.29 69.48 71.78 72.92 73.85 73.93 74.40 75.08 75.10 75.88 76.31 76.59 76.17
72.40 72.08 71.92 72.26 72.69 72.91 73.52 72.69 72.63 73.27 73.39 72.20 72.77 73.09 74.52 75.03 75.32 75.11 74.51 74.61 74.60 73.66 72.77 73.20 72.18 69.35 67.71 71.79 73.47 72.11 67.86 64.60 68.85 71.56 72.32 72.76 73.75 74.17 74.74 75.39 75.59 75.77 75.98
73.08 73.87 73.49 73.45 73.56 73.59 73.94 72.77 72.40 70.98 70.54 72.13 72.88 73.21 73.84 74.90 74.96 75.11 74.63 73.27 73.99 73.64 73.24 73.30 71.76 69.82 68.81 66.46 70.25 71.76 71.36 70.30 65.61 65.10 71.00 71.70 72.28 73.02 74.29 74.45 74.15 74.20 74.61
73.85 73.90 73.95 74.16 74.16 74.14 73.74 73.68 72.60 72.03 72.32 73.16 73.27 74.09 74.73 75.39 75.18 74.54 74.76 74.29 74.13 73.59 73.40 73.09 72.30 71.16 68.20 67.82 67.87 71.91 71.93 71.66 70.19 67.29 64.85 67.60 70.54 71.90 73.11 73.09 73.26 73.28 74.02
74.16 74.04 74.14 74.08 74.09 74.27 73.77 73.52 72.97 72.58 72.70 71.90 72.96 72.74 73.12 73.24 73.78 74.62 74.25 73.52 73.76 73.15 72.57 72.04 71.79 70.21 68.20 68.07 69.06 70.34 71.18 69.90 69.13 68.28 66.50 67.27 67.77 70.01 72.01 72.61 71.69 71.40 71.74

GFSSE_sfc_wetblb_090.txt.gz
Wetbulb
74.32 76.89 78.29 78.66 77.28 77.36 77.42 77.28 77.36 77.39 78.54 78.01 77.76 77.13 76.73 76.76 76.53 76.37 76.30 76.66 76.71 76.52 75.92 75.94 76.51 76.54 76.09 76.14 76.47 76.23 76.55 76.43 76.14 76.30 75.99 76.10 75.84 75.53 75.90 75.50 74.95 73.58 75.55
75.37 77.00 78.41 78.59 78.19 77.12 77.36 77.89 77.47 77.64 77.93 77.76 77.64 76.83 76.94 76.94 76.59 77.08 76.46 76.47 76.61 76.45 76.73 76.31 76.47 76.73 76.56 76.78 76.47 76.29 76.22 76.03 76.01 76.04 76.45 76.37 76.03 75.17 74.18 73.20 75.48 73.87 74.68
75.41 76.90 78.24 78.19 78.38 77.28 77.12 77.54 77.51 77.40 77.07 77.63 77.38 76.76 76.77 76.97 77.31 77.21 76.76 76.53 76.53 76.80 76.59 76.81 76.70 76.57 76.48 76.40 76.47 76.28 76.28 75.94 76.16 76.34 76.60 75.77 74.99 76.08 75.77 75.75 74.71 75.02 75.04
75.74 76.67 77.03 77.63 77.95 77.97 77.36 77.76 78.17 77.61 77.12 77.53 77.43 77.04 77.16 77.28 76.94 76.59 76.95 76.50 76.67 76.59 76.28 76.37 76.55 76.26 76.03 75.84 76.09 75.81 75.50 75.54 75.84 75.15 74.24 72.81 72.29 75.30 75.64 76.43 75.82 75.72 75.53
76.02 76.43 77.29 77.93 78.04 77.69 78.09 77.56 78.20 78.00 77.69 77.24 77.22 77.01 76.87 76.91 76.72 76.38 76.46 76.28 76.30 75.92 75.21 76.06 76.79 75.65 75.62 76.00 76.13 76.28 76.10 76.04 75.84 75.61 72.63 72.65 73.75 74.14 74.97 75.85 75.12 73.95 74.66
75.94 76.19 77.26 78.18 78.30 77.85 77.59 77.61 77.67 78.04 77.83 77.42 77.03 76.84 76.93 76.97 76.75 76.51 76.36 76.66 76.36 75.32 74.96 75.95 76.39 76.26 76.25 75.45 76.16 75.88 75.28 75.08 75.11 74.59 74.54 71.92 74.48 75.30 75.25 74.40 73.75 73.33 73.79
75.88 76.34 77.19 78.26 78.25 78.14 77.65 77.65 77.72 77.10 77.46 77.10 76.93 76.85 76.72 76.94 76.73 76.76 76.53 76.59 76.48 75.51 75.35 75.54 76.67 75.95 76.44 76.05 75.48 74.98 74.57 73.82 73.94 74.41 74.91 74.61 75.67 75.97 75.78 75.41 74.67 75.25 75.02
75.93 76.20 76.92 78.19 78.31 78.13 77.40 77.14 77.16 76.42 76.75 77.20 76.46 76.57 76.84 76.55 76.78 76.85 76.90 76.76 76.52 75.59 76.17 75.98 76.31 75.70 75.78 75.84 75.47 75.14 74.87 74.27 73.69 73.28 74.14 75.09 75.60 74.38 74.74 75.39 75.11 74.41 74.94
76.51 76.57 76.97 77.36 77.62 77.39 77.44 77.44 77.42 77.07 76.74 76.46 76.19 77.20 77.01 76.77 76.71 76.64 76.73 76.61 76.50 75.43 75.81 76.42 76.16 75.72 75.37 74.90 74.90 74.76 74.68 75.56 76.48 74.77 73.21 74.56 75.17 74.22 73.71 73.98 74.60 74.91 73.37
76.72 76.75 77.16 77.86 78.47 78.24 76.56 77.83 77.95 78.11 77.64 76.96 77.12 77.14 77.10 76.61 76.62 76.25 76.68 76.68 76.69 75.34 75.70 76.78 76.14 75.78 75.26 74.90 74.95 74.81 74.13 75.51 75.15 74.40 74.85 74.62 75.65 75.19 74.65 75.31 74.14 74.81 73.45
75.88 76.70 77.74 77.76 77.74 77.57 77.97 77.29 77.44 77.33 77.35 77.06 77.06 76.83 76.86 77.15 76.29 77.13 76.76 76.74 75.92 75.26 75.84 76.22 76.19 76.01 75.68 75.12 74.68 74.38 74.29 75.28 74.23 74.98 75.52 73.84 75.15 75.31 75.77 75.96 74.58 73.96 74.27
74.44 75.55 76.84 77.48 77.71 77.90 77.10 78.12 77.54 77.02 77.51 77.47 77.11 77.48 76.84 77.46 77.95 77.02 76.41 76.50 76.28 75.15 75.59 76.19 75.91 75.98 75.62 75.00 74.89 74.51 75.04 74.68 74.85 74.91 76.21 74.61 74.50 75.05 75.97 76.09 75.62 74.43 74.14
74.67 75.40 76.20 76.96 77.71 77.55 76.87 78.66 76.67 76.80 76.72 79.15 77.61 78.74 78.72 78.34 77.74 76.24 77.14 77.30 76.66 76.20 74.75 76.15 76.57 75.02 74.20 74.50 74.64 74.56 75.58 75.29 75.03 75.32 76.73 74.74 74.40 74.62 75.37 76.48 76.31 75.35 74.74
74.19 75.18 76.36 76.55 77.01 76.86 76.55 76.45 76.49 76.24 76.59 76.47 77.14 78.13 78.53 76.45 78.11 78.60 75.74 76.65 77.84 75.75 75.28 75.16 73.93 74.65 74.72 75.11 74.80 74.87 75.25 75.04 74.72 75.83 77.23 74.77 74.96 75.25 75.23 75.92 76.91 75.86 74.89
73.74 75.01 76.02 76.37 76.71 76.62 76.75 76.21 76.48 76.19 76.14 76.44 76.51 77.94 77.07 76.07 77.17 76.08 75.74 76.08 76.27 77.35 77.96 75.12 75.13 74.74 75.32 74.94 74.45 74.21 74.50 74.84 75.06 75.22 76.16 75.91 75.49 75.83 75.89 75.66 76.87 76.38 75.79
73.64 74.73 76.04 75.93 76.88 76.79 76.55 77.34 76.22 76.62 76.50 76.02 75.79 76.85 77.73 76.20 76.08 75.63 75.46 75.43 75.64 76.10 76.45 76.05 74.91 74.94 74.65 74.28 73.65 73.68 74.03 74.43 74.97 75.34 75.67 76.63 76.59 76.66 76.59 76.10 76.60 76.77 76.41
73.89 74.33 75.55 76.01 76.34 76.61 76.53 76.86 76.48 76.15 75.98 75.50 75.85 76.90 77.44 77.37 76.90 76.41 74.91 75.55 77.17 78.09 77.63 76.66 77.26 76.08 74.34 74.09 74.01 74.48 74.41 74.72 74.45 75.43 76.28 76.52 76.85 76.48 77.07 76.93 76.78 76.91 77.03
74.96 74.28 75.17 75.37 75.79 76.36 76.33 76.20 75.60 75.42 75.28 75.30 75.45 75.69 76.45 76.84 76.99 76.64 75.24 76.47 79.09 77.21 77.71 77.81 75.30 74.55 74.38 73.74 73.60 73.75 73.82 74.38 74.62 76.05 76.75 76.63 76.47 76.10 76.66 76.88 76.30 76.34 76.68
75.22 74.96 73.88 75.89 75.45 75.87 76.33 75.83 75.96 76.33 75.78 75.38 75.50 75.52 76.09 76.38 76.63 75.78 75.24 75.68 78.67 76.85 76.28 77.62 77.18 75.36 74.34 75.59 74.99 74.94 74.62 73.87 74.30 74.77 75.88 76.33 76.69 76.59 76.04 76.91 76.51 76.10 76.47
75.43 75.32 74.03 75.33 76.05 76.18 75.84 75.70 75.32 74.85 77.56 77.88 78.42 75.79 76.45 76.06 75.73 75.86 76.43 77.01 77.62 75.88 76.84 76.69 75.74 77.02 77.04 75.59 74.51 73.84 75.54 75.03 74.24 74.55 75.20 75.85 76.44 76.56 77.23 77.45 77.90 77.24 76.51
75.45 75.10 74.64 74.01 75.97 75.53 74.45 73.76 73.81 73.86 74.82 74.74 75.58 76.46 76.76 76.73 76.70 75.74 74.42 74.14 75.37 74.09 73.95 76.41 76.69 74.95 74.36 76.27 73.93 72.62 73.81 74.60 74.72 75.00 75.84 75.60 76.03 76.17 77.21 77.25 77.60 77.19 76.74
74.79 75.06 74.71 74.07 74.50 75.48 74.86 74.96 74.74 74.31 73.81 74.18 74.63 76.01 76.91 76.55 76.98 76.34 76.01 75.67 73.27 73.86 74.34 73.30 75.27 73.98 73.36 76.70 70.61 70.72 68.67 70.78 73.06 74.58 74.69 74.32 75.20 75.90 75.95 76.89 77.33 77.60 77.72
74.50 74.67 74.95 74.32 74.51 75.43 75.84 75.27 74.85 74.71 74.37 73.53 73.90 74.02 75.70 76.43 76.92 76.82 76.42 76.26 75.56 75.74 76.02 74.53 73.70 72.27 70.33 72.72 73.69 72.20 68.27 66.17 68.82 73.07 74.10 74.05 74.65 74.80 75.47 75.87 76.46 77.49 77.80
74.79 75.63 76.01 75.51 75.37 75.57 75.95 75.85 75.25 72.75 71.53 72.89 73.90 74.48 74.80 75.95 76.54 76.59 76.80 76.31 75.81 73.93 75.56 75.37 76.73 74.52 73.64 71.54 72.35 72.97 73.68 72.33 68.93 67.22 71.62 73.12 74.51 74.90 75.56 75.66 75.70 76.78 76.94
75.50 75.74 75.90 76.09 75.92 76.87 76.71 77.35 74.99 73.96 73.16 73.99 74.01 75.39 75.59 76.19 76.58 76.14 76.50 76.12 76.04 75.30 76.74 76.18 75.91 75.29 74.76 72.34 68.58 71.54 70.65 72.24 72.00 68.26 65.65 69.47 72.84 73.48 73.95 74.79 75.07 75.29 75.94
76.03 76.09 76.23 76.65 77.02 77.47 76.80 76.65 75.92 74.91 74.26 73.15 73.86 73.38 73.80 74.53 77.45 76.07 75.77 75.48 75.79 75.39 74.98 74.57 75.47 74.72 74.12 72.31 70.99 69.44 69.78 70.20 69.46 69.79 68.69 68.85 69.15 71.71 72.47 73.78 74.65 74.35 74.65

GFSSE_sfc_wetblb_093.txt.gz
Wetbulb
74.73 76.75 78.45 78.20 77.87 77.32 77.30 77.44 77.70 77.99 77.51 76.92 76.56 76.64 76.57 76.45 76.52 76.39 76.56 76.72 76.37 75.63 76.30 76.36 76.30 75.77 75.83 75.88 76.18 76.44 76.64 76.37 76.43 76.47 76.39 76.28 76.66 76.72 76.28 76.21 76.71 73.67 75.95
76.05 76.96 78.48 78.47 78.34 77.79 77.68 77.78 77.52 77.89 77.91 77.10 76.87 76.84 76.69 76.58 76.33 75.98 76.55 76.47 76.49 76.41 76.18 76.60 76.58 76.52 76.56 76.70 76.57 76.59 76.34 75.99 75.91 76.52 76.55 76.11 74.94 74.85 74.22 74.29 76.50 75.75 75.82
76.10 77.27 77.98 78.24 78.35 77.94 77.95 77.73 77.65 78.07 77.79 76.98 76.95 76.82 76.49 76.57 76.95 76.40 76.60 76.43 76.38 76.63 76.41 76.43 76.94 76.57 76.87 76.66 76.55 76.16 76.07 76.23 76.51 76.49 76.80 74.65 75.54 75.52 75.66 74.49 74.77 74.82 75.73
76.08 77.06 77.42 78.21 78.36 78.14 77.98 77.82 77.53 77.52 77.34 77.43 77.00 76.83 76.87 77.04 76.67 76.29 76.60 76.43 76.24 76.63 76.57 76.49 76.53 76.59 76.38 76.78 76.10 76.61 75.90 75.24 75.52 76.13 76.34 72.96 74.15 75.70 76.04 76.08 75.80 75.84 74.95
75.84 76.56 77.72 78.70 78.43 77.25 77.43 77.96 77.95 77.90 77.44 77.12 76.86 77.04 77.23 77.07 76.41 76.57 76.57 76.56 76.18 76.16 76.08 76.70 76.58 75.99 75.88 76.27 76.15 75.57 75.55 75.88 75.77 75.43 73.23 72.53 72.57 75.82 75.99 75.92 75.26 75.48 75.12
75.70 76.06 77.50 78.61 78.19 77.22 77.06 77.51 77.79 77.86 77.89 77.55 76.94 76.81 76.81 76.71 76.62 76.41 76.35 76.35 76.29 75.38 75.30 76.12 75.94 75.33 76.15 76.32 76.00 76.53 75.69 75.85 75.78 74.11 72.85 73.80 73.18 74.91 75.78 74.73 73.98 74.46 74.93
75.37 77.53 77.32 78.25 78.43 78.24 77.59 77.18 77.67 77.42 77.25 77.09 76.98 77.14 77.01 76.99 76.68 76.63 76.40 76.52 75.99 75.41 75.33 76.60 76.35 76.52 75.91 76.44 75.87 74.97 74.61 74.50 75.04 74.38 72.96 75.14 75.95 76.47 75.76 74.39 75.06 74.54 74.99
74.87 76.75 76.49 77.97 78.30 78.02 77.26 77.19 77.22 77.53 77.39 77.10 76.98 76.87 77.17 76.86 76.42 76.68 76.66 76.57 76.06 75.55 75.33 76.31 76.38 76.32 76.10 75.77 75.11 74.77 73.97 74.75 74.15 73.42 73.79 76.05 75.43 76.24 75.70 75.90 75.55 75.81 74.90
74.92 75.86 76.40 76.90 77.12 77.23 77.03 77.14 76.87 76.79 77.28 77.23 76.78 77.03 77.01 76.74 76.77 76.57 76.83 76.66 76.30 75.72 76.38 76.32 76.08 76.02 76.15 75.57 75.29 75.29 75.24 76.09 76.43 73.56 73.50 75.66 76.00 74.71 74.22 75.54 75.50 74.24 73.50
76.07 75.13 76.40 76.82 76.76 77.01 76.92 77.54 77.51 76.87 76.42 76.56 76.23 76.54 76.89 77.08 76.54 76.68 76.62 76.44 76.34 75.44 76.16 76.57 76.12 75.74 75.49 75.02 75.00 75.30 75.33 76.16 76.00 73.46 73.74 74.70 75.98 74.36 74.28 74.63 75.24 75.37 74.17
74.98 76.08 77.21 78.05 77.01 77.26 77.25 76.50 77.65 77.64 76.90 76.79 76.99 76.90 77.16 75.26 76.49 76.71 76.74 76.80 76.52 75.19 75.99 76.15 76.32 75.82 75.29 75.05 75.08 75.41 75.13 74.89 74.42 73.10 74.28 76.03 76.59 75.57 75.83 75.83 74.59 74.35 73.99
73.87 74.70 76.44 77.38 77.45 77.57 76.24 77.80 76.54 76.70 77.08 76.87 77.03 76.98 78.91 76.27 77.00 76.22 76.60 76.86 75.74 75.25 76.21 76.64 76.37 76.00 75.66 74.62 74.71 75.18 74.38 75.01 73.32 73.36 74.38 75.66 76.00 75.64 75.89 76.02 75.35 74.42 74.02
75.06 74.44 75.03 76.92 78.17 77.24 77.07 76.58 76.76 77.24 76.42 77.43 78.09 78.97 78.05 76.51 76.59 76.16 76.40 75.95 76.74 75.30 74.45 75.67 75.63 75.14 74.12 74.45 74.49 73.61 74.33 74.15 73.97 73.73 75.69 75.42 75.66 75.08 75.27 76.38 76.10 75.23 74.55
74.23 74.66 75.26 76.28 77.41 78.05 77.28 76.27 76.07 75.66 76.04 75.95 77.16 78.69 78.02 75.82 76.32 78.82 76.64 75.39 76.76 75.30 74.26 74.75 73.81 73.98 73.97 74.07 74.76 74.04 73.71 73.79 72.97 74.80 76.46 76.47 75.66 75.22 75.56 75.65 76.52 75.79 75.60
74.14 75.03 74.90 76.47 77.89 78.41 78.51 76.06 76.80 76.40 76.21 75.18 76.69 78.42 77.37 76.80 77.95 75.97 76.62 76.67 76.17 75.10 75.58 75.18 75.07 74.88 75.53 75.41 74.36 74.40 74.19 75.00 74.33 74.56 75.50 77.32 76.31 76.38 76.03 76.03 76.26 76.31 76.15
74.39 74.88 76.25 75.61 77.24 77.30 77.94 79.96 77.98 77.11 75.69 76.44 76.06 76.38 78.22 76.44 76.84 76.61 75.35 75.34 74.56 76.72 75.74 76.30 75.61 74.88 74.78 74.50 74.15 74.03 73.94 74.43 74.68 75.58 74.47 76.71 77.34 77.11 76.88 76.80 77.02 77.21 76.83
74.14 75.33 75.48 76.20 76.72 77.37 77.79 78.11 77.41 75.97 75.93 75.55 75.36 77.04 77.85 78.45 78.49 78.14 75.22 76.25 75.44 77.02 78.01 78.16 77.74 75.84 74.10 73.96 74.13 73.99 73.32 73.97 73.90 74.72 74.76 75.34 76.42 77.03 77.22 77.37 77.25 77.30 77.60
74.32 75.99 76.17 75.67 76.17 77.07 77.44 77.05 76.46 75.23 75.16 75.65 75.03 76.21 77.22 77.17 77.08 77.21 75.97 74.70 76.48 77.53 77.09 75.65 75.43 74.56 74.51 74.11 74.62 73.22 74.07 74.55 75.26 74.91 75.01 76.56 75.39 75.00 77.26 77.42 77.19 77.01 77.07
76.15 76.80 76.84 76.77 75.91 76.22 76.66 76.79 76.43 78.27 76.43 75.26 74.77 74.83 77.81 76.79 76.97 76.11 75.69 75.41 78.17 76.96 76.45 76.21 75.22 74.34 72.99 73.71 74.01 74.55 75.56 73.73 74.66 73.73 74.32 75.78 76.87 75.81 75.59 76.98 76.76 76.69 77.01
75.62 76.41 77.25 77.03 77.96 78.49 76.86 76.24 75.99 75.34 75.31 76.15 76.14 75.63 78.62 75.81 76.48 76.79 75.37 77.88 77.82 77.10 76.98 76.21 75.88 75.35 75.88 76.66 73.80 73.33 75.59 74.87 75.22 75.10 74.73 75.32 75.62 76.86 77.47 76.86 77.69 76.36 76.88
75.41 77.28 77.28 77.57 78.56 76.68 75.32 74.10 74.14 73.04 74.72 74.72 75.37 77.57 77.27 77.26 76.98 76.97 75.12 76.24 77.75 74.67 76.02 76.08 76.29 75.07 74.33 76.43 75.40 72.97 74.77 75.16 74.66 74.25 74.57 75.15 74.90 75.42 76.50 77.05 76.62 75.85 75.78
75.26 77.09 77.02 77.71 78.97 77.43 75.86 76.08 75.22 75.54 74.18 75.48 75.92 76.89 77.11 76.34 77.52 76.63 76.13 74.79 75.17 74.11 74.87 74.71 74.92 73.91 73.89 76.22 73.32 72.59 71.55 70.57 72.83 74.45 74.42 73.84 75.40 75.87 75.52 76.21 76.55 78.69 77.70
75.44 76.74 77.27 77.67 78.97 78.17 77.74 77.06 76.74 76.74 76.06 73.65 74.35 75.19 75.96 76.35 77.11 77.18 76.89 77.36 77.60 75.65 73.40 76.07 74.05 73.49 70.97 75.31 74.91 72.77 69.78 66.06 70.02 71.46 74.59 74.10 76.02 73.99 75.04 77.14 77.25 77.39 77.42
74.48 76.38 78.32 78.00 78.28 78.93 79.96 76.70 76.77 73.53 72.21 72.78 74.12 74.64 74.97 76.38 76.02 76.88 77.98 76.76 77.41 78.14 76.22 74.91 76.88 75.61 73.99 71.15 75.93 73.67 74.19 73.20 69.99 68.91 71.40 72.70 74.82 75.17 77.16 75.55 75.00 76.69 77.55
74.83 75.67 77.26 78.22 78.36 78.42 78.81 78.06 76.24 75.48 73.72 73.81 73.88 77.36 77.11 77.94 77.04 75.97 76.84 76.72 76.33 75.96 75.05 76.47 75.69 74.71 75.56 74.79 74.20 73.71 72.73 71.71 73.97 69.51 69.26 69.64 71.75 73.62 74.05 75.44 74.00 75.80 77.18
75.62 75.95 75.95 78.27 78.12 79.03 78.75 79.10 78.07 76.91 76.22 73.26 74.21 73.47 74.09 74.49 75.31 76.66 76.37 76.71 76.13 76.23 75.92 75.35 75.00 74.71 74.84 74.95 74.89 73.44 71.69 69.56 69.34 69.98 68.03 69.14 68.84 71.45 72.13 73.77 75.67 75.18 75.52

GFSSE_sfc_wetblb_096.txt.gz
Wetbulb
73.82 75.90 78.28 78.56 78.36 78.32 78.05 77.86 78.03 77.69 76.85 76.73 76.69 76.68 76.58 76.83 76.68 76.84 76.93 76.93 76.70 76.85 76.49 76.00 75.83 75.69 76.02 76.22 76.45 76.83 76.70 76.81 76.91 76.67 77.34 77.11 77.17 77.10 76.86 75.88 76.38 74.35 74.57
74.68 76.09 78.24 78.50 78.61 78.59 78.20 78.23 77.99 78.07 76.93 76.76 76.89 76.90 76.72 77.17 76.58 76.55 76.87 76.92 76.16 76.26 77.22 76.83 76.16 76.05 76.24 76.32 76.89 76.77 76.38 76.77 76.42 76.85 76.49 75.88 76.37 75.11 76.32 77.64 76.71 75.20 75.38
74.55 75.91 76.47 78.39 78.57 78.44 78.52 78.49 78.23 77.95 76.84 76.90 76.90 77.01 76.94 76.71 76.73 76.37 76.60 76.76 76.85 76.49 76.44 76.96 77.05 77.04 77.07 76.84 76.75 76.16 76.07 76.67 76.96 77.58 77.66 72.56 72.78 75.96 74.80 75.49 76.40 76.09 75.21
75.26 75.36 75.64 78.10 78.58 78.73 78.58 78.36 78.50 77.85 76.91 76.81 76.94 76.73 76.79 77.01 76.66 76.66 76.57 76.52 76.71 76.68 76.44 76.41 76.96 76.91 76.96 76.58 76.81 76.29 76.33 76.48 76.02 76.88 75.26 73.38 73.30 76.18 75.60 76.48 75.15 75.47 75.73
75.11 74.97 75.92 78.58 78.72 78.28 78.33 78.54 78.58 78.52 77.24 76.83 76.82 76.63 76.99 76.49 76.68 76.60 76.63 76.71 76.79 76.76 76.48 76.53 76.81 76.66 76.75 76.07 76.35 76.44 75.52 75.41 75.16 75.56 75.59 72.12 73.54 75.82 76.49 76.20 75.79 75.59 76.33
74.71 75.51 77.52 78.70 78.20 78.20 77.91 78.29 78.28 78.35 78.08 77.69 77.18 77.27 77.19 76.87 77.42 76.63 76.64 76.29 76.29 76.08 76.46 76.52 76.19 75.86 76.02 76.50 75.87 76.33 76.16 76.06 76.04 75.05 73.45 73.84 73.90 76.35 76.16 75.64 75.52 75.41 74.78
74.74 76.69 77.00 78.65 78.53 78.30 78.51 78.20 78.27 78.21 77.95 77.70 77.01 77.03 77.13 77.17 76.77 76.62 76.58 76.43 75.86 75.19 76.50 76.30 75.69 75.94 76.56 76.32 76.61 75.91 75.24 75.22 73.99 73.63 73.80 72.22 74.40 76.44 75.35 74.77 74.11 74.53 73.88
76.30 76.05 76.52 78.32 78.54 78.30 77.63 78.20 78.19 77.78 77.42 77.59 77.04 77.14 76.90 77.11 76.74 76.74 76.55 76.55 75.75 75.25 76.29 76.53 76.15 76.33 76.56 76.20 75.16 74.64 75.00 74.47 74.98 73.26 74.26 74.06 76.33 76.98 75.79 75.41 75.92 75.42 75.44
75.52 75.71 76.49 76.55 77.29 77.58 77.49 77.58 77.96 77.73 77.45 77.83 77.64 77.18 77.00 76.83 76.67 76.57 76.72 76.50 76.37 76.73 76.18 76.30 76.51 76.70 76.26 75.85 75.41 75.54 76.06 76.37 74.83 74.54 74.34 73.81 76.52 76.60 76.39 75.65 74.92 75.80 74.59
76.17 75.36 75.65 76.30 76.73 76.49 76.44 78.11 77.75 77.75 77.64 77.41 77.00 77.08 76.83 76.93 76.83 76.66 76.59 76.61 76.37 76.35 76.21 76.48 76.05 76.58 76.70 75.70 75.68 75.76 76.38 76.32 74.12 74.38 72.91 72.87 75.96 75.92 75.57 75.25 75.61 74.52 73.73
75.25 75.43 75.76 76.11 76.49 76.71 76.35 77.17 78.03 76.93 76.73 76.90 76.40 76.47 76.84 76.08 75.89 75.80 76.71 76.97 76.35 75.47 76.35 76.53 76.10 76.80 76.53 75.63 75.96 76.65 76.12 73.73 73.73 73.44 72.62 75.45 75.77 76.01 75.37 76.09 76.28 75.38 74.31
73.40 74.38 75.31 76.02 76.05 76.33 75.14 76.64 76.56 76.19 75.99 76.05 76.29 76.44 76.80 77.16 76.16 75.61 76.32 76.79 76.86 75.44 76.31 76.53 77.18 76.89 75.54 73.87 73.98 75.91 74.33 73.38 74.07 73.00 72.50 76.31 76.46 76.79 76.59 76.27 75.95 74.84 74.23
74.64 75.04 75.84 76.10 76.79 76.21 76.22 76.13 75.46 76.22 75.90 76.44 76.54 76.37 77.43 75.76 77.26 75.66 75.64 75.49 75.43 75.05 74.53 75.69 75.84 75.13 73.92 73.63 72.80 73.14 72.72 72.69 72.68 73.40 74.14 76.17 76.92 77.17 76.58 77.05 76.73 75.40 74.84
74.35 74.99 76.01 76.72 76.68 77.01 77.21 76.11 76.01 75.24 76.02 75.10 76.39 75.59 75.89 74.84 74.47 76.26 74.77 75.32 76.17 73.97 73.24 74.29 73.78 73.75 73.51 73.36 72.19 72.41 74.00 73.32 71.35 73.98 74.52 76.28 76.29 76.61 76.76 76.76 77.01 76.55 75.66
73.78 74.83 75.61 76.86 76.39 76.48 76.68 76.32 76.00 75.45 76.02 75.55 76.17 76.05 75.34 74.83 74.25 74.59 75.15 76.04 75.26 74.52 73.44 73.30 73.67 72.87 72.73 74.61 74.56 74.53 73.04 74.02 74.82 74.16 74.16 76.93 76.46 76.36 77.00 76.64 76.95 77.01 76.38
74.53 75.38 76.12 76.72 77.31 77.06 76.11 76.84 75.86 76.36 76.85 77.18 75.44 76.03 76.88 75.57 75.21 73.35 73.12 74.77 73.97 75.72 73.79 72.25 74.18 72.81 74.79 73.42 72.77 74.16 74.14 74.02 74.59 75.48 74.70 76.26 77.39 76.79 77.01 77.42 77.41 77.46 77.13
74.46 75.34 75.84 76.47 77.80 76.61 76.73 76.38 76.52 75.77 75.37 76.36 74.79 75.62 76.08 76.94 75.36 74.84 74.45 74.34 73.51 75.93 77.85 76.79 76.73 76.12 73.05 74.37 74.74 73.67 73.58 73.78 73.59 74.80 75.33 75.35 75.93 77.47 77.19 77.37 77.46 77.38 77.23
74.75 75.56 76.04 75.94 76.44 76.66 76.43 76.51 76.62 76.66 75.97 73.78 74.98 76.11 76.76 76.08 76.00 76.79 74.31 74.86 73.71 76.33 75.86 75.99 76.19 75.23 74.38 73.48 72.95 73.35 72.33 72.74 72.79 74.08 74.97 74.95 75.00 75.06 76.32 77.08 76.77 77.19 77.39
75.01 75.59 75.55 75.69 75.80 76.12 76.94 77.19 76.74 78.00 76.66 75.53 75.91 75.60 77.30 76.28 76.38 75.53 75.23 74.76 77.06 75.99 75.92 75.16 74.26 75.31 74.22 73.91 73.79 74.24 74.19 73.56 74.09 73.63 73.49 73.78 75.16 75.05 75.08 76.64 76.84 76.64 77.61
75.48 76.32 76.31 76.42 75.99 76.84 76.92 77.14 75.83 75.57 76.22 74.42 75.89 75.83 76.27 76.40 76.63 76.36 75.64 75.37 75.64 75.16 75.02 76.13 73.97 75.41 73.87 73.01 72.73 71.82 72.73 73.45 73.84 73.83 73.78 73.75 74.66 75.83 75.35 75.87 75.91 75.82 77.09
75.32 75.41 75.91 75.80 77.00 76.10 75.37 74.09 74.44 72.71 73.89 73.47 74.80 76.74 75.40 75.76 76.12 76.27 74.68 75.40 75.79 74.65 74.15 75.22 73.98 73.87 72.69 73.74 72.13 72.05 73.10 74.86 74.87 74.57 74.61 73.08 74.36 75.19 74.22 76.81 75.49 75.33 75.69
74.85 74.89 75.91 75.81 76.43 76.34 75.59 74.43 74.50 75.08 74.54 74.78 76.91 77.33 76.36 75.38 76.23 76.00 75.61 75.86 76.34 75.11 74.72 75.01 74.67 73.31 73.12 73.24 70.89 69.63 67.49 70.61 72.60 72.90 73.14 73.78 73.98 74.14 73.76 75.05 76.44 75.53 75.41
74.16 75.04 75.10 76.65 76.27 76.32 76.33 75.41 74.92 75.50 77.21 74.17 74.52 74.78 75.69 76.08 76.21 76.14 76.21 74.77 75.72 75.26 72.63 74.01 73.02 73.36 71.42 72.18 73.28 68.43 65.61 65.36 68.86 72.64 72.32 72.66 72.98 73.48 73.53 73.53 74.90 75.82 76.73
74.17 76.27 76.05 76.64 76.97 76.30 76.50 75.04 74.55 72.74 71.83 73.99 74.80 75.08 75.26 76.39 76.17 75.52 75.18 75.53 75.89 75.58 74.35 72.95 75.15 73.09 71.96 70.48 72.53 71.77 71.01 70.64 66.87 66.20 71.68 71.77 71.17 71.45 75.31 75.61 75.33 76.05 75.52
74.75 75.61 76.63 76.08 77.50 76.69 76.40 75.72 74.63 73.38 74.31 74.27 74.97 75.96 74.96 75.43 76.17 75.58 75.35 74.42 74.38 75.42 74.14 73.52 73.94 74.07 73.45 72.02 71.26 70.63 71.26 70.58 70.68 68.35 65.95 67.00 71.17 72.04 72.53 74.15 73.67 74.79 76.55
74.94 75.57 76.20 76.27 76.42 77.43 76.97 77.26 75.51 74.47 74.14 73.09 73.04 74.28 73.87 75.04 75.32 75.89 75.54 74.97 74.99 75.24 73.78 73.93 73.86 73.36 73.32 73.02 71.58 71.28 70.26 69.75 68.57 68.48 67.00 67.58 68.27 69.73 73.04 71.49 72.79 74.83 75.39

GFSSE_sfc_wetblb_099.txt.gz
Wetbulb
72.82 75.66 78.39 78.54 78.23 77.94 77.41 77.72 77.30 77.21 76.59 76.63 76.76 77.63 77.54 77.79 77.50 78.07 77.86 77.10 76.68 76.53 76.15 75.87 75.71 76.06 76.36 76.59 76.94 76.91 77.10 77.02 77.20 77.22 77.10 77.06 76.61 76.39 77.26 75.88 73.99 72.02 74.50
74.16 75.89 78.53 78.74 78.72 78.34 78.14 78.14 77.74 77.53 76.83 76.76 76.88 77.32 77.11 77.76 77.33 77.26 76.98 76.69 76.58 76.58 75.96 75.71 75.85 76.17 76.40 76.77 76.81 76.47 76.59 76.66 77.49 77.24 76.92 76.34 75.95 77.15 76.41 76.88 75.19 74.25 76.24
74.28 75.72 77.09 78.65 78.85 78.62 78.39 78.30 77.89 77.28 76.92 77.08 77.21 77.14 76.88 77.01 76.88 76.95 77.20 76.99 76.25 76.80 76.62 76.32 76.30 76.39 76.82 76.66 76.51 76.01 76.08 76.22 77.37 76.39 75.37 72.29 73.41 75.95 77.00 76.70 76.11 74.72 75.47
74.54 74.96 76.18 78.31 78.79 78.94 78.70 78.59 78.31 77.05 76.96 77.05 77.14 77.01 76.84 76.77 76.66 76.75 76.85 76.77 76.75 76.41 76.42 76.63 76.82 77.06 76.85 76.48 75.89 76.40 76.20 76.46 76.38 77.12 72.59 72.75 73.36 75.76 75.48 76.58 76.26 75.35 75.06
73.62 74.18 75.83 78.94 78.88 77.87 78.03 78.71 78.60 78.03 77.44 77.12 76.78 76.86 77.13 76.99 76.86 76.99 76.97 76.95 76.70 76.67 76.31 76.38 76.36 77.06 76.62 76.56 76.26 75.95 75.47 76.02 75.43 75.71 74.06 71.37 72.73 75.73 76.13 75.70 75.37 75.88 75.07
73.13 74.30 77.82 79.13 78.28 77.58 77.58 78.23 78.50 77.61 77.81 77.78 77.29 76.94 76.98 76.84 76.67 76.97 76.89 76.69 76.71 76.76 76.48 76.62 76.44 76.45 75.81 75.69 75.65 75.16 75.57 75.66 75.70 74.08 71.65 74.86 73.67 75.94 75.75 76.44 76.39 75.74 75.45
73.03 75.22 77.01 78.77 78.80 78.41 77.87 77.69 78.13 77.82 77.49 77.12 77.25 77.59 76.90 77.23 76.80 76.72 76.64 76.49 75.84 76.03 76.50 76.45 75.68 75.93 76.49 75.77 75.60 75.58 75.32 74.52 73.08 71.28 72.37 73.69 74.56 76.61 74.82 75.80 75.41 74.25 74.14
73.80 74.94 75.87 78.26 78.50 77.90 77.44 77.41 77.36 77.12 77.06 77.08 76.95 77.01 77.07 77.05 76.74 76.65 76.83 76.54 75.40 75.73 76.17 76.75 75.62 76.36 76.25 76.27 75.76 74.67 74.40 74.01 73.76 72.80 71.79 73.51 75.40 76.16 75.00 74.34 74.67 74.87 74.04
74.62 74.37 75.01 75.49 76.12 77.58 77.70 77.36 77.12 76.96 77.18 77.41 77.21 77.48 76.87 76.88 76.86 76.76 76.66 76.55 75.62 75.37 76.53 76.45 76.58 76.29 76.31 75.36 74.51 75.24 75.03 75.59 73.73 72.94 73.58 74.23 76.66 76.70 75.81 76.55 75.83 75.15 75.17
73.89 74.07 74.73 74.93 74.23 74.50 75.44 78.37 78.11 78.02 77.03 77.19 77.17 77.21 77.00 77.02 76.94 76.85 77.03 76.94 76.08 75.56 76.53 76.54 76.62 76.07 76.62 76.13 75.73 75.70 75.77 76.02 72.91 72.81 72.67 74.31 76.81 77.18 76.22 75.34 75.32 75.22 74.31
73.04 73.75 74.36 74.18 74.25 74.09 74.36 76.01 77.76 77.64 77.52 77.13 76.61 76.99 76.63 74.30 74.50 75.45 76.05 76.70 76.22 76.25 76.20 76.60 76.08 76.72 76.59 75.98 75.95 75.92 76.02 73.28 72.44 72.30 70.38 76.21 76.88 77.24 76.34 76.16 75.99 74.56 74.07
70.54 72.07 73.53 73.73 73.61 73.88 75.38 74.45 74.20 74.38 74.04 74.02 73.58 73.08 73.85 73.55 73.33 74.76 75.73 76.80 76.63 75.40 76.38 76.66 76.71 76.21 75.67 72.91 72.67 75.80 73.36 73.19 72.84 72.11 70.54 76.07 75.95 76.45 76.25 76.35 76.63 75.40 74.41
71.25 72.28 72.92 73.21 73.45 73.34 73.22 74.42 74.39 73.66 73.90 73.66 74.06 73.95 73.90 73.44 73.11 74.22 73.60 74.37 73.60 74.99 73.58 75.03 75.35 74.25 73.00 72.17 71.23 71.37 72.81 72.31 71.49 71.47 72.42 75.86 76.35 77.48 76.59 76.46 75.76 74.92 74.28
71.30 71.79 72.73 73.17 73.21 73.01 73.34 73.36 73.04 73.41 73.54 73.52 73.94 74.09 73.61 72.06 72.08 72.76 73.24 73.19 72.09 71.02 71.22 73.27 73.21 73.00 72.29 71.85 71.36 70.67 71.19 70.92 71.77 71.45 73.58 76.95 76.80 77.75 77.30 77.16 76.49 75.44 74.71
71.42 72.35 72.79 73.31 73.21 73.30 73.73 73.06 72.68 72.49 73.48 72.69 73.48 73.65 74.05 72.62 71.26 72.52 72.32 73.24 72.77 71.43 70.32 72.26 71.47 71.64 71.32 71.61 71.19 71.74 70.80 71.10 73.23 72.67 72.83 77.15 77.23 77.21 77.75 77.04 76.75 76.01 75.69
71.98 72.70 73.64 73.67 73.92 74.04 73.49 73.19 72.91 72.92 73.26 72.69 73.38 73.28 73.58 72.97 72.36 70.92 72.35 72.19 72.68 71.99 70.91 71.10 70.67 70.79 70.37 70.61 71.34 70.50 70.04 70.62 71.97 72.48 73.05 74.71 76.87 76.73 77.17 77.31 77.54 77.24 76.41
72.04 73.18 73.52 73.83 73.76 73.88 72.62 73.83 73.16 73.25 73.73 73.00 73.63 73.68 74.09 73.26 72.97 71.25 71.88 71.79 72.04 72.35 72.48 72.65 71.36 72.44 71.59 71.74 69.81 71.25 70.16 69.91 70.75 71.35 72.89 73.99 75.08 76.78 77.06 77.13 77.56 77.56 77.71
72.42 72.23 73.78 75.24 73.98 73.58 73.05 72.96 73.45 73.78 73.25 73.46 73.19 73.75 73.45 73.97 73.61 72.43 72.47 71.56 72.53 72.37 72.84 71.69 71.82 70.80 70.37 71.15 68.91 70.15 69.53 69.71 69.62 69.86 71.56 73.24 73.66 74.94 76.13 77.26 77.29 77.16 77.41
72.75 72.72 72.92 74.40 74.26 73.51 73.56 73.72 72.94 73.74 72.56 71.95 72.91 73.13 73.25 73.33 73.41 73.06 73.25 72.36 72.24 72.38 71.91 71.91 71.20 70.96 70.13 70.29 70.91 71.36 70.13 69.18 70.02 71.04 69.99 70.38 72.68 73.87 73.36 76.09 76.70 76.55 77.45
72.62 73.12 73.11 73.57 74.21 73.58 73.46 73.63 72.88 72.64 72.73 72.14 72.37 72.90 73.88 72.80 72.69 72.17 72.19 72.24 73.10 71.91 71.73 71.72 71.18 71.51 70.09 69.41 70.86 70.57 70.03 71.98 71.62 71.28 70.88 71.58 70.51 73.12 73.25 73.84 74.74 75.10 77.16
72.69 72.61 72.37 72.28 73.18 73.61 72.94 72.82 71.63 70.99 71.45 71.15 72.67 72.54 74.28 73.61 73.75 72.15 72.16 71.97 72.00 71.77 70.95 72.13 70.42 70.35 70.23 70.67 68.51 67.93 68.56 70.32 71.72 71.24 71.72 71.48 71.04 71.71 72.88 72.93 73.98 73.51 74.30
71.15 72.57 72.61 72.24 72.86 73.25 73.30 72.96 72.04 70.98 70.95 71.74 72.13 73.49 74.03 73.68 73.66 73.35 71.75 71.19 71.36 70.54 70.88 71.35 71.34 70.10 70.34 70.59 68.12 66.32 63.00 65.63 68.97 71.08 70.81 71.33 70.49 71.78 71.89 72.34 74.01 73.26 73.43
70.97 71.65 72.44 73.08 73.03 73.70 73.39 72.59 71.30 71.45 70.27 70.95 71.11 71.51 72.79 72.75 73.01 72.76 73.20 71.99 72.28 71.79 71.04 71.00 71.57 70.22 68.95 69.63 70.32 66.79 63.48 62.24 64.57 67.66 69.90 70.72 70.74 70.37 70.78 71.06 73.27 74.30 73.83
71.04 72.64 72.56 73.03 73.93 73.58 73.01 72.09 71.02 70.86 70.10 70.91 70.68 71.04 72.58 72.38 72.74 73.30 73.42 72.48 72.33 72.18 70.90 71.36 71.10 70.46 69.56 67.62 69.09 70.91 68.88 67.08 63.65 62.73 67.55 69.16 70.26 70.36 71.78 72.03 71.72 73.23 75.11
71.83 72.29 73.24 73.17 73.58 73.90 73.57 72.60 71.32 69.86 70.40 69.95 70.78 70.72 71.85 72.86 73.16 73.26 72.51 71.69 70.98 72.49 72.22 71.29 70.57 71.01 70.48 68.14 67.42 67.53 68.12 67.80 67.22 65.53 63.75 65.23 68.00 69.62 70.58 70.94 71.65 72.74 73.56
72.39 72.36 72.97 73.46 73.13 73.22 73.10 72.57 71.57 70.79 69.39 69.51 69.44 70.99 71.85 72.57 73.08 73.07 73.10 72.08 71.86 72.07 71.08 71.31 71.10 70.79 69.69 70.20 69.67 68.79 67.60 66.59 65.75 65.64 65.11 65.32 64.89 67.21 69.34 70.91 70.63 71.47 73.36

GFSSE_sfc_wetblb_102.txt.gz
Wetbulb
72.09 75.86 78.56 78.42 77.49 77.52 77.59 77.14 76.73 76.91 76.79 77.86 78.36 78.76 78.55 78.52 78.34 78.25 77.89 78.00 77.75 76.98 76.50 76.09 76.18 76.00 75.65 76.39 76.70 76.79 76.40 76.56 76.38 75.99 76.62 76.34 76.03 75.82 74.82 74.80 74.64 73.41 74.99
73.53 75.84 78.57 78.43 78.08 77.80 78.05 77.65 76.90 77.43 77.18 77.17 77.69 77.94 78.21 78.51 77.95 77.17 77.46 77.08 76.65 76.55 76.42 76.03 76.36 76.35 76.46 76.75 76.60 76.47 76.77 77.63 77.07 76.51 76.41 76.09 76.24 75.71 74.34 73.68 74.58 73.29 74.35
74.24 75.82 76.83 78.42 78.62 78.33 78.21 77.95 77.38 77.18 77.08 76.89 77.42 77.16 77.26 77.85 77.69 76.97 76.89 76.87 76.50 76.09 76.09 76.09 76.29 76.42 76.62 76.46 76.48 76.40 76.68 76.83 76.99 76.54 75.89 72.41 73.59 76.16 76.08 74.89 76.10 75.96 74.43
74.60 75.64 76.23 78.32 78.53 78.36 78.43 78.15 77.77 77.16 77.12 76.97 77.35 76.79 76.79 77.19 77.07 77.20 76.96 76.59 76.99 76.86 76.53 76.58 76.96 77.00 76.58 76.38 76.06 76.09 76.48 76.44 75.97 75.63 73.00 72.33 73.90 76.42 76.08 75.18 74.95 75.62 76.07
74.46 75.35 76.09 78.70 78.69 78.14 78.43 78.31 77.96 78.00 77.28 77.32 76.95 77.19 76.80 77.17 76.92 76.99 77.19 76.88 76.54 76.82 77.07 77.07 77.17 76.91 76.63 75.90 76.67 76.41 76.31 75.98 76.44 74.39 71.43 71.32 72.31 74.56 76.36 76.11 75.22 74.59 74.47
73.87 74.95 77.99 79.08 78.56 78.09 77.95 78.05 77.81 77.80 77.90 77.81 77.15 77.40 77.28 77.07 77.09 77.01 77.08 76.83 76.93 76.48 76.75 76.76 77.09 76.71 76.61 76.57 76.17 75.65 75.63 75.55 75.42 73.48 71.52 74.00 73.03 76.20 75.61 75.33 75.74 74.91 73.28
73.30 75.12 76.97 78.82 78.84 78.59 78.75 78.62 78.02 77.89 77.98 77.93 77.56 77.33 77.08 77.06 77.35 76.99 76.82 76.98 76.96 76.74 76.63 76.83 76.41 76.46 75.50 75.43 75.50 75.70 75.26 74.86 71.88 71.38 73.23 73.41 73.25 76.33 76.45 75.98 75.34 75.32 74.27
73.20 75.42 76.32 78.23 78.57 78.26 78.19 78.04 77.52 77.24 77.18 77.17 77.77 77.31 77.24 77.29 77.08 76.79 76.58 75.91 76.18 76.75 76.83 75.97 76.03 75.76 76.55 75.90 75.77 75.12 74.67 74.23 73.62 70.70 72.90 73.68 75.50 75.95 75.99 75.60 74.14 74.16 73.74
73.97 74.90 75.65 76.10 76.58 77.75 78.05 77.97 77.80 77.35 77.28 77.25 77.32 77.87 77.60 76.90 76.91 76.90 76.89 76.23 75.34 76.46 76.23 75.39 76.34 76.26 76.26 75.86 74.58 74.36 74.67 74.92 73.10 71.45 72.79 73.04 76.04 76.21 74.55 74.80 75.06 73.74 75.51
73.47 74.20 74.68 75.11 74.45 74.82 75.43 78.03 77.93 77.57 76.94 77.32 77.41 77.44 77.30 77.04 76.83 76.62 76.97 76.98 75.06 76.62 76.65 76.62 76.23 76.51 76.02 75.12 74.59 75.12 75.04 75.27 72.63 72.08 72.33 73.11 75.97 75.98 76.08 75.76 75.66 75.03 75.06
72.31 73.17 73.87 73.53 73.29 73.63 74.46 75.70 77.72 77.23 77.35 77.26 76.92 77.35 76.69 74.02 74.77 75.79 76.21 76.41 75.56 75.94 76.51 76.77 76.47 75.91 75.70 75.39 75.53 75.42 75.05 72.77 71.96 71.94 72.16 75.22 76.93 76.91 76.36 75.75 76.17 74.92 73.95
70.66 72.28 73.23 73.01 73.09 73.59 75.34 74.39 74.46 74.82 74.40 73.50 74.12 74.07 73.85 73.59 73.37 74.72 75.58 76.71 75.92 76.19 76.50 76.72 76.07 76.35 75.58 72.67 72.47 75.02 72.90 73.59 73.40 71.46 70.33 75.72 77.26 77.50 76.25 76.07 75.44 74.19 73.89
71.46 72.49 72.83 73.06 73.06 73.31 73.75 73.41 73.47 73.06 73.51 73.08 72.43 72.32 73.01 73.03 73.48 73.95 73.03 74.10 73.31 75.14 73.63 75.31 74.72 73.62 72.72 72.21 71.34 70.97 72.63 72.21 71.67 70.86 71.24 76.14 77.00 77.43 75.74 75.90 76.29 75.32 74.78
70.67 71.63 72.54 73.03 72.81 72.84 73.40 73.55 73.24 72.97 72.86 72.56 72.73 72.32 72.56 72.02 71.41 72.51 72.48 72.40 72.16 70.78 71.98 72.87 72.89 72.91 72.04 72.03 71.42 70.66 70.78 71.09 70.69 70.42 71.42 76.49 76.34 76.62 76.40 75.87 76.10 75.18 74.60
70.04 71.15 71.88 72.42 72.14 72.15 72.58 73.20 72.76 72.60 72.84 72.76 72.92 73.31 73.09 71.52 70.81 72.06 72.43 72.69 71.53 70.05 70.12 71.85 71.80 71.91 71.55 71.43 71.10 70.86 69.62 69.28 70.93 71.35 72.28 76.50 76.52 76.85 77.06 76.40 75.70 75.42 74.73
70.51 70.61 71.87 72.11 72.01 72.11 72.12 71.65 71.94 72.49 72.54 72.14 72.55 72.82 73.50 72.22 70.66 71.82 71.83 72.42 71.77 70.57 69.23 71.17 70.56 70.36 69.94 70.08 69.74 70.49 69.74 69.95 72.53 71.78 71.52 74.27 76.36 76.60 77.09 77.06 77.15 76.35 75.57
70.70 71.11 71.37 71.94 72.28 71.72 72.61 71.70 71.47 71.81 72.30 71.84 72.19 72.26 72.86 72.09 71.43 70.89 71.44 71.44 72.30 71.54 69.66 69.69 70.39 70.10 69.69 69.89 69.44 69.43 69.30 69.12 70.85 71.76 71.66 72.39 73.97 76.46 76.24 76.98 76.49 77.15 77.09
71.30 71.25 71.76 72.90 72.28 72.43 72.69 72.31 72.08 72.40 72.24 71.96 72.33 72.44 72.75 72.54 72.11 70.21 70.68 71.09 71.58 71.43 71.34 70.46 69.62 69.13 69.81 69.01 68.74 69.21 69.59 68.79 68.75 69.98 71.66 72.31 73.20 73.94 75.82 76.74 76.48 76.72 76.95
71.59 71.83 72.09 72.45 72.23 72.58 72.31 72.73 72.31 72.09 72.33 72.21 72.71 72.75 72.55 72.88 72.82 71.32 70.82 71.11 71.28 71.05 71.40 70.94 70.40 69.58 68.98 68.66 69.13 69.30 68.92 68.02 68.50 69.66 69.10 71.79 72.28 73.28 73.13 75.01 75.96 75.98 76.61
71.88 72.54 72.58 72.83 72.28 72.61 72.56 71.67 71.78 72.11 71.89 72.16 71.96 72.67 72.47 72.93 72.90 72.27 71.52 71.47 71.30 70.70 70.43 70.45 70.05 70.48 69.71 68.96 70.12 69.80 69.44 69.80 69.33 68.43 69.03 69.74 70.54 72.63 72.66 72.46 73.03 74.19 76.68
71.64 71.98 72.56 72.59 72.29 72.33 71.90 71.18 70.38 70.60 71.59 70.74 71.67 72.29 72.69 72.13 72.09 71.87 71.40 71.16 71.21 71.00 70.72 70.96 70.06 69.27 69.43 69.04 67.54 67.09 67.63 69.07 69.60 70.24 70.16 69.68 70.09 70.16 71.89 72.34 72.40 73.05 73.61
70.86 71.46 72.21 72.67 72.72 72.13 71.79 72.21 71.26 70.91 70.36 71.36 71.52 71.85 72.70 72.53 71.86 71.23 70.32 69.88 70.42 70.22 69.74 69.90 69.02 68.58 68.60 69.32 67.05 64.86 62.55 64.38 66.62 69.46 70.22 70.67 70.40 70.54 71.00 72.21 72.26 72.82 72.72
70.62 70.95 71.59 72.55 72.68 72.43 72.20 71.85 70.28 69.41 69.19 69.45 69.19 70.65 72.27 72.73 72.74 72.05 71.40 70.65 70.56 70.16 70.03 69.84 70.01 69.16 67.79 68.40 68.50 65.41 62.36 61.07 64.31 65.80 67.66 69.34 69.68 69.25 70.23 70.37 72.11 73.04 72.81
70.57 71.76 71.62 71.91 72.53 72.51 72.36 71.02 70.97 69.73 68.63 70.39 69.72 69.50 71.39 72.65 72.51 72.81 72.36 71.68 71.08 70.47 69.25 69.90 70.90 69.79 68.33 66.84 67.47 69.11 66.82 66.33 63.68 61.65 65.62 67.47 69.07 69.44 69.28 70.81 70.63 71.20 72.57
71.19 71.36 71.72 71.66 72.04 72.21 72.29 71.52 71.18 70.24 69.77 68.02 68.50 68.45 70.92 71.09 71.79 72.31 72.05 71.53 71.26 71.80 71.09 70.35 69.84 69.46 69.52 66.88 66.66 66.43 66.95 66.23 65.68 64.33 62.72 65.15 67.65 68.96 69.46 70.22 69.33 68.65 70.07
70.15 71.53 72.03 71.35 71.49 72.29 72.09 71.57 70.61 70.05 69.06 67.92 68.84 68.52 69.83 70.83 70.98 71.48 72.01 71.62 71.00 71.13 71.19 70.89 70.29 70.24 69.70 69.07 68.40 67.97 67.03 66.14 65.29 64.26 65.01 64.49 64.78 66.38 68.64 69.46 69.84 70.38 71.12

GFSSE_sfc_wetblb_105.txt.gz
Wetbulb
71.03 74.84 78.02 77.83 77.89 77.57 77.17 77.11 77.44 78.28 78.26 78.14 78.12 78.21 78.22 78.12 78.02 77.97 77.76 77.50 77.23 76.87 76.05 76.11 76.36 76.66 76.66 77.01 76.66 75.61 75.97 75.50 76.04 76.51 76.66 76.50 76.32 75.36 75.30 75.97 75.62 73.64 75.33
72.40 75.70 78.31 78.12 78.11 77.36 77.03 77.24 77.08 77.70 77.98 78.40 78.30 78.08 78.48 78.30 78.23 78.10 77.92 77.64 76.87 76.21 76.39 76.00 75.89 75.84 76.41 76.68 76.74 75.83 75.78 75.76 76.61 76.11 75.92 75.64 75.08 74.44 74.31 74.27 74.30 72.89 74.09
73.74 75.86 76.59 78.18 78.27 77.27 77.06 77.09 77.20 77.66 77.41 77.16 78.24 78.31 78.06 78.03 77.65 77.29 76.86 76.87 76.49 76.45 76.19 76.17 76.25 76.00 76.21 76.55 76.61 76.24 75.84 76.44 76.21 75.77 75.80 72.62 73.70 74.09 74.60 75.25 74.46 73.86 73.43
74.33 75.46 75.90 77.97 78.27 78.26 77.83 77.60 77.59 77.29 77.05 77.33 77.60 77.73 78.32 77.45 77.39 77.36 76.63 76.41 76.38 76.39 76.11 75.99 76.16 76.35 76.40 76.20 76.25 76.47 75.93 76.39 75.86 75.83 72.30 72.74 73.67 75.68 74.77 75.64 75.69 74.45 75.33
74.12 74.89 75.69 78.62 78.56 77.97 77.86 78.15 78.09 77.91 77.60 77.53 76.76 77.11 77.22 77.64 77.32 76.93 76.97 76.99 76.33 76.19 76.50 76.85 77.03 76.77 76.17 75.92 76.05 76.45 75.95 76.03 75.84 74.05 71.19 70.89 72.44 75.24 75.01 74.54 74.92 75.58 75.70
74.05 74.64 77.33 78.90 78.38 78.01 77.59 77.63 77.91 77.90 77.92 78.02 77.08 76.45 77.17 77.19 77.28 77.39 76.82 76.67 77.15 77.12 77.01 77.18 76.95 76.78 75.76 76.50 76.18 76.23 75.95 76.01 75.63 71.80 71.12 73.12 71.65 76.05 76.02 75.17 74.17 73.89 74.77
73.77 74.54 76.56 78.74 78.47 78.37 77.93 77.57 77.52 77.73 77.87 77.57 77.57 77.23 77.23 77.51 77.46 77.15 76.83 76.84 76.39 76.57 76.87 76.82 76.88 76.85 76.17 76.23 75.60 75.86 76.03 75.41 71.85 71.05 71.80 72.99 72.32 75.93 75.21 75.36 75.30 73.09 73.18
73.38 75.17 75.96 77.89 78.61 78.30 77.53 77.23 77.12 77.32 77.01 77.17 77.58 77.21 77.31 77.25 77.68 77.11 77.31 77.21 76.88 76.50 76.88 76.85 76.62 75.75 75.65 75.66 75.48 75.66 75.09 74.84 72.32 71.78 72.84 72.47 74.34 76.77 76.07 75.46 75.17 74.44 73.96
74.12 75.11 75.22 75.71 76.39 77.58 77.60 77.47 77.11 77.01 77.33 77.64 77.78 77.73 77.07 77.32 76.96 76.77 77.05 76.29 76.84 77.00 76.87 76.01 75.72 76.07 75.62 75.86 75.71 74.84 74.64 75.73 71.80 70.58 73.09 72.75 75.99 76.61 76.41 75.62 74.34 74.08 73.67
74.00 74.52 74.77 75.14 74.84 75.12 75.73 78.16 77.71 77.81 77.34 77.34 77.23 77.37 77.34 77.16 77.03 77.03 77.17 76.34 76.46 76.75 75.63 75.47 76.51 76.34 76.32 75.79 74.66 74.61 75.41 75.84 71.92 70.46 71.99 72.49 75.87 75.41 74.90 74.49 73.89 74.07 75.57
72.47 73.71 74.56 74.49 73.55 74.04 74.61 76.01 77.80 77.46 77.46 77.14 76.59 77.15 76.92 73.93 74.34 75.18 75.95 75.75 75.90 76.76 76.69 76.63 76.06 76.47 76.04 74.81 74.98 75.53 75.32 72.26 71.12 71.56 71.60 74.87 75.79 75.28 74.92 75.22 75.54 74.42 74.94
70.21 72.34 73.84 73.46 73.16 73.32 74.82 74.15 74.42 74.02 74.19 74.38 74.63 74.18 73.69 73.33 73.51 74.84 75.97 76.11 75.17 76.61 76.64 76.79 76.44 75.84 74.91 72.27 72.44 74.34 72.60 72.34 72.22 71.20 71.47 75.69 76.17 75.74 76.36 76.29 75.82 75.00 74.39
70.29 71.84 72.76 72.57 73.08 73.39 73.87 72.99 74.07 73.15 73.04 72.57 73.17 73.16 73.08 72.83 73.75 74.24 73.17 74.22 72.25 74.72 73.47 75.21 74.47 73.34 72.66 71.78 71.10 70.66 71.02 71.95 71.81 71.22 71.50 76.07 76.65 76.72 76.53 75.59 75.79 74.94 74.12
69.77 70.93 72.11 72.39 72.53 72.93 73.51 73.39 73.38 73.23 72.94 71.98 71.87 72.26 72.37 71.97 71.87 72.08 72.05 72.62 72.15 71.75 72.39 73.23 72.64 72.57 71.82 71.77 71.34 70.61 70.95 70.88 70.34 70.21 70.14 75.83 76.62 77.32 77.25 76.23 75.66 75.29 74.63
69.55 70.64 71.39 71.99 72.01 72.44 72.49 72.99 72.65 72.53 72.50 72.32 71.51 71.59 72.39 71.33 70.97 71.51 71.28 71.65 71.19 69.81 71.03 71.53 71.53 71.84 71.34 71.17 71.07 70.80 69.94 69.12 69.14 69.62 69.64 75.97 76.29 76.55 77.29 75.87 75.60 76.04 75.19
70.07 70.22 71.40 71.59 71.65 71.94 72.10 72.49 72.18 72.32 71.97 71.91 71.67 71.97 72.10 71.71 70.24 71.48 71.35 71.62 70.76 69.84 69.00 70.88 70.70 70.67 70.60 70.59 70.17 70.32 70.11 69.59 70.56 71.85 71.14 74.30 76.48 75.77 76.18 76.69 76.78 75.94 75.38
70.04 70.38 70.81 71.29 71.58 71.14 71.58 71.78 71.69 71.82 72.10 71.67 71.67 71.81 72.60 71.65 70.19 71.09 71.30 71.46 71.28 70.18 68.59 68.60 69.92 69.79 69.43 69.43 69.05 69.27 69.40 68.98 69.97 70.93 70.39 72.94 73.84 76.40 76.20 76.92 77.40 76.86 76.55
70.29 69.64 70.73 71.71 71.07 70.85 71.10 71.10 71.07 71.30 71.56 71.46 71.54 71.90 72.53 72.09 70.83 70.33 70.53 70.89 71.42 70.74 69.36 67.81 68.01 68.44 68.75 68.41 68.01 68.35 68.52 68.65 68.56 70.48 70.21 70.80 72.26 72.67 75.17 76.63 76.43 76.21 76.81
70.32 69.99 69.93 70.65 70.45 70.49 71.43 71.21 70.64 70.84 70.97 71.47 71.32 71.72 71.98 72.35 71.77 70.08 70.17 70.23 70.78 70.58 70.40 69.52 68.64 68.08 67.60 67.81 68.23 68.43 68.44 67.96 67.75 68.93 69.46 70.71 71.29 72.52 72.50 74.46 76.31 76.27 76.63
70.68 70.58 70.45 70.51 70.45 70.67 71.39 71.75 71.07 71.11 71.13 71.06 71.30 71.71 71.64 72.13 72.09 70.63 70.18 69.94 70.58 70.02 69.86 69.63 69.27 69.29 68.55 68.21 69.41 69.42 68.78 68.84 68.55 67.53 67.92 68.84 70.62 71.71 72.04 71.96 72.22 73.98 76.71
70.78 70.39 70.45 70.02 70.56 70.77 70.57 70.35 70.30 69.78 70.66 70.46 71.21 71.94 71.71 72.20 72.10 71.36 70.50 70.09 70.44 69.98 69.87 69.99 69.32 68.23 68.30 67.90 66.64 66.40 66.96 68.43 68.55 69.06 69.43 68.20 68.19 69.63 71.37 71.76 71.40 71.81 72.40
70.18 70.66 70.59 70.81 70.87 70.93 70.88 70.73 70.94 70.85 71.03 71.27 71.20 71.03 72.15 72.04 71.66 71.62 70.84 70.16 70.35 70.35 69.41 69.43 69.22 67.47 68.03 68.28 65.65 63.96 62.45 64.27 65.74 67.81 68.76 69.98 69.41 69.68 69.55 71.00 71.58 71.74 72.12
69.76 70.41 70.87 71.26 71.40 71.33 71.34 71.15 69.21 69.35 69.25 69.05 69.61 70.49 71.03 72.01 71.37 71.60 70.84 70.57 70.36 70.57 69.45 69.29 68.80 67.94 65.88 67.33 67.56 64.96 60.99 60.67 62.32 65.78 66.60 68.31 69.49 69.54 69.99 70.22 70.89 71.48 72.02
69.15 70.43 71.21 71.78 71.80 71.46 71.61 70.79 69.65 68.64 68.18 69.94 69.88 70.59 71.04 71.84 71.67 71.52 70.97 70.32 69.91 70.22 69.24 69.47 69.99 68.91 67.87 65.96 66.20 67.83 65.68 64.51 61.69 60.78 64.97 66.71 68.08 68.57 68.68 69.35 70.63 71.05 72.31
70.30 70.39 70.84 71.86 72.28 71.93 70.95 70.55 70.37 68.93 69.17 69.77 68.11 69.16 70.33 71.16 71.78 72.07 71.28 70.45 70.02 70.15 69.78 69.45 69.22 69.04 68.71 66.50 66.05 65.93 66.67 65.61 64.55 63.16 61.91 64.88 66.51 67.83 68.71 69.25 69.45 69.04 69.99
68.50 70.78 70.80 70.48 70.86 71.96 71.52 70.33 69.75 69.49 68.60 67.21 68.14 68.17 69.36 70.11 70.87 71.36 71.72 71.07 70.78 70.75 70.12 69.65 69.78 69.45 69.16 68.66 67.02 65.89 65.67 64.83 64.62 63.48 63.58 63.77 64.60 66.53 67.20 68.73 69.18 69.38 69.50

GFSSE_sfc_wetblb_108.txt.gz
Wetbulb
70.44 74.59 77.54 77.93 77.82 77.15 77.56 78.26 77.93 78.35 78.27 78.03 77.92 77.64 77.74 77.68 77.59 77.20 77.29 77.68 77.13 76.87 76.91 76.78 76.75 76.86 77.16 76.63 76.36 76.36 76.19 76.48 76.85 76.74 76.54 76.51 75.50 75.92 75.87 76.03 75.74 74.40 74.35
72.18 75.23 77.89 78.20 77.96 77.56 77.53 78.31 78.47 78.16 78.49 78.44 78.02 78.33 78.31 78.07 78.05 77.61 77.82 77.75 76.96 76.33 76.69 76.74 76.72 76.69 76.90 76.54 75.50 76.19 76.07 76.52 76.78 76.52 76.16 75.44 74.91 74.96 75.71 75.29 74.88 73.98 74.36
72.87 75.20 76.75 78.05 78.02 77.29 77.57 78.19 78.21 78.16 77.62 77.69 78.46 78.30 77.99 77.90 77.93 77.96 78.04 77.50 76.36 76.47 76.27 76.23 76.31 76.50 76.49 76.35 75.81 76.05 76.42 77.30 77.29 76.17 75.85 74.04 72.64 73.41 73.60 74.14 74.03 73.48 73.94
73.84 75.31 75.71 77.81 77.80 77.56 77.76 77.94 78.12 77.98 77.86 77.94 77.94 78.32 78.37 78.08 77.77 77.75 77.10 76.94 76.60 76.47 76.14 76.11 76.01 76.36 76.41 76.29 76.02 76.04 76.54 76.24 76.05 75.92 73.88 74.28 73.10 74.64 75.34 74.57 73.70 74.34 75.26
74.12 75.22 75.64 78.49 78.14 77.11 77.32 77.87 78.01 77.84 78.02 78.25 78.03 78.01 77.90 77.82 77.83 77.35 76.67 76.61 76.69 76.33 76.17 76.19 76.22 76.39 76.29 76.23 76.29 76.20 76.39 75.94 75.82 73.71 72.83 73.74 74.87 74.34 75.63 75.48 74.81 75.33 75.40
73.96 74.72 77.15 78.77 78.46 77.77 77.25 77.79 77.93 78.08 77.95 78.18 78.31 77.33 77.29 77.51 78.23 77.86 76.94 76.44 76.50 76.25 76.44 76.86 76.36 76.44 75.88 75.90 76.03 75.76 76.02 75.76 74.93 72.59 72.78 74.96 74.41 75.40 74.36 75.20 75.76 75.32 74.84
73.47 74.54 76.62 78.61 78.75 78.31 77.99 77.98 78.07 78.13 78.11 77.60 77.25 77.91 77.57 77.58 77.79 77.93 77.23 77.40 77.64 77.19 77.57 76.91 76.56 75.92 76.29 75.93 75.93 75.90 76.66 75.82 73.29 72.53 72.67 74.26 73.82 76.86 75.64 74.47 73.73 73.94 74.81
73.14 74.39 75.96 77.97 78.48 78.35 77.66 77.35 77.50 77.31 77.27 77.57 77.67 77.62 77.49 77.48 77.32 77.88 77.95 76.84 76.88 77.24 77.54 77.31 76.64 76.00 75.99 75.79 75.46 75.58 75.99 75.42 74.04 72.44 73.28 73.89 73.94 76.13 75.19 75.64 74.13 72.90 73.69
73.40 74.93 75.29 75.68 76.55 77.70 78.03 77.61 77.80 77.76 77.70 78.04 78.15 78.21 77.73 77.26 77.01 77.24 78.04 77.54 76.75 76.76 77.07 76.86 76.35 75.88 76.00 75.54 75.58 75.57 74.94 74.53 72.29 73.29 73.55 73.72 75.17 75.96 76.17 75.06 75.26 73.99 73.93
73.48 74.34 74.53 75.20 74.99 75.44 75.65 78.26 78.02 78.03 77.41 77.46 77.59 77.54 77.42 77.29 77.13 76.90 77.41 76.74 76.99 76.92 76.85 76.29 75.94 76.01 76.34 75.69 75.40 74.47 75.16 75.79 72.64 73.15 74.01 73.85 75.12 75.99 76.09 75.38 74.32 74.27 73.65
73.33 73.87 74.54 74.52 73.96 74.34 74.87 76.11 77.56 77.33 77.58 77.42 77.25 77.45 77.07 75.11 75.10 75.74 75.64 76.13 76.74 76.93 75.70 76.19 76.07 76.35 76.24 75.57 74.50 74.84 75.40 73.06 72.78 72.37 73.44 74.77 75.39 75.26 74.88 74.43 73.96 73.90 75.52
70.71 72.23 74.15 73.87 73.51 73.81 75.04 75.08 75.09 74.77 75.14 74.92 75.12 75.37 74.63 74.20 74.62 75.29 75.73 75.20 76.35 76.95 76.49 76.32 76.39 76.36 75.65 72.96 73.82 75.72 74.49 73.27 72.84 72.36 72.82 75.34 75.46 75.58 75.06 75.75 75.85 74.47 74.71
70.54 71.39 72.19 73.54 73.27 73.59 74.04 73.40 74.08 73.14 73.62 73.98 74.13 74.18 74.05 73.86 75.04 75.38 74.80 74.13 73.07 76.11 74.80 75.56 75.02 74.09 73.21 72.97 72.97 72.80 72.84 73.08 73.42 73.02 73.11 75.59 75.96 75.40 76.03 76.82 76.04 75.49 74.61
69.69 70.98 71.87 73.00 73.25 73.42 73.74 73.19 73.36 73.13 72.97 72.70 73.52 73.70 73.27 72.70 73.35 73.57 73.53 73.98 72.68 73.18 73.69 74.51 73.84 73.68 73.22 73.11 72.53 71.98 71.66 72.02 72.36 72.47 72.30 74.84 76.52 76.11 76.16 76.87 75.72 75.75 75.17
68.99 70.50 71.49 72.34 72.72 73.22 73.31 73.55 73.25 73.01 73.06 72.48 72.43 73.04 73.13 72.34 72.13 72.57 72.38 73.09 73.06 72.13 73.10 73.55 73.25 73.17 72.71 72.42 72.50 72.30 71.89 71.72 71.36 71.51 71.56 74.52 76.80 76.39 77.11 77.00 76.21 75.41 75.56
69.17 70.02 71.64 71.88 72.51 72.81 72.88 73.14 72.82 73.08 73.09 72.55 72.25 72.52 72.95 72.34 71.90 72.50 71.84 72.49 72.37 71.51 71.37 72.75 72.60 72.52 72.27 72.25 71.79 71.91 71.98 71.92 71.84 72.56 71.78 73.90 76.84 76.49 77.02 77.45 76.62 75.83 76.13
69.29 70.13 70.97 71.36 72.06 72.12 72.09 72.53 72.81 72.91 72.96 72.68 72.31 72.16 72.75 72.45 71.64 72.39 72.12 72.18 72.46 71.88 70.85 71.14 71.88 71.83 71.60 71.25 71.13 71.16 71.15 71.51 71.24 72.83 72.12 74.08 76.17 76.59 75.99 76.39 77.03 77.19 76.88
69.79 69.64 70.97 71.67 71.44 71.32 71.72 72.44 72.20 72.33 72.68 72.49 72.58 72.32 72.61 72.58 71.95 71.85 71.87 72.09 72.78 72.10 70.92 69.62 70.30 70.56 70.51 70.38 70.28 70.35 70.90 70.85 71.25 71.78 72.47 72.77 73.93 73.97 75.71 76.40 76.49 76.84 76.66
70.28 69.97 70.06 71.05 70.69 70.74 71.07 71.40 71.49 71.50 71.71 71.83 71.96 72.19 72.52 72.75 72.05 71.66 71.66 71.91 72.59 72.12 71.15 69.91 69.12 69.95 69.78 70.09 70.11 70.54 70.90 70.77 70.95 70.78 71.97 72.12 72.71 73.78 73.49 74.51 76.36 76.22 76.83
70.53 70.04 70.18 70.47 70.61 70.46 70.65 70.74 70.47 70.36 70.98 71.41 71.29 71.82 72.29 72.81 72.68 71.30 71.56 71.33 72.10 71.77 71.48 71.04 70.11 70.18 70.03 69.35 69.43 70.38 70.84 70.97 70.92 70.09 70.53 70.88 72.56 73.08 73.79 74.09 74.00 74.94 75.88
70.19 69.87 69.82 69.48 69.95 70.03 69.75 69.40 69.25 68.96 69.89 70.34 71.23 71.97 72.04 72.62 72.66 71.83 71.09 70.92 71.44 70.93 71.30 71.53 71.31 70.71 70.25 70.58 69.82 69.51 70.18 71.01 70.82 71.14 71.41 70.55 70.74 71.62 72.99 73.89 73.59 73.56 73.73
69.50 69.71 69.68 69.58 69.82 69.81 69.85 70.26 70.15 70.15 70.50 70.84 71.34 71.77 72.18 72.29 72.43 72.09 71.41 70.62 70.87 70.78 70.66 70.81 70.92 69.89 69.67 69.11 67.78 67.31 66.59 68.01 68.63 69.99 70.78 71.34 71.66 72.01 71.24 72.69 73.67 73.97 73.86
69.50 69.55 69.69 69.87 69.87 70.04 70.04 70.29 70.12 70.59 70.21 70.36 70.36 70.75 71.81 72.34 72.64 72.38 71.81 71.38 70.77 71.14 70.35 70.52 70.67 70.12 69.17 68.82 69.22 67.87 63.74 64.58 65.36 68.09 69.06 69.89 71.51 71.90 72.20 72.68 72.64 73.47 73.94
69.60 70.53 70.45 70.65 70.48 70.70 70.85 69.99 69.56 68.88 68.56 69.96 70.55 71.21 71.50 72.42 72.38 72.44 71.98 71.64 71.14 71.00 70.77 70.65 71.32 70.73 69.65 67.85 69.16 69.40 68.17 67.65 65.52 64.84 68.47 69.77 71.00 71.01 71.95 72.14 73.12 73.10 73.92
69.92 70.43 70.94 70.83 71.09 71.42 71.17 70.99 69.85 69.04 69.55 70.07 70.50 70.22 70.74 71.66 72.42 72.06 72.19 71.27 71.03 71.00 71.23 70.83 70.59 70.10 70.15 69.49 68.95 68.64 69.18 68.34 67.64 66.77 65.28 68.19 69.95 70.88 71.94 71.17 72.59 73.32 73.18
69.92 70.48 71.17 71.04 71.31 71.71 71.41 71.03 70.45 69.79 69.11 68.21 68.89 69.32 69.95 70.71 71.69 72.14 72.02 71.56 71.08 71.07 70.76 70.78 70.98 70.74 70.23 70.61 69.22 68.68 69.04 67.30 67.65 66.87 65.79 66.64 66.97 69.10 70.76 71.70 72.20 72.81 72.74

GFSSE_sfc_wetblb_111.txt.gz
Wetbulb
72.51 75.97 77.41 77.89 77.97 78.05 78.61 78.73 78.64 78.26 78.24 77.79 77.68 77.67 77.90 78.07 77.81 77.82 77.92 77.94 77.71 77.92 77.72 76.82 76.43 76.35 76.75 76.89 77.11 77.17 76.93 77.16 76.61 76.57 76.50 75.53 75.33 76.18 76.45 76.24 75.12 73.52 75.13
74.32 76.44 77.99 78.40 78.43 78.50 78.67 78.83 78.43 78.39 78.39 77.86 77.67 77.72 77.86 78.03 77.63 77.73 78.14 78.01 77.37 77.90 77.31 76.84 76.93 76.90 76.50 76.48 76.64 76.72 77.04 77.02 77.36 76.93 76.42 75.46 76.27 76.28 75.68 75.83 75.03 75.44 75.49
74.92 76.32 77.43 78.16 78.49 78.33 78.61 78.53 78.56 78.41 78.40 78.09 78.15 77.93 77.86 77.80 77.40 77.65 77.22 77.56 76.89 77.09 77.01 76.76 76.79 77.11 76.44 75.93 76.25 76.66 76.74 77.18 77.13 75.62 74.64 73.05 73.90 74.94 74.83 74.86 74.58 73.98 74.33
75.21 76.63 76.48 77.90 78.05 78.46 78.83 78.65 78.49 78.68 78.64 78.25 78.35 78.25 78.23 77.93 77.78 77.57 76.76 76.70 76.89 76.79 76.59 76.48 76.51 76.59 76.48 76.20 76.38 76.84 76.71 76.76 76.78 76.16 74.79 72.32 73.90 74.87 74.54 74.18 73.80 75.48 75.62
75.02 76.46 76.66 78.22 78.26 77.74 78.47 78.58 78.62 78.46 78.32 78.42 78.31 77.98 77.88 78.18 78.13 77.33 76.93 76.81 76.95 76.48 76.43 76.21 76.37 76.59 76.53 76.25 76.35 76.80 76.28 76.36 76.07 75.40 75.72 75.40 74.38 76.12 75.59 74.07 75.57 75.87 74.79
74.09 75.75 77.68 78.49 77.98 77.59 77.82 78.37 78.41 78.49 78.62 78.40 78.46 78.16 78.12 77.74 77.80 77.93 77.20 76.86 76.61 76.40 76.40 76.35 76.09 76.21 76.17 76.41 76.04 76.58 76.00 75.78 75.15 75.24 75.58 75.90 75.36 75.40 76.19 75.78 75.79 75.94 75.03
74.05 75.31 77.28 78.32 78.12 78.07 77.99 78.34 78.16 78.52 78.69 78.71 78.51 78.38 78.00 78.06 78.10 78.08 77.82 76.86 76.78 76.51 77.11 76.79 76.48 76.21 75.71 76.33 75.69 75.95 76.55 75.03 73.70 73.97 75.58 75.37 76.08 75.63 74.76 75.37 75.49 75.21 75.25
73.95 74.78 76.42 78.30 78.21 78.24 77.97 77.82 78.20 77.80 77.52 77.93 78.37 77.89 77.49 77.40 77.45 77.52 78.05 77.44 76.72 77.11 77.05 76.69 76.15 76.46 76.06 76.16 76.11 75.97 76.64 75.59 75.10 74.26 74.17 74.39 74.91 75.96 75.91 74.25 73.35 74.07 74.98
74.61 74.86 75.74 77.29 77.51 77.78 78.06 78.13 78.03 78.10 77.77 77.85 77.97 78.63 78.04 77.92 77.18 77.18 77.29 77.33 77.26 77.18 76.89 76.84 76.39 76.30 76.07 75.88 75.60 75.49 75.11 74.33 75.20 75.37 74.12 74.92 75.04 75.46 75.26 75.95 74.17 72.91 73.52
74.53 75.47 75.54 76.70 76.78 77.04 77.15 78.53 78.38 78.34 78.00 77.76 77.70 77.36 77.74 77.43 77.56 77.19 77.26 77.51 77.00 76.65 76.52 76.93 76.17 76.32 76.16 76.25 75.78 75.05 75.09 75.09 74.77 75.29 75.30 75.03 75.11 75.69 76.32 75.34 74.54 74.12 73.60
73.87 75.26 76.04 76.07 77.01 77.34 77.07 77.13 78.17 77.73 77.57 77.56 77.87 77.83 77.61 76.83 76.80 76.89 77.20 76.98 77.08 76.93 76.75 76.28 76.09 76.43 76.16 75.67 75.26 74.51 75.31 76.77 75.20 75.42 75.81 74.97 74.93 75.54 75.94 75.38 74.37 73.70 73.60
72.22 73.83 75.15 75.93 75.82 76.90 76.09 77.34 77.01 77.26 77.09 77.16 77.23 77.63 77.72 77.58 77.05 76.90 76.08 76.91 77.10 76.54 76.22 76.91 77.09 76.18 75.98 74.75 74.35 74.47 75.93 75.66 75.78 75.88 75.72 75.48 75.38 75.28 75.12 75.18 74.34 73.78 74.66
72.40 73.52 73.85 75.55 76.40 76.34 76.21 76.50 76.52 76.38 77.11 77.04 77.65 78.88 78.18 77.14 78.30 77.88 76.47 74.03 75.67 76.33 74.27 75.81 76.29 74.99 74.61 74.19 74.32 74.56 75.13 74.74 75.30 76.13 76.30 75.35 75.81 75.53 75.41 75.73 75.32 75.59 74.64
72.04 72.95 73.85 74.48 75.84 76.34 76.74 75.90 75.87 75.47 76.62 76.40 76.73 77.66 76.69 75.96 75.53 76.24 75.95 75.39 75.46 77.11 76.40 75.53 75.03 75.40 74.40 74.19 74.08 74.49 74.04 73.59 74.37 75.22 76.06 75.12 76.31 76.18 75.62 76.61 76.66 76.08 75.49
71.79 72.53 73.60 74.70 75.78 76.33 75.98 75.57 75.79 75.37 75.98 76.36 76.32 77.14 76.93 75.60 75.49 75.92 75.57 76.07 74.06 75.55 75.73 75.96 75.76 74.87 74.29 73.78 73.93 74.26 73.59 74.26 74.64 75.17 75.34 75.59 76.48 76.82 76.62 76.21 76.78 76.06 75.60
72.30 72.50 73.63 72.86 74.80 76.04 75.83 76.19 75.66 75.43 75.89 76.18 76.06 76.37 77.26 75.85 75.61 75.68 75.45 75.09 75.49 74.37 75.09 75.96 75.37 74.54 73.99 73.74 73.59 74.27 74.47 75.05 75.21 75.39 75.99 76.02 76.01 77.12 76.96 77.36 77.61 77.00 75.87
72.06 73.02 73.10 72.64 73.22 73.44 74.81 75.42 75.50 75.12 75.14 74.62 75.63 76.73 76.67 76.76 76.20 75.92 75.06 74.23 75.36 75.62 76.37 76.09 76.05 75.39 73.71 73.62 73.35 73.70 74.31 74.67 74.77 75.21 75.98 75.95 76.53 77.02 77.12 77.24 77.69 77.46 76.97
72.53 72.34 73.49 72.93 72.51 73.17 73.39 74.80 73.95 74.82 74.81 75.05 75.39 75.79 76.61 76.63 76.40 75.74 74.35 73.94 74.94 75.78 75.24 73.69 73.66 73.30 73.18 72.72 72.65 72.94 73.48 74.19 74.77 75.13 75.42 75.96 75.97 76.06 76.78 76.78 76.86 76.69 76.95
72.75 72.73 73.03 73.47 73.27 73.67 74.33 74.37 74.22 74.69 74.31 74.51 75.04 74.77 76.33 76.25 75.86 75.22 74.59 75.11 75.75 74.98 74.35 73.96 72.84 72.42 72.59 72.84 72.40 72.84 73.36 73.76 74.69 74.22 74.89 75.65 76.06 75.44 75.39 75.78 76.15 76.26 76.76
73.19 73.10 73.23 73.83 74.34 74.36 74.25 74.36 73.52 73.52 74.17 74.43 74.62 75.26 75.60 75.55 75.67 75.20 74.90 75.49 75.89 75.21 74.68 74.30 73.32 72.69 71.07 72.05 71.55 71.35 73.15 74.05 74.86 74.86 74.95 74.79 75.23 75.88 75.76 76.52 76.51 76.22 76.52
73.44 72.90 72.91 73.38 74.41 73.98 72.64 71.73 71.73 70.74 72.45 73.75 74.57 75.45 75.95 75.50 74.96 75.03 74.27 74.95 75.05 74.50 74.80 75.05 74.27 73.56 71.08 72.64 71.65 71.53 72.78 74.36 74.31 74.44 75.05 74.64 74.50 74.85 75.50 75.93 76.05 75.88 75.63
72.83 73.37 73.82 73.56 73.91 73.71 73.00 73.10 72.48 72.53 72.02 72.82 73.57 74.32 74.82 74.92 75.27 74.85 74.64 74.42 74.76 73.94 74.66 74.87 74.65 73.08 72.89 73.78 70.54 70.87 67.84 70.30 72.79 73.83 74.42 74.48 74.73 75.15 74.86 75.27 75.87 76.23 76.45
72.53 73.14 73.26 73.93 74.36 74.28 74.43 73.59 72.90 72.81 72.33 71.61 72.07 72.74 73.91 74.74 75.38 75.73 75.67 75.18 75.06 74.67 73.41 74.31 74.45 74.07 73.39 73.66 73.46 73.19 68.97 66.01 70.02 72.27 73.62 73.82 74.35 74.36 74.83 75.42 76.09 76.48 77.00
72.44 73.44 73.79 73.65 74.01 73.56 74.73 73.61 73.07 71.03 69.90 71.06 71.74 72.45 73.36 74.65 74.86 75.38 75.93 75.52 75.30 75.04 74.82 74.20 74.30 73.72 74.71 72.09 72.86 72.30 72.82 71.45 68.82 66.63 71.57 72.96 73.97 74.02 74.87 75.07 74.96 75.84 76.73
72.43 72.98 73.49 73.64 73.91 74.33 74.06 74.19 73.25 72.62 72.20 72.34 72.24 74.05 74.63 74.83 75.00 75.18 75.48 75.48 75.11 74.91 74.77 74.67 74.39 74.06 73.46 72.22 73.74 74.35 73.60 73.35 72.89 69.87 67.08 68.99 71.96 73.31 74.33 74.99 74.86 75.12 76.08
72.39 72.95 73.25 73.56 73.67 74.26 74.03 74.11 74.11 73.54 73.21 71.98 72.80 72.70 72.97 73.91 74.26 75.38 75.50 75.64 75.69 75.42 74.82 74.90 74.83 74.91 75.03 74.22 74.28 75.07 73.28 70.47 70.58 70.72 69.03 69.26 69.05 71.18 72.67 73.26 73.30 73.90 74.82

GFSSE_sfc_wetblb_114.txt.gz
Wetbulb
75.00 76.40 78.13 78.35 77.82 79.19 79.02 78.62 78.52 78.11 77.37 77.73 77.47 77.70 77.60 77.94 77.72 78.23 77.82 77.62 77.60 77.03 76.62 76.34 76.65 77.17 77.28 77.36 77.38 77.25 77.00 77.18 77.26 76.11 76.05 75.91 75.93 75.92 75.66 74.92 76.95 76.30 75.78
76.05 76.92 77.89 78.73 78.89 79.30 79.18 79.13 78.54 78.00 77.65 77.66 77.66 77.69 77.49 78.14 78.33 78.08 77.97 77.99 77.93 77.56 76.87 76.98 77.20 77.09 77.11 77.11 77.18 77.25 76.97 77.47 77.08 76.12 76.78 77.19 76.90 76.44 76.09 75.64 77.21 75.11 75.78
75.81 76.92 77.59 78.75 79.19 79.26 79.14 79.06 78.86 78.31 77.51 77.57 77.91 77.43 77.48 77.81 77.86 78.22 78.21 78.09 77.88 77.50 77.04 77.09 77.09 76.67 76.51 76.81 77.16 77.05 77.37 77.27 76.95 75.98 76.59 75.04 76.07 75.69 75.79 74.90 75.64 75.57 74.95
75.97 77.22 76.70 78.39 78.82 79.15 78.94 78.82 78.75 78.50 77.47 77.84 77.97 77.78 78.14 77.72 77.87 77.87 77.44 77.49 77.53 77.42 77.01 77.01 77.15 76.75 76.04 76.50 76.83 77.02 76.60 76.16 75.70 75.19 72.93 71.69 72.58 74.68 74.54 74.18 75.67 75.79 76.03
76.11 77.13 77.58 78.86 79.13 79.12 79.08 78.85 79.05 78.68 78.52 78.45 78.01 77.81 77.65 77.69 77.87 77.20 77.11 77.19 77.25 77.01 76.93 76.81 76.98 76.64 76.53 76.47 76.79 76.70 77.00 76.88 76.15 76.27 74.51 75.89 75.70 74.86 74.15 75.71 76.16 75.42 75.70
76.33 76.69 77.88 78.85 79.09 78.83 78.88 78.85 79.02 78.79 78.76 78.79 78.58 78.11 77.69 77.72 77.71 77.94 77.23 77.14 76.89 76.81 76.65 76.54 76.50 76.92 76.56 76.41 76.67 76.61 76.31 75.97 75.79 75.41 75.54 74.51 76.25 76.05 74.81 75.76 76.26 75.65 74.30
76.09 76.66 77.61 78.61 78.80 78.77 79.03 79.06 79.03 78.85 78.73 78.78 78.45 77.90 78.26 77.94 78.36 78.42 77.83 77.28 76.92 76.51 76.62 76.53 76.65 76.42 76.53 76.21 76.43 76.09 75.82 74.73 74.67 74.96 75.28 75.50 75.17 76.28 76.31 76.29 76.13 75.13 74.67
75.27 76.66 77.49 78.02 78.47 78.52 78.58 78.34 78.73 78.45 78.29 78.18 78.34 78.15 78.50 78.39 78.31 77.94 77.60 76.94 77.05 76.97 76.94 77.01 76.59 75.95 76.39 76.03 75.91 75.87 75.45 75.23 74.69 73.90 74.54 75.61 75.62 75.74 74.59 74.76 75.04 75.50 75.62
75.28 76.32 76.87 77.05 77.28 77.50 78.35 78.27 78.59 78.58 78.30 78.43 78.35 78.37 78.27 77.77 77.08 76.82 77.21 77.18 77.32 76.89 76.71 76.85 76.40 76.12 76.25 76.46 76.20 75.93 75.28 75.36 76.42 74.97 73.89 74.13 75.17 75.93 75.92 74.68 73.08 73.67 74.49
75.06 75.92 76.53 76.76 76.68 76.59 77.51 78.55 78.57 78.51 77.85 77.57 77.69 77.48 77.45 77.45 77.44 77.30 76.70 76.84 77.05 77.32 76.63 76.88 76.56 76.65 76.24 76.18 75.69 75.58 75.20 75.94 75.35 74.79 75.04 75.45 75.64 75.70 75.87 76.19 75.03 73.76 73.96
74.61 75.54 76.48 76.84 76.81 76.86 77.12 77.58 78.34 77.60 77.33 77.19 77.56 77.85 77.69 77.04 77.48 76.98 76.87 76.78 76.61 76.59 76.61 76.57 76.66 76.58 76.09 75.90 75.74 74.76 75.71 76.53 74.65 75.04 74.98 74.88 75.42 75.34 76.86 75.61 74.92 74.51 73.31
73.63 75.15 75.80 76.75 76.72 76.77 76.72 77.74 77.21 77.22 77.86 77.57 77.67 77.97 78.77 77.82 76.85 76.97 76.79 76.80 76.83 76.62 76.34 76.31 76.81 76.42 76.11 75.90 75.60 74.79 75.79 75.67 76.47 75.83 76.67 75.49 74.99 75.29 75.71 75.26 74.57 73.74 73.72
74.09 74.83 75.82 76.24 77.25 76.95 76.54 76.88 77.14 77.32 77.34 77.74 77.81 78.68 77.76 77.81 78.17 76.67 76.55 76.11 77.05 76.24 76.22 76.06 76.09 75.11 74.57 74.67 74.14 74.68 75.55 76.20 76.29 77.04 76.93 76.13 75.61 75.75 75.34 75.19 75.02 74.90 73.87
73.79 74.70 75.91 76.65 77.04 76.96 76.65 76.62 76.58 75.71 76.40 77.06 76.53 78.72 78.79 77.44 76.82 77.39 75.82 74.64 75.00 76.68 75.79 74.05 73.91 75.20 74.28 75.15 74.70 75.15 75.63 75.25 75.74 76.62 77.33 76.20 76.39 76.10 75.78 75.63 75.78 75.75 75.76
73.74 74.81 75.76 76.54 77.72 77.74 77.46 76.82 76.67 75.60 75.50 77.13 77.46 77.96 77.36 75.72 76.09 75.87 76.83 75.89 73.56 76.08 76.67 76.47 74.73 75.23 74.50 74.82 74.92 75.32 75.39 74.78 75.39 76.46 76.63 76.86 76.56 76.79 76.34 76.06 76.13 76.80 76.42
74.63 74.93 75.79 75.78 77.27 77.79 77.82 77.88 76.11 76.03 75.95 76.06 76.44 77.42 77.83 76.39 76.42 75.75 76.25 75.04 74.86 74.13 75.81 76.17 75.81 75.54 74.24 73.39 73.94 74.55 75.48 75.34 75.79 76.47 76.32 77.89 77.02 77.20 76.94 76.68 77.06 77.11 76.46
75.48 75.79 75.43 75.72 75.67 77.01 77.40 76.87 76.40 75.84 75.73 75.24 75.61 76.86 77.01 77.14 77.00 76.81 75.36 74.44 75.66 74.65 75.01 76.36 76.00 74.99 73.34 73.02 73.16 73.57 75.16 75.48 75.37 76.10 76.55 77.13 76.85 76.72 77.32 77.32 77.49 77.84 77.73
75.92 75.78 76.02 75.56 75.33 75.91 76.97 76.40 75.66 75.83 75.38 75.24 75.16 76.10 77.46 77.39 77.18 76.41 75.24 74.34 74.98 76.20 73.96 74.91 74.75 73.72 72.62 72.43 72.45 73.12 74.24 74.87 75.34 76.30 76.51 76.62 76.70 76.94 77.29 77.58 76.97 77.19 77.71
76.04 76.17 75.83 75.83 74.47 75.87 76.56 76.31 76.20 76.64 75.68 75.02 75.16 75.24 77.22 76.72 76.64 76.02 74.66 74.74 75.92 74.59 74.58 73.12 73.01 73.26 71.96 72.16 72.17 73.22 73.79 73.72 74.79 74.96 75.58 76.36 77.11 76.75 76.41 77.41 76.71 76.64 76.94
76.12 76.40 76.16 75.77 75.48 75.74 75.40 75.56 75.18 74.64 75.21 75.48 75.09 75.36 76.37 76.48 76.50 75.61 75.24 75.54 75.89 73.98 73.50 73.36 73.50 73.01 72.45 72.42 72.31 72.31 73.02 73.56 74.12 74.81 75.34 75.97 76.24 76.49 76.82 76.88 77.38 77.13 76.25
75.93 75.67 75.83 75.31 76.00 75.16 74.91 73.74 73.44 72.75 73.71 74.28 74.75 76.29 76.32 76.14 76.12 76.35 74.97 77.43 77.39 75.17 74.78 75.21 74.07 73.42 71.72 72.36 71.38 71.30 72.10 73.43 73.68 74.36 75.42 75.38 75.44 75.95 76.51 76.50 76.62 76.31 76.13
75.48 75.72 75.70 75.54 76.03 75.78 75.32 75.74 74.84 74.34 73.75 74.06 75.17 76.03 76.72 76.72 76.19 75.58 75.23 75.16 76.18 75.99 76.22 75.89 75.06 72.37 71.82 71.50 69.81 69.27 66.96 69.37 71.53 72.92 73.88 73.99 74.29 74.96 75.24 75.73 76.49 77.07 77.28
74.16 75.32 75.70 76.19 76.58 76.48 77.11 75.53 74.76 75.07 74.34 73.27 73.80 74.13 75.67 76.21 76.35 76.10 75.46 75.46 76.45 76.40 76.94 76.27 76.12 74.79 71.17 72.28 73.82 68.86 66.48 65.35 68.77 72.56 73.75 74.45 74.91 74.68 75.66 76.27 76.58 77.20 77.86
72.93 75.41 76.20 76.55 76.81 76.37 77.64 76.08 76.38 73.21 72.31 72.97 73.60 73.94 74.58 75.60 75.58 76.10 76.48 76.53 78.33 77.64 77.98 76.11 75.81 76.00 76.99 74.51 76.81 74.36 73.87 72.38 67.46 66.63 72.31 73.67 75.30 75.51 76.33 75.97 75.90 76.54 77.31
73.91 74.96 74.93 75.76 75.69 76.59 76.61 77.09 75.62 74.98 74.10 74.45 74.12 76.06 75.86 76.51 75.42 75.44 76.55 76.53 76.70 77.21 77.20 77.31 77.24 76.71 76.59 75.89 74.98 76.29 74.34 72.62 75.29 70.58 67.67 70.07 73.02 73.82 74.94 75.64 76.01 75.72 76.44
74.33 74.18 74.13 75.12 75.90 76.16 76.29 76.47 76.98 76.95 76.23 74.41 74.70 73.80 73.55 73.82 74.75 76.02 75.73 76.75 77.51 77.19 77.50 77.31 77.16 76.38 75.86 75.58 77.17 75.65 71.41 72.24 72.38 70.97 71.32 70.89 70.57 72.30 73.69 74.61 74.55 74.59 74.90

GFSSE_sfc_wetblb_117.txt.gz
Wetbulb
73.56 75.41 77.67 77.82 77.86 78.49 78.13 78.23 77.70 77.52 77.61 77.79 77.84 77.68 77.58 77.41 77.65 78.17 77.72 77.76 77.40 77.66 77.03 77.28 77.60 77.66 77.85 77.79 77.74 77.38 77.02 77.35 77.02 77.22 75.88 75.55 75.44 75.55 76.21 76.21 77.67 75.21 75.59
75.60 76.38 78.30 78.74 79.17 79.30 78.75 78.55 78.04 77.78 77.39 77.44 77.87 77.83 77.78 78.00 77.53 77.78 77.66 77.51 77.52 77.28 76.64 77.03 77.42 77.58 77.73 77.38 77.30 77.05 76.77 76.87 75.83 75.75 77.07 77.35 76.92 76.55 76.47 77.14 77.42 75.88 75.73
75.95 76.94 77.60 78.96 79.54 79.60 79.29 78.76 78.25 78.22 77.41 77.52 77.84 78.02 77.44 77.66 77.94 78.01 78.15 77.95 77.99 77.33 77.31 77.20 76.97 77.08 77.30 77.29 77.29 77.27 77.44 77.14 76.87 77.60 78.33 74.80 76.05 76.04 76.40 76.40 76.19 75.48 75.47
76.19 76.66 77.35 78.96 79.30 79.54 79.25 79.02 78.57 78.26 77.65 77.53 77.48 77.73 77.85 77.96 78.23 77.90 77.79 77.80 78.21 77.14 77.20 77.36 76.58 76.42 76.91 77.02 77.23 76.95 76.87 76.00 75.55 75.94 76.21 72.93 72.78 75.00 74.50 75.00 74.91 74.53 74.68
76.20 76.98 78.49 79.40 79.46 79.44 79.18 78.95 78.70 78.50 78.16 77.93 77.72 77.85 77.74 77.81 78.29 77.93 77.77 77.39 77.44 77.33 76.83 77.06 76.86 76.58 76.69 77.15 77.03 76.70 76.63 75.97 75.83 75.95 74.53 73.28 72.96 73.85 75.54 76.50 76.13 76.21 76.71
75.97 76.88 78.44 79.37 79.51 79.29 79.22 79.09 78.88 78.64 78.54 78.29 77.86 77.94 77.64 78.02 78.14 77.35 77.51 77.35 77.19 76.94 76.70 77.11 76.86 76.44 76.52 76.88 77.02 76.54 76.43 75.88 76.26 75.51 74.62 76.42 73.75 74.78 75.88 76.42 75.58 74.39 75.78
76.11 77.38 77.82 79.01 79.23 79.36 79.24 79.34 78.96 78.80 78.97 78.57 78.27 77.53 77.85 77.62 77.71 77.30 77.11 77.24 76.96 76.64 76.42 76.38 76.92 76.64 76.55 76.10 76.85 75.98 75.30 75.75 76.15 74.43 74.58 75.10 76.58 76.45 76.40 76.59 76.02 74.14 74.25
76.03 76.55 76.81 78.71 78.88 79.05 78.94 78.83 78.55 78.17 78.02 78.14 78.07 77.72 77.66 78.28 77.78 77.37 77.41 76.99 76.61 76.50 76.56 76.36 76.57 76.08 76.52 76.08 76.25 75.93 74.78 75.22 75.71 74.07 74.12 75.15 76.07 76.37 76.33 76.00 75.32 75.51 75.52
76.33 75.95 76.09 77.08 78.28 77.95 78.47 78.66 78.35 78.30 77.91 78.44 78.26 78.22 78.06 77.74 77.51 77.24 77.67 76.82 76.80 76.66 76.65 76.43 76.47 76.03 76.30 75.83 75.74 75.85 76.05 76.71 76.34 73.56 74.00 75.86 76.43 75.45 74.53 73.87 74.29 75.28 74.66
76.15 76.39 76.00 76.20 76.94 77.12 77.55 78.41 78.62 78.58 77.61 77.56 77.57 77.38 77.30 77.16 77.08 76.83 77.35 77.18 76.84 76.96 76.40 76.51 76.72 76.30 76.43 76.44 75.79 75.63 76.21 76.85 75.95 73.60 74.70 74.41 76.53 75.73 75.84 74.67 73.43 73.48 73.75
74.95 76.27 76.32 75.75 75.96 76.50 76.43 77.22 78.23 77.77 77.96 77.52 77.45 77.58 77.64 76.78 76.55 77.46 77.20 76.99 76.41 76.41 76.44 76.65 76.91 76.53 76.26 75.93 75.63 75.93 75.90 75.85 74.56 73.22 74.97 75.99 76.34 76.44 76.95 75.97 74.89 74.18 73.75
73.39 75.42 76.27 76.27 75.59 75.80 75.22 78.21 76.71 76.55 76.71 77.30 77.31 77.74 76.94 76.75 76.29 76.87 76.78 76.68 76.02 75.89 76.25 76.61 76.76 76.63 76.33 75.56 75.68 75.77 74.87 75.38 74.18 73.80 74.56 75.79 75.71 75.97 77.06 76.29 75.11 74.07 73.64
74.04 74.78 76.09 76.45 77.69 75.52 76.17 76.63 77.00 76.37 77.72 77.56 77.42 79.16 77.44 78.48 77.45 77.03 77.19 75.63 76.67 76.38 75.04 75.90 76.14 74.81 73.96 75.07 73.97 73.28 74.09 74.30 74.33 75.08 75.96 75.89 76.19 75.41 75.40 75.74 75.26 74.49 73.64
74.02 74.68 75.52 76.83 78.91 76.11 77.23 76.78 76.32 75.52 76.40 76.28 76.62 78.18 79.84 76.84 76.51 76.62 75.18 76.16 77.07 75.72 75.36 75.86 73.93 73.81 73.38 74.92 73.88 73.77 74.65 74.26 74.30 76.37 76.85 76.90 76.66 76.37 75.90 75.63 75.51 75.46 75.58
74.00 74.78 75.81 77.13 79.77 79.38 80.11 77.20 76.98 76.97 75.77 76.46 77.96 77.75 78.19 77.06 75.79 76.03 76.51 75.69 74.62 76.34 75.72 76.22 75.48 75.15 75.39 74.00 74.75 75.18 74.03 74.19 74.94 74.29 76.54 77.89 77.09 77.15 76.51 76.35 76.14 76.07 76.25
74.79 75.03 75.86 76.39 79.07 78.86 78.62 80.23 78.43 76.75 76.51 76.27 76.71 77.30 77.30 76.62 77.80 75.55 76.63 75.38 74.44 76.94 75.00 75.98 76.33 75.25 75.83 73.11 74.20 74.35 74.94 74.74 74.60 74.94 75.76 76.40 77.44 77.12 77.01 76.91 76.75 76.81 76.86
75.37 76.04 76.01 76.18 77.34 78.65 79.15 78.68 78.03 76.09 75.26 74.33 76.55 78.12 78.42 77.08 78.15 78.44 76.03 75.65 75.25 76.06 76.69 76.10 77.32 75.86 75.27 73.48 73.77 73.44 74.51 75.17 74.77 76.38 76.71 77.31 77.23 77.43 77.48 77.35 77.54 77.54 77.78
75.93 76.35 76.97 76.34 76.87 77.58 78.52 77.78 76.87 75.69 74.99 74.73 74.43 76.79 78.69 78.03 76.86 77.60 75.54 75.36 75.79 76.26 73.69 75.15 74.98 73.77 73.93 72.22 73.13 72.36 73.89 75.04 75.52 75.71 76.12 76.28 75.15 76.21 76.70 77.76 77.43 77.45 78.03
76.83 77.15 76.89 77.94 76.56 76.89 79.09 77.86 77.54 78.34 76.01 74.71 74.84 74.97 78.63 76.82 76.44 76.70 74.78 74.20 78.21 75.07 74.04 72.78 73.36 74.03 73.12 72.25 71.78 72.23 73.91 73.69 74.34 74.30 75.22 76.46 76.84 75.86 75.42 76.97 77.23 77.30 77.33
76.86 77.60 77.95 77.92 78.65 77.61 77.31 78.80 75.82 75.26 75.45 75.36 74.68 74.57 78.73 76.88 77.04 76.48 75.02 78.35 76.11 73.22 73.56 73.00 74.56 73.66 73.29 72.26 71.42 71.99 73.44 73.38 73.37 73.37 74.13 74.72 76.26 76.58 76.81 77.16 77.08 76.96 76.88
76.83 76.97 76.91 76.19 78.88 76.53 75.78 74.56 74.21 73.06 74.16 74.48 75.27 78.17 78.74 77.02 77.66 77.57 74.33 75.97 76.04 75.10 74.57 77.22 74.51 74.50 71.67 73.18 71.40 71.13 72.54 73.15 73.08 73.13 73.51 73.84 75.63 76.34 76.98 76.39 76.85 75.71 76.09
76.19 77.71 77.45 76.61 78.74 76.46 75.77 76.09 75.01 75.18 74.09 74.33 74.99 77.43 77.33 77.06 77.94 77.49 77.08 75.89 76.76 75.33 75.85 77.25 77.04 71.57 71.63 72.51 69.40 69.36 67.13 69.27 71.42 72.59 73.02 73.38 74.23 75.06 74.91 76.68 77.87 78.98 77.65
74.79 77.04 76.17 77.73 78.39 77.75 77.44 76.96 76.98 76.74 76.11 74.24 74.51 74.86 76.08 77.23 77.84 78.29 78.20 76.92 77.71 77.57 74.07 76.65 73.80 72.14 70.95 72.78 73.21 69.12 65.60 64.58 68.84 71.69 73.78 72.73 75.75 73.45 74.95 74.50 76.73 78.64 80.10
73.56 76.29 76.63 76.01 77.80 77.66 78.70 76.39 76.47 73.56 72.78 74.00 74.32 75.07 76.04 77.73 77.95 78.29 78.22 77.68 77.86 75.74 76.55 75.57 76.31 75.02 76.15 74.27 75.72 72.11 73.71 72.93 68.63 67.37 71.75 73.00 74.13 75.61 78.18 76.14 75.80 76.98 79.50
74.70 76.33 76.79 77.27 78.60 78.37 77.82 77.60 76.05 75.90 74.69 75.03 75.08 76.48 76.38 77.59 78.07 76.65 77.93 77.92 77.70 75.96 77.55 77.87 77.00 76.57 75.19 74.47 74.32 75.36 73.86 73.64 74.01 69.28 66.28 69.93 73.08 74.21 74.80 75.89 75.57 75.85 77.10
73.54 74.86 75.80 76.70 77.95 78.14 77.72 77.28 76.94 76.86 76.74 75.41 76.08 75.03 74.66 75.00 76.62 77.47 77.17 77.80 78.09 77.41 77.95 77.08 77.97 77.55 76.34 75.74 74.73 74.35 73.20 72.30 71.30 70.69 69.71 70.91 70.34 72.61 73.51 72.73 75.37 75.32 75.90

GFSSE_sfc_wetblb_120.txt.gz
Wetbulb
70.75 72.50 76.00 77.26 77.82 77.91 77.82 77.84 77.80 77.76 77.27 77.92 77.87 78.20 78.16 78.40 78.06 78.22 78.18 78.52 78.18 78.30 78.53 78.10 77.95 77.85 77.85 78.18 78.29 77.67 77.47 77.43 76.72 75.67 75.87 75.91 76.38 76.46 76.52 77.05 75.67 73.28 75.66
72.36 74.29 77.59 78.53 78.96 78.37 78.14 77.66 77.62 77.73 77.39 77.47 78.30 78.29 78.24 78.32 77.91 77.91 77.97 78.32 78.22 78.00 78.64 78.56 77.60 77.56 77.86 77.83 78.08 76.86 76.52 76.99 77.03 76.86 76.20 76.48 76.61 76.93 76.92 77.37 76.99 75.41 76.27
73.56 75.15 76.63 78.73 79.15 78.55 78.35 77.80 77.73 77.63 77.45 77.20 78.04 78.44 78.33 78.00 77.84 77.91 78.45 78.60 78.50 78.52 78.10 77.34 77.53 77.41 77.68 77.31 77.79 77.43 76.79 77.31 77.26 77.46 78.32 74.66 74.73 76.85 77.01 76.13 75.57 75.86 76.46
74.81 74.97 75.71 78.86 79.45 79.25 78.95 78.47 78.13 78.20 77.59 77.67 77.74 78.12 78.59 78.18 78.12 78.22 77.90 78.50 78.45 78.68 77.89 76.90 76.87 77.03 77.49 77.39 77.08 77.19 77.29 76.72 76.66 77.02 75.41 72.58 72.48 75.86 75.39 75.11 74.70 75.96 75.27
74.90 75.75 77.31 79.46 79.56 79.15 79.16 79.01 78.56 78.49 78.34 78.31 78.02 77.68 78.34 78.23 78.08 78.18 78.18 77.94 78.31 78.35 77.67 77.12 76.78 76.86 77.13 77.17 77.19 76.08 75.78 75.34 75.11 75.01 74.58 70.86 70.12 74.23 75.89 76.32 75.82 75.66 76.62
74.93 76.74 78.71 79.71 79.71 79.27 78.90 78.80 78.58 78.55 78.55 78.45 78.22 78.08 78.19 78.48 78.38 78.31 77.77 77.52 77.38 77.34 77.36 77.14 76.81 76.92 77.31 76.68 76.41 75.81 76.14 75.97 75.18 74.39 73.27 72.94 70.67 76.18 76.40 76.32 75.55 75.16 74.40
76.11 76.72 77.87 79.43 79.30 79.34 79.16 79.10 78.84 78.58 78.78 78.77 78.39 77.84 78.36 78.33 78.51 78.24 77.60 77.40 77.56 77.69 77.42 77.39 77.03 76.67 76.61 76.46 76.29 75.90 75.86 75.59 75.13 74.20 74.74 72.41 74.09 76.92 76.32 75.80 74.42 75.57 75.88
76.22 75.81 77.08 78.84 79.33 79.46 79.25 78.75 78.86 78.80 78.55 78.45 78.45 78.03 77.60 78.36 78.48 78.29 78.08 77.35 76.72 76.86 77.12 77.56 76.92 76.72 76.28 76.54 75.61 75.55 75.61 75.34 76.39 74.22 74.07 74.88 76.75 77.44 76.63 75.81 75.24 74.57 74.19
75.60 76.02 76.78 76.77 78.07 78.83 79.13 79.00 78.72 78.68 78.11 78.51 78.37 78.24 78.32 78.11 77.57 77.75 78.20 77.93 76.99 76.91 76.55 76.22 76.61 76.31 76.11 76.24 75.44 75.84 76.51 77.20 75.37 74.54 73.46 73.70 76.29 76.48 75.58 75.27 75.76 75.97 75.61
74.93 75.21 75.81 76.81 77.17 76.81 76.90 78.72 78.61 78.57 78.47 77.81 78.02 77.86 77.51 77.03 77.09 77.19 77.63 77.61 76.85 76.68 76.33 76.36 76.42 76.66 76.59 76.21 75.88 76.58 77.02 76.85 74.72 74.19 74.00 74.19 76.61 76.26 75.10 73.90 74.06 74.94 74.38
74.98 74.76 75.64 76.24 76.78 77.19 77.25 77.64 78.61 78.26 77.90 77.53 77.42 77.64 77.82 75.69 75.97 76.28 77.07 77.32 76.83 76.63 76.47 76.60 76.93 77.44 77.43 76.52 76.17 76.95 76.73 74.42 74.13 72.97 72.18 76.76 76.93 76.97 76.44 75.55 74.72 74.50 74.27
73.74 74.16 74.82 75.36 75.75 76.32 74.84 77.58 77.00 76.95 76.52 76.89 76.88 77.08 76.89 76.90 76.01 76.12 76.91 76.91 76.68 76.51 76.75 76.92 77.43 76.85 76.28 74.81 74.84 76.19 74.78 73.68 74.32 71.88 72.35 76.68 77.32 77.21 77.58 76.49 75.68 74.89 73.89
74.64 74.66 75.11 74.63 75.26 75.07 74.98 75.78 75.81 75.94 76.58 77.04 76.70 77.52 76.39 76.48 75.33 76.92 76.09 75.52 75.23 75.35 75.01 75.86 76.16 75.49 74.03 74.34 73.86 72.81 72.97 73.18 72.96 73.34 73.79 76.65 76.94 77.68 77.46 76.86 76.08 75.14 74.63
73.71 74.95 75.35 75.69 75.34 75.08 76.30 75.53 76.09 75.60 75.96 75.63 75.88 77.06 76.67 75.71 73.59 76.18 76.29 76.00 76.43 75.10 73.75 73.95 74.37 73.65 72.78 73.27 73.09 73.06 72.84 73.17 71.81 74.66 74.19 76.36 76.16 76.88 77.05 76.95 76.39 75.42 75.00
73.48 74.70 75.55 76.31 76.33 75.84 77.75 76.25 75.65 75.74 76.01 75.84 75.36 77.55 77.31 78.40 76.42 74.32 76.46 76.06 75.77 75.53 74.22 74.54 74.65 73.76 73.74 74.20 74.19 74.35 74.10 74.16 73.78 74.86 75.06 77.11 76.88 76.76 77.19 76.97 76.93 75.84 76.06
74.33 75.09 76.08 77.44 76.70 77.33 76.95 77.89 76.98 76.42 73.24 76.47 76.00 76.72 76.98 75.15 77.69 75.46 75.91 75.10 73.66 74.52 74.30 75.20 75.18 74.98 74.83 74.12 72.94 73.61 73.45 74.68 74.34 74.98 75.86 76.18 76.68 77.16 77.35 77.63 77.27 76.91 76.50
75.04 75.92 75.98 76.81 77.92 77.77 77.77 77.55 78.13 76.66 75.01 76.51 76.28 77.16 75.64 76.06 74.66 75.20 74.91 74.79 74.60 75.35 74.82 76.48 75.82 75.00 74.99 75.34 72.72 72.25 74.32 75.04 74.57 75.72 74.31 74.35 75.15 77.46 77.21 77.66 77.65 77.29 77.41
75.70 75.84 76.75 76.21 77.27 77.74 77.78 77.46 77.00 75.70 75.81 76.15 76.65 77.40 75.68 75.18 76.36 75.91 75.25 74.93 75.97 75.20 74.40 75.68 74.17 74.23 74.04 73.19 72.62 72.33 72.61 73.30 75.17 74.87 75.95 75.55 76.28 75.59 76.80 77.41 77.56 77.39 77.53
77.14 76.89 77.57 77.15 77.26 77.17 77.17 78.38 77.93 77.98 77.85 74.89 76.15 77.45 76.49 75.35 76.07 75.22 74.57 74.04 76.12 75.13 74.07 73.62 72.88 73.62 72.79 72.01 71.93 72.39 72.98 73.74 73.96 73.70 74.62 75.10 76.40 74.78 74.95 76.08 77.19 76.73 77.47
77.23 76.62 77.60 77.45 76.73 77.71 77.67 77.59 76.54 76.35 76.08 75.74 75.79 75.69 77.50 76.50 75.80 75.47 75.16 74.05 75.37 74.12 73.26 72.36 73.21 73.31 72.62 71.49 70.89 70.63 71.19 72.08 73.04 73.73 74.01 74.60 74.77 75.44 75.59 75.99 75.18 75.48 77.02
77.30 77.47 76.94 76.60 76.52 76.38 75.71 75.16 75.20 73.28 74.58 74.91 75.21 77.88 76.82 76.01 76.59 76.35 74.43 76.34 75.39 73.85 73.93 72.63 73.06 73.84 72.48 73.16 71.56 70.68 72.13 72.10 72.38 72.23 72.46 72.23 73.48 75.67 75.51 75.78 75.57 75.14 75.48
76.55 77.67 77.50 77.16 77.74 76.69 75.72 76.15 75.70 75.15 74.63 74.95 75.64 76.33 76.63 76.39 76.34 76.17 74.91 74.77 75.31 74.13 76.57 75.95 74.83 71.57 71.93 72.77 69.71 70.05 67.18 69.05 71.26 71.57 71.84 72.63 72.90 75.01 74.37 75.13 75.92 76.01 75.20
75.53 77.50 77.52 77.04 76.58 77.27 76.83 76.30 76.24 76.09 75.70 73.53 73.94 75.00 76.44 76.45 76.06 75.96 75.36 74.41 76.11 75.30 74.06 74.96 75.35 74.16 70.10 71.00 72.49 69.00 65.88 64.17 67.95 70.23 71.19 71.68 72.90 71.84 72.77 74.80 75.55 76.16 77.05
73.44 75.93 78.15 76.61 74.88 76.73 76.45 75.42 74.95 73.04 72.28 73.35 73.59 74.15 75.57 77.09 76.31 76.27 76.15 74.93 75.73 75.16 74.06 73.16 73.88 72.46 71.02 70.56 71.77 70.40 69.57 71.73 67.16 66.93 70.64 73.40 72.45 69.67 67.85 73.54 75.54 76.39 76.38
73.37 77.23 77.68 77.44 77.56 76.69 76.43 75.08 74.62 74.00 73.25 75.08 74.52 74.54 74.20 75.10 75.78 76.11 75.84 76.25 74.68 75.65 74.82 74.63 73.66 73.03 71.18 71.13 71.28 72.42 70.09 71.54 72.17 69.27 66.57 69.32 71.23 69.19 68.90 73.75 75.18 69.15 70.64
71.36 73.63 77.07 77.35 77.59 77.06 76.57 75.94 74.43 73.68 73.12 73.04 74.15 73.17 73.75 74.46 74.76 75.55 75.89 75.49 75.93 74.98 74.64 75.56 75.30 74.77 73.53 73.01 72.71 72.07 70.70 70.63 70.10 69.70 68.18 68.71 69.00 71.59 73.13 74.83 73.33 72.45 73.46

GFSSE_sfc_wetblb_123.txt.gz
Wetbulb
70.74 74.06 77.36 77.89 78.22 78.25 77.94 77.68 77.40 77.85 77.83 78.36 78.31 78.57 78.38 78.58 78.54 78.82 78.62 78.73 78.13 78.19 78.77 77.76 77.78 77.79 77.85 77.95 78.00 77.71 77.29 76.74 77.10 75.88 76.50 76.22 75.76 76.36 77.39 76.19 75.53 74.52 76.71
70.83 73.59 78.06 78.47 78.43 78.08 77.76 77.51 77.42 78.09 77.37 78.00 78.36 78.32 78.35 78.39 78.61 78.62 78.61 78.75 78.67 78.57 77.94 77.83 77.84 77.25 78.04 77.38 76.92 77.24 76.51 76.93 76.94 76.89 76.93 77.18 76.60 76.27 76.63 76.35 75.56 75.27 75.70
70.75 74.51 76.68 78.63 78.85 78.09 77.74 77.70 77.61 77.36 77.63 77.97 78.78 78.38 78.16 78.26 78.66 78.79 78.83 78.39 77.55 78.54 78.71 77.92 77.87 77.62 77.63 77.38 77.27 75.66 76.01 77.01 77.27 76.29 76.77 74.65 74.47 76.83 76.45 76.24 75.78 75.21 76.25
73.08 74.66 76.44 78.69 79.03 78.61 78.51 78.37 77.95 77.97 77.61 78.23 78.76 78.39 78.17 78.22 78.86 78.99 78.43 78.70 78.78 77.62 77.29 77.29 77.51 77.89 77.32 77.30 77.35 77.12 76.41 76.34 76.71 78.01 73.60 73.06 74.31 75.97 75.43 75.93 76.48 75.88 76.08
73.31 74.69 77.01 79.35 79.26 78.09 78.21 78.50 78.33 78.57 78.18 78.26 78.43 78.42 78.20 78.62 78.95 78.75 78.25 77.70 78.13 77.97 77.21 77.02 77.07 77.39 77.12 76.95 76.91 76.63 76.54 76.52 75.41 74.87 71.00 68.57 70.49 74.66 74.82 75.08 74.87 74.54 75.35
73.12 75.83 78.81 79.67 79.40 78.91 78.20 78.57 78.67 78.51 78.31 78.24 78.27 78.54 78.35 78.65 78.86 78.81 78.03 78.05 77.91 77.35 77.40 77.24 77.29 77.65 76.75 76.16 76.41 76.46 76.53 75.30 75.44 72.95 69.58 72.25 72.74 76.65 76.38 76.71 76.42 76.19 76.04
75.02 76.89 78.05 79.55 79.52 79.16 79.26 78.79 78.72 78.49 78.38 78.52 78.26 78.42 78.73 78.78 79.06 78.66 77.89 77.63 77.88 77.77 77.51 77.37 77.02 77.22 76.25 76.00 75.80 75.06 76.12 74.96 74.70 73.39 70.51 72.33 74.51 76.99 75.76 75.43 75.55 74.71 74.08
75.21 76.69 77.25 79.03 79.50 79.37 78.81 78.55 78.58 77.74 78.04 78.08 78.46 78.55 78.69 78.86 78.82 78.51 77.86 77.21 77.19 77.41 77.93 77.35 77.31 76.59 76.03 75.97 75.71 75.44 75.96 75.44 75.74 72.98 72.43 73.16 76.36 77.18 76.09 74.40 74.81 75.16 74.54
75.47 75.85 76.30 77.00 77.12 78.49 78.91 78.75 78.80 78.53 78.43 78.21 78.51 78.34 78.57 78.47 77.73 77.90 77.97 77.68 77.11 77.51 77.04 76.66 76.67 76.98 75.92 76.27 76.11 75.60 75.96 76.75 74.43 72.99 74.12 75.05 76.89 77.15 76.00 75.34 75.05 74.83 74.24
74.49 75.16 75.55 75.55 75.70 76.41 76.65 79.05 79.10 78.80 78.25 77.81 77.46 77.35 77.52 77.42 77.45 77.47 78.04 78.12 77.16 77.23 76.97 76.37 76.20 76.51 75.95 75.94 75.79 75.96 76.47 76.26 73.36 72.46 72.52 73.83 76.78 76.11 75.16 75.20 75.82 75.51 76.22
73.39 73.69 74.62 74.83 74.70 74.87 75.54 76.51 78.47 78.26 77.77 77.67 77.21 77.15 77.43 74.11 74.50 75.54 76.59 76.61 76.79 76.73 76.34 76.81 76.28 76.68 76.37 76.14 76.27 76.52 76.41 73.76 72.68 72.57 72.14 75.67 76.28 76.33 74.99 74.30 74.79 74.65 74.49
71.22 72.53 73.65 74.19 74.12 74.43 76.25 75.23 75.25 75.39 75.08 74.52 74.82 74.93 74.33 73.20 73.20 75.04 76.29 77.30 76.41 77.00 76.70 76.77 77.44 76.58 76.21 74.16 73.53 76.12 73.86 73.01 72.90 70.79 73.16 77.11 77.15 77.47 75.98 75.45 75.41 74.88 74.46
71.35 72.64 73.08 73.49 73.89 73.73 74.54 75.08 74.98 74.39 74.09 74.35 74.10 74.38 74.38 74.39 73.73 74.06 74.15 74.05 73.41 75.70 74.08 75.81 75.78 74.92 73.78 73.14 72.13 71.98 72.97 71.57 71.72 69.99 73.22 77.11 77.33 77.89 77.02 76.28 75.95 75.02 74.27
70.76 71.77 72.57 72.96 73.01 72.42 74.00 73.41 73.40 73.77 73.98 74.32 73.51 74.73 73.74 72.34 71.94 72.08 73.35 73.51 72.89 72.11 72.65 73.46 73.62 73.65 72.66 71.99 71.61 70.93 70.30 70.87 72.06 71.98 73.18 76.73 77.39 77.91 77.44 76.48 75.95 75.15 74.95
70.73 71.44 71.52 72.36 72.15 71.91 72.45 72.20 72.89 73.02 73.58 73.68 73.43 74.38 73.78 72.37 70.09 72.47 73.17 73.78 73.94 73.56 72.16 72.08 72.70 71.84 70.89 71.17 71.20 71.05 70.92 71.46 72.35 72.83 73.46 76.88 76.85 77.49 78.08 76.62 75.90 75.29 75.00
71.64 71.53 72.02 72.00 71.95 73.21 72.93 72.43 73.03 73.04 72.81 73.10 72.74 73.45 74.23 74.03 73.27 72.60 72.95 73.21 73.97 73.75 73.21 72.77 72.56 71.56 71.52 71.40 70.92 70.75 70.46 71.36 73.83 73.19 72.96 75.20 76.99 76.93 77.25 77.53 76.63 76.02 75.96
71.56 72.48 72.84 72.75 73.04 73.83 73.36 74.20 73.94 73.49 73.69 73.94 73.12 74.53 74.99 73.63 74.94 73.15 73.22 72.53 72.65 73.01 72.53 72.61 72.86 72.42 72.04 72.73 69.31 69.54 70.00 70.96 72.74 73.28 73.61 73.24 75.01 77.38 77.46 77.71 77.45 77.28 77.04
71.29 72.49 73.83 75.00 73.13 74.32 72.96 73.93 73.76 73.56 72.64 73.76 73.75 74.95 74.30 74.08 73.45 73.85 72.96 72.51 73.31 73.03 72.62 72.67 71.81 71.25 71.18 70.58 70.03 68.44 69.31 69.60 70.17 72.86 74.42 72.81 73.97 75.42 76.98 77.33 77.39 77.42 77.54
71.57 72.76 73.61 74.64 73.79 74.58 74.35 73.74 72.94 74.08 72.69 74.14 74.28 74.95 73.88 73.70 74.03 73.50 73.19 72.84 72.57 72.57 71.81 71.55 70.87 70.61 70.26 69.98 70.13 69.47 68.78 69.32 68.95 71.38 71.82 72.36 73.84 74.19 73.73 76.78 77.14 77.06 77.82
72.91 73.77 73.23 73.75 75.01 74.77 74.03 74.24 74.02 73.24 72.59 71.84 73.66 75.03 73.96 73.11 74.48 72.64 73.14 71.89 72.49 72.06 71.04 70.69 69.20 70.80 70.47 70.17 70.52 69.30 67.72 68.40 69.31 70.08 70.38 72.93 72.81 74.26 73.70 73.80 75.30 75.55 77.29
73.39 73.28 74.85 72.97 74.62 74.69 73.31 72.47 71.87 72.13 71.32 71.25 71.30 74.47 74.45 73.32 74.10 72.79 72.84 72.32 72.58 72.25 71.64 70.85 70.83 69.50 70.18 70.10 68.59 66.02 67.90 68.14 68.26 69.03 69.51 69.53 70.87 72.56 72.87 73.48 73.65 73.29 73.93
73.97 73.60 73.76 73.66 74.61 74.19 74.07 73.18 72.67 72.96 71.40 71.22 71.61 73.93 75.35 74.52 73.93 72.93 72.46 71.62 72.54 72.09 71.28 71.08 69.98 68.80 69.52 68.84 65.42 65.44 62.74 65.19 68.43 69.32 69.65 69.40 68.70 70.68 73.14 73.84 73.90 73.24 73.02
72.79 73.66 74.11 74.43 74.82 74.16 73.54 73.22 73.05 73.24 71.91 70.84 71.39 71.50 74.08 73.95 73.77 73.10 72.92 71.04 71.93 71.02 70.84 71.25 70.53 68.94 65.74 67.07 67.34 64.06 60.69 60.56 63.18 66.24 68.60 69.08 68.33 68.94 70.29 71.35 73.85 73.74 73.51
69.80 72.68 74.62 74.60 75.67 74.67 74.66 72.80 72.00 71.74 70.89 71.30 71.27 72.00 73.35 74.18 73.88 73.88 73.11 72.00 71.27 72.42 70.71 71.42 71.16 70.36 68.64 66.78 67.40 68.42 65.92 65.76 62.45 62.43 66.51 68.22 69.45 68.70 67.35 67.25 72.00 72.76 73.80
69.52 75.33 74.67 73.91 72.83 73.07 73.45 72.19 72.15 71.32 72.02 71.89 70.82 70.00 71.06 73.70 74.17 74.01 73.51 72.48 71.05 72.21 71.77 71.40 70.08 70.37 70.25 67.95 68.67 68.43 66.21 65.38 66.15 64.58 62.30 65.21 68.38 67.96 66.72 65.64 69.84 69.99 71.62
67.58 70.83 73.69 72.72 72.54 73.25 72.57 72.44 70.84 70.05 70.65 70.32 70.92 70.77 71.26 72.04 73.55 73.79 73.84 73.60 72.20 71.96 71.75 72.00 71.40 70.66 70.27 68.74 68.56 69.14 68.41 66.22 66.31 66.22 64.63 64.96 65.56 67.91 69.60 69.52 71.26 69.49 70.77